<?xml version="1.0" encoding="UTF-8" standalone="no" ?>
<gpx xmlns="http://www.topografix.com/GPX/1/1" xmlns:xsi="http://www.w3.org/2001/XMLSchema-instance" xsi:schemaLocation="http://www.topografix.com/GPX/1/1 http://www.topografix.com/GPX/1/1/gpx.xsd" version="1.1" creator="VisuGPX - https://www.visugpx.com">
  <metadata>
    <name>025SG75-8102673</name>
    <desc><![CDATA[
02]]></desc>
  </metadata>
  <trk>
    <name><![CDATA[025SG75-8102673]]></name>
    <trkseg>
      <trkpt lat="46.69873" lon="-1.93392">
        <ele>5</ele>
        <time>2018-03-14T21:26:56Z</time>
      </trkpt>
      <trkpt lat="46.69824" lon="-1.93411">
        <ele>5</ele>
        <time>2018-03-14T21:27:56Z</time>
      </trkpt>
      <trkpt lat="46.69806" lon="-1.93419">
        <ele>5</ele>
        <time>2018-03-14T21:28:56Z</time>
      </trkpt>
      <trkpt lat="46.69798" lon="-1.93421">
        <ele>5</ele>
        <time>2018-03-14T21:29:56Z</time>
      </trkpt>
      <trkpt lat="46.69797" lon="-1.93421">
        <ele>5</ele>
        <time>2018-03-14T21:30:56Z</time>
      </trkpt>
      <trkpt lat="46.69793" lon="-1.9342">
        <ele>5</ele>
        <time>2018-03-14T21:31:56Z</time>
      </trkpt>
      <trkpt lat="46.69793" lon="-1.93421">
        <ele>5</ele>
        <time>2018-03-14T21:32:56Z</time>
      </trkpt>
      <trkpt lat="46.69793" lon="-1.93422">
        <ele>5</ele>
        <time>2018-03-14T21:33:56Z</time>
      </trkpt>
      <trkpt lat="46.69793" lon="-1.93423">
        <ele>5</ele>
        <time>2018-03-14T21:34:56Z</time>
      </trkpt>
      <trkpt lat="46.69793" lon="-1.93424">
        <ele>5</ele>
        <time>2018-03-14T21:35:56Z</time>
      </trkpt>
      <trkpt lat="46.69792" lon="-1.93425">
        <ele>5</ele>
        <time>2018-03-14T21:36:56Z</time>
      </trkpt>
      <trkpt lat="46.69792" lon="-1.93426">
        <ele>5</ele>
        <time>2018-03-14T21:37:56Z</time>
      </trkpt>
      <trkpt lat="46.69791" lon="-1.93426">
        <ele>5</ele>
        <time>2018-03-14T21:38:56Z</time>
      </trkpt>
      <trkpt lat="46.69791" lon="-1.93427">
        <ele>5</ele>
        <time>2018-03-14T21:39:56Z</time>
      </trkpt>
      <trkpt lat="46.6979" lon="-1.93427">
        <ele>5</ele>
        <time>2018-03-14T21:40:56Z</time>
      </trkpt>
      <trkpt lat="46.6979" lon="-1.93428">
        <ele>5</ele>
        <time>2018-03-14T21:41:56Z</time>
      </trkpt>
      <trkpt lat="46.69789" lon="-1.93428">
        <ele>5</ele>
        <time>2018-03-14T21:42:56Z</time>
      </trkpt>
      <trkpt lat="46.69788" lon="-1.93428">
        <ele>5</ele>
        <time>2018-03-14T21:43:56Z</time>
      </trkpt>
      <trkpt lat="46.69788" lon="-1.93427">
        <ele>5</ele>
        <time>2018-03-14T21:44:56Z</time>
      </trkpt>
      <trkpt lat="46.69787" lon="-1.93427">
        <ele>5</ele>
        <time>2018-03-14T21:45:56Z</time>
      </trkpt>
      <trkpt lat="46.69787" lon="-1.93426">
        <ele>5</ele>
        <time>2018-03-14T21:46:56Z</time>
      </trkpt>
      <trkpt lat="46.69786" lon="-1.93426">
        <ele>5</ele>
        <time>2018-03-14T21:47:56Z</time>
      </trkpt>
      <trkpt lat="46.69786" lon="-1.93425">
        <ele>5</ele>
        <time>2018-03-14T21:48:56Z</time>
      </trkpt>
      <trkpt lat="46.69786" lon="-1.93424">
        <ele>5</ele>
        <time>2018-03-14T21:49:56Z</time>
      </trkpt>
      <trkpt lat="46.69785" lon="-1.93424">
        <ele>5</ele>
        <time>2018-03-14T21:50:56Z</time>
      </trkpt>
      <trkpt lat="46.69785" lon="-1.93423">
        <ele>5</ele>
        <time>2018-03-14T21:51:56Z</time>
      </trkpt>
      <trkpt lat="46.69785" lon="-1.93422">
        <ele>5</ele>
        <time>2018-03-14T21:52:56Z</time>
      </trkpt>
      <trkpt lat="46.69779" lon="-1.9342">
        <ele>5</ele>
        <time>2018-03-14T21:53:56Z</time>
      </trkpt>
      <trkpt lat="46.69776" lon="-1.9342">
        <ele>5</ele>
        <time>2018-03-14T21:54:56Z</time>
      </trkpt>
      <trkpt lat="46.69772" lon="-1.9342">
        <ele>5</ele>
        <time>2018-03-14T21:55:56Z</time>
      </trkpt>
      <trkpt lat="46.69762" lon="-1.93423">
        <ele>5</ele>
        <time>2018-03-14T21:56:56Z</time>
      </trkpt>
      <trkpt lat="46.69759" lon="-1.93424">
        <ele>5</ele>
        <time>2018-03-14T21:57:56Z</time>
      </trkpt>
      <trkpt lat="46.69721" lon="-1.93434">
        <ele>5</ele>
        <time>2018-03-14T21:58:56Z</time>
      </trkpt>
      <trkpt lat="46.69714" lon="-1.93435">
        <ele>5</ele>
        <time>2018-03-14T21:59:56Z</time>
      </trkpt>
      <trkpt lat="46.69697" lon="-1.93436">
        <ele>5</ele>
        <time>2018-03-14T22:00:56Z</time>
      </trkpt>
      <trkpt lat="46.69685" lon="-1.93435">
        <ele>5</ele>
        <time>2018-03-14T22:01:56Z</time>
      </trkpt>
      <trkpt lat="46.69633" lon="-1.93423">
        <ele>5</ele>
        <time>2018-03-14T22:02:56Z</time>
      </trkpt>
      <trkpt lat="46.69633" lon="-1.93423">
        <ele>5</ele>
        <time>2018-03-14T22:03:56Z</time>
      </trkpt>
      <trkpt lat="46.69633" lon="-1.93424">
        <ele>4</ele>
        <time>2018-03-14T22:04:56Z</time>
      </trkpt>
      <trkpt lat="46.69633" lon="-1.93425">
        <ele>4</ele>
        <time>2018-03-14T22:05:56Z</time>
      </trkpt>
      <trkpt lat="46.69633" lon="-1.93426">
        <ele>4</ele>
        <time>2018-03-14T22:06:56Z</time>
      </trkpt>
      <trkpt lat="46.69633" lon="-1.93427">
        <ele>4</ele>
        <time>2018-03-14T22:07:56Z</time>
      </trkpt>
      <trkpt lat="46.69633" lon="-1.93428">
        <ele>4</ele>
        <time>2018-03-14T22:08:56Z</time>
      </trkpt>
      <trkpt lat="46.69633" lon="-1.93429">
        <ele>4</ele>
        <time>2018-03-14T22:09:56Z</time>
      </trkpt>
      <trkpt lat="46.69633" lon="-1.9343">
        <ele>4</ele>
        <time>2018-03-14T22:10:56Z</time>
      </trkpt>
      <trkpt lat="46.69632" lon="-1.9343">
        <ele>4</ele>
        <time>2018-03-14T22:11:56Z</time>
      </trkpt>
      <trkpt lat="46.69632" lon="-1.93431">
        <ele>4</ele>
        <time>2018-03-14T22:12:56Z</time>
      </trkpt>
      <trkpt lat="46.69632" lon="-1.93432">
        <ele>4</ele>
        <time>2018-03-14T22:13:56Z</time>
      </trkpt>
      <trkpt lat="46.69631" lon="-1.93432">
        <ele>4</ele>
        <time>2018-03-14T22:14:56Z</time>
      </trkpt>
      <trkpt lat="46.69631" lon="-1.93433">
        <ele>4</ele>
        <time>2018-03-14T22:15:56Z</time>
      </trkpt>
      <trkpt lat="46.69631" lon="-1.93434">
        <ele>4</ele>
        <time>2018-03-14T22:16:56Z</time>
      </trkpt>
      <trkpt lat="46.6963" lon="-1.93434">
        <ele>4</ele>
        <time>2018-03-14T22:17:56Z</time>
      </trkpt>
      <trkpt lat="46.6963" lon="-1.93435">
        <ele>4</ele>
        <time>2018-03-14T22:18:56Z</time>
      </trkpt>
      <trkpt lat="46.69629" lon="-1.93435">
        <ele>4</ele>
        <time>2018-03-14T22:19:56Z</time>
      </trkpt>
      <trkpt lat="46.69629" lon="-1.93436">
        <ele>4</ele>
        <time>2018-03-14T22:20:56Z</time>
      </trkpt>
      <trkpt lat="46.69628" lon="-1.93436">
        <ele>4</ele>
        <time>2018-03-14T22:21:56Z</time>
      </trkpt>
      <trkpt lat="46.69627" lon="-1.93436">
        <ele>4</ele>
        <time>2018-03-14T22:22:56Z</time>
      </trkpt>
      <trkpt lat="46.69627" lon="-1.93437">
        <ele>4</ele>
        <time>2018-03-14T22:23:56Z</time>
      </trkpt>
      <trkpt lat="46.69626" lon="-1.93437">
        <ele>4</ele>
        <time>2018-03-14T22:24:56Z</time>
      </trkpt>
      <trkpt lat="46.69625" lon="-1.93437">
        <ele>4</ele>
        <time>2018-03-14T22:25:56Z</time>
      </trkpt>
      <trkpt lat="46.69624" lon="-1.93437">
        <ele>4</ele>
        <time>2018-03-14T22:26:56Z</time>
      </trkpt>
      <trkpt lat="46.69623" lon="-1.93437">
        <ele>4</ele>
        <time>2018-03-14T22:27:56Z</time>
      </trkpt>
      <trkpt lat="46.69622" lon="-1.93436">
        <ele>4</ele>
        <time>2018-03-14T22:28:56Z</time>
      </trkpt>
      <trkpt lat="46.69621" lon="-1.93436">
        <ele>4</ele>
        <time>2018-03-14T22:29:56Z</time>
      </trkpt>
      <trkpt lat="46.6962" lon="-1.93435">
        <ele>4</ele>
        <time>2018-03-14T22:30:56Z</time>
      </trkpt>
      <trkpt lat="46.69619" lon="-1.93434">
        <ele>4</ele>
        <time>2018-03-14T22:31:56Z</time>
      </trkpt>
      <trkpt lat="46.69619" lon="-1.93433">
        <ele>4</ele>
        <time>2018-03-14T22:32:56Z</time>
      </trkpt>
      <trkpt lat="46.69618" lon="-1.93433">
        <ele>4</ele>
        <time>2018-03-14T22:33:56Z</time>
      </trkpt>
      <trkpt lat="46.69618" lon="-1.93432">
        <ele>4</ele>
        <time>2018-03-14T22:34:56Z</time>
      </trkpt>
      <trkpt lat="46.69618" lon="-1.93431">
        <ele>4</ele>
        <time>2018-03-14T22:35:56Z</time>
      </trkpt>
      <trkpt lat="46.69617" lon="-1.93431">
        <ele>4</ele>
        <time>2018-03-14T22:36:56Z</time>
      </trkpt>
      <trkpt lat="46.69617" lon="-1.9343">
        <ele>4</ele>
        <time>2018-03-14T22:37:56Z</time>
      </trkpt>
      <trkpt lat="46.69617" lon="-1.93429">
        <ele>4</ele>
        <time>2018-03-14T22:38:56Z</time>
      </trkpt>
      <trkpt lat="46.69617" lon="-1.93428">
        <ele>4</ele>
        <time>2018-03-14T22:39:56Z</time>
      </trkpt>
      <trkpt lat="46.69616" lon="-1.93428">
        <ele>4</ele>
        <time>2018-03-14T22:40:56Z</time>
      </trkpt>
      <trkpt lat="46.69616" lon="-1.93427">
        <ele>4</ele>
        <time>2018-03-14T22:41:56Z</time>
      </trkpt>
      <trkpt lat="46.69616" lon="-1.93426">
        <ele>4</ele>
        <time>2018-03-14T22:42:56Z</time>
      </trkpt>
      <trkpt lat="46.69616" lon="-1.93425">
        <ele>4</ele>
        <time>2018-03-14T22:43:56Z</time>
      </trkpt>
      <trkpt lat="46.69616" lon="-1.93424">
        <ele>4</ele>
        <time>2018-03-14T22:44:56Z</time>
      </trkpt>
      <trkpt lat="46.69616" lon="-1.93423">
        <ele>4</ele>
        <time>2018-03-14T22:45:56Z</time>
      </trkpt>
      <trkpt lat="46.69616" lon="-1.93422">
        <ele>4</ele>
        <time>2018-03-14T22:46:56Z</time>
      </trkpt>
      <trkpt lat="46.69616" lon="-1.93421">
        <ele>4</ele>
        <time>2018-03-14T22:47:56Z</time>
      </trkpt>
      <trkpt lat="46.69617" lon="-1.93421">
        <ele>4</ele>
        <time>2018-03-14T22:48:56Z</time>
      </trkpt>
      <trkpt lat="46.69617" lon="-1.9342">
        <ele>4</ele>
        <time>2018-03-14T22:49:56Z</time>
      </trkpt>
      <trkpt lat="46.69607" lon="-1.93416">
        <ele>4</ele>
        <time>2018-03-14T22:50:56Z</time>
      </trkpt>
      <trkpt lat="46.69587" lon="-1.93404">
        <ele>4</ele>
        <time>2018-03-14T22:51:56Z</time>
      </trkpt>
      <trkpt lat="46.69551" lon="-1.93388">
        <ele>4</ele>
        <time>2018-03-14T22:52:56Z</time>
      </trkpt>
      <trkpt lat="46.69518" lon="-1.93374">
        <ele>4</ele>
        <time>2018-03-14T22:53:56Z</time>
      </trkpt>
      <trkpt lat="46.69507" lon="-1.9337">
        <ele>4</ele>
        <time>2018-03-14T22:54:56Z</time>
      </trkpt>
      <trkpt lat="46.69503" lon="-1.93368">
        <ele>4</ele>
        <time>2018-03-14T22:55:56Z</time>
      </trkpt>
      <trkpt lat="46.69498" lon="-1.93366">
        <ele>4</ele>
        <time>2018-03-14T22:56:56Z</time>
      </trkpt>
      <trkpt lat="46.6946" lon="-1.93349">
        <ele>4</ele>
        <time>2018-03-14T22:57:56Z</time>
      </trkpt>
      <trkpt lat="46.69431" lon="-1.93336">
        <ele>4</ele>
        <time>2018-03-14T22:58:56Z</time>
      </trkpt>
      <trkpt lat="46.69426" lon="-1.93334">
        <ele>4</ele>
        <time>2018-03-14T22:59:56Z</time>
      </trkpt>
      <trkpt lat="46.69421" lon="-1.93333">
        <ele>4</ele>
        <time>2018-03-14T23:00:56Z</time>
      </trkpt>
      <trkpt lat="46.69416" lon="-1.93331">
        <ele>4</ele>
        <time>2018-03-14T23:01:56Z</time>
      </trkpt>
      <trkpt lat="46.69405" lon="-1.9333">
        <ele>4</ele>
        <time>2018-03-14T23:02:56Z</time>
      </trkpt>
      <trkpt lat="46.69394" lon="-1.93333">
        <ele>4</ele>
        <time>2018-03-14T23:03:56Z</time>
      </trkpt>
      <trkpt lat="46.69394" lon="-1.93333">
        <ele>4</ele>
        <time>2018-03-14T23:04:56Z</time>
      </trkpt>
      <trkpt lat="46.69394" lon="-1.93334">
        <ele>4</ele>
        <time>2018-03-14T23:05:56Z</time>
      </trkpt>
      <trkpt lat="46.69394" lon="-1.93335">
        <ele>4</ele>
        <time>2018-03-14T23:06:56Z</time>
      </trkpt>
      <trkpt lat="46.69393" lon="-1.93335">
        <ele>4</ele>
        <time>2018-03-14T23:07:56Z</time>
      </trkpt>
      <trkpt lat="46.69393" lon="-1.93336">
        <ele>4</ele>
        <time>2018-03-14T23:08:56Z</time>
      </trkpt>
      <trkpt lat="46.69392" lon="-1.93336">
        <ele>4</ele>
        <time>2018-03-14T23:09:56Z</time>
      </trkpt>
      <trkpt lat="46.69392" lon="-1.93337">
        <ele>4</ele>
        <time>2018-03-14T23:10:56Z</time>
      </trkpt>
      <trkpt lat="46.69391" lon="-1.93337">
        <ele>4</ele>
        <time>2018-03-14T23:11:56Z</time>
      </trkpt>
      <trkpt lat="46.6939" lon="-1.93338">
        <ele>4</ele>
        <time>2018-03-14T23:12:56Z</time>
      </trkpt>
      <trkpt lat="46.69389" lon="-1.93338">
        <ele>4</ele>
        <time>2018-03-14T23:13:56Z</time>
      </trkpt>
      <trkpt lat="46.69388" lon="-1.93338">
        <ele>4</ele>
        <time>2018-03-14T23:14:56Z</time>
      </trkpt>
      <trkpt lat="46.69387" lon="-1.93338">
        <ele>4</ele>
        <time>2018-03-14T23:15:56Z</time>
      </trkpt>
      <trkpt lat="46.69386" lon="-1.93338">
        <ele>4</ele>
        <time>2018-03-14T23:16:56Z</time>
      </trkpt>
      <trkpt lat="46.69385" lon="-1.93338">
        <ele>4</ele>
        <time>2018-03-14T23:17:56Z</time>
      </trkpt>
      <trkpt lat="46.69384" lon="-1.93338">
        <ele>4</ele>
        <time>2018-03-14T23:18:56Z</time>
      </trkpt>
      <trkpt lat="46.69384" lon="-1.93337">
        <ele>4</ele>
        <time>2018-03-14T23:19:56Z</time>
      </trkpt>
      <trkpt lat="46.69383" lon="-1.93337">
        <ele>4</ele>
        <time>2018-03-14T23:20:56Z</time>
      </trkpt>
      <trkpt lat="46.69383" lon="-1.93336">
        <ele>4</ele>
        <time>2018-03-14T23:21:56Z</time>
      </trkpt>
      <trkpt lat="46.69382" lon="-1.93336">
        <ele>4</ele>
        <time>2018-03-14T23:22:56Z</time>
      </trkpt>
      <trkpt lat="46.69382" lon="-1.93335">
        <ele>4</ele>
        <time>2018-03-14T23:23:56Z</time>
      </trkpt>
      <trkpt lat="46.69381" lon="-1.93335">
        <ele>4</ele>
        <time>2018-03-14T23:24:56Z</time>
      </trkpt>
      <trkpt lat="46.69381" lon="-1.93334">
        <ele>4</ele>
        <time>2018-03-14T23:25:56Z</time>
      </trkpt>
      <trkpt lat="46.6938" lon="-1.93333">
        <ele>4</ele>
        <time>2018-03-14T23:26:56Z</time>
      </trkpt>
      <trkpt lat="46.6938" lon="-1.93332">
        <ele>4</ele>
        <time>2018-03-14T23:27:56Z</time>
      </trkpt>
      <trkpt lat="46.69379" lon="-1.93332">
        <ele>4</ele>
        <time>2018-03-14T23:28:56Z</time>
      </trkpt>
      <trkpt lat="46.69379" lon="-1.93331">
        <ele>4</ele>
        <time>2018-03-14T23:29:56Z</time>
      </trkpt>
      <trkpt lat="46.69379" lon="-1.9333">
        <ele>4</ele>
        <time>2018-03-14T23:30:56Z</time>
      </trkpt>
      <trkpt lat="46.69379" lon="-1.93329">
        <ele>4</ele>
        <time>2018-03-14T23:31:56Z</time>
      </trkpt>
      <trkpt lat="46.69376" lon="-1.93327">
        <ele>4</ele>
        <time>2018-03-14T23:32:56Z</time>
      </trkpt>
      <trkpt lat="46.69367" lon="-1.93325">
        <ele>4</ele>
        <time>2018-03-14T23:33:56Z</time>
      </trkpt>
      <trkpt lat="46.69363" lon="-1.93325">
        <ele>4</ele>
        <time>2018-03-14T23:34:56Z</time>
      </trkpt>
      <trkpt lat="46.69356" lon="-1.93325">
        <ele>4</ele>
        <time>2018-03-14T23:35:56Z</time>
      </trkpt>
      <trkpt lat="46.69353" lon="-1.93324">
        <ele>4</ele>
        <time>2018-03-14T23:36:56Z</time>
      </trkpt>
      <trkpt lat="46.69315" lon="-1.93317">
        <ele>4</ele>
        <time>2018-03-14T23:37:56Z</time>
      </trkpt>
      <trkpt lat="46.69286" lon="-1.93313">
        <ele>4</ele>
        <time>2018-03-14T23:38:56Z</time>
      </trkpt>
      <trkpt lat="46.6924" lon="-1.93303">
        <ele>3</ele>
        <time>2018-03-14T23:39:56Z</time>
      </trkpt>
      <trkpt lat="46.69218" lon="-1.933">
        <ele>3</ele>
        <time>2018-03-14T23:40:56Z</time>
      </trkpt>
      <trkpt lat="46.69217" lon="-1.933">
        <ele>3</ele>
        <time>2018-03-14T23:41:56Z</time>
      </trkpt>
      <trkpt lat="46.69209" lon="-1.93298">
        <ele>3</ele>
        <time>2018-03-14T23:42:56Z</time>
      </trkpt>
      <trkpt lat="46.69203" lon="-1.93298">
        <ele>3</ele>
        <time>2018-03-14T23:43:56Z</time>
      </trkpt>
      <trkpt lat="46.69197" lon="-1.93299">
        <ele>3</ele>
        <time>2018-03-14T23:44:56Z</time>
      </trkpt>
      <trkpt lat="46.69182" lon="-1.93301">
        <ele>3</ele>
        <time>2018-03-14T23:45:56Z</time>
      </trkpt>
      <trkpt lat="46.69182" lon="-1.93301">
        <ele>3</ele>
        <time>2018-03-14T23:46:56Z</time>
      </trkpt>
      <trkpt lat="46.6918" lon="-1.93305">
        <ele>3</ele>
        <time>2018-03-14T23:47:56Z</time>
      </trkpt>
      <trkpt lat="46.69177" lon="-1.93307">
        <ele>3</ele>
        <time>2018-03-14T23:48:56Z</time>
      </trkpt>
      <trkpt lat="46.69173" lon="-1.93307">
        <ele>3</ele>
        <time>2018-03-14T23:49:56Z</time>
      </trkpt>
      <trkpt lat="46.69169" lon="-1.93306">
        <ele>3</ele>
        <time>2018-03-14T23:50:56Z</time>
      </trkpt>
      <trkpt lat="46.69167" lon="-1.93304">
        <ele>3</ele>
        <time>2018-03-14T23:51:56Z</time>
      </trkpt>
      <trkpt lat="46.69165" lon="-1.93301">
        <ele>3</ele>
        <time>2018-03-14T23:52:56Z</time>
      </trkpt>
      <trkpt lat="46.69164" lon="-1.93298">
        <ele>3</ele>
        <time>2018-03-14T23:53:56Z</time>
      </trkpt>
      <trkpt lat="46.69163" lon="-1.93296">
        <ele>3</ele>
        <time>2018-03-14T23:54:56Z</time>
      </trkpt>
      <trkpt lat="46.69163" lon="-1.93293">
        <ele>2</ele>
        <time>2018-03-14T23:55:56Z</time>
      </trkpt>
      <trkpt lat="46.69163" lon="-1.93289">
        <ele>2</ele>
        <time>2018-03-14T23:56:56Z</time>
      </trkpt>
      <trkpt lat="46.69165" lon="-1.93285">
        <ele>2</ele>
        <time>2018-03-14T23:57:56Z</time>
      </trkpt>
      <trkpt lat="46.69169" lon="-1.9328">
        <ele>2</ele>
        <time>2018-03-14T23:58:56Z</time>
      </trkpt>
      <trkpt lat="46.69166" lon="-1.93273">
        <ele>2</ele>
        <time>2018-03-14T23:59:56Z</time>
      </trkpt>
      <trkpt lat="46.69166" lon="-1.93263">
        <ele>2</ele>
        <time>2018-03-15T00:00:56Z</time>
      </trkpt>
      <trkpt lat="46.69167" lon="-1.93252">
        <ele>2</ele>
        <time>2018-03-15T00:01:56Z</time>
      </trkpt>
      <trkpt lat="46.69169" lon="-1.93244">
        <ele>2</ele>
        <time>2018-03-15T00:02:56Z</time>
      </trkpt>
      <trkpt lat="46.69177" lon="-1.93193">
        <ele>4</ele>
        <time>2018-03-15T00:03:56Z</time>
      </trkpt>
      <trkpt lat="46.69179" lon="-1.9318">
        <ele>4</ele>
        <time>2018-03-15T00:04:56Z</time>
      </trkpt>
      <trkpt lat="46.69182" lon="-1.93159">
        <ele>4</ele>
        <time>2018-03-15T00:05:56Z</time>
      </trkpt>
      <trkpt lat="46.69183" lon="-1.9315">
        <ele>4</ele>
        <time>2018-03-15T00:06:56Z</time>
      </trkpt>
      <trkpt lat="46.69186" lon="-1.93138">
        <ele>4</ele>
        <time>2018-03-15T00:07:56Z</time>
      </trkpt>
      <trkpt lat="46.69187" lon="-1.93134">
        <ele>4</ele>
        <time>2018-03-15T00:08:56Z</time>
      </trkpt>
      <trkpt lat="46.6919" lon="-1.93125">
        <ele>4</ele>
        <time>2018-03-15T00:09:56Z</time>
      </trkpt>
      <trkpt lat="46.69194" lon="-1.93117">
        <ele>4</ele>
        <time>2018-03-15T00:10:56Z</time>
      </trkpt>
      <trkpt lat="46.69201" lon="-1.93103">
        <ele>4</ele>
        <time>2018-03-15T00:11:56Z</time>
      </trkpt>
      <trkpt lat="46.6921" lon="-1.93085">
        <ele>5</ele>
        <time>2018-03-15T00:12:56Z</time>
      </trkpt>
      <trkpt lat="46.69219" lon="-1.93065">
        <ele>5</ele>
        <time>2018-03-15T00:13:56Z</time>
      </trkpt>
      <trkpt lat="46.69224" lon="-1.93053">
        <ele>5</ele>
        <time>2018-03-15T00:14:56Z</time>
      </trkpt>
      <trkpt lat="46.69224" lon="-1.93053">
        <ele>5</ele>
        <time>2018-03-15T00:15:56Z</time>
      </trkpt>
      <trkpt lat="46.69217" lon="-1.93046">
        <ele>5</ele>
        <time>2018-03-15T00:16:56Z</time>
      </trkpt>
      <trkpt lat="46.69194" lon="-1.93026">
        <ele>5</ele>
        <time>2018-03-15T00:17:56Z</time>
      </trkpt>
      <trkpt lat="46.69175" lon="-1.93009">
        <ele>4</ele>
        <time>2018-03-15T00:18:56Z</time>
      </trkpt>
      <trkpt lat="46.6917" lon="-1.93005">
        <ele>4</ele>
        <time>2018-03-15T00:19:56Z</time>
      </trkpt>
      <trkpt lat="46.69154" lon="-1.92991">
        <ele>4</ele>
        <time>2018-03-15T00:20:56Z</time>
      </trkpt>
      <trkpt lat="46.69133" lon="-1.92971">
        <ele>4</ele>
        <time>2018-03-15T00:21:56Z</time>
      </trkpt>
      <trkpt lat="46.69107" lon="-1.92948">
        <ele>4</ele>
        <time>2018-03-15T00:22:56Z</time>
      </trkpt>
      <trkpt lat="46.69095" lon="-1.92938">
        <ele>4</ele>
        <time>2018-03-15T00:23:56Z</time>
      </trkpt>
      <trkpt lat="46.69068" lon="-1.92907">
        <ele>4</ele>
        <time>2018-03-15T00:24:56Z</time>
      </trkpt>
      <trkpt lat="46.69055" lon="-1.9289">
        <ele>4</ele>
        <time>2018-03-15T00:25:56Z</time>
      </trkpt>
      <trkpt lat="46.69038" lon="-1.92867">
        <ele>4</ele>
        <time>2018-03-15T00:26:56Z</time>
      </trkpt>
      <trkpt lat="46.69014" lon="-1.92836">
        <ele>4</ele>
        <time>2018-03-15T00:27:56Z</time>
      </trkpt>
      <trkpt lat="46.68993" lon="-1.92806">
        <ele>4</ele>
        <time>2018-03-15T00:28:56Z</time>
      </trkpt>
      <trkpt lat="46.68992" lon="-1.92805">
        <ele>4</ele>
        <time>2018-03-15T00:29:56Z</time>
      </trkpt>
      <trkpt lat="46.68977" lon="-1.92784">
        <ele>4</ele>
        <time>2018-03-15T00:30:56Z</time>
      </trkpt>
      <trkpt lat="46.68969" lon="-1.92774">
        <ele>4</ele>
        <time>2018-03-15T00:31:56Z</time>
      </trkpt>
      <trkpt lat="46.68965" lon="-1.92769">
        <ele>4</ele>
        <time>2018-03-15T00:32:56Z</time>
      </trkpt>
      <trkpt lat="46.68955" lon="-1.92755">
        <ele>4</ele>
        <time>2018-03-15T00:33:56Z</time>
      </trkpt>
      <trkpt lat="46.68947" lon="-1.92747">
        <ele>4</ele>
        <time>2018-03-15T00:34:56Z</time>
      </trkpt>
      <trkpt lat="46.68936" lon="-1.92737">
        <ele>4</ele>
        <time>2018-03-15T00:35:56Z</time>
      </trkpt>
      <trkpt lat="46.68926" lon="-1.9273">
        <ele>4</ele>
        <time>2018-03-15T00:36:56Z</time>
      </trkpt>
      <trkpt lat="46.68913" lon="-1.92723">
        <ele>4</ele>
        <time>2018-03-15T00:37:56Z</time>
      </trkpt>
      <trkpt lat="46.68897" lon="-1.92716">
        <ele>4</ele>
        <time>2018-03-15T00:38:56Z</time>
      </trkpt>
      <trkpt lat="46.68881" lon="-1.92711">
        <ele>5</ele>
        <time>2018-03-15T00:39:56Z</time>
      </trkpt>
      <trkpt lat="46.68869" lon="-1.92706">
        <ele>5</ele>
        <time>2018-03-15T00:40:56Z</time>
      </trkpt>
      <trkpt lat="46.6886" lon="-1.92704">
        <ele>6</ele>
        <time>2018-03-15T00:41:56Z</time>
      </trkpt>
      <trkpt lat="46.68859" lon="-1.92704">
        <ele>6</ele>
        <time>2018-03-15T00:42:56Z</time>
      </trkpt>
      <trkpt lat="46.68851" lon="-1.92698">
        <ele>6</ele>
        <time>2018-03-15T00:43:56Z</time>
      </trkpt>
      <trkpt lat="46.68851" lon="-1.92698">
        <ele>6</ele>
        <time>2018-03-15T00:44:56Z</time>
      </trkpt>
      <trkpt lat="46.68851" lon="-1.92699">
        <ele>6</ele>
        <time>2018-03-15T00:45:56Z</time>
      </trkpt>
      <trkpt lat="46.6885" lon="-1.92699">
        <ele>6</ele>
        <time>2018-03-15T00:46:56Z</time>
      </trkpt>
      <trkpt lat="46.68849" lon="-1.927">
        <ele>6</ele>
        <time>2018-03-15T00:47:56Z</time>
      </trkpt>
      <trkpt lat="46.68848" lon="-1.927">
        <ele>6</ele>
        <time>2018-03-15T00:48:56Z</time>
      </trkpt>
      <trkpt lat="46.68848" lon="-1.92701">
        <ele>6</ele>
        <time>2018-03-15T00:49:56Z</time>
      </trkpt>
      <trkpt lat="46.68847" lon="-1.92701">
        <ele>6</ele>
        <time>2018-03-15T00:50:56Z</time>
      </trkpt>
      <trkpt lat="46.68846" lon="-1.92701">
        <ele>6</ele>
        <time>2018-03-15T00:51:56Z</time>
      </trkpt>
      <trkpt lat="46.68845" lon="-1.92701">
        <ele>6</ele>
        <time>2018-03-15T00:52:56Z</time>
      </trkpt>
      <trkpt lat="46.68844" lon="-1.92701">
        <ele>7</ele>
        <time>2018-03-15T00:53:56Z</time>
      </trkpt>
      <trkpt lat="46.68844" lon="-1.927">
        <ele>7</ele>
        <time>2018-03-15T00:54:56Z</time>
      </trkpt>
      <trkpt lat="46.68843" lon="-1.927">
        <ele>7</ele>
        <time>2018-03-15T00:55:56Z</time>
      </trkpt>
      <trkpt lat="46.68842" lon="-1.92699">
        <ele>7</ele>
        <time>2018-03-15T00:56:56Z</time>
      </trkpt>
      <trkpt lat="46.68837" lon="-1.927">
        <ele>7</ele>
        <time>2018-03-15T00:57:56Z</time>
      </trkpt>
      <trkpt lat="46.68833" lon="-1.92701">
        <ele>7</ele>
        <time>2018-03-15T00:58:56Z</time>
      </trkpt>
      <trkpt lat="46.68828" lon="-1.927">
        <ele>7</ele>
        <time>2018-03-15T00:59:56Z</time>
      </trkpt>
      <trkpt lat="46.68827" lon="-1.927">
        <ele>7</ele>
        <time>2018-03-15T01:00:56Z</time>
      </trkpt>
      <trkpt lat="46.68827" lon="-1.92701">
        <ele>7</ele>
        <time>2018-03-15T01:01:56Z</time>
      </trkpt>
      <trkpt lat="46.68826" lon="-1.92701">
        <ele>7</ele>
        <time>2018-03-15T01:02:56Z</time>
      </trkpt>
      <trkpt lat="46.68826" lon="-1.92702">
        <ele>7</ele>
        <time>2018-03-15T01:03:56Z</time>
      </trkpt>
      <trkpt lat="46.68825" lon="-1.92702">
        <ele>7</ele>
        <time>2018-03-15T01:04:56Z</time>
      </trkpt>
      <trkpt lat="46.68825" lon="-1.92703">
        <ele>7</ele>
        <time>2018-03-15T01:05:56Z</time>
      </trkpt>
      <trkpt lat="46.68824" lon="-1.92703">
        <ele>7</ele>
        <time>2018-03-15T01:06:56Z</time>
      </trkpt>
      <trkpt lat="46.68823" lon="-1.92703">
        <ele>7</ele>
        <time>2018-03-15T01:07:56Z</time>
      </trkpt>
      <trkpt lat="46.68822" lon="-1.92703">
        <ele>7</ele>
        <time>2018-03-15T01:08:56Z</time>
      </trkpt>
      <trkpt lat="46.68821" lon="-1.92703">
        <ele>7</ele>
        <time>2018-03-15T01:09:56Z</time>
      </trkpt>
      <trkpt lat="46.68821" lon="-1.92702">
        <ele>7</ele>
        <time>2018-03-15T01:10:56Z</time>
      </trkpt>
      <trkpt lat="46.6882" lon="-1.92702">
        <ele>7</ele>
        <time>2018-03-15T01:11:56Z</time>
      </trkpt>
      <trkpt lat="46.6882" lon="-1.92701">
        <ele>7</ele>
        <time>2018-03-15T01:12:56Z</time>
      </trkpt>
      <trkpt lat="46.68819" lon="-1.92701">
        <ele>7</ele>
        <time>2018-03-15T01:13:56Z</time>
      </trkpt>
      <trkpt lat="46.68819" lon="-1.927">
        <ele>7</ele>
        <time>2018-03-15T01:14:56Z</time>
      </trkpt>
      <trkpt lat="46.68818" lon="-1.927">
        <ele>7</ele>
        <time>2018-03-15T01:15:56Z</time>
      </trkpt>
      <trkpt lat="46.68818" lon="-1.92699">
        <ele>7</ele>
        <time>2018-03-15T01:16:56Z</time>
      </trkpt>
      <trkpt lat="46.68818" lon="-1.92698">
        <ele>7</ele>
        <time>2018-03-15T01:17:56Z</time>
      </trkpt>
      <trkpt lat="46.68817" lon="-1.92698">
        <ele>7</ele>
        <time>2018-03-15T01:18:56Z</time>
      </trkpt>
      <trkpt lat="46.68817" lon="-1.92697">
        <ele>7</ele>
        <time>2018-03-15T01:19:56Z</time>
      </trkpt>
      <trkpt lat="46.68817" lon="-1.92696">
        <ele>7</ele>
        <time>2018-03-15T01:20:56Z</time>
      </trkpt>
      <trkpt lat="46.68817" lon="-1.92695">
        <ele>7</ele>
        <time>2018-03-15T01:21:56Z</time>
      </trkpt>
      <trkpt lat="46.68817" lon="-1.92694">
        <ele>7</ele>
        <time>2018-03-15T01:22:56Z</time>
      </trkpt>
      <trkpt lat="46.68817" lon="-1.92693">
        <ele>7</ele>
        <time>2018-03-15T01:23:56Z</time>
      </trkpt>
      <trkpt lat="46.68817" lon="-1.92692">
        <ele>7</ele>
        <time>2018-03-15T01:24:56Z</time>
      </trkpt>
      <trkpt lat="46.68817" lon="-1.92691">
        <ele>7</ele>
        <time>2018-03-15T01:25:56Z</time>
      </trkpt>
      <trkpt lat="46.68817" lon="-1.9269">
        <ele>7</ele>
        <time>2018-03-15T01:26:56Z</time>
      </trkpt>
      <trkpt lat="46.68804" lon="-1.92685">
        <ele>7</ele>
        <time>2018-03-15T01:27:56Z</time>
      </trkpt>
      <trkpt lat="46.68787" lon="-1.9268">
        <ele>8</ele>
        <time>2018-03-15T01:28:56Z</time>
      </trkpt>
      <trkpt lat="46.68776" lon="-1.92676">
        <ele>8</ele>
        <time>2018-03-15T01:29:56Z</time>
      </trkpt>
      <trkpt lat="46.6876" lon="-1.92669">
        <ele>8</ele>
        <time>2018-03-15T01:30:56Z</time>
      </trkpt>
      <trkpt lat="46.68759" lon="-1.92668">
        <ele>8</ele>
        <time>2018-03-15T01:31:56Z</time>
      </trkpt>
      <trkpt lat="46.68733" lon="-1.92654">
        <ele>8</ele>
        <time>2018-03-15T01:32:56Z</time>
      </trkpt>
      <trkpt lat="46.68732" lon="-1.92654">
        <ele>8</ele>
        <time>2018-03-15T01:33:56Z</time>
      </trkpt>
      <trkpt lat="46.68707" lon="-1.92638">
        <ele>9</ele>
        <time>2018-03-15T01:34:56Z</time>
      </trkpt>
      <trkpt lat="46.68669" lon="-1.92615">
        <ele>10</ele>
        <time>2018-03-15T01:35:56Z</time>
      </trkpt>
      <trkpt lat="46.68651" lon="-1.92602">
        <ele>10</ele>
        <time>2018-03-15T01:36:56Z</time>
      </trkpt>
      <trkpt lat="46.68644" lon="-1.92596">
        <ele>10</ele>
        <time>2018-03-15T01:37:56Z</time>
      </trkpt>
      <trkpt lat="46.68635" lon="-1.92588">
        <ele>10</ele>
        <time>2018-03-15T01:38:56Z</time>
      </trkpt>
      <trkpt lat="46.68634" lon="-1.92586">
        <ele>10</ele>
        <time>2018-03-15T01:39:56Z</time>
      </trkpt>
      <trkpt lat="46.68629" lon="-1.9258">
        <ele>10</ele>
        <time>2018-03-15T01:40:56Z</time>
      </trkpt>
      <trkpt lat="46.68625" lon="-1.92575">
        <ele>10</ele>
        <time>2018-03-15T01:41:56Z</time>
      </trkpt>
      <trkpt lat="46.68616" lon="-1.92563">
        <ele>10</ele>
        <time>2018-03-15T01:42:56Z</time>
      </trkpt>
      <trkpt lat="46.68605" lon="-1.92548">
        <ele>10</ele>
        <time>2018-03-15T01:43:56Z</time>
      </trkpt>
      <trkpt lat="46.68594" lon="-1.92534">
        <ele>10</ele>
        <time>2018-03-15T01:44:56Z</time>
      </trkpt>
      <trkpt lat="46.68589" lon="-1.92528">
        <ele>10</ele>
        <time>2018-03-15T01:45:56Z</time>
      </trkpt>
      <trkpt lat="46.68567" lon="-1.925">
        <ele>10</ele>
        <time>2018-03-15T01:46:56Z</time>
      </trkpt>
      <trkpt lat="46.68549" lon="-1.92476">
        <ele>10</ele>
        <time>2018-03-15T01:47:56Z</time>
      </trkpt>
      <trkpt lat="46.68538" lon="-1.92464">
        <ele>10</ele>
        <time>2018-03-15T01:48:56Z</time>
      </trkpt>
      <trkpt lat="46.68532" lon="-1.92456">
        <ele>10</ele>
        <time>2018-03-15T01:49:56Z</time>
      </trkpt>
      <trkpt lat="46.68528" lon="-1.9245">
        <ele>10</ele>
        <time>2018-03-15T01:50:56Z</time>
      </trkpt>
      <trkpt lat="46.68514" lon="-1.92436">
        <ele>10</ele>
        <time>2018-03-15T01:51:56Z</time>
      </trkpt>
      <trkpt lat="46.68505" lon="-1.92428">
        <ele>10</ele>
        <time>2018-03-15T01:52:56Z</time>
      </trkpt>
      <trkpt lat="46.68495" lon="-1.9242">
        <ele>10</ele>
        <time>2018-03-15T01:53:56Z</time>
      </trkpt>
      <trkpt lat="46.68487" lon="-1.92415">
        <ele>10</ele>
        <time>2018-03-15T01:54:56Z</time>
      </trkpt>
      <trkpt lat="46.68481" lon="-1.92411">
        <ele>10</ele>
        <time>2018-03-15T01:55:56Z</time>
      </trkpt>
      <trkpt lat="46.68472" lon="-1.92408">
        <ele>10</ele>
        <time>2018-03-15T01:56:56Z</time>
      </trkpt>
      <trkpt lat="46.68463" lon="-1.92406">
        <ele>10</ele>
        <time>2018-03-15T01:57:56Z</time>
      </trkpt>
      <trkpt lat="46.68454" lon="-1.92404">
        <ele>10</ele>
        <time>2018-03-15T01:58:56Z</time>
      </trkpt>
      <trkpt lat="46.68447" lon="-1.92403">
        <ele>10</ele>
        <time>2018-03-15T01:59:56Z</time>
      </trkpt>
      <trkpt lat="46.68435" lon="-1.924">
        <ele>10</ele>
        <time>2018-03-15T02:00:56Z</time>
      </trkpt>
      <trkpt lat="46.68426" lon="-1.92396">
        <ele>10</ele>
        <time>2018-03-15T02:01:56Z</time>
      </trkpt>
      <trkpt lat="46.68413" lon="-1.92388">
        <ele>10</ele>
        <time>2018-03-15T02:02:56Z</time>
      </trkpt>
      <trkpt lat="46.68403" lon="-1.9238">
        <ele>10</ele>
        <time>2018-03-15T02:03:56Z</time>
      </trkpt>
      <trkpt lat="46.68389" lon="-1.92363">
        <ele>10</ele>
        <time>2018-03-15T02:04:56Z</time>
      </trkpt>
      <trkpt lat="46.6838" lon="-1.92351">
        <ele>10</ele>
        <time>2018-03-15T02:05:56Z</time>
      </trkpt>
      <trkpt lat="46.68377" lon="-1.92346">
        <ele>10</ele>
        <time>2018-03-15T02:06:56Z</time>
      </trkpt>
      <trkpt lat="46.6837" lon="-1.92334">
        <ele>10</ele>
        <time>2018-03-15T02:07:56Z</time>
      </trkpt>
      <trkpt lat="46.68355" lon="-1.92305">
        <ele>10</ele>
        <time>2018-03-15T02:08:56Z</time>
      </trkpt>
      <trkpt lat="46.6833" lon="-1.92261">
        <ele>9</ele>
        <time>2018-03-15T02:09:56Z</time>
      </trkpt>
      <trkpt lat="46.6832" lon="-1.92245">
        <ele>9</ele>
        <time>2018-03-15T02:10:56Z</time>
      </trkpt>
      <trkpt lat="46.68306" lon="-1.92219">
        <ele>9</ele>
        <time>2018-03-15T02:11:56Z</time>
      </trkpt>
      <trkpt lat="46.68291" lon="-1.92193">
        <ele>8</ele>
        <time>2018-03-15T02:12:56Z</time>
      </trkpt>
      <trkpt lat="46.68286" lon="-1.92186">
        <ele>8</ele>
        <time>2018-03-15T02:13:56Z</time>
      </trkpt>
      <trkpt lat="46.68277" lon="-1.92172">
        <ele>8</ele>
        <time>2018-03-15T02:14:56Z</time>
      </trkpt>
      <trkpt lat="46.68267" lon="-1.92157">
        <ele>7</ele>
        <time>2018-03-15T02:15:56Z</time>
      </trkpt>
      <trkpt lat="46.68255" lon="-1.9214">
        <ele>7</ele>
        <time>2018-03-15T02:16:56Z</time>
      </trkpt>
      <trkpt lat="46.6823" lon="-1.92107">
        <ele>7</ele>
        <time>2018-03-15T02:17:56Z</time>
      </trkpt>
      <trkpt lat="46.68227" lon="-1.92103">
        <ele>7</ele>
        <time>2018-03-15T02:18:56Z</time>
      </trkpt>
      <trkpt lat="46.68224" lon="-1.92098">
        <ele>7</ele>
        <time>2018-03-15T02:19:56Z</time>
      </trkpt>
      <trkpt lat="46.68224" lon="-1.92097">
        <ele>7</ele>
        <time>2018-03-15T02:20:56Z</time>
      </trkpt>
      <trkpt lat="46.6822" lon="-1.92091">
        <ele>7</ele>
        <time>2018-03-15T02:21:56Z</time>
      </trkpt>
      <trkpt lat="46.68208" lon="-1.92073">
        <ele>7</ele>
        <time>2018-03-15T02:22:56Z</time>
      </trkpt>
      <trkpt lat="46.68198" lon="-1.92057">
        <ele>7</ele>
        <time>2018-03-15T02:23:56Z</time>
      </trkpt>
      <trkpt lat="46.68174" lon="-1.92025">
        <ele>8</ele>
        <time>2018-03-15T02:24:56Z</time>
      </trkpt>
      <trkpt lat="46.68158" lon="-1.92003">
        <ele>8</ele>
        <time>2018-03-15T02:25:56Z</time>
      </trkpt>
      <trkpt lat="46.68115" lon="-1.91941">
        <ele>8</ele>
        <time>2018-03-15T02:26:56Z</time>
      </trkpt>
      <trkpt lat="46.68083" lon="-1.91897">
        <ele>8</ele>
        <time>2018-03-15T02:27:56Z</time>
      </trkpt>
      <trkpt lat="46.68057" lon="-1.91858">
        <ele>8</ele>
        <time>2018-03-15T02:28:56Z</time>
      </trkpt>
      <trkpt lat="46.68041" lon="-1.91836">
        <ele>8</ele>
        <time>2018-03-15T02:29:56Z</time>
      </trkpt>
      <trkpt lat="46.68033" lon="-1.91825">
        <ele>8</ele>
        <time>2018-03-15T02:30:56Z</time>
      </trkpt>
      <trkpt lat="46.68022" lon="-1.91808">
        <ele>8</ele>
        <time>2018-03-15T02:31:56Z</time>
      </trkpt>
      <trkpt lat="46.68" lon="-1.91776">
        <ele>8</ele>
        <time>2018-03-15T02:32:56Z</time>
      </trkpt>
      <trkpt lat="46.67972" lon="-1.91737">
        <ele>7</ele>
        <time>2018-03-15T02:33:56Z</time>
      </trkpt>
      <trkpt lat="46.67947" lon="-1.91703">
        <ele>7</ele>
        <time>2018-03-15T02:34:56Z</time>
      </trkpt>
      <trkpt lat="46.67928" lon="-1.91675">
        <ele>7</ele>
        <time>2018-03-15T02:35:56Z</time>
      </trkpt>
      <trkpt lat="46.67898" lon="-1.91633">
        <ele>7</ele>
        <time>2018-03-15T02:36:56Z</time>
      </trkpt>
      <trkpt lat="46.67883" lon="-1.91611">
        <ele>6</ele>
        <time>2018-03-15T02:37:56Z</time>
      </trkpt>
      <trkpt lat="46.67864" lon="-1.91583">
        <ele>6</ele>
        <time>2018-03-15T02:38:56Z</time>
      </trkpt>
      <trkpt lat="46.6784" lon="-1.91552">
        <ele>6</ele>
        <time>2018-03-15T02:39:56Z</time>
      </trkpt>
      <trkpt lat="46.67831" lon="-1.91538">
        <ele>6</ele>
        <time>2018-03-15T02:40:56Z</time>
      </trkpt>
      <trkpt lat="46.67783" lon="-1.91471">
        <ele>6</ele>
        <time>2018-03-15T02:41:56Z</time>
      </trkpt>
      <trkpt lat="46.67747" lon="-1.9142">
        <ele>6</ele>
        <time>2018-03-15T02:42:56Z</time>
      </trkpt>
      <trkpt lat="46.67743" lon="-1.91414">
        <ele>6</ele>
        <time>2018-03-15T02:43:56Z</time>
      </trkpt>
      <trkpt lat="46.67704" lon="-1.91358">
        <ele>5</ele>
        <time>2018-03-15T02:44:56Z</time>
      </trkpt>
      <trkpt lat="46.67662" lon="-1.91298">
        <ele>5</ele>
        <time>2018-03-15T02:45:56Z</time>
      </trkpt>
      <trkpt lat="46.67634" lon="-1.91261">
        <ele>5</ele>
        <time>2018-03-15T02:46:56Z</time>
      </trkpt>
      <trkpt lat="46.67612" lon="-1.91228">
        <ele>5</ele>
        <time>2018-03-15T02:47:56Z</time>
      </trkpt>
      <trkpt lat="46.67587" lon="-1.91194">
        <ele>6</ele>
        <time>2018-03-15T02:48:56Z</time>
      </trkpt>
      <trkpt lat="46.67578" lon="-1.91181">
        <ele>6</ele>
        <time>2018-03-15T02:49:56Z</time>
      </trkpt>
      <trkpt lat="46.67546" lon="-1.91137">
        <ele>5</ele>
        <time>2018-03-15T02:50:56Z</time>
      </trkpt>
      <trkpt lat="46.67518" lon="-1.91097">
        <ele>5</ele>
        <time>2018-03-15T02:51:56Z</time>
      </trkpt>
      <trkpt lat="46.6749" lon="-1.9106">
        <ele>5</ele>
        <time>2018-03-15T02:52:56Z</time>
      </trkpt>
      <trkpt lat="46.67469" lon="-1.9103">
        <ele>4</ele>
        <time>2018-03-15T02:53:56Z</time>
      </trkpt>
      <trkpt lat="46.67456" lon="-1.9101">
        <ele>4</ele>
        <time>2018-03-15T02:54:56Z</time>
      </trkpt>
      <trkpt lat="46.67452" lon="-1.91005">
        <ele>4</ele>
        <time>2018-03-15T02:55:56Z</time>
      </trkpt>
      <trkpt lat="46.67446" lon="-1.90996">
        <ele>4</ele>
        <time>2018-03-15T02:56:56Z</time>
      </trkpt>
      <trkpt lat="46.6744" lon="-1.90984">
        <ele>4</ele>
        <time>2018-03-15T02:57:56Z</time>
      </trkpt>
      <trkpt lat="46.67435" lon="-1.90971">
        <ele>3</ele>
        <time>2018-03-15T02:58:56Z</time>
      </trkpt>
      <trkpt lat="46.67435" lon="-1.90971">
        <ele>3</ele>
        <time>2018-03-15T02:59:56Z</time>
      </trkpt>
      <trkpt lat="46.67432" lon="-1.90969">
        <ele>3</ele>
        <time>2018-03-15T03:00:56Z</time>
      </trkpt>
      <trkpt lat="46.6743" lon="-1.90968">
        <ele>3</ele>
        <time>2018-03-15T03:01:56Z</time>
      </trkpt>
      <trkpt lat="46.67429" lon="-1.90967">
        <ele>3</ele>
        <time>2018-03-15T03:02:56Z</time>
      </trkpt>
      <trkpt lat="46.67427" lon="-1.90965">
        <ele>3</ele>
        <time>2018-03-15T03:03:56Z</time>
      </trkpt>
      <trkpt lat="46.67426" lon="-1.90964">
        <ele>3</ele>
        <time>2018-03-15T03:04:56Z</time>
      </trkpt>
      <trkpt lat="46.67424" lon="-1.90962">
        <ele>3</ele>
        <time>2018-03-15T03:05:56Z</time>
      </trkpt>
      <trkpt lat="46.67423" lon="-1.9096">
        <ele>3</ele>
        <time>2018-03-15T03:06:56Z</time>
      </trkpt>
      <trkpt lat="46.67422" lon="-1.90958">
        <ele>3</ele>
        <time>2018-03-15T03:07:56Z</time>
      </trkpt>
      <trkpt lat="46.67421" lon="-1.90956">
        <ele>3</ele>
        <time>2018-03-15T03:08:56Z</time>
      </trkpt>
      <trkpt lat="46.6742" lon="-1.90953">
        <ele>3</ele>
        <time>2018-03-15T03:09:56Z</time>
      </trkpt>
      <trkpt lat="46.6742" lon="-1.90951">
        <ele>3</ele>
        <time>2018-03-15T03:10:56Z</time>
      </trkpt>
      <trkpt lat="46.6742" lon="-1.9095">
        <ele>3</ele>
        <time>2018-03-15T03:11:56Z</time>
      </trkpt>
      <trkpt lat="46.67419" lon="-1.9095">
        <ele>3</ele>
        <time>2018-03-15T03:12:56Z</time>
      </trkpt>
      <trkpt lat="46.67419" lon="-1.90949">
        <ele>3</ele>
        <time>2018-03-15T03:13:56Z</time>
      </trkpt>
      <trkpt lat="46.67419" lon="-1.90948">
        <ele>3</ele>
        <time>2018-03-15T03:14:56Z</time>
      </trkpt>
      <trkpt lat="46.67419" lon="-1.90947">
        <ele>3</ele>
        <time>2018-03-15T03:15:56Z</time>
      </trkpt>
      <trkpt lat="46.67419" lon="-1.90946">
        <ele>3</ele>
        <time>2018-03-15T03:16:56Z</time>
      </trkpt>
      <trkpt lat="46.67414" lon="-1.90938">
        <ele>3</ele>
        <time>2018-03-15T03:17:56Z</time>
      </trkpt>
      <trkpt lat="46.67409" lon="-1.90932">
        <ele>3</ele>
        <time>2018-03-15T03:18:56Z</time>
      </trkpt>
      <trkpt lat="46.67407" lon="-1.90929">
        <ele>3</ele>
        <time>2018-03-15T03:19:56Z</time>
      </trkpt>
      <trkpt lat="46.67405" lon="-1.90925">
        <ele>3</ele>
        <time>2018-03-15T03:20:56Z</time>
      </trkpt>
      <trkpt lat="46.67398" lon="-1.90917">
        <ele>3</ele>
        <time>2018-03-15T03:21:56Z</time>
      </trkpt>
      <trkpt lat="46.67384" lon="-1.90901">
        <ele>3</ele>
        <time>2018-03-15T03:22:56Z</time>
      </trkpt>
      <trkpt lat="46.67344" lon="-1.90854">
        <ele>2</ele>
        <time>2018-03-15T03:23:56Z</time>
      </trkpt>
      <trkpt lat="46.67339" lon="-1.90844">
        <ele>2</ele>
        <time>2018-03-15T03:24:56Z</time>
      </trkpt>
      <trkpt lat="46.67336" lon="-1.9084">
        <ele>2</ele>
        <time>2018-03-15T03:25:56Z</time>
      </trkpt>
      <trkpt lat="46.67333" lon="-1.90837">
        <ele>2</ele>
        <time>2018-03-15T03:26:56Z</time>
      </trkpt>
      <trkpt lat="46.6733" lon="-1.90833">
        <ele>2</ele>
        <time>2018-03-15T03:27:56Z</time>
      </trkpt>
      <trkpt lat="46.67327" lon="-1.90829">
        <ele>2</ele>
        <time>2018-03-15T03:28:56Z</time>
      </trkpt>
      <trkpt lat="46.67323" lon="-1.90824">
        <ele>2</ele>
        <time>2018-03-15T03:29:56Z</time>
      </trkpt>
      <trkpt lat="46.6732" lon="-1.90819">
        <ele>2</ele>
        <time>2018-03-15T03:30:56Z</time>
      </trkpt>
      <trkpt lat="46.67313" lon="-1.9081">
        <ele>2</ele>
        <time>2018-03-15T03:31:56Z</time>
      </trkpt>
      <trkpt lat="46.67301" lon="-1.90794">
        <ele>2</ele>
        <time>2018-03-15T03:32:56Z</time>
      </trkpt>
      <trkpt lat="46.67282" lon="-1.90767">
        <ele>3</ele>
        <time>2018-03-15T03:33:56Z</time>
      </trkpt>
      <trkpt lat="46.67255" lon="-1.90729">
        <ele>3</ele>
        <time>2018-03-15T03:34:56Z</time>
      </trkpt>
      <trkpt lat="46.67226" lon="-1.90688">
        <ele>4</ele>
        <time>2018-03-15T03:35:56Z</time>
      </trkpt>
      <trkpt lat="46.67205" lon="-1.90658">
        <ele>4</ele>
        <time>2018-03-15T03:36:56Z</time>
      </trkpt>
      <trkpt lat="46.67166" lon="-1.90604">
        <ele>5</ele>
        <time>2018-03-15T03:37:56Z</time>
      </trkpt>
      <trkpt lat="46.67105" lon="-1.90518">
        <ele>5</ele>
        <time>2018-03-15T03:38:56Z</time>
      </trkpt>
      <trkpt lat="46.67097" lon="-1.90511">
        <ele>5</ele>
        <time>2018-03-15T03:39:56Z</time>
      </trkpt>
      <trkpt lat="46.67055" lon="-1.90456">
        <ele>5</ele>
        <time>2018-03-15T03:40:56Z</time>
      </trkpt>
      <trkpt lat="46.67046" lon="-1.90444">
        <ele>5</ele>
        <time>2018-03-15T03:41:56Z</time>
      </trkpt>
      <trkpt lat="46.67037" lon="-1.9043">
        <ele>5</ele>
        <time>2018-03-15T03:42:56Z</time>
      </trkpt>
      <trkpt lat="46.67034" lon="-1.90427">
        <ele>5</ele>
        <time>2018-03-15T03:43:56Z</time>
      </trkpt>
      <trkpt lat="46.67019" lon="-1.90408">
        <ele>5</ele>
        <time>2018-03-15T03:44:56Z</time>
      </trkpt>
      <trkpt lat="46.67018" lon="-1.90407">
        <ele>5</ele>
        <time>2018-03-15T03:45:56Z</time>
      </trkpt>
      <trkpt lat="46.67017" lon="-1.90406">
        <ele>5</ele>
        <time>2018-03-15T03:46:56Z</time>
      </trkpt>
      <trkpt lat="46.67016" lon="-1.90404">
        <ele>5</ele>
        <time>2018-03-15T03:47:56Z</time>
      </trkpt>
      <trkpt lat="46.67014" lon="-1.90402">
        <ele>5</ele>
        <time>2018-03-15T03:48:56Z</time>
      </trkpt>
      <trkpt lat="46.67012" lon="-1.90399">
        <ele>5</ele>
        <time>2018-03-15T03:49:56Z</time>
      </trkpt>
      <trkpt lat="46.66999" lon="-1.9038">
        <ele>5</ele>
        <time>2018-03-15T03:50:56Z</time>
      </trkpt>
      <trkpt lat="46.66997" lon="-1.90377">
        <ele>5</ele>
        <time>2018-03-15T03:51:56Z</time>
      </trkpt>
      <trkpt lat="46.66995" lon="-1.90374">
        <ele>5</ele>
        <time>2018-03-15T03:52:56Z</time>
      </trkpt>
      <trkpt lat="46.66993" lon="-1.90372">
        <ele>5</ele>
        <time>2018-03-15T03:53:56Z</time>
      </trkpt>
      <trkpt lat="46.66982" lon="-1.90356">
        <ele>5</ele>
        <time>2018-03-15T03:54:56Z</time>
      </trkpt>
      <trkpt lat="46.66982" lon="-1.90356">
        <ele>5</ele>
        <time>2018-03-15T03:55:56Z</time>
      </trkpt>
      <trkpt lat="46.66981" lon="-1.90356">
        <ele>5</ele>
        <time>2018-03-15T03:56:56Z</time>
      </trkpt>
      <trkpt lat="46.66979" lon="-1.90355">
        <ele>5</ele>
        <time>2018-03-15T03:57:56Z</time>
      </trkpt>
      <trkpt lat="46.66978" lon="-1.90355">
        <ele>5</ele>
        <time>2018-03-15T03:58:56Z</time>
      </trkpt>
      <trkpt lat="46.66977" lon="-1.90354">
        <ele>5</ele>
        <time>2018-03-15T03:59:56Z</time>
      </trkpt>
      <trkpt lat="46.66976" lon="-1.90353">
        <ele>5</ele>
        <time>2018-03-15T04:00:56Z</time>
      </trkpt>
      <trkpt lat="46.66975" lon="-1.90352">
        <ele>5</ele>
        <time>2018-03-15T04:01:56Z</time>
      </trkpt>
      <trkpt lat="46.66974" lon="-1.90351">
        <ele>5</ele>
        <time>2018-03-15T04:02:56Z</time>
      </trkpt>
      <trkpt lat="46.66973" lon="-1.9035">
        <ele>5</ele>
        <time>2018-03-15T04:03:56Z</time>
      </trkpt>
      <trkpt lat="46.66972" lon="-1.90349">
        <ele>5</ele>
        <time>2018-03-15T04:04:56Z</time>
      </trkpt>
      <trkpt lat="46.66971" lon="-1.90348">
        <ele>5</ele>
        <time>2018-03-15T04:05:56Z</time>
      </trkpt>
      <trkpt lat="46.6697" lon="-1.90346">
        <ele>5</ele>
        <time>2018-03-15T04:06:56Z</time>
      </trkpt>
      <trkpt lat="46.66969" lon="-1.90345">
        <ele>5</ele>
        <time>2018-03-15T04:07:56Z</time>
      </trkpt>
      <trkpt lat="46.66969" lon="-1.90343">
        <ele>5</ele>
        <time>2018-03-15T04:08:56Z</time>
      </trkpt>
      <trkpt lat="46.66968" lon="-1.90341">
        <ele>5</ele>
        <time>2018-03-15T04:09:56Z</time>
      </trkpt>
      <trkpt lat="46.66968" lon="-1.9034">
        <ele>5</ele>
        <time>2018-03-15T04:10:56Z</time>
      </trkpt>
      <trkpt lat="46.66967" lon="-1.90338">
        <ele>5</ele>
        <time>2018-03-15T04:11:56Z</time>
      </trkpt>
      <trkpt lat="46.66967" lon="-1.90335">
        <ele>5</ele>
        <time>2018-03-15T04:12:56Z</time>
      </trkpt>
      <trkpt lat="46.66967" lon="-1.90331">
        <ele>5</ele>
        <time>2018-03-15T04:13:56Z</time>
      </trkpt>
      <trkpt lat="46.66967" lon="-1.9033">
        <ele>5</ele>
        <time>2018-03-15T04:14:56Z</time>
      </trkpt>
      <trkpt lat="46.66967" lon="-1.90328">
        <ele>5</ele>
        <time>2018-03-15T04:15:56Z</time>
      </trkpt>
      <trkpt lat="46.66967" lon="-1.90326">
        <ele>5</ele>
        <time>2018-03-15T04:16:56Z</time>
      </trkpt>
      <trkpt lat="46.66968" lon="-1.90324">
        <ele>5</ele>
        <time>2018-03-15T04:17:56Z</time>
      </trkpt>
      <trkpt lat="46.66968" lon="-1.90323">
        <ele>5</ele>
        <time>2018-03-15T04:18:56Z</time>
      </trkpt>
      <trkpt lat="46.66968" lon="-1.90321">
        <ele>5</ele>
        <time>2018-03-15T04:19:56Z</time>
      </trkpt>
      <trkpt lat="46.66969" lon="-1.90319">
        <ele>5</ele>
        <time>2018-03-15T04:20:56Z</time>
      </trkpt>
      <trkpt lat="46.6697" lon="-1.90318">
        <ele>5</ele>
        <time>2018-03-15T04:21:56Z</time>
      </trkpt>
      <trkpt lat="46.6697" lon="-1.90316">
        <ele>5</ele>
        <time>2018-03-15T04:22:56Z</time>
      </trkpt>
      <trkpt lat="46.66971" lon="-1.90315">
        <ele>5</ele>
        <time>2018-03-15T04:23:56Z</time>
      </trkpt>
      <trkpt lat="46.66972" lon="-1.90314">
        <ele>5</ele>
        <time>2018-03-15T04:24:56Z</time>
      </trkpt>
      <trkpt lat="46.66973" lon="-1.90313">
        <ele>5</ele>
        <time>2018-03-15T04:25:56Z</time>
      </trkpt>
      <trkpt lat="46.66974" lon="-1.90312">
        <ele>5</ele>
        <time>2018-03-15T04:26:56Z</time>
      </trkpt>
      <trkpt lat="46.66975" lon="-1.90311">
        <ele>6</ele>
        <time>2018-03-15T04:27:56Z</time>
      </trkpt>
      <trkpt lat="46.66976" lon="-1.9031">
        <ele>6</ele>
        <time>2018-03-15T04:28:56Z</time>
      </trkpt>
      <trkpt lat="46.66976" lon="-1.90309">
        <ele>6</ele>
        <time>2018-03-15T04:29:56Z</time>
      </trkpt>
      <trkpt lat="46.66977" lon="-1.90309">
        <ele>6</ele>
        <time>2018-03-15T04:30:56Z</time>
      </trkpt>
      <trkpt lat="46.66978" lon="-1.90309">
        <ele>6</ele>
        <time>2018-03-15T04:31:56Z</time>
      </trkpt>
      <trkpt lat="46.66978" lon="-1.90308">
        <ele>6</ele>
        <time>2018-03-15T04:32:56Z</time>
      </trkpt>
      <trkpt lat="46.66981" lon="-1.903">
        <ele>6</ele>
        <time>2018-03-15T04:33:56Z</time>
      </trkpt>
      <trkpt lat="46.66985" lon="-1.90285">
        <ele>6</ele>
        <time>2018-03-15T04:34:56Z</time>
      </trkpt>
      <trkpt lat="46.66988" lon="-1.90274">
        <ele>6</ele>
        <time>2018-03-15T04:35:56Z</time>
      </trkpt>
      <trkpt lat="46.6699" lon="-1.90259">
        <ele>7</ele>
        <time>2018-03-15T04:36:56Z</time>
      </trkpt>
      <trkpt lat="46.66985" lon="-1.90224">
        <ele>7</ele>
        <time>2018-03-15T04:37:56Z</time>
      </trkpt>
      <trkpt lat="46.66981" lon="-1.90197">
        <ele>8</ele>
        <time>2018-03-15T04:38:56Z</time>
      </trkpt>
      <trkpt lat="46.66977" lon="-1.90166">
        <ele>8</ele>
        <time>2018-03-15T04:39:56Z</time>
      </trkpt>
      <trkpt lat="46.66972" lon="-1.9013">
        <ele>9</ele>
        <time>2018-03-15T04:40:56Z</time>
      </trkpt>
      <trkpt lat="46.66968" lon="-1.90096">
        <ele>9</ele>
        <time>2018-03-15T04:41:56Z</time>
      </trkpt>
      <trkpt lat="46.66964" lon="-1.9006">
        <ele>10</ele>
        <time>2018-03-15T04:42:56Z</time>
      </trkpt>
      <trkpt lat="46.66963" lon="-1.90055">
        <ele>10</ele>
        <time>2018-03-15T04:43:56Z</time>
      </trkpt>
      <trkpt lat="46.6696" lon="-1.90028">
        <ele>10</ele>
        <time>2018-03-15T04:44:56Z</time>
      </trkpt>
      <trkpt lat="46.66955" lon="-1.89998">
        <ele>10</ele>
        <time>2018-03-15T04:45:56Z</time>
      </trkpt>
      <trkpt lat="46.66951" lon="-1.8996">
        <ele>10</ele>
        <time>2018-03-15T04:46:56Z</time>
      </trkpt>
      <trkpt lat="46.66949" lon="-1.89948">
        <ele>11</ele>
        <time>2018-03-15T04:47:56Z</time>
      </trkpt>
      <trkpt lat="46.66944" lon="-1.89914">
        <ele>11</ele>
        <time>2018-03-15T04:48:56Z</time>
      </trkpt>
      <trkpt lat="46.6694" lon="-1.89885">
        <ele>11</ele>
        <time>2018-03-15T04:49:56Z</time>
      </trkpt>
      <trkpt lat="46.66938" lon="-1.89867">
        <ele>11</ele>
        <time>2018-03-15T04:50:56Z</time>
      </trkpt>
      <trkpt lat="46.66932" lon="-1.89826">
        <ele>11</ele>
        <time>2018-03-15T04:51:56Z</time>
      </trkpt>
      <trkpt lat="46.66931" lon="-1.8982">
        <ele>11</ele>
        <time>2018-03-15T04:52:56Z</time>
      </trkpt>
      <trkpt lat="46.66928" lon="-1.89797">
        <ele>11</ele>
        <time>2018-03-15T04:53:56Z</time>
      </trkpt>
      <trkpt lat="46.66928" lon="-1.89795">
        <ele>11</ele>
        <time>2018-03-15T04:54:56Z</time>
      </trkpt>
      <trkpt lat="46.66925" lon="-1.89768">
        <ele>11</ele>
        <time>2018-03-15T04:55:56Z</time>
      </trkpt>
      <trkpt lat="46.66922" lon="-1.89752">
        <ele>11</ele>
        <time>2018-03-15T04:56:56Z</time>
      </trkpt>
      <trkpt lat="46.6692" lon="-1.89738">
        <ele>11</ele>
        <time>2018-03-15T04:57:56Z</time>
      </trkpt>
      <trkpt lat="46.66917" lon="-1.89712">
        <ele>11</ele>
        <time>2018-03-15T04:58:56Z</time>
      </trkpt>
      <trkpt lat="46.66915" lon="-1.89697">
        <ele>12</ele>
        <time>2018-03-15T04:59:56Z</time>
      </trkpt>
      <trkpt lat="46.66911" lon="-1.89666">
        <ele>12</ele>
        <time>2018-03-15T05:00:56Z</time>
      </trkpt>
      <trkpt lat="46.66911" lon="-1.89664">
        <ele>12</ele>
        <time>2018-03-15T05:01:56Z</time>
      </trkpt>
      <trkpt lat="46.66904" lon="-1.89615">
        <ele>12</ele>
        <time>2018-03-15T05:02:56Z</time>
      </trkpt>
      <trkpt lat="46.66898" lon="-1.89575">
        <ele>13</ele>
        <time>2018-03-15T05:03:56Z</time>
      </trkpt>
      <trkpt lat="46.66897" lon="-1.89564">
        <ele>13</ele>
        <time>2018-03-15T05:04:56Z</time>
      </trkpt>
      <trkpt lat="46.66896" lon="-1.89555">
        <ele>12</ele>
        <time>2018-03-15T05:05:56Z</time>
      </trkpt>
      <trkpt lat="46.66894" lon="-1.89545">
        <ele>12</ele>
        <time>2018-03-15T05:06:56Z</time>
      </trkpt>
      <trkpt lat="46.66891" lon="-1.89517">
        <ele>12</ele>
        <time>2018-03-15T05:07:56Z</time>
      </trkpt>
      <trkpt lat="46.6689" lon="-1.89515">
        <ele>12</ele>
        <time>2018-03-15T05:08:56Z</time>
      </trkpt>
      <trkpt lat="46.66888" lon="-1.89499">
        <ele>12</ele>
        <time>2018-03-15T05:09:56Z</time>
      </trkpt>
      <trkpt lat="46.66887" lon="-1.89492">
        <ele>12</ele>
        <time>2018-03-15T05:10:56Z</time>
      </trkpt>
      <trkpt lat="46.66886" lon="-1.89484">
        <ele>12</ele>
        <time>2018-03-15T05:11:56Z</time>
      </trkpt>
      <trkpt lat="46.66886" lon="-1.89475">
        <ele>12</ele>
        <time>2018-03-15T05:12:56Z</time>
      </trkpt>
      <trkpt lat="46.66885" lon="-1.89467">
        <ele>12</ele>
        <time>2018-03-15T05:13:56Z</time>
      </trkpt>
      <trkpt lat="46.66885" lon="-1.8946">
        <ele>12</ele>
        <time>2018-03-15T05:14:56Z</time>
      </trkpt>
      <trkpt lat="46.66884" lon="-1.89451">
        <ele>12</ele>
        <time>2018-03-15T05:15:56Z</time>
      </trkpt>
      <trkpt lat="46.66884" lon="-1.89439">
        <ele>12</ele>
        <time>2018-03-15T05:16:56Z</time>
      </trkpt>
      <trkpt lat="46.66884" lon="-1.89421">
        <ele>12</ele>
        <time>2018-03-15T05:17:56Z</time>
      </trkpt>
      <trkpt lat="46.66885" lon="-1.89403">
        <ele>12</ele>
        <time>2018-03-15T05:18:56Z</time>
      </trkpt>
      <trkpt lat="46.66887" lon="-1.89385">
        <ele>12</ele>
        <time>2018-03-15T05:19:56Z</time>
      </trkpt>
      <trkpt lat="46.66889" lon="-1.89376">
        <ele>12</ele>
        <time>2018-03-15T05:20:56Z</time>
      </trkpt>
      <trkpt lat="46.66892" lon="-1.89362">
        <ele>12</ele>
        <time>2018-03-15T05:21:56Z</time>
      </trkpt>
      <trkpt lat="46.66896" lon="-1.89347">
        <ele>11</ele>
        <time>2018-03-15T05:22:56Z</time>
      </trkpt>
      <trkpt lat="46.66899" lon="-1.89335">
        <ele>11</ele>
        <time>2018-03-15T05:23:56Z</time>
      </trkpt>
      <trkpt lat="46.66901" lon="-1.89329">
        <ele>11</ele>
        <time>2018-03-15T05:24:56Z</time>
      </trkpt>
      <trkpt lat="46.66906" lon="-1.89314">
        <ele>11</ele>
        <time>2018-03-15T05:25:56Z</time>
      </trkpt>
      <trkpt lat="46.66909" lon="-1.89305">
        <ele>11</ele>
        <time>2018-03-15T05:26:56Z</time>
      </trkpt>
      <trkpt lat="46.66914" lon="-1.89286">
        <ele>11</ele>
        <time>2018-03-15T05:27:56Z</time>
      </trkpt>
      <trkpt lat="46.6691" lon="-1.89283">
        <ele>11</ele>
        <time>2018-03-15T05:28:56Z</time>
      </trkpt>
      <trkpt lat="46.66909" lon="-1.89278">
        <ele>11</ele>
        <time>2018-03-15T05:29:56Z</time>
      </trkpt>
      <trkpt lat="46.66909" lon="-1.89272">
        <ele>11</ele>
        <time>2018-03-15T05:30:56Z</time>
      </trkpt>
      <trkpt lat="46.66911" lon="-1.89267">
        <ele>11</ele>
        <time>2018-03-15T05:31:56Z</time>
      </trkpt>
      <trkpt lat="46.66914" lon="-1.89264">
        <ele>11</ele>
        <time>2018-03-15T05:32:56Z</time>
      </trkpt>
      <trkpt lat="46.66917" lon="-1.89263">
        <ele>11</ele>
        <time>2018-03-15T05:33:56Z</time>
      </trkpt>
      <trkpt lat="46.66919" lon="-1.89263">
        <ele>11</ele>
        <time>2018-03-15T05:34:56Z</time>
      </trkpt>
      <trkpt lat="46.66922" lon="-1.89264">
        <ele>11</ele>
        <time>2018-03-15T05:35:56Z</time>
      </trkpt>
      <trkpt lat="46.66926" lon="-1.89253">
        <ele>11</ele>
        <time>2018-03-15T05:36:56Z</time>
      </trkpt>
      <trkpt lat="46.66929" lon="-1.89245">
        <ele>11</ele>
        <time>2018-03-15T05:37:56Z</time>
      </trkpt>
      <trkpt lat="46.66941" lon="-1.89208">
        <ele>10</ele>
        <time>2018-03-15T05:38:56Z</time>
      </trkpt>
      <trkpt lat="46.66945" lon="-1.89198">
        <ele>10</ele>
        <time>2018-03-15T05:39:56Z</time>
      </trkpt>
      <trkpt lat="46.66954" lon="-1.89171">
        <ele>10</ele>
        <time>2018-03-15T05:40:56Z</time>
      </trkpt>
      <trkpt lat="46.66961" lon="-1.89149">
        <ele>10</ele>
        <time>2018-03-15T05:41:56Z</time>
      </trkpt>
      <trkpt lat="46.66969" lon="-1.89126">
        <ele>10</ele>
        <time>2018-03-15T05:42:56Z</time>
      </trkpt>
      <trkpt lat="46.66982" lon="-1.89082">
        <ele>9</ele>
        <time>2018-03-15T05:43:56Z</time>
      </trkpt>
      <trkpt lat="46.66985" lon="-1.89069">
        <ele>9</ele>
        <time>2018-03-15T05:44:56Z</time>
      </trkpt>
      <trkpt lat="46.66988" lon="-1.89056">
        <ele>8</ele>
        <time>2018-03-15T05:45:56Z</time>
      </trkpt>
      <trkpt lat="46.6699" lon="-1.89048">
        <ele>8</ele>
        <time>2018-03-15T05:46:56Z</time>
      </trkpt>
      <trkpt lat="46.66991" lon="-1.89041">
        <ele>8</ele>
        <time>2018-03-15T05:47:56Z</time>
      </trkpt>
      <trkpt lat="46.66993" lon="-1.89033">
        <ele>8</ele>
        <time>2018-03-15T05:48:56Z</time>
      </trkpt>
      <trkpt lat="46.66995" lon="-1.89024">
        <ele>8</ele>
        <time>2018-03-15T05:49:56Z</time>
      </trkpt>
      <trkpt lat="46.66998" lon="-1.8901">
        <ele>7</ele>
        <time>2018-03-15T05:50:56Z</time>
      </trkpt>
      <trkpt lat="46.67001" lon="-1.88998">
        <ele>7</ele>
        <time>2018-03-15T05:51:56Z</time>
      </trkpt>
      <trkpt lat="46.67003" lon="-1.88989">
        <ele>7</ele>
        <time>2018-03-15T05:52:56Z</time>
      </trkpt>
      <trkpt lat="46.67008" lon="-1.88964">
        <ele>7</ele>
        <time>2018-03-15T05:53:56Z</time>
      </trkpt>
      <trkpt lat="46.6701" lon="-1.88956">
        <ele>7</ele>
        <time>2018-03-15T05:54:56Z</time>
      </trkpt>
      <trkpt lat="46.67013" lon="-1.88939">
        <ele>8</ele>
        <time>2018-03-15T05:55:56Z</time>
      </trkpt>
      <trkpt lat="46.67016" lon="-1.88929">
        <ele>8</ele>
        <time>2018-03-15T05:56:56Z</time>
      </trkpt>
      <trkpt lat="46.67023" lon="-1.88898">
        <ele>8</ele>
        <time>2018-03-15T05:57:56Z</time>
      </trkpt>
      <trkpt lat="46.67029" lon="-1.88866">
        <ele>9</ele>
        <time>2018-03-15T05:58:56Z</time>
      </trkpt>
      <trkpt lat="46.67033" lon="-1.88851">
        <ele>10</ele>
        <time>2018-03-15T05:59:56Z</time>
      </trkpt>
      <trkpt lat="46.67039" lon="-1.88825">
        <ele>10</ele>
        <time>2018-03-15T06:00:56Z</time>
      </trkpt>
      <trkpt lat="46.67041" lon="-1.88816">
        <ele>10</ele>
        <time>2018-03-15T06:01:56Z</time>
      </trkpt>
      <trkpt lat="46.67047" lon="-1.88789">
        <ele>10</ele>
        <time>2018-03-15T06:02:56Z</time>
      </trkpt>
      <trkpt lat="46.67051" lon="-1.88769">
        <ele>11</ele>
        <time>2018-03-15T06:03:56Z</time>
      </trkpt>
      <trkpt lat="46.67056" lon="-1.88749">
        <ele>11</ele>
        <time>2018-03-15T06:04:56Z</time>
      </trkpt>
      <trkpt lat="46.67053" lon="-1.88747">
        <ele>11</ele>
        <time>2018-03-15T06:05:56Z</time>
      </trkpt>
      <trkpt lat="46.67051" lon="-1.88745">
        <ele>11</ele>
        <time>2018-03-15T06:06:56Z</time>
      </trkpt>
      <trkpt lat="46.6705" lon="-1.88741">
        <ele>11</ele>
        <time>2018-03-15T06:07:56Z</time>
      </trkpt>
      <trkpt lat="46.67049" lon="-1.88737">
        <ele>11</ele>
        <time>2018-03-15T06:08:56Z</time>
      </trkpt>
      <trkpt lat="46.67049" lon="-1.88732">
        <ele>11</ele>
        <time>2018-03-15T06:09:56Z</time>
      </trkpt>
      <trkpt lat="46.6705" lon="-1.88728">
        <ele>11</ele>
        <time>2018-03-15T06:10:56Z</time>
      </trkpt>
      <trkpt lat="46.67052" lon="-1.88726">
        <ele>11</ele>
        <time>2018-03-15T06:11:56Z</time>
      </trkpt>
      <trkpt lat="46.67054" lon="-1.88725">
        <ele>11</ele>
        <time>2018-03-15T06:12:56Z</time>
      </trkpt>
      <trkpt lat="46.67057" lon="-1.88724">
        <ele>11</ele>
        <time>2018-03-15T06:13:56Z</time>
      </trkpt>
      <trkpt lat="46.67061" lon="-1.88725">
        <ele>11</ele>
        <time>2018-03-15T06:14:56Z</time>
      </trkpt>
      <trkpt lat="46.67063" lon="-1.88716">
        <ele>11</ele>
        <time>2018-03-15T06:15:56Z</time>
      </trkpt>
      <trkpt lat="46.6708" lon="-1.88641">
        <ele>12</ele>
        <time>2018-03-15T06:16:56Z</time>
      </trkpt>
      <trkpt lat="46.67081" lon="-1.88634">
        <ele>12</ele>
        <time>2018-03-15T06:17:56Z</time>
      </trkpt>
      <trkpt lat="46.67091" lon="-1.8859">
        <ele>12</ele>
        <time>2018-03-15T06:18:56Z</time>
      </trkpt>
      <trkpt lat="46.67092" lon="-1.88586">
        <ele>12</ele>
        <time>2018-03-15T06:19:56Z</time>
      </trkpt>
      <trkpt lat="46.67103" lon="-1.88538">
        <ele>12</ele>
        <time>2018-03-15T06:20:56Z</time>
      </trkpt>
      <trkpt lat="46.67108" lon="-1.8852">
        <ele>12</ele>
        <time>2018-03-15T06:21:56Z</time>
      </trkpt>
      <trkpt lat="46.67113" lon="-1.88499">
        <ele>11</ele>
        <time>2018-03-15T06:22:56Z</time>
      </trkpt>
      <trkpt lat="46.6712" lon="-1.88468">
        <ele>11</ele>
        <time>2018-03-15T06:23:56Z</time>
      </trkpt>
      <trkpt lat="46.67128" lon="-1.88428">
        <ele>10</ele>
        <time>2018-03-15T06:24:56Z</time>
      </trkpt>
      <trkpt lat="46.67133" lon="-1.88408">
        <ele>10</ele>
        <time>2018-03-15T06:25:56Z</time>
      </trkpt>
      <trkpt lat="46.67135" lon="-1.88398">
        <ele>10</ele>
        <time>2018-03-15T06:26:56Z</time>
      </trkpt>
      <trkpt lat="46.67136" lon="-1.88388">
        <ele>10</ele>
        <time>2018-03-15T06:27:56Z</time>
      </trkpt>
      <trkpt lat="46.67138" lon="-1.88377">
        <ele>10</ele>
        <time>2018-03-15T06:28:56Z</time>
      </trkpt>
      <trkpt lat="46.67138" lon="-1.88369">
        <ele>9</ele>
        <time>2018-03-15T06:29:56Z</time>
      </trkpt>
      <trkpt lat="46.67139" lon="-1.88365">
        <ele>9</ele>
        <time>2018-03-15T06:30:56Z</time>
      </trkpt>
      <trkpt lat="46.67139" lon="-1.88356">
        <ele>9</ele>
        <time>2018-03-15T06:31:56Z</time>
      </trkpt>
      <trkpt lat="46.67139" lon="-1.88342">
        <ele>9</ele>
        <time>2018-03-15T06:32:56Z</time>
      </trkpt>
      <trkpt lat="46.67139" lon="-1.88336">
        <ele>9</ele>
        <time>2018-03-15T06:33:56Z</time>
      </trkpt>
      <trkpt lat="46.67139" lon="-1.8833">
        <ele>9</ele>
        <time>2018-03-15T06:34:56Z</time>
      </trkpt>
      <trkpt lat="46.67139" lon="-1.88324">
        <ele>9</ele>
        <time>2018-03-15T06:35:56Z</time>
      </trkpt>
      <trkpt lat="46.6714" lon="-1.88317">
        <ele>9</ele>
        <time>2018-03-15T06:36:56Z</time>
      </trkpt>
      <trkpt lat="46.67141" lon="-1.88306">
        <ele>9</ele>
        <time>2018-03-15T06:37:56Z</time>
      </trkpt>
      <trkpt lat="46.67141" lon="-1.88301">
        <ele>9</ele>
        <time>2018-03-15T06:38:56Z</time>
      </trkpt>
      <trkpt lat="46.67142" lon="-1.88295">
        <ele>9</ele>
        <time>2018-03-15T06:39:56Z</time>
      </trkpt>
      <trkpt lat="46.67143" lon="-1.88289">
        <ele>9</ele>
        <time>2018-03-15T06:40:56Z</time>
      </trkpt>
      <trkpt lat="46.67146" lon="-1.88277">
        <ele>8</ele>
        <time>2018-03-15T06:41:56Z</time>
      </trkpt>
      <trkpt lat="46.67148" lon="-1.8827">
        <ele>8</ele>
        <time>2018-03-15T06:42:56Z</time>
      </trkpt>
      <trkpt lat="46.67149" lon="-1.88266">
        <ele>8</ele>
        <time>2018-03-15T06:43:56Z</time>
      </trkpt>
      <trkpt lat="46.67152" lon="-1.88256">
        <ele>8</ele>
        <time>2018-03-15T06:44:56Z</time>
      </trkpt>
      <trkpt lat="46.67155" lon="-1.88246">
        <ele>8</ele>
        <time>2018-03-15T06:45:56Z</time>
      </trkpt>
      <trkpt lat="46.67156" lon="-1.88241">
        <ele>8</ele>
        <time>2018-03-15T06:46:56Z</time>
      </trkpt>
      <trkpt lat="46.67158" lon="-1.88235">
        <ele>8</ele>
        <time>2018-03-15T06:47:56Z</time>
      </trkpt>
      <trkpt lat="46.67159" lon="-1.8823">
        <ele>8</ele>
        <time>2018-03-15T06:48:56Z</time>
      </trkpt>
      <trkpt lat="46.67159" lon="-1.88229">
        <ele>8</ele>
        <time>2018-03-15T06:49:56Z</time>
      </trkpt>
      <trkpt lat="46.67162" lon="-1.8822">
        <ele>8</ele>
        <time>2018-03-15T06:50:56Z</time>
      </trkpt>
      <trkpt lat="46.67161" lon="-1.8822">
        <ele>8</ele>
        <time>2018-03-15T06:51:56Z</time>
      </trkpt>
      <trkpt lat="46.67161" lon="-1.88219">
        <ele>8</ele>
        <time>2018-03-15T06:52:56Z</time>
      </trkpt>
      <trkpt lat="46.6716" lon="-1.88219">
        <ele>8</ele>
        <time>2018-03-15T06:53:56Z</time>
      </trkpt>
      <trkpt lat="46.6716" lon="-1.88218">
        <ele>8</ele>
        <time>2018-03-15T06:54:56Z</time>
      </trkpt>
      <trkpt lat="46.67159" lon="-1.88218">
        <ele>8</ele>
        <time>2018-03-15T06:55:56Z</time>
      </trkpt>
      <trkpt lat="46.67159" lon="-1.88217">
        <ele>8</ele>
        <time>2018-03-15T06:56:56Z</time>
      </trkpt>
      <trkpt lat="46.67158" lon="-1.88216">
        <ele>8</ele>
        <time>2018-03-15T06:57:56Z</time>
      </trkpt>
      <trkpt lat="46.67158" lon="-1.88215">
        <ele>7</ele>
        <time>2018-03-15T06:58:56Z</time>
      </trkpt>
      <trkpt lat="46.67157" lon="-1.88215">
        <ele>7</ele>
        <time>2018-03-15T06:59:56Z</time>
      </trkpt>
      <trkpt lat="46.67157" lon="-1.88214">
        <ele>7</ele>
        <time>2018-03-15T07:00:56Z</time>
      </trkpt>
      <trkpt lat="46.67157" lon="-1.88213">
        <ele>7</ele>
        <time>2018-03-15T07:01:56Z</time>
      </trkpt>
      <trkpt lat="46.67157" lon="-1.88212">
        <ele>7</ele>
        <time>2018-03-15T07:02:56Z</time>
      </trkpt>
      <trkpt lat="46.67157" lon="-1.88211">
        <ele>7</ele>
        <time>2018-03-15T07:03:56Z</time>
      </trkpt>
      <trkpt lat="46.67156" lon="-1.8821">
        <ele>7</ele>
        <time>2018-03-15T07:04:56Z</time>
      </trkpt>
      <trkpt lat="46.67156" lon="-1.88209">
        <ele>7</ele>
        <time>2018-03-15T07:05:56Z</time>
      </trkpt>
      <trkpt lat="46.67156" lon="-1.88208">
        <ele>7</ele>
        <time>2018-03-15T07:06:56Z</time>
      </trkpt>
      <trkpt lat="46.67156" lon="-1.88207">
        <ele>7</ele>
        <time>2018-03-15T07:07:56Z</time>
      </trkpt>
      <trkpt lat="46.67156" lon="-1.88206">
        <ele>7</ele>
        <time>2018-03-15T07:08:56Z</time>
      </trkpt>
      <trkpt lat="46.67157" lon="-1.88205">
        <ele>7</ele>
        <time>2018-03-15T07:09:56Z</time>
      </trkpt>
      <trkpt lat="46.67157" lon="-1.88204">
        <ele>7</ele>
        <time>2018-03-15T07:10:56Z</time>
      </trkpt>
      <trkpt lat="46.67157" lon="-1.88203">
        <ele>7</ele>
        <time>2018-03-15T07:11:56Z</time>
      </trkpt>
      <trkpt lat="46.67157" lon="-1.88202">
        <ele>7</ele>
        <time>2018-03-15T07:12:56Z</time>
      </trkpt>
      <trkpt lat="46.67158" lon="-1.88201">
        <ele>7</ele>
        <time>2018-03-15T07:13:56Z</time>
      </trkpt>
      <trkpt lat="46.67158" lon="-1.882">
        <ele>7</ele>
        <time>2018-03-15T07:14:56Z</time>
      </trkpt>
      <trkpt lat="46.67159" lon="-1.88199">
        <ele>7</ele>
        <time>2018-03-15T07:15:56Z</time>
      </trkpt>
      <trkpt lat="46.67159" lon="-1.88198">
        <ele>7</ele>
        <time>2018-03-15T07:16:56Z</time>
      </trkpt>
      <trkpt lat="46.6716" lon="-1.88198">
        <ele>7</ele>
        <time>2018-03-15T07:17:56Z</time>
      </trkpt>
      <trkpt lat="46.6716" lon="-1.88197">
        <ele>7</ele>
        <time>2018-03-15T07:18:56Z</time>
      </trkpt>
      <trkpt lat="46.67161" lon="-1.88197">
        <ele>7</ele>
        <time>2018-03-15T07:19:56Z</time>
      </trkpt>
      <trkpt lat="46.67161" lon="-1.88196">
        <ele>7</ele>
        <time>2018-03-15T07:20:56Z</time>
      </trkpt>
      <trkpt lat="46.67162" lon="-1.88196">
        <ele>7</ele>
        <time>2018-03-15T07:21:56Z</time>
      </trkpt>
      <trkpt lat="46.67162" lon="-1.88195">
        <ele>7</ele>
        <time>2018-03-15T07:22:56Z</time>
      </trkpt>
      <trkpt lat="46.67163" lon="-1.88195">
        <ele>7</ele>
        <time>2018-03-15T07:23:56Z</time>
      </trkpt>
      <trkpt lat="46.67164" lon="-1.88195">
        <ele>7</ele>
        <time>2018-03-15T07:24:56Z</time>
      </trkpt>
      <trkpt lat="46.67165" lon="-1.88195">
        <ele>7</ele>
        <time>2018-03-15T07:25:56Z</time>
      </trkpt>
      <trkpt lat="46.67166" lon="-1.88195">
        <ele>7</ele>
        <time>2018-03-15T07:26:56Z</time>
      </trkpt>
      <trkpt lat="46.67167" lon="-1.88195">
        <ele>7</ele>
        <time>2018-03-15T07:27:56Z</time>
      </trkpt>
      <trkpt lat="46.67168" lon="-1.88195">
        <ele>7</ele>
        <time>2018-03-15T07:28:56Z</time>
      </trkpt>
      <trkpt lat="46.67172" lon="-1.88182">
        <ele>7</ele>
        <time>2018-03-15T07:29:56Z</time>
      </trkpt>
      <trkpt lat="46.67173" lon="-1.88176">
        <ele>7</ele>
        <time>2018-03-15T07:30:56Z</time>
      </trkpt>
      <trkpt lat="46.67174" lon="-1.8817">
        <ele>7</ele>
        <time>2018-03-15T07:31:56Z</time>
      </trkpt>
      <trkpt lat="46.67178" lon="-1.88145">
        <ele>8</ele>
        <time>2018-03-15T07:32:56Z</time>
      </trkpt>
      <trkpt lat="46.67183" lon="-1.88109">
        <ele>8</ele>
        <time>2018-03-15T07:33:56Z</time>
      </trkpt>
      <trkpt lat="46.67187" lon="-1.88081">
        <ele>9</ele>
        <time>2018-03-15T07:34:56Z</time>
      </trkpt>
      <trkpt lat="46.67193" lon="-1.88041">
        <ele>9</ele>
        <time>2018-03-15T07:35:56Z</time>
      </trkpt>
      <trkpt lat="46.67198" lon="-1.88006">
        <ele>10</ele>
        <time>2018-03-15T07:36:56Z</time>
      </trkpt>
      <trkpt lat="46.67202" lon="-1.87978">
        <ele>10</ele>
        <time>2018-03-15T07:37:56Z</time>
      </trkpt>
      <trkpt lat="46.67205" lon="-1.87955">
        <ele>10</ele>
        <time>2018-03-15T07:38:56Z</time>
      </trkpt>
      <trkpt lat="46.67208" lon="-1.87929">
        <ele>10</ele>
        <time>2018-03-15T07:39:56Z</time>
      </trkpt>
      <trkpt lat="46.67211" lon="-1.87909">
        <ele>10</ele>
        <time>2018-03-15T07:40:56Z</time>
      </trkpt>
      <trkpt lat="46.67213" lon="-1.87887">
        <ele>10</ele>
        <time>2018-03-15T07:41:56Z</time>
      </trkpt>
      <trkpt lat="46.67213" lon="-1.87872">
        <ele>10</ele>
        <time>2018-03-15T07:42:56Z</time>
      </trkpt>
      <trkpt lat="46.67213" lon="-1.87857">
        <ele>10</ele>
        <time>2018-03-15T07:43:56Z</time>
      </trkpt>
      <trkpt lat="46.67213" lon="-1.87839">
        <ele>10</ele>
        <time>2018-03-15T07:44:56Z</time>
      </trkpt>
      <trkpt lat="46.67213" lon="-1.87822">
        <ele>10</ele>
        <time>2018-03-15T07:45:56Z</time>
      </trkpt>
      <trkpt lat="46.67212" lon="-1.878">
        <ele>10</ele>
        <time>2018-03-15T07:46:56Z</time>
      </trkpt>
      <trkpt lat="46.67212" lon="-1.87783">
        <ele>10</ele>
        <time>2018-03-15T07:47:56Z</time>
      </trkpt>
      <trkpt lat="46.67212" lon="-1.87767">
        <ele>10</ele>
        <time>2018-03-15T07:48:56Z</time>
      </trkpt>
      <trkpt lat="46.67213" lon="-1.87744">
        <ele>10</ele>
        <time>2018-03-15T07:49:56Z</time>
      </trkpt>
      <trkpt lat="46.67214" lon="-1.87723">
        <ele>10</ele>
        <time>2018-03-15T07:50:56Z</time>
      </trkpt>
      <trkpt lat="46.67215" lon="-1.87698">
        <ele>11</ele>
        <time>2018-03-15T07:51:56Z</time>
      </trkpt>
      <trkpt lat="46.67217" lon="-1.87673">
        <ele>11</ele>
        <time>2018-03-15T07:52:56Z</time>
      </trkpt>
      <trkpt lat="46.67218" lon="-1.87652">
        <ele>11</ele>
        <time>2018-03-15T07:53:56Z</time>
      </trkpt>
      <trkpt lat="46.67219" lon="-1.87634">
        <ele>11</ele>
        <time>2018-03-15T07:54:56Z</time>
      </trkpt>
      <trkpt lat="46.67221" lon="-1.87616">
        <ele>11</ele>
        <time>2018-03-15T07:55:56Z</time>
      </trkpt>
      <trkpt lat="46.67224" lon="-1.87603">
        <ele>12</ele>
        <time>2018-03-15T07:56:56Z</time>
      </trkpt>
      <trkpt lat="46.67225" lon="-1.87591">
        <ele>12</ele>
        <time>2018-03-15T07:57:56Z</time>
      </trkpt>
      <trkpt lat="46.67226" lon="-1.8758">
        <ele>12</ele>
        <time>2018-03-15T07:58:56Z</time>
      </trkpt>
      <trkpt lat="46.6723" lon="-1.8755">
        <ele>12</ele>
        <time>2018-03-15T07:59:56Z</time>
      </trkpt>
      <trkpt lat="46.67232" lon="-1.87531">
        <ele>12</ele>
        <time>2018-03-15T08:00:56Z</time>
      </trkpt>
      <trkpt lat="46.67236" lon="-1.87498">
        <ele>12</ele>
        <time>2018-03-15T08:01:56Z</time>
      </trkpt>
      <trkpt lat="46.67243" lon="-1.87445">
        <ele>12</ele>
        <time>2018-03-15T08:02:56Z</time>
      </trkpt>
      <trkpt lat="46.67247" lon="-1.87411">
        <ele>12</ele>
        <time>2018-03-15T08:03:56Z</time>
      </trkpt>
      <trkpt lat="46.67247" lon="-1.87407">
        <ele>12</ele>
        <time>2018-03-15T08:04:56Z</time>
      </trkpt>
      <trkpt lat="46.6725" lon="-1.87377">
        <ele>12</ele>
        <time>2018-03-15T08:05:56Z</time>
      </trkpt>
      <trkpt lat="46.67251" lon="-1.87373">
        <ele>12</ele>
        <time>2018-03-15T08:06:56Z</time>
      </trkpt>
      <trkpt lat="46.67254" lon="-1.87333">
        <ele>11</ele>
        <time>2018-03-15T08:07:56Z</time>
      </trkpt>
      <trkpt lat="46.67256" lon="-1.87307">
        <ele>11</ele>
        <time>2018-03-15T08:08:56Z</time>
      </trkpt>
      <trkpt lat="46.6726" lon="-1.87256">
        <ele>10</ele>
        <time>2018-03-15T08:09:56Z</time>
      </trkpt>
      <trkpt lat="46.67261" lon="-1.87244">
        <ele>9</ele>
        <time>2018-03-15T08:10:56Z</time>
      </trkpt>
      <trkpt lat="46.67263" lon="-1.87218">
        <ele>9</ele>
        <time>2018-03-15T08:11:56Z</time>
      </trkpt>
      <trkpt lat="46.67264" lon="-1.87205">
        <ele>9</ele>
        <time>2018-03-15T08:12:56Z</time>
      </trkpt>
      <trkpt lat="46.67265" lon="-1.8718">
        <ele>8</ele>
        <time>2018-03-15T08:13:56Z</time>
      </trkpt>
      <trkpt lat="46.67267" lon="-1.87155">
        <ele>8</ele>
        <time>2018-03-15T08:14:56Z</time>
      </trkpt>
      <trkpt lat="46.67269" lon="-1.8713">
        <ele>9</ele>
        <time>2018-03-15T08:15:56Z</time>
      </trkpt>
      <trkpt lat="46.67272" lon="-1.87082">
        <ele>9</ele>
        <time>2018-03-15T08:16:56Z</time>
      </trkpt>
      <trkpt lat="46.67272" lon="-1.8707">
        <ele>9</ele>
        <time>2018-03-15T08:17:56Z</time>
      </trkpt>
      <trkpt lat="46.67273" lon="-1.87048">
        <ele>9</ele>
        <time>2018-03-15T08:18:56Z</time>
      </trkpt>
      <trkpt lat="46.67273" lon="-1.87028">
        <ele>8</ele>
        <time>2018-03-15T08:19:56Z</time>
      </trkpt>
      <trkpt lat="46.67271" lon="-1.87013">
        <ele>8</ele>
        <time>2018-03-15T08:20:56Z</time>
      </trkpt>
      <trkpt lat="46.67269" lon="-1.87004">
        <ele>7</ele>
        <time>2018-03-15T08:21:56Z</time>
      </trkpt>
      <trkpt lat="46.67267" lon="-1.86994">
        <ele>7</ele>
        <time>2018-03-15T08:22:56Z</time>
      </trkpt>
      <trkpt lat="46.67263" lon="-1.86983">
        <ele>6</ele>
        <time>2018-03-15T08:23:56Z</time>
      </trkpt>
      <trkpt lat="46.6726" lon="-1.86974">
        <ele>6</ele>
        <time>2018-03-15T08:24:56Z</time>
      </trkpt>
      <trkpt lat="46.67256" lon="-1.86965">
        <ele>5</ele>
        <time>2018-03-15T08:25:56Z</time>
      </trkpt>
      <trkpt lat="46.67251" lon="-1.86955">
        <ele>5</ele>
        <time>2018-03-15T08:26:56Z</time>
      </trkpt>
      <trkpt lat="46.67246" lon="-1.86946">
        <ele>5</ele>
        <time>2018-03-15T08:27:56Z</time>
      </trkpt>
      <trkpt lat="46.67228" lon="-1.8691">
        <ele>4</ele>
        <time>2018-03-15T08:28:56Z</time>
      </trkpt>
      <trkpt lat="46.67213" lon="-1.86883">
        <ele>3</ele>
        <time>2018-03-15T08:29:56Z</time>
      </trkpt>
      <trkpt lat="46.67209" lon="-1.86876">
        <ele>3</ele>
        <time>2018-03-15T08:30:56Z</time>
      </trkpt>
      <trkpt lat="46.67205" lon="-1.86869">
        <ele>3</ele>
        <time>2018-03-15T08:31:56Z</time>
      </trkpt>
      <trkpt lat="46.67202" lon="-1.86862">
        <ele>3</ele>
        <time>2018-03-15T08:32:56Z</time>
      </trkpt>
      <trkpt lat="46.67189" lon="-1.86841">
        <ele>3</ele>
        <time>2018-03-15T08:33:56Z</time>
      </trkpt>
      <trkpt lat="46.6718" lon="-1.86819">
        <ele>4</ele>
        <time>2018-03-15T08:34:56Z</time>
      </trkpt>
      <trkpt lat="46.67179" lon="-1.86815">
        <ele>4</ele>
        <time>2018-03-15T08:35:56Z</time>
      </trkpt>
      <trkpt lat="46.67177" lon="-1.86808">
        <ele>4</ele>
        <time>2018-03-15T08:36:56Z</time>
      </trkpt>
      <trkpt lat="46.67173" lon="-1.86797">
        <ele>4</ele>
        <time>2018-03-15T08:37:56Z</time>
      </trkpt>
      <trkpt lat="46.6717" lon="-1.86785">
        <ele>4</ele>
        <time>2018-03-15T08:38:56Z</time>
      </trkpt>
      <trkpt lat="46.67169" lon="-1.86772">
        <ele>5</ele>
        <time>2018-03-15T08:39:56Z</time>
      </trkpt>
      <trkpt lat="46.67167" lon="-1.86759">
        <ele>5</ele>
        <time>2018-03-15T08:40:56Z</time>
      </trkpt>
      <trkpt lat="46.67166" lon="-1.8675">
        <ele>5</ele>
        <time>2018-03-15T08:41:56Z</time>
      </trkpt>
      <trkpt lat="46.67166" lon="-1.86747">
        <ele>5</ele>
        <time>2018-03-15T08:42:56Z</time>
      </trkpt>
      <trkpt lat="46.67166" lon="-1.86732">
        <ele>6</ele>
        <time>2018-03-15T08:43:56Z</time>
      </trkpt>
      <trkpt lat="46.67166" lon="-1.86708">
        <ele>7</ele>
        <time>2018-03-15T08:44:56Z</time>
      </trkpt>
      <trkpt lat="46.67166" lon="-1.86704">
        <ele>7</ele>
        <time>2018-03-15T08:45:56Z</time>
      </trkpt>
      <trkpt lat="46.67166" lon="-1.86696">
        <ele>7</ele>
        <time>2018-03-15T08:46:56Z</time>
      </trkpt>
      <trkpt lat="46.67167" lon="-1.86684">
        <ele>7</ele>
        <time>2018-03-15T08:47:56Z</time>
      </trkpt>
      <trkpt lat="46.67168" lon="-1.86673">
        <ele>8</ele>
        <time>2018-03-15T08:48:56Z</time>
      </trkpt>
      <trkpt lat="46.67168" lon="-1.86671">
        <ele>8</ele>
        <time>2018-03-15T08:49:56Z</time>
      </trkpt>
      <trkpt lat="46.6717" lon="-1.86659">
        <ele>8</ele>
        <time>2018-03-15T08:50:56Z</time>
      </trkpt>
      <trkpt lat="46.67171" lon="-1.86648">
        <ele>8</ele>
        <time>2018-03-15T08:51:56Z</time>
      </trkpt>
      <trkpt lat="46.67172" lon="-1.86647">
        <ele>8</ele>
        <time>2018-03-15T08:52:56Z</time>
      </trkpt>
      <trkpt lat="46.67174" lon="-1.86635">
        <ele>8</ele>
        <time>2018-03-15T08:53:56Z</time>
      </trkpt>
      <trkpt lat="46.67176" lon="-1.86622">
        <ele>8</ele>
        <time>2018-03-15T08:54:56Z</time>
      </trkpt>
      <trkpt lat="46.67179" lon="-1.8661">
        <ele>8</ele>
        <time>2018-03-15T08:55:56Z</time>
      </trkpt>
      <trkpt lat="46.67183" lon="-1.86598">
        <ele>8</ele>
        <time>2018-03-15T08:56:56Z</time>
      </trkpt>
      <trkpt lat="46.6719" lon="-1.86574">
        <ele>8</ele>
        <time>2018-03-15T08:57:56Z</time>
      </trkpt>
      <trkpt lat="46.67196" lon="-1.86555">
        <ele>8</ele>
        <time>2018-03-15T08:58:56Z</time>
      </trkpt>
      <trkpt lat="46.67196" lon="-1.86553">
        <ele>8</ele>
        <time>2018-03-15T08:59:56Z</time>
      </trkpt>
      <trkpt lat="46.67202" lon="-1.86536">
        <ele>9</ele>
        <time>2018-03-15T09:00:56Z</time>
      </trkpt>
      <trkpt lat="46.67206" lon="-1.86523">
        <ele>9</ele>
        <time>2018-03-15T09:01:56Z</time>
      </trkpt>
      <trkpt lat="46.67214" lon="-1.86498">
        <ele>9</ele>
        <time>2018-03-15T09:02:56Z</time>
      </trkpt>
      <trkpt lat="46.67223" lon="-1.86467">
        <ele>10</ele>
        <time>2018-03-15T09:03:56Z</time>
      </trkpt>
      <trkpt lat="46.67229" lon="-1.86444">
        <ele>10</ele>
        <time>2018-03-15T09:04:56Z</time>
      </trkpt>
      <trkpt lat="46.67234" lon="-1.86421">
        <ele>10</ele>
        <time>2018-03-15T09:05:56Z</time>
      </trkpt>
      <trkpt lat="46.67235" lon="-1.86411">
        <ele>10</ele>
        <time>2018-03-15T09:06:56Z</time>
      </trkpt>
      <trkpt lat="46.67237" lon="-1.86399">
        <ele>10</ele>
        <time>2018-03-15T09:07:56Z</time>
      </trkpt>
      <trkpt lat="46.67241" lon="-1.8637">
        <ele>10</ele>
        <time>2018-03-15T09:08:56Z</time>
      </trkpt>
      <trkpt lat="46.67243" lon="-1.86336">
        <ele>10</ele>
        <time>2018-03-15T09:09:56Z</time>
      </trkpt>
      <trkpt lat="46.67245" lon="-1.863">
        <ele>10</ele>
        <time>2018-03-15T09:10:56Z</time>
      </trkpt>
      <trkpt lat="46.67246" lon="-1.86272">
        <ele>10</ele>
        <time>2018-03-15T09:11:56Z</time>
      </trkpt>
      <trkpt lat="46.67248" lon="-1.86257">
        <ele>10</ele>
        <time>2018-03-15T09:12:56Z</time>
      </trkpt>
      <trkpt lat="46.6725" lon="-1.86243">
        <ele>10</ele>
        <time>2018-03-15T09:13:56Z</time>
      </trkpt>
      <trkpt lat="46.67252" lon="-1.86237">
        <ele>11</ele>
        <time>2018-03-15T09:14:56Z</time>
      </trkpt>
      <trkpt lat="46.67255" lon="-1.86227">
        <ele>11</ele>
        <time>2018-03-15T09:15:56Z</time>
      </trkpt>
      <trkpt lat="46.67262" lon="-1.86208">
        <ele>11</ele>
        <time>2018-03-15T09:16:56Z</time>
      </trkpt>
      <trkpt lat="46.6727" lon="-1.86185">
        <ele>12</ele>
        <time>2018-03-15T09:17:56Z</time>
      </trkpt>
      <trkpt lat="46.67276" lon="-1.86168">
        <ele>12</ele>
        <time>2018-03-15T09:18:56Z</time>
      </trkpt>
      <trkpt lat="46.67277" lon="-1.86165">
        <ele>12</ele>
        <time>2018-03-15T09:19:56Z</time>
      </trkpt>
      <trkpt lat="46.67283" lon="-1.86141">
        <ele>12</ele>
        <time>2018-03-15T09:20:56Z</time>
      </trkpt>
      <trkpt lat="46.67288" lon="-1.8612">
        <ele>12</ele>
        <time>2018-03-15T09:21:56Z</time>
      </trkpt>
      <trkpt lat="46.67292" lon="-1.86098">
        <ele>12</ele>
        <time>2018-03-15T09:22:56Z</time>
      </trkpt>
      <trkpt lat="46.67295" lon="-1.86076">
        <ele>13</ele>
        <time>2018-03-15T09:23:56Z</time>
      </trkpt>
      <trkpt lat="46.67296" lon="-1.86068">
        <ele>13</ele>
        <time>2018-03-15T09:24:56Z</time>
      </trkpt>
      <trkpt lat="46.67298" lon="-1.86053">
        <ele>13</ele>
        <time>2018-03-15T09:25:56Z</time>
      </trkpt>
      <trkpt lat="46.673" lon="-1.86038">
        <ele>13</ele>
        <time>2018-03-15T09:26:56Z</time>
      </trkpt>
      <trkpt lat="46.67301" lon="-1.86022">
        <ele>14</ele>
        <time>2018-03-15T09:27:56Z</time>
      </trkpt>
      <trkpt lat="46.67305" lon="-1.85977">
        <ele>15</ele>
        <time>2018-03-15T09:28:56Z</time>
      </trkpt>
      <trkpt lat="46.67306" lon="-1.85959">
        <ele>15</ele>
        <time>2018-03-15T09:29:56Z</time>
      </trkpt>
      <trkpt lat="46.67306" lon="-1.8593">
        <ele>15</ele>
        <time>2018-03-15T09:30:56Z</time>
      </trkpt>
      <trkpt lat="46.67306" lon="-1.859">
        <ele>15</ele>
        <time>2018-03-15T09:31:56Z</time>
      </trkpt>
      <trkpt lat="46.67305" lon="-1.85869">
        <ele>16</ele>
        <time>2018-03-15T09:32:56Z</time>
      </trkpt>
      <trkpt lat="46.67304" lon="-1.8584">
        <ele>16</ele>
        <time>2018-03-15T09:33:56Z</time>
      </trkpt>
      <trkpt lat="46.67302" lon="-1.8581">
        <ele>16</ele>
        <time>2018-03-15T09:34:56Z</time>
      </trkpt>
      <trkpt lat="46.67299" lon="-1.85767">
        <ele>16</ele>
        <time>2018-03-15T09:35:56Z</time>
      </trkpt>
      <trkpt lat="46.67295" lon="-1.85721">
        <ele>15</ele>
        <time>2018-03-15T09:36:56Z</time>
      </trkpt>
      <trkpt lat="46.67291" lon="-1.85677">
        <ele>15</ele>
        <time>2018-03-15T09:37:56Z</time>
      </trkpt>
      <trkpt lat="46.67288" lon="-1.85647">
        <ele>15</ele>
        <time>2018-03-15T09:38:56Z</time>
      </trkpt>
      <trkpt lat="46.67285" lon="-1.85601">
        <ele>16</ele>
        <time>2018-03-15T09:39:56Z</time>
      </trkpt>
      <trkpt lat="46.67281" lon="-1.85556">
        <ele>17</ele>
        <time>2018-03-15T09:40:56Z</time>
      </trkpt>
      <trkpt lat="46.67279" lon="-1.85526">
        <ele>17</ele>
        <time>2018-03-15T09:41:56Z</time>
      </trkpt>
      <trkpt lat="46.67275" lon="-1.8548">
        <ele>18</ele>
        <time>2018-03-15T09:42:56Z</time>
      </trkpt>
      <trkpt lat="46.67271" lon="-1.85421">
        <ele>18</ele>
        <time>2018-03-15T09:43:56Z</time>
      </trkpt>
      <trkpt lat="46.67269" lon="-1.85388">
        <ele>19</ele>
        <time>2018-03-15T09:44:56Z</time>
      </trkpt>
      <trkpt lat="46.67266" lon="-1.85362">
        <ele>19</ele>
        <time>2018-03-15T09:45:56Z</time>
      </trkpt>
      <trkpt lat="46.67263" lon="-1.85339">
        <ele>20</ele>
        <time>2018-03-15T09:46:56Z</time>
      </trkpt>
      <trkpt lat="46.6726" lon="-1.85321">
        <ele>20</ele>
        <time>2018-03-15T09:47:56Z</time>
      </trkpt>
      <trkpt lat="46.67255" lon="-1.85296">
        <ele>19</ele>
        <time>2018-03-15T09:48:56Z</time>
      </trkpt>
      <trkpt lat="46.67248" lon="-1.85268">
        <ele>19</ele>
        <time>2018-03-15T09:49:56Z</time>
      </trkpt>
      <trkpt lat="46.67239" lon="-1.85237">
        <ele>19</ele>
        <time>2018-03-15T09:50:56Z</time>
      </trkpt>
      <trkpt lat="46.67224" lon="-1.85184">
        <ele>19</ele>
        <time>2018-03-15T09:51:56Z</time>
      </trkpt>
      <trkpt lat="46.67214" lon="-1.8515">
        <ele>19</ele>
        <time>2018-03-15T09:52:56Z</time>
      </trkpt>
      <trkpt lat="46.67201" lon="-1.85109">
        <ele>19</ele>
        <time>2018-03-15T09:53:56Z</time>
      </trkpt>
      <trkpt lat="46.6719" lon="-1.85073">
        <ele>19</ele>
        <time>2018-03-15T09:54:56Z</time>
      </trkpt>
      <trkpt lat="46.67185" lon="-1.85055">
        <ele>19</ele>
        <time>2018-03-15T09:55:56Z</time>
      </trkpt>
      <trkpt lat="46.67178" lon="-1.85027">
        <ele>19</ele>
        <time>2018-03-15T09:56:56Z</time>
      </trkpt>
      <trkpt lat="46.67175" lon="-1.85014">
        <ele>18</ele>
        <time>2018-03-15T09:57:56Z</time>
      </trkpt>
      <trkpt lat="46.67172" lon="-1.84999">
        <ele>18</ele>
        <time>2018-03-15T09:58:56Z</time>
      </trkpt>
      <trkpt lat="46.67168" lon="-1.84972">
        <ele>18</ele>
        <time>2018-03-15T09:59:56Z</time>
      </trkpt>
      <trkpt lat="46.67166" lon="-1.84956">
        <ele>18</ele>
        <time>2018-03-15T10:00:56Z</time>
      </trkpt>
      <trkpt lat="46.67165" lon="-1.84941">
        <ele>18</ele>
        <time>2018-03-15T10:01:56Z</time>
      </trkpt>
      <trkpt lat="46.67164" lon="-1.84926">
        <ele>18</ele>
        <time>2018-03-15T10:02:56Z</time>
      </trkpt>
      <trkpt lat="46.67164" lon="-1.84898">
        <ele>18</ele>
        <time>2018-03-15T10:03:56Z</time>
      </trkpt>
      <trkpt lat="46.67164" lon="-1.84883">
        <ele>18</ele>
        <time>2018-03-15T10:04:56Z</time>
      </trkpt>
      <trkpt lat="46.67165" lon="-1.84868">
        <ele>18</ele>
        <time>2018-03-15T10:05:56Z</time>
      </trkpt>
      <trkpt lat="46.67167" lon="-1.8484">
        <ele>18</ele>
        <time>2018-03-15T10:06:56Z</time>
      </trkpt>
      <trkpt lat="46.67171" lon="-1.84811">
        <ele>18</ele>
        <time>2018-03-15T10:07:56Z</time>
      </trkpt>
      <trkpt lat="46.67175" lon="-1.8478">
        <ele>19</ele>
        <time>2018-03-15T10:08:56Z</time>
      </trkpt>
      <trkpt lat="46.67175" lon="-1.84769">
        <ele>19</ele>
        <time>2018-03-15T10:09:56Z</time>
      </trkpt>
      <trkpt lat="46.67182" lon="-1.84714">
        <ele>20</ele>
        <time>2018-03-15T10:10:56Z</time>
      </trkpt>
      <trkpt lat="46.67191" lon="-1.84651">
        <ele>20</ele>
        <time>2018-03-15T10:11:56Z</time>
      </trkpt>
      <trkpt lat="46.67198" lon="-1.84599">
        <ele>20</ele>
        <time>2018-03-15T10:12:56Z</time>
      </trkpt>
      <trkpt lat="46.67205" lon="-1.84549">
        <ele>20</ele>
        <time>2018-03-15T10:13:56Z</time>
      </trkpt>
      <trkpt lat="46.67212" lon="-1.84497">
        <ele>21</ele>
        <time>2018-03-15T10:14:56Z</time>
      </trkpt>
      <trkpt lat="46.67219" lon="-1.84446">
        <ele>21</ele>
        <time>2018-03-15T10:15:56Z</time>
      </trkpt>
      <trkpt lat="46.67224" lon="-1.84411">
        <ele>21</ele>
        <time>2018-03-15T10:16:56Z</time>
      </trkpt>
      <trkpt lat="46.67226" lon="-1.84398">
        <ele>21</ele>
        <time>2018-03-15T10:17:56Z</time>
      </trkpt>
      <trkpt lat="46.6723" lon="-1.84361">
        <ele>21</ele>
        <time>2018-03-15T10:18:56Z</time>
      </trkpt>
      <trkpt lat="46.67237" lon="-1.84309">
        <ele>22</ele>
        <time>2018-03-15T10:19:56Z</time>
      </trkpt>
      <trkpt lat="46.67241" lon="-1.84276">
        <ele>22</ele>
        <time>2018-03-15T10:20:56Z</time>
      </trkpt>
      <trkpt lat="46.67245" lon="-1.84242">
        <ele>22</ele>
        <time>2018-03-15T10:21:56Z</time>
      </trkpt>
      <trkpt lat="46.67247" lon="-1.84225">
        <ele>21</ele>
        <time>2018-03-15T10:22:56Z</time>
      </trkpt>
      <trkpt lat="46.67248" lon="-1.84207">
        <ele>21</ele>
        <time>2018-03-15T10:23:56Z</time>
      </trkpt>
      <trkpt lat="46.6725" lon="-1.84185">
        <ele>20</ele>
        <time>2018-03-15T10:24:56Z</time>
      </trkpt>
      <trkpt lat="46.67251" lon="-1.84138">
        <ele>20</ele>
        <time>2018-03-15T10:25:56Z</time>
      </trkpt>
      <trkpt lat="46.67252" lon="-1.84121">
        <ele>20</ele>
        <time>2018-03-15T10:26:56Z</time>
      </trkpt>
      <trkpt lat="46.67254" lon="-1.84058">
        <ele>21</ele>
        <time>2018-03-15T10:27:56Z</time>
      </trkpt>
      <trkpt lat="46.67256" lon="-1.83985">
        <ele>22</ele>
        <time>2018-03-15T10:28:56Z</time>
      </trkpt>
      <trkpt lat="46.67257" lon="-1.83925">
        <ele>23</ele>
        <time>2018-03-15T10:29:56Z</time>
      </trkpt>
      <trkpt lat="46.67257" lon="-1.83897">
        <ele>23</ele>
        <time>2018-03-15T10:30:56Z</time>
      </trkpt>
      <trkpt lat="46.67256" lon="-1.83874">
        <ele>23</ele>
        <time>2018-03-15T10:31:56Z</time>
      </trkpt>
      <trkpt lat="46.67254" lon="-1.83845">
        <ele>23</ele>
        <time>2018-03-15T10:32:56Z</time>
      </trkpt>
      <trkpt lat="46.67252" lon="-1.83824">
        <ele>23</ele>
        <time>2018-03-15T10:33:56Z</time>
      </trkpt>
      <trkpt lat="46.67252" lon="-1.8382">
        <ele>23</ele>
        <time>2018-03-15T10:34:56Z</time>
      </trkpt>
      <trkpt lat="46.67251" lon="-1.83814">
        <ele>23</ele>
        <time>2018-03-15T10:35:56Z</time>
      </trkpt>
      <trkpt lat="46.67246" lon="-1.83765">
        <ele>23</ele>
        <time>2018-03-15T10:36:56Z</time>
      </trkpt>
      <trkpt lat="46.67241" lon="-1.83718">
        <ele>22</ele>
        <time>2018-03-15T10:37:56Z</time>
      </trkpt>
      <trkpt lat="46.67236" lon="-1.83657">
        <ele>21</ele>
        <time>2018-03-15T10:38:56Z</time>
      </trkpt>
      <trkpt lat="46.67229" lon="-1.83588">
        <ele>20</ele>
        <time>2018-03-15T10:39:56Z</time>
      </trkpt>
      <trkpt lat="46.67226" lon="-1.83557">
        <ele>20</ele>
        <time>2018-03-15T10:40:56Z</time>
      </trkpt>
      <trkpt lat="46.67223" lon="-1.8354">
        <ele>20</ele>
        <time>2018-03-15T10:41:56Z</time>
      </trkpt>
      <trkpt lat="46.67218" lon="-1.83519">
        <ele>20</ele>
        <time>2018-03-15T10:42:56Z</time>
      </trkpt>
      <trkpt lat="46.67214" lon="-1.83501">
        <ele>21</ele>
        <time>2018-03-15T10:43:56Z</time>
      </trkpt>
      <trkpt lat="46.67207" lon="-1.83477">
        <ele>21</ele>
        <time>2018-03-15T10:44:56Z</time>
      </trkpt>
      <trkpt lat="46.67201" lon="-1.83461">
        <ele>21</ele>
        <time>2018-03-15T10:45:56Z</time>
      </trkpt>
      <trkpt lat="46.67196" lon="-1.83446">
        <ele>21</ele>
        <time>2018-03-15T10:46:56Z</time>
      </trkpt>
      <trkpt lat="46.67186" lon="-1.83413">
        <ele>21</ele>
        <time>2018-03-15T10:47:56Z</time>
      </trkpt>
      <trkpt lat="46.67174" lon="-1.83374">
        <ele>22</ele>
        <time>2018-03-15T10:48:56Z</time>
      </trkpt>
      <trkpt lat="46.6716" lon="-1.83332">
        <ele>23</ele>
        <time>2018-03-15T10:49:56Z</time>
      </trkpt>
      <trkpt lat="46.67147" lon="-1.83295">
        <ele>22</ele>
        <time>2018-03-15T10:50:56Z</time>
      </trkpt>
      <trkpt lat="46.67135" lon="-1.83267">
        <ele>22</ele>
        <time>2018-03-15T10:51:56Z</time>
      </trkpt>
      <trkpt lat="46.6712" lon="-1.8323">
        <ele>22</ele>
        <time>2018-03-15T10:52:56Z</time>
      </trkpt>
      <trkpt lat="46.67104" lon="-1.83196">
        <ele>21</ele>
        <time>2018-03-15T10:53:56Z</time>
      </trkpt>
      <trkpt lat="46.67088" lon="-1.83161">
        <ele>21</ele>
        <time>2018-03-15T10:54:56Z</time>
      </trkpt>
      <trkpt lat="46.67068" lon="-1.83121">
        <ele>20</ele>
        <time>2018-03-15T10:55:56Z</time>
      </trkpt>
      <trkpt lat="46.67064" lon="-1.83112">
        <ele>20</ele>
        <time>2018-03-15T10:56:56Z</time>
      </trkpt>
      <trkpt lat="46.67063" lon="-1.83109">
        <ele>20</ele>
        <time>2018-03-15T10:57:56Z</time>
      </trkpt>
      <trkpt lat="46.67051" lon="-1.83086">
        <ele>19</ele>
        <time>2018-03-15T10:58:56Z</time>
      </trkpt>
      <trkpt lat="46.6704" lon="-1.83062">
        <ele>19</ele>
        <time>2018-03-15T10:59:56Z</time>
      </trkpt>
      <trkpt lat="46.67035" lon="-1.8305">
        <ele>18</ele>
        <time>2018-03-15T11:00:56Z</time>
      </trkpt>
      <trkpt lat="46.6703" lon="-1.83036">
        <ele>18</ele>
        <time>2018-03-15T11:01:56Z</time>
      </trkpt>
      <trkpt lat="46.67022" lon="-1.8301">
        <ele>18</ele>
        <time>2018-03-15T11:02:56Z</time>
      </trkpt>
      <trkpt lat="46.67014" lon="-1.82981">
        <ele>18</ele>
        <time>2018-03-15T11:03:56Z</time>
      </trkpt>
      <trkpt lat="46.67012" lon="-1.82975">
        <ele>18</ele>
        <time>2018-03-15T11:04:56Z</time>
      </trkpt>
      <trkpt lat="46.67012" lon="-1.82973">
        <ele>18</ele>
        <time>2018-03-15T11:05:56Z</time>
      </trkpt>
      <trkpt lat="46.67007" lon="-1.82957">
        <ele>18</ele>
        <time>2018-03-15T11:06:56Z</time>
      </trkpt>
      <trkpt lat="46.67005" lon="-1.82947">
        <ele>18</ele>
        <time>2018-03-15T11:07:56Z</time>
      </trkpt>
      <trkpt lat="46.67001" lon="-1.8293">
        <ele>18</ele>
        <time>2018-03-15T11:08:56Z</time>
      </trkpt>
      <trkpt lat="46.66997" lon="-1.82913">
        <ele>18</ele>
        <time>2018-03-15T11:09:56Z</time>
      </trkpt>
      <trkpt lat="46.66996" lon="-1.82904">
        <ele>18</ele>
        <time>2018-03-15T11:10:56Z</time>
      </trkpt>
      <trkpt lat="46.66995" lon="-1.82892">
        <ele>18</ele>
        <time>2018-03-15T11:11:56Z</time>
      </trkpt>
      <trkpt lat="46.66995" lon="-1.82876">
        <ele>18</ele>
        <time>2018-03-15T11:12:56Z</time>
      </trkpt>
      <trkpt lat="46.66995" lon="-1.82867">
        <ele>18</ele>
        <time>2018-03-15T11:13:56Z</time>
      </trkpt>
      <trkpt lat="46.66995" lon="-1.8286">
        <ele>18</ele>
        <time>2018-03-15T11:14:56Z</time>
      </trkpt>
      <trkpt lat="46.66995" lon="-1.82856">
        <ele>18</ele>
        <time>2018-03-15T11:15:56Z</time>
      </trkpt>
      <trkpt lat="46.66996" lon="-1.8285">
        <ele>18</ele>
        <time>2018-03-15T11:16:56Z</time>
      </trkpt>
      <trkpt lat="46.66997" lon="-1.82846">
        <ele>18</ele>
        <time>2018-03-15T11:17:56Z</time>
      </trkpt>
      <trkpt lat="46.67002" lon="-1.82833">
        <ele>18</ele>
        <time>2018-03-15T11:18:56Z</time>
      </trkpt>
      <trkpt lat="46.6701" lon="-1.82811">
        <ele>18</ele>
        <time>2018-03-15T11:19:56Z</time>
      </trkpt>
      <trkpt lat="46.67016" lon="-1.82794">
        <ele>18</ele>
        <time>2018-03-15T11:20:56Z</time>
      </trkpt>
      <trkpt lat="46.67021" lon="-1.82782">
        <ele>18</ele>
        <time>2018-03-15T11:21:56Z</time>
      </trkpt>
      <trkpt lat="46.67025" lon="-1.82771">
        <ele>18</ele>
        <time>2018-03-15T11:22:56Z</time>
      </trkpt>
      <trkpt lat="46.67029" lon="-1.82759">
        <ele>18</ele>
        <time>2018-03-15T11:23:56Z</time>
      </trkpt>
      <trkpt lat="46.67034" lon="-1.8274">
        <ele>19</ele>
        <time>2018-03-15T11:24:56Z</time>
      </trkpt>
      <trkpt lat="46.67039" lon="-1.82724">
        <ele>20</ele>
        <time>2018-03-15T11:25:56Z</time>
      </trkpt>
      <trkpt lat="46.67042" lon="-1.82709">
        <ele>20</ele>
        <time>2018-03-15T11:26:56Z</time>
      </trkpt>
      <trkpt lat="46.67043" lon="-1.82709">
        <ele>21</ele>
        <time>2018-03-15T11:27:56Z</time>
      </trkpt>
      <trkpt lat="46.67045" lon="-1.82699">
        <ele>21</ele>
        <time>2018-03-15T11:28:56Z</time>
      </trkpt>
      <trkpt lat="46.67045" lon="-1.82694">
        <ele>21</ele>
        <time>2018-03-15T11:29:56Z</time>
      </trkpt>
      <trkpt lat="46.67045" lon="-1.82694">
        <ele>21</ele>
        <time>2018-03-15T11:30:56Z</time>
      </trkpt>
      <trkpt lat="46.67045" lon="-1.82687">
        <ele>22</ele>
        <time>2018-03-15T11:31:56Z</time>
      </trkpt>
      <trkpt lat="46.67048" lon="-1.82684">
        <ele>22</ele>
        <time>2018-03-15T11:32:56Z</time>
      </trkpt>
      <trkpt lat="46.67059" lon="-1.82675">
        <ele>22</ele>
        <time>2018-03-15T11:33:56Z</time>
      </trkpt>
      <trkpt lat="46.67059" lon="-1.82675">
        <ele>22</ele>
        <time>2018-03-15T11:34:56Z</time>
      </trkpt>
      <trkpt lat="46.6706" lon="-1.82674">
        <ele>22</ele>
        <time>2018-03-15T11:35:56Z</time>
      </trkpt>
      <trkpt lat="46.6706" lon="-1.82673">
        <ele>22</ele>
        <time>2018-03-15T11:36:56Z</time>
      </trkpt>
      <trkpt lat="46.6706" lon="-1.82672">
        <ele>22</ele>
        <time>2018-03-15T11:37:56Z</time>
      </trkpt>
      <trkpt lat="46.6706" lon="-1.82671">
        <ele>23</ele>
        <time>2018-03-15T11:38:56Z</time>
      </trkpt>
      <trkpt lat="46.67061" lon="-1.8267">
        <ele>23</ele>
        <time>2018-03-15T11:39:56Z</time>
      </trkpt>
      <trkpt lat="46.67061" lon="-1.82669">
        <ele>23</ele>
        <time>2018-03-15T11:40:56Z</time>
      </trkpt>
      <trkpt lat="46.67061" lon="-1.82668">
        <ele>23</ele>
        <time>2018-03-15T11:41:56Z</time>
      </trkpt>
      <trkpt lat="46.67062" lon="-1.82667">
        <ele>23</ele>
        <time>2018-03-15T11:42:56Z</time>
      </trkpt>
      <trkpt lat="46.67063" lon="-1.82666">
        <ele>23</ele>
        <time>2018-03-15T11:43:56Z</time>
      </trkpt>
      <trkpt lat="46.67063" lon="-1.82665">
        <ele>23</ele>
        <time>2018-03-15T11:44:56Z</time>
      </trkpt>
      <trkpt lat="46.67064" lon="-1.82665">
        <ele>23</ele>
        <time>2018-03-15T11:45:56Z</time>
      </trkpt>
      <trkpt lat="46.67064" lon="-1.82664">
        <ele>23</ele>
        <time>2018-03-15T11:46:56Z</time>
      </trkpt>
      <trkpt lat="46.67065" lon="-1.82663">
        <ele>23</ele>
        <time>2018-03-15T11:47:56Z</time>
      </trkpt>
      <trkpt lat="46.67066" lon="-1.82663">
        <ele>23</ele>
        <time>2018-03-15T11:48:56Z</time>
      </trkpt>
      <trkpt lat="46.67067" lon="-1.82662">
        <ele>23</ele>
        <time>2018-03-15T11:49:56Z</time>
      </trkpt>
      <trkpt lat="46.67068" lon="-1.82662">
        <ele>23</ele>
        <time>2018-03-15T11:50:56Z</time>
      </trkpt>
      <trkpt lat="46.67069" lon="-1.82662">
        <ele>23</ele>
        <time>2018-03-15T11:51:56Z</time>
      </trkpt>
      <trkpt lat="46.67069" lon="-1.82661">
        <ele>23</ele>
        <time>2018-03-15T11:52:56Z</time>
      </trkpt>
      <trkpt lat="46.6707" lon="-1.82661">
        <ele>23</ele>
        <time>2018-03-15T11:53:56Z</time>
      </trkpt>
      <trkpt lat="46.67074" lon="-1.82649">
        <ele>24</ele>
        <time>2018-03-15T11:54:56Z</time>
      </trkpt>
      <trkpt lat="46.67077" lon="-1.82641">
        <ele>24</ele>
        <time>2018-03-15T11:55:56Z</time>
      </trkpt>
      <trkpt lat="46.67078" lon="-1.82634">
        <ele>25</ele>
        <time>2018-03-15T11:56:56Z</time>
      </trkpt>
      <trkpt lat="46.67079" lon="-1.82617">
        <ele>25</ele>
        <time>2018-03-15T11:57:56Z</time>
      </trkpt>
      <trkpt lat="46.6708" lon="-1.82612">
        <ele>26</ele>
        <time>2018-03-15T11:58:56Z</time>
      </trkpt>
      <trkpt lat="46.6708" lon="-1.82607">
        <ele>26</ele>
        <time>2018-03-15T11:59:56Z</time>
      </trkpt>
      <trkpt lat="46.67082" lon="-1.82601">
        <ele>26</ele>
        <time>2018-03-15T12:00:56Z</time>
      </trkpt>
      <trkpt lat="46.67084" lon="-1.82595">
        <ele>26</ele>
        <time>2018-03-15T12:01:56Z</time>
      </trkpt>
      <trkpt lat="46.67086" lon="-1.82589">
        <ele>27</ele>
        <time>2018-03-15T12:02:56Z</time>
      </trkpt>
      <trkpt lat="46.67088" lon="-1.82583">
        <ele>27</ele>
        <time>2018-03-15T12:03:56Z</time>
      </trkpt>
      <trkpt lat="46.67092" lon="-1.82577">
        <ele>27</ele>
        <time>2018-03-15T12:04:56Z</time>
      </trkpt>
      <trkpt lat="46.67098" lon="-1.82565">
        <ele>28</ele>
        <time>2018-03-15T12:05:56Z</time>
      </trkpt>
      <trkpt lat="46.67106" lon="-1.82553">
        <ele>29</ele>
        <time>2018-03-15T12:06:56Z</time>
      </trkpt>
      <trkpt lat="46.67113" lon="-1.82541">
        <ele>29</ele>
        <time>2018-03-15T12:07:56Z</time>
      </trkpt>
      <trkpt lat="46.67128" lon="-1.82518">
        <ele>30</ele>
        <time>2018-03-15T12:08:56Z</time>
      </trkpt>
      <trkpt lat="46.67136" lon="-1.82506">
        <ele>31</ele>
        <time>2018-03-15T12:09:56Z</time>
      </trkpt>
      <trkpt lat="46.67143" lon="-1.82493">
        <ele>31</ele>
        <time>2018-03-15T12:10:56Z</time>
      </trkpt>
      <trkpt lat="46.67149" lon="-1.8248">
        <ele>31</ele>
        <time>2018-03-15T12:11:56Z</time>
      </trkpt>
      <trkpt lat="46.67158" lon="-1.82461">
        <ele>31</ele>
        <time>2018-03-15T12:12:56Z</time>
      </trkpt>
      <trkpt lat="46.67172" lon="-1.82433">
        <ele>31</ele>
        <time>2018-03-15T12:13:56Z</time>
      </trkpt>
      <trkpt lat="46.67192" lon="-1.8239">
        <ele>32</ele>
        <time>2018-03-15T12:14:56Z</time>
      </trkpt>
      <trkpt lat="46.67207" lon="-1.82355">
        <ele>32</ele>
        <time>2018-03-15T12:15:56Z</time>
      </trkpt>
      <trkpt lat="46.67223" lon="-1.82319">
        <ele>32</ele>
        <time>2018-03-15T12:16:56Z</time>
      </trkpt>
      <trkpt lat="46.67229" lon="-1.82304">
        <ele>32</ele>
        <time>2018-03-15T12:17:56Z</time>
      </trkpt>
      <trkpt lat="46.67235" lon="-1.82289">
        <ele>32</ele>
        <time>2018-03-15T12:18:56Z</time>
      </trkpt>
      <trkpt lat="46.67245" lon="-1.82267">
        <ele>32</ele>
        <time>2018-03-15T12:19:56Z</time>
      </trkpt>
      <trkpt lat="46.67251" lon="-1.82252">
        <ele>32</ele>
        <time>2018-03-15T12:20:56Z</time>
      </trkpt>
      <trkpt lat="46.67261" lon="-1.8223">
        <ele>32</ele>
        <time>2018-03-15T12:21:56Z</time>
      </trkpt>
      <trkpt lat="46.6727" lon="-1.82207">
        <ele>32</ele>
        <time>2018-03-15T12:22:56Z</time>
      </trkpt>
      <trkpt lat="46.6728" lon="-1.82178">
        <ele>32</ele>
        <time>2018-03-15T12:23:56Z</time>
      </trkpt>
      <trkpt lat="46.67285" lon="-1.82162">
        <ele>32</ele>
        <time>2018-03-15T12:24:56Z</time>
      </trkpt>
      <trkpt lat="46.6729" lon="-1.82148">
        <ele>32</ele>
        <time>2018-03-15T12:25:56Z</time>
      </trkpt>
      <trkpt lat="46.67305" lon="-1.82105">
        <ele>32</ele>
        <time>2018-03-15T12:26:56Z</time>
      </trkpt>
      <trkpt lat="46.6731" lon="-1.8209">
        <ele>32</ele>
        <time>2018-03-15T12:27:56Z</time>
      </trkpt>
      <trkpt lat="46.67317" lon="-1.82062">
        <ele>33</ele>
        <time>2018-03-15T12:28:56Z</time>
      </trkpt>
      <trkpt lat="46.67327" lon="-1.82026">
        <ele>33</ele>
        <time>2018-03-15T12:29:56Z</time>
      </trkpt>
      <trkpt lat="46.6733" lon="-1.82015">
        <ele>33</ele>
        <time>2018-03-15T12:30:56Z</time>
      </trkpt>
      <trkpt lat="46.67337" lon="-1.81992">
        <ele>33</ele>
        <time>2018-03-15T12:31:56Z</time>
      </trkpt>
      <trkpt lat="46.67347" lon="-1.8196">
        <ele>33</ele>
        <time>2018-03-15T12:32:56Z</time>
      </trkpt>
      <trkpt lat="46.67353" lon="-1.81943">
        <ele>33</ele>
        <time>2018-03-15T12:33:56Z</time>
      </trkpt>
      <trkpt lat="46.67364" lon="-1.81917">
        <ele>32</ele>
        <time>2018-03-15T12:34:56Z</time>
      </trkpt>
      <trkpt lat="46.67373" lon="-1.81897">
        <ele>32</ele>
        <time>2018-03-15T12:35:56Z</time>
      </trkpt>
      <trkpt lat="46.67386" lon="-1.81865">
        <ele>32</ele>
        <time>2018-03-15T12:36:56Z</time>
      </trkpt>
      <trkpt lat="46.67391" lon="-1.81851">
        <ele>32</ele>
        <time>2018-03-15T12:37:56Z</time>
      </trkpt>
      <trkpt lat="46.67395" lon="-1.81838">
        <ele>32</ele>
        <time>2018-03-15T12:38:56Z</time>
      </trkpt>
      <trkpt lat="46.67399" lon="-1.81824">
        <ele>32</ele>
        <time>2018-03-15T12:39:56Z</time>
      </trkpt>
      <trkpt lat="46.67402" lon="-1.81808">
        <ele>32</ele>
        <time>2018-03-15T12:40:56Z</time>
      </trkpt>
      <trkpt lat="46.67406" lon="-1.81783">
        <ele>32</ele>
        <time>2018-03-15T12:41:56Z</time>
      </trkpt>
      <trkpt lat="46.6741" lon="-1.8174">
        <ele>32</ele>
        <time>2018-03-15T12:42:56Z</time>
      </trkpt>
      <trkpt lat="46.67414" lon="-1.81695">
        <ele>32</ele>
        <time>2018-03-15T12:43:56Z</time>
      </trkpt>
      <trkpt lat="46.67416" lon="-1.81674">
        <ele>32</ele>
        <time>2018-03-15T12:44:56Z</time>
      </trkpt>
      <trkpt lat="46.67418" lon="-1.81652">
        <ele>32</ele>
        <time>2018-03-15T12:45:56Z</time>
      </trkpt>
      <trkpt lat="46.67422" lon="-1.81623">
        <ele>32</ele>
        <time>2018-03-15T12:46:56Z</time>
      </trkpt>
      <trkpt lat="46.67426" lon="-1.81595">
        <ele>32</ele>
        <time>2018-03-15T12:47:56Z</time>
      </trkpt>
      <trkpt lat="46.67432" lon="-1.81568">
        <ele>33</ele>
        <time>2018-03-15T12:48:56Z</time>
      </trkpt>
      <trkpt lat="46.67442" lon="-1.81528">
        <ele>34</ele>
        <time>2018-03-15T12:49:56Z</time>
      </trkpt>
      <trkpt lat="46.67449" lon="-1.81501">
        <ele>35</ele>
        <time>2018-03-15T12:50:56Z</time>
      </trkpt>
      <trkpt lat="46.67457" lon="-1.81468">
        <ele>35</ele>
        <time>2018-03-15T12:51:56Z</time>
      </trkpt>
      <trkpt lat="46.67465" lon="-1.81438">
        <ele>35</ele>
        <time>2018-03-15T12:52:56Z</time>
      </trkpt>
      <trkpt lat="46.67471" lon="-1.8142">
        <ele>35</ele>
        <time>2018-03-15T12:53:56Z</time>
      </trkpt>
      <trkpt lat="46.67481" lon="-1.81393">
        <ele>35</ele>
        <time>2018-03-15T12:54:56Z</time>
      </trkpt>
      <trkpt lat="46.67488" lon="-1.8137">
        <ele>35</ele>
        <time>2018-03-15T12:55:56Z</time>
      </trkpt>
      <trkpt lat="46.67493" lon="-1.81347">
        <ele>35</ele>
        <time>2018-03-15T12:56:56Z</time>
      </trkpt>
      <trkpt lat="46.67498" lon="-1.81323">
        <ele>35</ele>
        <time>2018-03-15T12:57:56Z</time>
      </trkpt>
      <trkpt lat="46.67501" lon="-1.81301">
        <ele>35</ele>
        <time>2018-03-15T12:58:56Z</time>
      </trkpt>
      <trkpt lat="46.67503" lon="-1.81276">
        <ele>36</ele>
        <time>2018-03-15T12:59:56Z</time>
      </trkpt>
      <trkpt lat="46.67504" lon="-1.81254">
        <ele>36</ele>
        <time>2018-03-15T13:00:56Z</time>
      </trkpt>
      <trkpt lat="46.67504" lon="-1.81229">
        <ele>36</ele>
        <time>2018-03-15T13:01:56Z</time>
      </trkpt>
      <trkpt lat="46.67505" lon="-1.81206">
        <ele>35</ele>
        <time>2018-03-15T13:02:56Z</time>
      </trkpt>
      <trkpt lat="46.67505" lon="-1.81181">
        <ele>34</ele>
        <time>2018-03-15T13:03:56Z</time>
      </trkpt>
      <trkpt lat="46.67506" lon="-1.81156">
        <ele>34</ele>
        <time>2018-03-15T13:04:56Z</time>
      </trkpt>
      <trkpt lat="46.67506" lon="-1.81131">
        <ele>33</ele>
        <time>2018-03-15T13:05:56Z</time>
      </trkpt>
      <trkpt lat="46.67508" lon="-1.81105">
        <ele>32</ele>
        <time>2018-03-15T13:06:56Z</time>
      </trkpt>
      <trkpt lat="46.67511" lon="-1.81078">
        <ele>31</ele>
        <time>2018-03-15T13:07:56Z</time>
      </trkpt>
      <trkpt lat="46.67514" lon="-1.81053">
        <ele>32</ele>
        <time>2018-03-15T13:08:56Z</time>
      </trkpt>
      <trkpt lat="46.67518" lon="-1.81026">
        <ele>32</ele>
        <time>2018-03-15T13:09:56Z</time>
      </trkpt>
      <trkpt lat="46.67521" lon="-1.81013">
        <ele>32</ele>
        <time>2018-03-15T13:10:56Z</time>
      </trkpt>
      <trkpt lat="46.67525" lon="-1.80989">
        <ele>33</ele>
        <time>2018-03-15T13:11:56Z</time>
      </trkpt>
      <trkpt lat="46.67545" lon="-1.80903">
        <ele>35</ele>
        <time>2018-03-15T13:12:56Z</time>
      </trkpt>
      <trkpt lat="46.67555" lon="-1.80865">
        <ele>35</ele>
        <time>2018-03-15T13:13:56Z</time>
      </trkpt>
      <trkpt lat="46.67562" lon="-1.80834">
        <ele>35</ele>
        <time>2018-03-15T13:14:56Z</time>
      </trkpt>
      <trkpt lat="46.67565" lon="-1.80813">
        <ele>36</ele>
        <time>2018-03-15T13:15:56Z</time>
      </trkpt>
      <trkpt lat="46.67569" lon="-1.80785">
        <ele>36</ele>
        <time>2018-03-15T13:16:56Z</time>
      </trkpt>
      <trkpt lat="46.67571" lon="-1.80759">
        <ele>36</ele>
        <time>2018-03-15T13:17:56Z</time>
      </trkpt>
      <trkpt lat="46.67573" lon="-1.80732">
        <ele>36</ele>
        <time>2018-03-15T13:18:56Z</time>
      </trkpt>
      <trkpt lat="46.67573" lon="-1.80715">
        <ele>36</ele>
        <time>2018-03-15T13:19:56Z</time>
      </trkpt>
      <trkpt lat="46.67572" lon="-1.80697">
        <ele>37</ele>
        <time>2018-03-15T13:20:56Z</time>
      </trkpt>
      <trkpt lat="46.67571" lon="-1.80684">
        <ele>37</ele>
        <time>2018-03-15T13:21:56Z</time>
      </trkpt>
      <trkpt lat="46.6757" lon="-1.80645">
        <ele>37</ele>
        <time>2018-03-15T13:22:56Z</time>
      </trkpt>
      <trkpt lat="46.67571" lon="-1.80611">
        <ele>38</ele>
        <time>2018-03-15T13:23:56Z</time>
      </trkpt>
      <trkpt lat="46.67571" lon="-1.80579">
        <ele>38</ele>
        <time>2018-03-15T13:24:56Z</time>
      </trkpt>
      <trkpt lat="46.67572" lon="-1.80542">
        <ele>37</ele>
        <time>2018-03-15T13:25:56Z</time>
      </trkpt>
      <trkpt lat="46.67572" lon="-1.80522">
        <ele>37</ele>
        <time>2018-03-15T13:26:56Z</time>
      </trkpt>
      <trkpt lat="46.67571" lon="-1.80495">
        <ele>37</ele>
        <time>2018-03-15T13:27:56Z</time>
      </trkpt>
      <trkpt lat="46.67571" lon="-1.80464">
        <ele>37</ele>
        <time>2018-03-15T13:28:56Z</time>
      </trkpt>
      <trkpt lat="46.67571" lon="-1.80439">
        <ele>37</ele>
        <time>2018-03-15T13:29:56Z</time>
      </trkpt>
      <trkpt lat="46.6757" lon="-1.80409">
        <ele>37</ele>
        <time>2018-03-15T13:30:56Z</time>
      </trkpt>
      <trkpt lat="46.6757" lon="-1.80378">
        <ele>37</ele>
        <time>2018-03-15T13:31:56Z</time>
      </trkpt>
      <trkpt lat="46.6757" lon="-1.80352">
        <ele>37</ele>
        <time>2018-03-15T13:32:56Z</time>
      </trkpt>
      <trkpt lat="46.67569" lon="-1.80328">
        <ele>37</ele>
        <time>2018-03-15T13:33:56Z</time>
      </trkpt>
      <trkpt lat="46.67569" lon="-1.8031">
        <ele>37</ele>
        <time>2018-03-15T13:34:56Z</time>
      </trkpt>
      <trkpt lat="46.67566" lon="-1.80289">
        <ele>36</ele>
        <time>2018-03-15T13:35:56Z</time>
      </trkpt>
      <trkpt lat="46.67564" lon="-1.80267">
        <ele>36</ele>
        <time>2018-03-15T13:36:56Z</time>
      </trkpt>
      <trkpt lat="46.67559" lon="-1.80243">
        <ele>36</ele>
        <time>2018-03-15T13:37:56Z</time>
      </trkpt>
      <trkpt lat="46.67555" lon="-1.80217">
        <ele>36</ele>
        <time>2018-03-15T13:38:56Z</time>
      </trkpt>
      <trkpt lat="46.67551" lon="-1.80193">
        <ele>36</ele>
        <time>2018-03-15T13:39:56Z</time>
      </trkpt>
      <trkpt lat="46.67549" lon="-1.80168">
        <ele>37</ele>
        <time>2018-03-15T13:40:56Z</time>
      </trkpt>
      <trkpt lat="46.67548" lon="-1.8014">
        <ele>37</ele>
        <time>2018-03-15T13:41:56Z</time>
      </trkpt>
      <trkpt lat="46.67548" lon="-1.80112">
        <ele>38</ele>
        <time>2018-03-15T13:42:56Z</time>
      </trkpt>
      <trkpt lat="46.67549" lon="-1.80084">
        <ele>38</ele>
        <time>2018-03-15T13:43:56Z</time>
      </trkpt>
      <trkpt lat="46.6755" lon="-1.80059">
        <ele>38</ele>
        <time>2018-03-15T13:44:56Z</time>
      </trkpt>
      <trkpt lat="46.67553" lon="-1.80032">
        <ele>39</ele>
        <time>2018-03-15T13:45:56Z</time>
      </trkpt>
      <trkpt lat="46.67553" lon="-1.80026">
        <ele>39</ele>
        <time>2018-03-15T13:46:56Z</time>
      </trkpt>
      <trkpt lat="46.67556" lon="-1.79998">
        <ele>39</ele>
        <time>2018-03-15T13:47:56Z</time>
      </trkpt>
      <trkpt lat="46.67558" lon="-1.79986">
        <ele>39</ele>
        <time>2018-03-15T13:48:56Z</time>
      </trkpt>
      <trkpt lat="46.6756" lon="-1.79973">
        <ele>39</ele>
        <time>2018-03-15T13:49:56Z</time>
      </trkpt>
      <trkpt lat="46.67561" lon="-1.79961">
        <ele>40</ele>
        <time>2018-03-15T13:50:56Z</time>
      </trkpt>
      <trkpt lat="46.67568" lon="-1.79939">
        <ele>40</ele>
        <time>2018-03-15T13:51:56Z</time>
      </trkpt>
      <trkpt lat="46.67575" lon="-1.79917">
        <ele>41</ele>
        <time>2018-03-15T13:52:56Z</time>
      </trkpt>
      <trkpt lat="46.67579" lon="-1.79906">
        <ele>41</ele>
        <time>2018-03-15T13:53:56Z</time>
      </trkpt>
      <trkpt lat="46.67583" lon="-1.79895">
        <ele>41</ele>
        <time>2018-03-15T13:54:56Z</time>
      </trkpt>
      <trkpt lat="46.67589" lon="-1.79878">
        <ele>42</ele>
        <time>2018-03-15T13:55:56Z</time>
      </trkpt>
      <trkpt lat="46.67594" lon="-1.79861">
        <ele>42</ele>
        <time>2018-03-15T13:56:56Z</time>
      </trkpt>
      <trkpt lat="46.67597" lon="-1.79849">
        <ele>42</ele>
        <time>2018-03-15T13:57:56Z</time>
      </trkpt>
      <trkpt lat="46.67599" lon="-1.79837">
        <ele>42</ele>
        <time>2018-03-15T13:58:56Z</time>
      </trkpt>
      <trkpt lat="46.67601" lon="-1.79826">
        <ele>42</ele>
        <time>2018-03-15T13:59:56Z</time>
      </trkpt>
      <trkpt lat="46.67603" lon="-1.79809">
        <ele>42</ele>
        <time>2018-03-15T14:00:56Z</time>
      </trkpt>
      <trkpt lat="46.67604" lon="-1.79787">
        <ele>42</ele>
        <time>2018-03-15T14:01:56Z</time>
      </trkpt>
      <trkpt lat="46.67605" lon="-1.79761">
        <ele>41</ele>
        <time>2018-03-15T14:02:56Z</time>
      </trkpt>
      <trkpt lat="46.67607" lon="-1.79732">
        <ele>41</ele>
        <time>2018-03-15T14:03:56Z</time>
      </trkpt>
      <trkpt lat="46.6761" lon="-1.79707">
        <ele>41</ele>
        <time>2018-03-15T14:04:56Z</time>
      </trkpt>
      <trkpt lat="46.67613" lon="-1.79687">
        <ele>41</ele>
        <time>2018-03-15T14:05:56Z</time>
      </trkpt>
      <trkpt lat="46.6762" lon="-1.79658">
        <ele>40</ele>
        <time>2018-03-15T14:06:56Z</time>
      </trkpt>
      <trkpt lat="46.67625" lon="-1.79639">
        <ele>40</ele>
        <time>2018-03-15T14:07:56Z</time>
      </trkpt>
      <trkpt lat="46.6763" lon="-1.79615">
        <ele>40</ele>
        <time>2018-03-15T14:08:56Z</time>
      </trkpt>
      <trkpt lat="46.67633" lon="-1.79592">
        <ele>40</ele>
        <time>2018-03-15T14:09:56Z</time>
      </trkpt>
      <trkpt lat="46.67634" lon="-1.79568">
        <ele>40</ele>
        <time>2018-03-15T14:10:56Z</time>
      </trkpt>
      <trkpt lat="46.67634" lon="-1.79556">
        <ele>40</ele>
        <time>2018-03-15T14:11:56Z</time>
      </trkpt>
      <trkpt lat="46.67634" lon="-1.79544">
        <ele>40</ele>
        <time>2018-03-15T14:12:56Z</time>
      </trkpt>
      <trkpt lat="46.67631" lon="-1.79521">
        <ele>39</ele>
        <time>2018-03-15T14:13:56Z</time>
      </trkpt>
      <trkpt lat="46.67629" lon="-1.79509">
        <ele>39</ele>
        <time>2018-03-15T14:14:56Z</time>
      </trkpt>
      <trkpt lat="46.67627" lon="-1.79499">
        <ele>39</ele>
        <time>2018-03-15T14:15:56Z</time>
      </trkpt>
      <trkpt lat="46.67623" lon="-1.79488">
        <ele>40</ele>
        <time>2018-03-15T14:16:56Z</time>
      </trkpt>
      <trkpt lat="46.6762" lon="-1.79477">
        <ele>40</ele>
        <time>2018-03-15T14:17:56Z</time>
      </trkpt>
      <trkpt lat="46.67609" lon="-1.7945">
        <ele>40</ele>
        <time>2018-03-15T14:18:56Z</time>
      </trkpt>
      <trkpt lat="46.67599" lon="-1.79426">
        <ele>41</ele>
        <time>2018-03-15T14:19:56Z</time>
      </trkpt>
      <trkpt lat="46.67596" lon="-1.79417">
        <ele>41</ele>
        <time>2018-03-15T14:20:56Z</time>
      </trkpt>
      <trkpt lat="46.67593" lon="-1.79407">
        <ele>41</ele>
        <time>2018-03-15T14:21:56Z</time>
      </trkpt>
      <trkpt lat="46.6759" lon="-1.79398">
        <ele>41</ele>
        <time>2018-03-15T14:22:56Z</time>
      </trkpt>
      <trkpt lat="46.67586" lon="-1.79387">
        <ele>41</ele>
        <time>2018-03-15T14:23:56Z</time>
      </trkpt>
      <trkpt lat="46.67583" lon="-1.79372">
        <ele>42</ele>
        <time>2018-03-15T14:24:56Z</time>
      </trkpt>
      <trkpt lat="46.67581" lon="-1.79355">
        <ele>42</ele>
        <time>2018-03-15T14:25:56Z</time>
      </trkpt>
      <trkpt lat="46.6758" lon="-1.7934">
        <ele>42</ele>
        <time>2018-03-15T14:26:56Z</time>
      </trkpt>
      <trkpt lat="46.6758" lon="-1.79328">
        <ele>42</ele>
        <time>2018-03-15T14:27:56Z</time>
      </trkpt>
      <trkpt lat="46.67579" lon="-1.79279">
        <ele>43</ele>
        <time>2018-03-15T14:28:56Z</time>
      </trkpt>
      <trkpt lat="46.67578" lon="-1.79253">
        <ele>43</ele>
        <time>2018-03-15T14:29:56Z</time>
      </trkpt>
      <trkpt lat="46.67577" lon="-1.79214">
        <ele>43</ele>
        <time>2018-03-15T14:30:56Z</time>
      </trkpt>
      <trkpt lat="46.67576" lon="-1.79175">
        <ele>43</ele>
        <time>2018-03-15T14:31:56Z</time>
      </trkpt>
      <trkpt lat="46.67576" lon="-1.79159">
        <ele>43</ele>
        <time>2018-03-15T14:32:56Z</time>
      </trkpt>
      <trkpt lat="46.67576" lon="-1.79128">
        <ele>42</ele>
        <time>2018-03-15T14:33:56Z</time>
      </trkpt>
      <trkpt lat="46.67575" lon="-1.79106">
        <ele>42</ele>
        <time>2018-03-15T14:34:56Z</time>
      </trkpt>
      <trkpt lat="46.67572" lon="-1.79082">
        <ele>42</ele>
        <time>2018-03-15T14:35:56Z</time>
      </trkpt>
      <trkpt lat="46.67569" lon="-1.79056">
        <ele>41</ele>
        <time>2018-03-15T14:36:56Z</time>
      </trkpt>
      <trkpt lat="46.67565" lon="-1.79025">
        <ele>41</ele>
        <time>2018-03-15T14:37:56Z</time>
      </trkpt>
      <trkpt lat="46.67559" lon="-1.7899">
        <ele>40</ele>
        <time>2018-03-15T14:38:56Z</time>
      </trkpt>
      <trkpt lat="46.67556" lon="-1.78967">
        <ele>39</ele>
        <time>2018-03-15T14:39:56Z</time>
      </trkpt>
      <trkpt lat="46.67551" lon="-1.78936">
        <ele>37</ele>
        <time>2018-03-15T14:40:56Z</time>
      </trkpt>
      <trkpt lat="46.67545" lon="-1.78909">
        <ele>36</ele>
        <time>2018-03-15T14:41:56Z</time>
      </trkpt>
      <trkpt lat="46.6754" lon="-1.78889">
        <ele>36</ele>
        <time>2018-03-15T14:42:56Z</time>
      </trkpt>
      <trkpt lat="46.67532" lon="-1.7886">
        <ele>36</ele>
        <time>2018-03-15T14:43:56Z</time>
      </trkpt>
      <trkpt lat="46.67527" lon="-1.78838">
        <ele>36</ele>
        <time>2018-03-15T14:44:56Z</time>
      </trkpt>
      <trkpt lat="46.67523" lon="-1.78821">
        <ele>36</ele>
        <time>2018-03-15T14:45:56Z</time>
      </trkpt>
      <trkpt lat="46.67515" lon="-1.78791">
        <ele>36</ele>
        <time>2018-03-15T14:46:56Z</time>
      </trkpt>
      <trkpt lat="46.67513" lon="-1.78783">
        <ele>36</ele>
        <time>2018-03-15T14:47:56Z</time>
      </trkpt>
      <trkpt lat="46.67506" lon="-1.78755">
        <ele>36</ele>
        <time>2018-03-15T14:48:56Z</time>
      </trkpt>
      <trkpt lat="46.67499" lon="-1.78726">
        <ele>36</ele>
        <time>2018-03-15T14:49:56Z</time>
      </trkpt>
      <trkpt lat="46.67491" lon="-1.78695">
        <ele>36</ele>
        <time>2018-03-15T14:50:56Z</time>
      </trkpt>
      <trkpt lat="46.67481" lon="-1.78658">
        <ele>36</ele>
        <time>2018-03-15T14:51:56Z</time>
      </trkpt>
      <trkpt lat="46.67471" lon="-1.78619">
        <ele>35</ele>
        <time>2018-03-15T14:52:56Z</time>
      </trkpt>
      <trkpt lat="46.67465" lon="-1.78601">
        <ele>35</ele>
        <time>2018-03-15T14:53:56Z</time>
      </trkpt>
      <trkpt lat="46.67462" lon="-1.78591">
        <ele>35</ele>
        <time>2018-03-15T14:54:56Z</time>
      </trkpt>
      <trkpt lat="46.67457" lon="-1.78584">
        <ele>36</ele>
        <time>2018-03-15T14:55:56Z</time>
      </trkpt>
      <trkpt lat="46.67454" lon="-1.78576">
        <ele>36</ele>
        <time>2018-03-15T14:56:56Z</time>
      </trkpt>
      <trkpt lat="46.6745" lon="-1.7857">
        <ele>36</ele>
        <time>2018-03-15T14:57:56Z</time>
      </trkpt>
      <trkpt lat="46.67448" lon="-1.78566">
        <ele>36</ele>
        <time>2018-03-15T14:58:56Z</time>
      </trkpt>
      <trkpt lat="46.67445" lon="-1.78562">
        <ele>36</ele>
        <time>2018-03-15T14:59:56Z</time>
      </trkpt>
      <trkpt lat="46.67442" lon="-1.78559">
        <ele>36</ele>
        <time>2018-03-15T15:00:56Z</time>
      </trkpt>
      <trkpt lat="46.67435" lon="-1.78542">
        <ele>36</ele>
        <time>2018-03-15T15:01:56Z</time>
      </trkpt>
      <trkpt lat="46.67433" lon="-1.78533">
        <ele>36</ele>
        <time>2018-03-15T15:02:56Z</time>
      </trkpt>
      <trkpt lat="46.67431" lon="-1.78524">
        <ele>36</ele>
        <time>2018-03-15T15:03:56Z</time>
      </trkpt>
      <trkpt lat="46.67421" lon="-1.78499">
        <ele>36</ele>
        <time>2018-03-15T15:04:56Z</time>
      </trkpt>
      <trkpt lat="46.6741" lon="-1.78476">
        <ele>36</ele>
        <time>2018-03-15T15:05:56Z</time>
      </trkpt>
      <trkpt lat="46.67402" lon="-1.78457">
        <ele>37</ele>
        <time>2018-03-15T15:06:56Z</time>
      </trkpt>
      <trkpt lat="46.67389" lon="-1.78426">
        <ele>37</ele>
        <time>2018-03-15T15:07:56Z</time>
      </trkpt>
      <trkpt lat="46.67379" lon="-1.78401">
        <ele>37</ele>
        <time>2018-03-15T15:08:56Z</time>
      </trkpt>
      <trkpt lat="46.67373" lon="-1.78382">
        <ele>37</ele>
        <time>2018-03-15T15:09:56Z</time>
      </trkpt>
      <trkpt lat="46.67368" lon="-1.78363">
        <ele>37</ele>
        <time>2018-03-15T15:10:56Z</time>
      </trkpt>
      <trkpt lat="46.67362" lon="-1.78345">
        <ele>37</ele>
        <time>2018-03-15T15:11:56Z</time>
      </trkpt>
      <trkpt lat="46.67355" lon="-1.78325">
        <ele>37</ele>
        <time>2018-03-15T15:12:56Z</time>
      </trkpt>
      <trkpt lat="46.67351" lon="-1.78317">
        <ele>37</ele>
        <time>2018-03-15T15:13:56Z</time>
      </trkpt>
      <trkpt lat="46.67347" lon="-1.78309">
        <ele>37</ele>
        <time>2018-03-15T15:14:56Z</time>
      </trkpt>
      <trkpt lat="46.67341" lon="-1.78301">
        <ele>37</ele>
        <time>2018-03-15T15:15:56Z</time>
      </trkpt>
      <trkpt lat="46.67336" lon="-1.78294">
        <ele>37</ele>
        <time>2018-03-15T15:16:56Z</time>
      </trkpt>
      <trkpt lat="46.6733" lon="-1.78289">
        <ele>37</ele>
        <time>2018-03-15T15:17:56Z</time>
      </trkpt>
      <trkpt lat="46.67324" lon="-1.78284">
        <ele>37</ele>
        <time>2018-03-15T15:18:56Z</time>
      </trkpt>
      <trkpt lat="46.67315" lon="-1.78278">
        <ele>37</ele>
        <time>2018-03-15T15:19:56Z</time>
      </trkpt>
      <trkpt lat="46.67307" lon="-1.78274">
        <ele>37</ele>
        <time>2018-03-15T15:20:56Z</time>
      </trkpt>
      <trkpt lat="46.67273" lon="-1.78259">
        <ele>37</ele>
        <time>2018-03-15T15:21:56Z</time>
      </trkpt>
      <trkpt lat="46.67251" lon="-1.78249">
        <ele>37</ele>
        <time>2018-03-15T15:22:56Z</time>
      </trkpt>
      <trkpt lat="46.67221" lon="-1.78237">
        <ele>38</ele>
        <time>2018-03-15T15:23:56Z</time>
      </trkpt>
      <trkpt lat="46.67208" lon="-1.7823">
        <ele>38</ele>
        <time>2018-03-15T15:24:56Z</time>
      </trkpt>
      <trkpt lat="46.67201" lon="-1.78226">
        <ele>38</ele>
        <time>2018-03-15T15:25:56Z</time>
      </trkpt>
      <trkpt lat="46.67196" lon="-1.78221">
        <ele>39</ele>
        <time>2018-03-15T15:26:56Z</time>
      </trkpt>
      <trkpt lat="46.67186" lon="-1.78212">
        <ele>39</ele>
        <time>2018-03-15T15:27:56Z</time>
      </trkpt>
      <trkpt lat="46.67181" lon="-1.78202">
        <ele>39</ele>
        <time>2018-03-15T15:28:56Z</time>
      </trkpt>
      <trkpt lat="46.67176" lon="-1.78192">
        <ele>39</ele>
        <time>2018-03-15T15:29:56Z</time>
      </trkpt>
      <trkpt lat="46.67174" lon="-1.78185">
        <ele>40</ele>
        <time>2018-03-15T15:30:56Z</time>
      </trkpt>
      <trkpt lat="46.67172" lon="-1.78177">
        <ele>40</ele>
        <time>2018-03-15T15:31:56Z</time>
      </trkpt>
      <trkpt lat="46.67169" lon="-1.78158">
        <ele>40</ele>
        <time>2018-03-15T15:32:56Z</time>
      </trkpt>
      <trkpt lat="46.67165" lon="-1.78136">
        <ele>40</ele>
        <time>2018-03-15T15:33:56Z</time>
      </trkpt>
      <trkpt lat="46.67161" lon="-1.78106">
        <ele>41</ele>
        <time>2018-03-15T15:34:56Z</time>
      </trkpt>
      <trkpt lat="46.67158" lon="-1.78077">
        <ele>41</ele>
        <time>2018-03-15T15:35:56Z</time>
      </trkpt>
      <trkpt lat="46.67157" lon="-1.7806">
        <ele>41</ele>
        <time>2018-03-15T15:36:56Z</time>
      </trkpt>
      <trkpt lat="46.67155" lon="-1.78038">
        <ele>41</ele>
        <time>2018-03-15T15:37:56Z</time>
      </trkpt>
      <trkpt lat="46.67155" lon="-1.78015">
        <ele>41</ele>
        <time>2018-03-15T15:38:56Z</time>
      </trkpt>
      <trkpt lat="46.67154" lon="-1.77993">
        <ele>41</ele>
        <time>2018-03-15T15:39:56Z</time>
      </trkpt>
      <trkpt lat="46.67152" lon="-1.77971">
        <ele>42</ele>
        <time>2018-03-15T15:40:56Z</time>
      </trkpt>
      <trkpt lat="46.67147" lon="-1.77951">
        <ele>42</ele>
        <time>2018-03-15T15:41:56Z</time>
      </trkpt>
      <trkpt lat="46.6714" lon="-1.77931">
        <ele>42</ele>
        <time>2018-03-15T15:42:56Z</time>
      </trkpt>
      <trkpt lat="46.67132" lon="-1.77911">
        <ele>43</ele>
        <time>2018-03-15T15:43:56Z</time>
      </trkpt>
      <trkpt lat="46.67116" lon="-1.77878">
        <ele>43</ele>
        <time>2018-03-15T15:44:56Z</time>
      </trkpt>
      <trkpt lat="46.67095" lon="-1.77835">
        <ele>43</ele>
        <time>2018-03-15T15:45:56Z</time>
      </trkpt>
      <trkpt lat="46.67069" lon="-1.77781">
        <ele>44</ele>
        <time>2018-03-15T15:46:56Z</time>
      </trkpt>
      <trkpt lat="46.6706" lon="-1.77764">
        <ele>44</ele>
        <time>2018-03-15T15:47:56Z</time>
      </trkpt>
      <trkpt lat="46.67055" lon="-1.77752">
        <ele>44</ele>
        <time>2018-03-15T15:48:56Z</time>
      </trkpt>
      <trkpt lat="46.67054" lon="-1.7775">
        <ele>44</ele>
        <time>2018-03-15T15:49:56Z</time>
      </trkpt>
      <trkpt lat="46.67033" lon="-1.77706">
        <ele>45</ele>
        <time>2018-03-15T15:50:56Z</time>
      </trkpt>
      <trkpt lat="46.67016" lon="-1.77669">
        <ele>45</ele>
        <time>2018-03-15T15:51:56Z</time>
      </trkpt>
      <trkpt lat="46.66998" lon="-1.77631">
        <ele>45</ele>
        <time>2018-03-15T15:52:56Z</time>
      </trkpt>
      <trkpt lat="46.66984" lon="-1.77605">
        <ele>46</ele>
        <time>2018-03-15T15:53:56Z</time>
      </trkpt>
      <trkpt lat="46.66971" lon="-1.77577">
        <ele>46</ele>
        <time>2018-03-15T15:54:56Z</time>
      </trkpt>
      <trkpt lat="46.66962" lon="-1.77558">
        <ele>46</ele>
        <time>2018-03-15T15:55:56Z</time>
      </trkpt>
      <trkpt lat="46.6696" lon="-1.77551">
        <ele>46</ele>
        <time>2018-03-15T15:56:56Z</time>
      </trkpt>
      <trkpt lat="46.66959" lon="-1.77544">
        <ele>46</ele>
        <time>2018-03-15T15:57:56Z</time>
      </trkpt>
      <trkpt lat="46.66958" lon="-1.77537">
        <ele>47</ele>
        <time>2018-03-15T15:58:56Z</time>
      </trkpt>
      <trkpt lat="46.66957" lon="-1.77528">
        <ele>47</ele>
        <time>2018-03-15T15:59:56Z</time>
      </trkpt>
      <trkpt lat="46.66957" lon="-1.7752">
        <ele>47</ele>
        <time>2018-03-15T16:00:56Z</time>
      </trkpt>
      <trkpt lat="46.66957" lon="-1.77515">
        <ele>47</ele>
        <time>2018-03-15T16:01:56Z</time>
      </trkpt>
      <trkpt lat="46.66957" lon="-1.7751">
        <ele>47</ele>
        <time>2018-03-15T16:02:56Z</time>
      </trkpt>
      <trkpt lat="46.66958" lon="-1.77501">
        <ele>47</ele>
        <time>2018-03-15T16:03:56Z</time>
      </trkpt>
      <trkpt lat="46.6696" lon="-1.77493">
        <ele>47</ele>
        <time>2018-03-15T16:04:56Z</time>
      </trkpt>
      <trkpt lat="46.66962" lon="-1.77484">
        <ele>47</ele>
        <time>2018-03-15T16:05:56Z</time>
      </trkpt>
      <trkpt lat="46.66964" lon="-1.77476">
        <ele>47</ele>
        <time>2018-03-15T16:06:56Z</time>
      </trkpt>
      <trkpt lat="46.66967" lon="-1.77465">
        <ele>47</ele>
        <time>2018-03-15T16:07:56Z</time>
      </trkpt>
      <trkpt lat="46.66971" lon="-1.77451">
        <ele>47</ele>
        <time>2018-03-15T16:08:56Z</time>
      </trkpt>
      <trkpt lat="46.6698" lon="-1.77417">
        <ele>47</ele>
        <time>2018-03-15T16:09:56Z</time>
      </trkpt>
      <trkpt lat="46.66988" lon="-1.77391">
        <ele>47</ele>
        <time>2018-03-15T16:10:56Z</time>
      </trkpt>
      <trkpt lat="46.66994" lon="-1.77369">
        <ele>47</ele>
        <time>2018-03-15T16:11:56Z</time>
      </trkpt>
      <trkpt lat="46.67001" lon="-1.77341">
        <ele>48</ele>
        <time>2018-03-15T16:12:56Z</time>
      </trkpt>
      <trkpt lat="46.67005" lon="-1.77325">
        <ele>48</ele>
        <time>2018-03-15T16:13:56Z</time>
      </trkpt>
      <trkpt lat="46.67008" lon="-1.77312">
        <ele>48</ele>
        <time>2018-03-15T16:14:56Z</time>
      </trkpt>
      <trkpt lat="46.6701" lon="-1.77298">
        <ele>48</ele>
        <time>2018-03-15T16:15:56Z</time>
      </trkpt>
      <trkpt lat="46.67015" lon="-1.77269">
        <ele>49</ele>
        <time>2018-03-15T16:16:56Z</time>
      </trkpt>
      <trkpt lat="46.67021" lon="-1.77237">
        <ele>49</ele>
        <time>2018-03-15T16:17:56Z</time>
      </trkpt>
      <trkpt lat="46.6703" lon="-1.77186">
        <ele>49</ele>
        <time>2018-03-15T16:18:56Z</time>
      </trkpt>
      <trkpt lat="46.67038" lon="-1.77144">
        <ele>50</ele>
        <time>2018-03-15T16:19:56Z</time>
      </trkpt>
      <trkpt lat="46.67044" lon="-1.77105">
        <ele>50</ele>
        <time>2018-03-15T16:20:56Z</time>
      </trkpt>
      <trkpt lat="46.67048" lon="-1.77084">
        <ele>51</ele>
        <time>2018-03-15T16:21:56Z</time>
      </trkpt>
      <trkpt lat="46.6705" lon="-1.77071">
        <ele>51</ele>
        <time>2018-03-15T16:22:56Z</time>
      </trkpt>
      <trkpt lat="46.6705" lon="-1.77066">
        <ele>51</ele>
        <time>2018-03-15T16:23:56Z</time>
      </trkpt>
      <trkpt lat="46.67052" lon="-1.77057">
        <ele>51</ele>
        <time>2018-03-15T16:24:56Z</time>
      </trkpt>
      <trkpt lat="46.67053" lon="-1.77046">
        <ele>51</ele>
        <time>2018-03-15T16:25:56Z</time>
      </trkpt>
      <trkpt lat="46.67055" lon="-1.77029">
        <ele>51</ele>
        <time>2018-03-15T16:26:56Z</time>
      </trkpt>
      <trkpt lat="46.67061" lon="-1.7699">
        <ele>52</ele>
        <time>2018-03-15T16:27:56Z</time>
      </trkpt>
      <trkpt lat="46.67067" lon="-1.76944">
        <ele>52</ele>
        <time>2018-03-15T16:28:56Z</time>
      </trkpt>
      <trkpt lat="46.6707" lon="-1.76927">
        <ele>52</ele>
        <time>2018-03-15T16:29:56Z</time>
      </trkpt>
      <trkpt lat="46.67073" lon="-1.76914">
        <ele>52</ele>
        <time>2018-03-15T16:30:56Z</time>
      </trkpt>
      <trkpt lat="46.67075" lon="-1.76904">
        <ele>52</ele>
        <time>2018-03-15T16:31:56Z</time>
      </trkpt>
      <trkpt lat="46.67084" lon="-1.76857">
        <ele>52</ele>
        <time>2018-03-15T16:32:56Z</time>
      </trkpt>
      <trkpt lat="46.67095" lon="-1.76807">
        <ele>52</ele>
        <time>2018-03-15T16:33:56Z</time>
      </trkpt>
      <trkpt lat="46.67103" lon="-1.76772">
        <ele>52</ele>
        <time>2018-03-15T16:34:56Z</time>
      </trkpt>
      <trkpt lat="46.67104" lon="-1.76764">
        <ele>52</ele>
        <time>2018-03-15T16:35:56Z</time>
      </trkpt>
      <trkpt lat="46.67107" lon="-1.76753">
        <ele>52</ele>
        <time>2018-03-15T16:36:56Z</time>
      </trkpt>
      <trkpt lat="46.67108" lon="-1.76743">
        <ele>52</ele>
        <time>2018-03-15T16:37:56Z</time>
      </trkpt>
      <trkpt lat="46.67109" lon="-1.76734">
        <ele>52</ele>
        <time>2018-03-15T16:38:56Z</time>
      </trkpt>
      <trkpt lat="46.6711" lon="-1.76721">
        <ele>52</ele>
        <time>2018-03-15T16:39:56Z</time>
      </trkpt>
      <trkpt lat="46.67112" lon="-1.76704">
        <ele>52</ele>
        <time>2018-03-15T16:40:56Z</time>
      </trkpt>
      <trkpt lat="46.67114" lon="-1.76683">
        <ele>51</ele>
        <time>2018-03-15T16:41:56Z</time>
      </trkpt>
      <trkpt lat="46.67115" lon="-1.76663">
        <ele>51</ele>
        <time>2018-03-15T16:42:56Z</time>
      </trkpt>
      <trkpt lat="46.67117" lon="-1.7664">
        <ele>51</ele>
        <time>2018-03-15T16:43:56Z</time>
      </trkpt>
      <trkpt lat="46.67119" lon="-1.76618">
        <ele>51</ele>
        <time>2018-03-15T16:44:56Z</time>
      </trkpt>
      <trkpt lat="46.67121" lon="-1.76604">
        <ele>50</ele>
        <time>2018-03-15T16:45:56Z</time>
      </trkpt>
      <trkpt lat="46.67121" lon="-1.76598">
        <ele>50</ele>
        <time>2018-03-15T16:46:56Z</time>
      </trkpt>
      <trkpt lat="46.67123" lon="-1.76589">
        <ele>50</ele>
        <time>2018-03-15T16:47:56Z</time>
      </trkpt>
      <trkpt lat="46.67125" lon="-1.76581">
        <ele>50</ele>
        <time>2018-03-15T16:48:56Z</time>
      </trkpt>
      <trkpt lat="46.67126" lon="-1.76576">
        <ele>50</ele>
        <time>2018-03-15T16:49:56Z</time>
      </trkpt>
      <trkpt lat="46.6713" lon="-1.7656">
        <ele>50</ele>
        <time>2018-03-15T16:50:56Z</time>
      </trkpt>
      <trkpt lat="46.67133" lon="-1.76546">
        <ele>50</ele>
        <time>2018-03-15T16:51:56Z</time>
      </trkpt>
      <trkpt lat="46.6714" lon="-1.76523">
        <ele>50</ele>
        <time>2018-03-15T16:52:56Z</time>
      </trkpt>
      <trkpt lat="46.6715" lon="-1.76484">
        <ele>50</ele>
        <time>2018-03-15T16:53:56Z</time>
      </trkpt>
      <trkpt lat="46.67166" lon="-1.76425">
        <ele>50</ele>
        <time>2018-03-15T16:54:56Z</time>
      </trkpt>
      <trkpt lat="46.67171" lon="-1.76406">
        <ele>50</ele>
        <time>2018-03-15T16:55:56Z</time>
      </trkpt>
      <trkpt lat="46.67176" lon="-1.76389">
        <ele>51</ele>
        <time>2018-03-15T16:56:56Z</time>
      </trkpt>
      <trkpt lat="46.6718" lon="-1.7638">
        <ele>51</ele>
        <time>2018-03-15T16:57:56Z</time>
      </trkpt>
      <trkpt lat="46.67182" lon="-1.76374">
        <ele>51</ele>
        <time>2018-03-15T16:58:56Z</time>
      </trkpt>
      <trkpt lat="46.67184" lon="-1.76371">
        <ele>51</ele>
        <time>2018-03-15T16:59:56Z</time>
      </trkpt>
      <trkpt lat="46.67187" lon="-1.76364">
        <ele>51</ele>
        <time>2018-03-15T17:00:56Z</time>
      </trkpt>
      <trkpt lat="46.672" lon="-1.76338">
        <ele>51</ele>
        <time>2018-03-15T17:01:56Z</time>
      </trkpt>
      <trkpt lat="46.67207" lon="-1.76324">
        <ele>51</ele>
        <time>2018-03-15T17:02:56Z</time>
      </trkpt>
      <trkpt lat="46.67214" lon="-1.76309">
        <ele>51</ele>
        <time>2018-03-15T17:03:56Z</time>
      </trkpt>
      <trkpt lat="46.67226" lon="-1.76284">
        <ele>51</ele>
        <time>2018-03-15T17:04:56Z</time>
      </trkpt>
      <trkpt lat="46.67234" lon="-1.76268">
        <ele>51</ele>
        <time>2018-03-15T17:05:56Z</time>
      </trkpt>
      <trkpt lat="46.67244" lon="-1.76243">
        <ele>51</ele>
        <time>2018-03-15T17:06:56Z</time>
      </trkpt>
      <trkpt lat="46.67249" lon="-1.76231">
        <ele>51</ele>
        <time>2018-03-15T17:07:56Z</time>
      </trkpt>
      <trkpt lat="46.67255" lon="-1.76217">
        <ele>51</ele>
        <time>2018-03-15T17:08:56Z</time>
      </trkpt>
      <trkpt lat="46.67262" lon="-1.76199">
        <ele>52</ele>
        <time>2018-03-15T17:09:56Z</time>
      </trkpt>
      <trkpt lat="46.67267" lon="-1.76183">
        <ele>52</ele>
        <time>2018-03-15T17:10:56Z</time>
      </trkpt>
      <trkpt lat="46.67269" lon="-1.76175">
        <ele>52</ele>
        <time>2018-03-15T17:11:56Z</time>
      </trkpt>
      <trkpt lat="46.6727" lon="-1.76168">
        <ele>52</ele>
        <time>2018-03-15T17:12:56Z</time>
      </trkpt>
      <trkpt lat="46.67272" lon="-1.76156">
        <ele>52</ele>
        <time>2018-03-15T17:13:56Z</time>
      </trkpt>
      <trkpt lat="46.67274" lon="-1.76138">
        <ele>52</ele>
        <time>2018-03-15T17:14:56Z</time>
      </trkpt>
      <trkpt lat="46.67277" lon="-1.76114">
        <ele>52</ele>
        <time>2018-03-15T17:15:56Z</time>
      </trkpt>
      <trkpt lat="46.67281" lon="-1.7608">
        <ele>52</ele>
        <time>2018-03-15T17:16:56Z</time>
      </trkpt>
      <trkpt lat="46.67285" lon="-1.76045">
        <ele>52</ele>
        <time>2018-03-15T17:17:56Z</time>
      </trkpt>
      <trkpt lat="46.67289" lon="-1.76008">
        <ele>52</ele>
        <time>2018-03-15T17:18:56Z</time>
      </trkpt>
      <trkpt lat="46.67292" lon="-1.75975">
        <ele>52</ele>
        <time>2018-03-15T17:19:56Z</time>
      </trkpt>
      <trkpt lat="46.67295" lon="-1.75945">
        <ele>52</ele>
        <time>2018-03-15T17:20:56Z</time>
      </trkpt>
      <trkpt lat="46.67298" lon="-1.75924">
        <ele>52</ele>
        <time>2018-03-15T17:21:56Z</time>
      </trkpt>
      <trkpt lat="46.67296" lon="-1.75918">
        <ele>52</ele>
        <time>2018-03-15T17:22:56Z</time>
      </trkpt>
      <trkpt lat="46.67297" lon="-1.75892">
        <ele>52</ele>
        <time>2018-03-15T17:23:56Z</time>
      </trkpt>
      <trkpt lat="46.67296" lon="-1.75877">
        <ele>52</ele>
        <time>2018-03-15T17:24:56Z</time>
      </trkpt>
      <trkpt lat="46.67296" lon="-1.75873">
        <ele>52</ele>
        <time>2018-03-15T17:25:56Z</time>
      </trkpt>
      <trkpt lat="46.67296" lon="-1.75864">
        <ele>52</ele>
        <time>2018-03-15T17:26:56Z</time>
      </trkpt>
      <trkpt lat="46.67296" lon="-1.75854">
        <ele>52</ele>
        <time>2018-03-15T17:27:56Z</time>
      </trkpt>
      <trkpt lat="46.67296" lon="-1.75839">
        <ele>52</ele>
        <time>2018-03-15T17:28:56Z</time>
      </trkpt>
      <trkpt lat="46.67296" lon="-1.75835">
        <ele>52</ele>
        <time>2018-03-15T17:29:56Z</time>
      </trkpt>
      <trkpt lat="46.67292" lon="-1.75796">
        <ele>52</ele>
        <time>2018-03-15T17:30:56Z</time>
      </trkpt>
      <trkpt lat="46.67293" lon="-1.75779">
        <ele>52</ele>
        <time>2018-03-15T17:31:56Z</time>
      </trkpt>
      <trkpt lat="46.6729" lon="-1.75767">
        <ele>52</ele>
        <time>2018-03-15T17:32:56Z</time>
      </trkpt>
      <trkpt lat="46.67288" lon="-1.75759">
        <ele>52</ele>
        <time>2018-03-15T17:33:56Z</time>
      </trkpt>
      <trkpt lat="46.67286" lon="-1.75751">
        <ele>52</ele>
        <time>2018-03-15T17:34:56Z</time>
      </trkpt>
      <trkpt lat="46.67285" lon="-1.75745">
        <ele>52</ele>
        <time>2018-03-15T17:35:56Z</time>
      </trkpt>
      <trkpt lat="46.67283" lon="-1.75731">
        <ele>52</ele>
        <time>2018-03-15T17:36:56Z</time>
      </trkpt>
      <trkpt lat="46.67278" lon="-1.75703">
        <ele>51</ele>
        <time>2018-03-15T17:37:56Z</time>
      </trkpt>
      <trkpt lat="46.67273" lon="-1.75664">
        <ele>51</ele>
        <time>2018-03-15T17:38:56Z</time>
      </trkpt>
      <trkpt lat="46.67268" lon="-1.7563">
        <ele>51</ele>
        <time>2018-03-15T17:39:56Z</time>
      </trkpt>
      <trkpt lat="46.67265" lon="-1.75607">
        <ele>50</ele>
        <time>2018-03-15T17:40:56Z</time>
      </trkpt>
      <trkpt lat="46.67262" lon="-1.75584">
        <ele>50</ele>
        <time>2018-03-15T17:41:56Z</time>
      </trkpt>
      <trkpt lat="46.67258" lon="-1.75551">
        <ele>51</ele>
        <time>2018-03-15T17:42:56Z</time>
      </trkpt>
      <trkpt lat="46.67253" lon="-1.75521">
        <ele>51</ele>
        <time>2018-03-15T17:43:56Z</time>
      </trkpt>
      <trkpt lat="46.6725" lon="-1.75503">
        <ele>51</ele>
        <time>2018-03-15T17:44:56Z</time>
      </trkpt>
      <trkpt lat="46.67246" lon="-1.75487">
        <ele>51</ele>
        <time>2018-03-15T17:45:56Z</time>
      </trkpt>
      <trkpt lat="46.67244" lon="-1.75477">
        <ele>51</ele>
        <time>2018-03-15T17:46:56Z</time>
      </trkpt>
      <trkpt lat="46.67241" lon="-1.75466">
        <ele>51</ele>
        <time>2018-03-15T17:47:56Z</time>
      </trkpt>
      <trkpt lat="46.67235" lon="-1.75442">
        <ele>51</ele>
        <time>2018-03-15T17:48:56Z</time>
      </trkpt>
      <trkpt lat="46.67227" lon="-1.75411">
        <ele>51</ele>
        <time>2018-03-15T17:49:56Z</time>
      </trkpt>
      <trkpt lat="46.67226" lon="-1.75404">
        <ele>51</ele>
        <time>2018-03-15T17:50:56Z</time>
      </trkpt>
      <trkpt lat="46.67225" lon="-1.75397">
        <ele>51</ele>
        <time>2018-03-15T17:51:56Z</time>
      </trkpt>
      <trkpt lat="46.67224" lon="-1.75388">
        <ele>52</ele>
        <time>2018-03-15T17:52:56Z</time>
      </trkpt>
      <trkpt lat="46.67224" lon="-1.75382">
        <ele>52</ele>
        <time>2018-03-15T17:53:56Z</time>
      </trkpt>
      <trkpt lat="46.67223" lon="-1.75374">
        <ele>52</ele>
        <time>2018-03-15T17:54:56Z</time>
      </trkpt>
      <trkpt lat="46.67223" lon="-1.75364">
        <ele>52</ele>
        <time>2018-03-15T17:55:56Z</time>
      </trkpt>
      <trkpt lat="46.67224" lon="-1.75333">
        <ele>53</ele>
        <time>2018-03-15T17:56:56Z</time>
      </trkpt>
      <trkpt lat="46.67224" lon="-1.75307">
        <ele>54</ele>
        <time>2018-03-15T17:57:56Z</time>
      </trkpt>
      <trkpt lat="46.67225" lon="-1.75255">
        <ele>55</ele>
        <time>2018-03-15T17:58:56Z</time>
      </trkpt>
      <trkpt lat="46.67226" lon="-1.75212">
        <ele>54</ele>
        <time>2018-03-15T17:59:56Z</time>
      </trkpt>
      <trkpt lat="46.67226" lon="-1.75207">
        <ele>54</ele>
        <time>2018-03-15T18:00:56Z</time>
      </trkpt>
      <trkpt lat="46.67226" lon="-1.75202">
        <ele>54</ele>
        <time>2018-03-15T18:01:56Z</time>
      </trkpt>
      <trkpt lat="46.67227" lon="-1.75197">
        <ele>54</ele>
        <time>2018-03-15T18:02:56Z</time>
      </trkpt>
      <trkpt lat="46.67228" lon="-1.75191">
        <ele>54</ele>
        <time>2018-03-15T18:03:56Z</time>
      </trkpt>
      <trkpt lat="46.67229" lon="-1.75188">
        <ele>54</ele>
        <time>2018-03-15T18:04:56Z</time>
      </trkpt>
      <trkpt lat="46.67231" lon="-1.75183">
        <ele>54</ele>
        <time>2018-03-15T18:05:56Z</time>
      </trkpt>
      <trkpt lat="46.67233" lon="-1.75177">
        <ele>54</ele>
        <time>2018-03-15T18:06:56Z</time>
      </trkpt>
      <trkpt lat="46.67237" lon="-1.75172">
        <ele>54</ele>
        <time>2018-03-15T18:07:56Z</time>
      </trkpt>
      <trkpt lat="46.67244" lon="-1.75162">
        <ele>54</ele>
        <time>2018-03-15T18:08:56Z</time>
      </trkpt>
      <trkpt lat="46.67246" lon="-1.75157">
        <ele>54</ele>
        <time>2018-03-15T18:09:56Z</time>
      </trkpt>
      <trkpt lat="46.67253" lon="-1.75145">
        <ele>54</ele>
        <time>2018-03-15T18:10:56Z</time>
      </trkpt>
      <trkpt lat="46.67264" lon="-1.7513">
        <ele>54</ele>
        <time>2018-03-15T18:11:56Z</time>
      </trkpt>
      <trkpt lat="46.67282" lon="-1.75101">
        <ele>54</ele>
        <time>2018-03-15T18:12:56Z</time>
      </trkpt>
      <trkpt lat="46.67286" lon="-1.75095">
        <ele>54</ele>
        <time>2018-03-15T18:13:56Z</time>
      </trkpt>
      <trkpt lat="46.67293" lon="-1.75087">
        <ele>55</ele>
        <time>2018-03-15T18:14:56Z</time>
      </trkpt>
      <trkpt lat="46.67296" lon="-1.75081">
        <ele>55</ele>
        <time>2018-03-15T18:15:56Z</time>
      </trkpt>
      <trkpt lat="46.67299" lon="-1.75077">
        <ele>55</ele>
        <time>2018-03-15T18:16:56Z</time>
      </trkpt>
      <trkpt lat="46.673" lon="-1.75074">
        <ele>55</ele>
        <time>2018-03-15T18:17:56Z</time>
      </trkpt>
      <trkpt lat="46.67302" lon="-1.7507">
        <ele>55</ele>
        <time>2018-03-15T18:18:56Z</time>
      </trkpt>
      <trkpt lat="46.67305" lon="-1.75064">
        <ele>55</ele>
        <time>2018-03-15T18:19:56Z</time>
      </trkpt>
      <trkpt lat="46.67307" lon="-1.75056">
        <ele>55</ele>
        <time>2018-03-15T18:20:56Z</time>
      </trkpt>
      <trkpt lat="46.67312" lon="-1.75037">
        <ele>55</ele>
        <time>2018-03-15T18:21:56Z</time>
      </trkpt>
      <trkpt lat="46.67315" lon="-1.75025">
        <ele>55</ele>
        <time>2018-03-15T18:22:56Z</time>
      </trkpt>
      <trkpt lat="46.67317" lon="-1.75017">
        <ele>55</ele>
        <time>2018-03-15T18:23:56Z</time>
      </trkpt>
      <trkpt lat="46.67318" lon="-1.75011">
        <ele>56</ele>
        <time>2018-03-15T18:24:56Z</time>
      </trkpt>
      <trkpt lat="46.6732" lon="-1.75006">
        <ele>56</ele>
        <time>2018-03-15T18:25:56Z</time>
      </trkpt>
      <trkpt lat="46.67323" lon="-1.74998">
        <ele>56</ele>
        <time>2018-03-15T18:26:56Z</time>
      </trkpt>
      <trkpt lat="46.67329" lon="-1.74984">
        <ele>56</ele>
        <time>2018-03-15T18:27:56Z</time>
      </trkpt>
      <trkpt lat="46.6733" lon="-1.74979">
        <ele>56</ele>
        <time>2018-03-15T18:28:56Z</time>
      </trkpt>
      <trkpt lat="46.67331" lon="-1.74975">
        <ele>56</ele>
        <time>2018-03-15T18:29:56Z</time>
      </trkpt>
      <trkpt lat="46.67333" lon="-1.74969">
        <ele>56</ele>
        <time>2018-03-15T18:30:56Z</time>
      </trkpt>
      <trkpt lat="46.67334" lon="-1.74964">
        <ele>56</ele>
        <time>2018-03-15T18:31:56Z</time>
      </trkpt>
      <trkpt lat="46.67336" lon="-1.74959">
        <ele>56</ele>
        <time>2018-03-15T18:32:56Z</time>
      </trkpt>
      <trkpt lat="46.67337" lon="-1.74956">
        <ele>56</ele>
        <time>2018-03-15T18:33:56Z</time>
      </trkpt>
      <trkpt lat="46.67338" lon="-1.74952">
        <ele>56</ele>
        <time>2018-03-15T18:34:56Z</time>
      </trkpt>
      <trkpt lat="46.6734" lon="-1.74943">
        <ele>56</ele>
        <time>2018-03-15T18:35:56Z</time>
      </trkpt>
      <trkpt lat="46.67344" lon="-1.74923">
        <ele>56</ele>
        <time>2018-03-15T18:36:56Z</time>
      </trkpt>
      <trkpt lat="46.67349" lon="-1.74904">
        <ele>56</ele>
        <time>2018-03-15T18:37:56Z</time>
      </trkpt>
      <trkpt lat="46.67351" lon="-1.74898">
        <ele>56</ele>
        <time>2018-03-15T18:38:56Z</time>
      </trkpt>
      <trkpt lat="46.67353" lon="-1.7489">
        <ele>56</ele>
        <time>2018-03-15T18:39:56Z</time>
      </trkpt>
      <trkpt lat="46.67354" lon="-1.74887">
        <ele>56</ele>
        <time>2018-03-15T18:40:56Z</time>
      </trkpt>
      <trkpt lat="46.67356" lon="-1.74883">
        <ele>56</ele>
        <time>2018-03-15T18:41:56Z</time>
      </trkpt>
      <trkpt lat="46.67358" lon="-1.74879">
        <ele>56</ele>
        <time>2018-03-15T18:42:56Z</time>
      </trkpt>
      <trkpt lat="46.67367" lon="-1.7486">
        <ele>56</ele>
        <time>2018-03-15T18:43:56Z</time>
      </trkpt>
      <trkpt lat="46.6738" lon="-1.74835">
        <ele>56</ele>
        <time>2018-03-15T18:44:56Z</time>
      </trkpt>
      <trkpt lat="46.67402" lon="-1.74791">
        <ele>56</ele>
        <time>2018-03-15T18:45:56Z</time>
      </trkpt>
      <trkpt lat="46.67414" lon="-1.74767">
        <ele>57</ele>
        <time>2018-03-15T18:46:56Z</time>
      </trkpt>
      <trkpt lat="46.67419" lon="-1.74759">
        <ele>57</ele>
        <time>2018-03-15T18:47:56Z</time>
      </trkpt>
      <trkpt lat="46.67434" lon="-1.74731">
        <ele>57</ele>
        <time>2018-03-15T18:48:56Z</time>
      </trkpt>
      <trkpt lat="46.67453" lon="-1.74697">
        <ele>58</ele>
        <time>2018-03-15T18:49:56Z</time>
      </trkpt>
      <trkpt lat="46.6746" lon="-1.74685">
        <ele>58</ele>
        <time>2018-03-15T18:50:56Z</time>
      </trkpt>
      <trkpt lat="46.67464" lon="-1.74677">
        <ele>58</ele>
        <time>2018-03-15T18:51:56Z</time>
      </trkpt>
      <trkpt lat="46.6747" lon="-1.74665">
        <ele>58</ele>
        <time>2018-03-15T18:52:56Z</time>
      </trkpt>
      <trkpt lat="46.67472" lon="-1.74661">
        <ele>58</ele>
        <time>2018-03-15T18:53:56Z</time>
      </trkpt>
      <trkpt lat="46.67479" lon="-1.74645">
        <ele>58</ele>
        <time>2018-03-15T18:54:56Z</time>
      </trkpt>
      <trkpt lat="46.67483" lon="-1.74636">
        <ele>58</ele>
        <time>2018-03-15T18:55:56Z</time>
      </trkpt>
      <trkpt lat="46.67486" lon="-1.7463">
        <ele>58</ele>
        <time>2018-03-15T18:56:56Z</time>
      </trkpt>
      <trkpt lat="46.6749" lon="-1.7462">
        <ele>58</ele>
        <time>2018-03-15T18:57:56Z</time>
      </trkpt>
      <trkpt lat="46.67493" lon="-1.74612">
        <ele>58</ele>
        <time>2018-03-15T18:58:56Z</time>
      </trkpt>
      <trkpt lat="46.67496" lon="-1.74603">
        <ele>58</ele>
        <time>2018-03-15T18:59:56Z</time>
      </trkpt>
      <trkpt lat="46.675" lon="-1.74593">
        <ele>58</ele>
        <time>2018-03-15T19:00:56Z</time>
      </trkpt>
      <trkpt lat="46.67502" lon="-1.74587">
        <ele>58</ele>
        <time>2018-03-15T19:01:56Z</time>
      </trkpt>
      <trkpt lat="46.67504" lon="-1.74584">
        <ele>58</ele>
        <time>2018-03-15T19:02:56Z</time>
      </trkpt>
      <trkpt lat="46.67505" lon="-1.7458">
        <ele>58</ele>
        <time>2018-03-15T19:03:56Z</time>
      </trkpt>
      <trkpt lat="46.67508" lon="-1.74569">
        <ele>57</ele>
        <time>2018-03-15T19:04:56Z</time>
      </trkpt>
      <trkpt lat="46.67513" lon="-1.74555">
        <ele>57</ele>
        <time>2018-03-15T19:05:56Z</time>
      </trkpt>
      <trkpt lat="46.67517" lon="-1.74543">
        <ele>57</ele>
        <time>2018-03-15T19:06:56Z</time>
      </trkpt>
      <trkpt lat="46.6752" lon="-1.74532">
        <ele>56</ele>
        <time>2018-03-15T19:07:56Z</time>
      </trkpt>
      <trkpt lat="46.67523" lon="-1.7452">
        <ele>56</ele>
        <time>2018-03-15T19:08:56Z</time>
      </trkpt>
      <trkpt lat="46.67528" lon="-1.74505">
        <ele>56</ele>
        <time>2018-03-15T19:09:56Z</time>
      </trkpt>
      <trkpt lat="46.67532" lon="-1.74489">
        <ele>56</ele>
        <time>2018-03-15T19:10:56Z</time>
      </trkpt>
      <trkpt lat="46.67533" lon="-1.74483">
        <ele>56</ele>
        <time>2018-03-15T19:11:56Z</time>
      </trkpt>
      <trkpt lat="46.67535" lon="-1.74478">
        <ele>56</ele>
        <time>2018-03-15T19:12:56Z</time>
      </trkpt>
      <trkpt lat="46.67536" lon="-1.74472">
        <ele>56</ele>
        <time>2018-03-15T19:13:56Z</time>
      </trkpt>
      <trkpt lat="46.67537" lon="-1.74466">
        <ele>56</ele>
        <time>2018-03-15T19:14:56Z</time>
      </trkpt>
      <trkpt lat="46.67539" lon="-1.7445">
        <ele>56</ele>
        <time>2018-03-15T19:15:56Z</time>
      </trkpt>
      <trkpt lat="46.67541" lon="-1.7444">
        <ele>56</ele>
        <time>2018-03-15T19:16:56Z</time>
      </trkpt>
      <trkpt lat="46.67546" lon="-1.74405">
        <ele>56</ele>
        <time>2018-03-15T19:17:56Z</time>
      </trkpt>
      <trkpt lat="46.67548" lon="-1.7439">
        <ele>56</ele>
        <time>2018-03-15T19:18:56Z</time>
      </trkpt>
      <trkpt lat="46.6755" lon="-1.74375">
        <ele>56</ele>
        <time>2018-03-15T19:19:56Z</time>
      </trkpt>
      <trkpt lat="46.6755" lon="-1.74368">
        <ele>56</ele>
        <time>2018-03-15T19:20:56Z</time>
      </trkpt>
      <trkpt lat="46.67551" lon="-1.74362">
        <ele>56</ele>
        <time>2018-03-15T19:21:56Z</time>
      </trkpt>
      <trkpt lat="46.67551" lon="-1.74355">
        <ele>56</ele>
        <time>2018-03-15T19:22:56Z</time>
      </trkpt>
      <trkpt lat="46.67551" lon="-1.74348">
        <ele>55</ele>
        <time>2018-03-15T19:23:56Z</time>
      </trkpt>
      <trkpt lat="46.67551" lon="-1.74341">
        <ele>55</ele>
        <time>2018-03-15T19:24:56Z</time>
      </trkpt>
      <trkpt lat="46.67551" lon="-1.74311">
        <ele>55</ele>
        <time>2018-03-15T19:25:56Z</time>
      </trkpt>
      <trkpt lat="46.6755" lon="-1.74269">
        <ele>56</ele>
        <time>2018-03-15T19:26:56Z</time>
      </trkpt>
      <trkpt lat="46.6755" lon="-1.74219">
        <ele>56</ele>
        <time>2018-03-15T19:27:56Z</time>
      </trkpt>
      <trkpt lat="46.6755" lon="-1.74196">
        <ele>56</ele>
        <time>2018-03-15T19:28:56Z</time>
      </trkpt>
      <trkpt lat="46.67551" lon="-1.74185">
        <ele>55</ele>
        <time>2018-03-15T19:29:56Z</time>
      </trkpt>
      <trkpt lat="46.67551" lon="-1.74173">
        <ele>55</ele>
        <time>2018-03-15T19:30:56Z</time>
      </trkpt>
      <trkpt lat="46.67553" lon="-1.74134">
        <ele>56</ele>
        <time>2018-03-15T19:31:56Z</time>
      </trkpt>
      <trkpt lat="46.67554" lon="-1.74112">
        <ele>56</ele>
        <time>2018-03-15T19:32:56Z</time>
      </trkpt>
      <trkpt lat="46.67556" lon="-1.74086">
        <ele>56</ele>
        <time>2018-03-15T19:33:56Z</time>
      </trkpt>
      <trkpt lat="46.67558" lon="-1.7407">
        <ele>56</ele>
        <time>2018-03-15T19:34:56Z</time>
      </trkpt>
      <trkpt lat="46.67559" lon="-1.74058">
        <ele>56</ele>
        <time>2018-03-15T19:35:56Z</time>
      </trkpt>
      <trkpt lat="46.67561" lon="-1.74041">
        <ele>56</ele>
        <time>2018-03-15T19:36:56Z</time>
      </trkpt>
      <trkpt lat="46.67562" lon="-1.7403">
        <ele>56</ele>
        <time>2018-03-15T19:37:56Z</time>
      </trkpt>
      <trkpt lat="46.67564" lon="-1.7402">
        <ele>56</ele>
        <time>2018-03-15T19:38:56Z</time>
      </trkpt>
      <trkpt lat="46.67565" lon="-1.74013">
        <ele>56</ele>
        <time>2018-03-15T19:39:56Z</time>
      </trkpt>
      <trkpt lat="46.67567" lon="-1.74002">
        <ele>56</ele>
        <time>2018-03-15T19:40:56Z</time>
      </trkpt>
      <trkpt lat="46.6757" lon="-1.73991">
        <ele>56</ele>
        <time>2018-03-15T19:41:56Z</time>
      </trkpt>
      <trkpt lat="46.67573" lon="-1.73977">
        <ele>56</ele>
        <time>2018-03-15T19:42:56Z</time>
      </trkpt>
      <trkpt lat="46.67584" lon="-1.73933">
        <ele>57</ele>
        <time>2018-03-15T19:43:56Z</time>
      </trkpt>
      <trkpt lat="46.67588" lon="-1.73917">
        <ele>57</ele>
        <time>2018-03-15T19:44:56Z</time>
      </trkpt>
      <trkpt lat="46.676" lon="-1.7387">
        <ele>57</ele>
        <time>2018-03-15T19:45:56Z</time>
      </trkpt>
      <trkpt lat="46.67616" lon="-1.73811">
        <ele>57</ele>
        <time>2018-03-15T19:46:56Z</time>
      </trkpt>
      <trkpt lat="46.67626" lon="-1.73772">
        <ele>56</ele>
        <time>2018-03-15T19:47:56Z</time>
      </trkpt>
      <trkpt lat="46.67628" lon="-1.73767">
        <ele>56</ele>
        <time>2018-03-15T19:48:56Z</time>
      </trkpt>
      <trkpt lat="46.6763" lon="-1.7376">
        <ele>56</ele>
        <time>2018-03-15T19:49:56Z</time>
      </trkpt>
      <trkpt lat="46.67635" lon="-1.73748">
        <ele>56</ele>
        <time>2018-03-15T19:50:56Z</time>
      </trkpt>
      <trkpt lat="46.67638" lon="-1.73739">
        <ele>56</ele>
        <time>2018-03-15T19:51:56Z</time>
      </trkpt>
      <trkpt lat="46.67641" lon="-1.73732">
        <ele>56</ele>
        <time>2018-03-15T19:52:56Z</time>
      </trkpt>
      <trkpt lat="46.67646" lon="-1.73722">
        <ele>55</ele>
        <time>2018-03-15T19:53:56Z</time>
      </trkpt>
      <trkpt lat="46.67649" lon="-1.73715">
        <ele>55</ele>
        <time>2018-03-15T19:54:56Z</time>
      </trkpt>
      <trkpt lat="46.67654" lon="-1.73705">
        <ele>55</ele>
        <time>2018-03-15T19:55:56Z</time>
      </trkpt>
      <trkpt lat="46.67673" lon="-1.7367">
        <ele>55</ele>
        <time>2018-03-15T19:56:56Z</time>
      </trkpt>
      <trkpt lat="46.67688" lon="-1.73647">
        <ele>55</ele>
        <time>2018-03-15T19:57:56Z</time>
      </trkpt>
      <trkpt lat="46.67702" lon="-1.73625">
        <ele>56</ele>
        <time>2018-03-15T19:58:56Z</time>
      </trkpt>
      <trkpt lat="46.67717" lon="-1.73602">
        <ele>56</ele>
        <time>2018-03-15T19:59:56Z</time>
      </trkpt>
      <trkpt lat="46.67736" lon="-1.73571">
        <ele>56</ele>
        <time>2018-03-15T20:00:56Z</time>
      </trkpt>
      <trkpt lat="46.6776" lon="-1.73529">
        <ele>57</ele>
        <time>2018-03-15T20:01:56Z</time>
      </trkpt>
      <trkpt lat="46.6778" lon="-1.73487">
        <ele>57</ele>
        <time>2018-03-15T20:02:56Z</time>
      </trkpt>
      <trkpt lat="46.67788" lon="-1.73472">
        <ele>56</ele>
        <time>2018-03-15T20:03:56Z</time>
      </trkpt>
      <trkpt lat="46.67794" lon="-1.7346">
        <ele>56</ele>
        <time>2018-03-15T20:04:56Z</time>
      </trkpt>
      <trkpt lat="46.67807" lon="-1.73435">
        <ele>55</ele>
        <time>2018-03-15T20:05:56Z</time>
      </trkpt>
      <trkpt lat="46.67828" lon="-1.734">
        <ele>55</ele>
        <time>2018-03-15T20:06:56Z</time>
      </trkpt>
      <trkpt lat="46.67858" lon="-1.7336">
        <ele>54</ele>
        <time>2018-03-15T20:07:56Z</time>
      </trkpt>
      <trkpt lat="46.67883" lon="-1.73328">
        <ele>54</ele>
        <time>2018-03-15T20:08:56Z</time>
      </trkpt>
      <trkpt lat="46.67895" lon="-1.73314">
        <ele>54</ele>
        <time>2018-03-15T20:09:56Z</time>
      </trkpt>
      <trkpt lat="46.67918" lon="-1.73284">
        <ele>55</ele>
        <time>2018-03-15T20:10:56Z</time>
      </trkpt>
      <trkpt lat="46.67943" lon="-1.73253">
        <ele>55</ele>
        <time>2018-03-15T20:11:56Z</time>
      </trkpt>
      <trkpt lat="46.67973" lon="-1.73214">
        <ele>56</ele>
        <time>2018-03-15T20:12:56Z</time>
      </trkpt>
      <trkpt lat="46.6799" lon="-1.7319">
        <ele>56</ele>
        <time>2018-03-15T20:13:56Z</time>
      </trkpt>
      <trkpt lat="46.68017" lon="-1.73152">
        <ele>57</ele>
        <time>2018-03-15T20:14:56Z</time>
      </trkpt>
      <trkpt lat="46.6804" lon="-1.73107">
        <ele>57</ele>
        <time>2018-03-15T20:15:56Z</time>
      </trkpt>
      <trkpt lat="46.68052" lon="-1.73087">
        <ele>57</ele>
        <time>2018-03-15T20:16:56Z</time>
      </trkpt>
      <trkpt lat="46.68058" lon="-1.73071">
        <ele>57</ele>
        <time>2018-03-15T20:17:56Z</time>
      </trkpt>
      <trkpt lat="46.68075" lon="-1.73037">
        <ele>57</ele>
        <time>2018-03-15T20:18:56Z</time>
      </trkpt>
      <trkpt lat="46.68099" lon="-1.72985">
        <ele>57</ele>
        <time>2018-03-15T20:19:56Z</time>
      </trkpt>
      <trkpt lat="46.68124" lon="-1.72932">
        <ele>57</ele>
        <time>2018-03-15T20:20:56Z</time>
      </trkpt>
      <trkpt lat="46.68155" lon="-1.72862">
        <ele>57</ele>
        <time>2018-03-15T20:21:56Z</time>
      </trkpt>
      <trkpt lat="46.68164" lon="-1.72843">
        <ele>57</ele>
        <time>2018-03-15T20:22:56Z</time>
      </trkpt>
      <trkpt lat="46.68183" lon="-1.72801">
        <ele>56</ele>
        <time>2018-03-15T20:23:56Z</time>
      </trkpt>
      <trkpt lat="46.68205" lon="-1.72753">
        <ele>56</ele>
        <time>2018-03-15T20:24:56Z</time>
      </trkpt>
      <trkpt lat="46.68228" lon="-1.72705">
        <ele>56</ele>
        <time>2018-03-15T20:25:56Z</time>
      </trkpt>
      <trkpt lat="46.68252" lon="-1.72655">
        <ele>56</ele>
        <time>2018-03-15T20:26:56Z</time>
      </trkpt>
      <trkpt lat="46.68263" lon="-1.72627">
        <ele>56</ele>
        <time>2018-03-15T20:27:56Z</time>
      </trkpt>
      <trkpt lat="46.68266" lon="-1.72621">
        <ele>56</ele>
        <time>2018-03-15T20:28:56Z</time>
      </trkpt>
      <trkpt lat="46.68269" lon="-1.7261">
        <ele>56</ele>
        <time>2018-03-15T20:29:56Z</time>
      </trkpt>
      <trkpt lat="46.68278" lon="-1.72575">
        <ele>57</ele>
        <time>2018-03-15T20:30:56Z</time>
      </trkpt>
      <trkpt lat="46.68278" lon="-1.72575">
        <ele>57</ele>
        <time>2018-03-15T20:31:56Z</time>
      </trkpt>
      <trkpt lat="46.68268" lon="-1.72563">
        <ele>56</ele>
        <time>2018-03-15T20:32:56Z</time>
      </trkpt>
      <trkpt lat="46.68236" lon="-1.72517">
        <ele>56</ele>
        <time>2018-03-15T20:33:56Z</time>
      </trkpt>
      <trkpt lat="46.68214" lon="-1.72483">
        <ele>55</ele>
        <time>2018-03-15T20:34:56Z</time>
      </trkpt>
      <trkpt lat="46.68188" lon="-1.72444">
        <ele>54</ele>
        <time>2018-03-15T20:35:56Z</time>
      </trkpt>
      <trkpt lat="46.68168" lon="-1.72413">
        <ele>54</ele>
        <time>2018-03-15T20:36:56Z</time>
      </trkpt>
      <trkpt lat="46.68159" lon="-1.72389">
        <ele>53</ele>
        <time>2018-03-15T20:37:56Z</time>
      </trkpt>
      <trkpt lat="46.68158" lon="-1.72384">
        <ele>53</ele>
        <time>2018-03-15T20:38:56Z</time>
      </trkpt>
      <trkpt lat="46.68158" lon="-1.72367">
        <ele>53</ele>
        <time>2018-03-15T20:39:56Z</time>
      </trkpt>
      <trkpt lat="46.68164" lon="-1.72334">
        <ele>52</ele>
        <time>2018-03-15T20:40:56Z</time>
      </trkpt>
      <trkpt lat="46.68165" lon="-1.72324">
        <ele>52</ele>
        <time>2018-03-15T20:41:56Z</time>
      </trkpt>
      <trkpt lat="46.68172" lon="-1.72282">
        <ele>52</ele>
        <time>2018-03-15T20:42:56Z</time>
      </trkpt>
      <trkpt lat="46.6818" lon="-1.7223">
        <ele>52</ele>
        <time>2018-03-15T20:43:56Z</time>
      </trkpt>
      <trkpt lat="46.68184" lon="-1.72208">
        <ele>53</ele>
        <time>2018-03-15T20:44:56Z</time>
      </trkpt>
      <trkpt lat="46.68193" lon="-1.72148">
        <ele>53</ele>
        <time>2018-03-15T20:45:56Z</time>
      </trkpt>
      <trkpt lat="46.68196" lon="-1.72131">
        <ele>53</ele>
        <time>2018-03-15T20:46:56Z</time>
      </trkpt>
      <trkpt lat="46.68206" lon="-1.72075">
        <ele>54</ele>
        <time>2018-03-15T20:47:56Z</time>
      </trkpt>
      <trkpt lat="46.68214" lon="-1.7203">
        <ele>54</ele>
        <time>2018-03-15T20:48:56Z</time>
      </trkpt>
      <trkpt lat="46.68218" lon="-1.72009">
        <ele>54</ele>
        <time>2018-03-15T20:49:56Z</time>
      </trkpt>
      <trkpt lat="46.68225" lon="-1.71977">
        <ele>54</ele>
        <time>2018-03-15T20:50:56Z</time>
      </trkpt>
      <trkpt lat="46.68225" lon="-1.71977">
        <ele>54</ele>
        <time>2018-03-15T20:51:56Z</time>
      </trkpt>
      <trkpt lat="46.68205" lon="-1.7197">
        <ele>53</ele>
        <time>2018-03-15T20:52:56Z</time>
      </trkpt>
      <trkpt lat="46.68183" lon="-1.71959">
        <ele>51</ele>
        <time>2018-03-15T20:53:56Z</time>
      </trkpt>
      <trkpt lat="46.68174" lon="-1.71955">
        <ele>50</ele>
        <time>2018-03-15T20:54:56Z</time>
      </trkpt>
      <trkpt lat="46.68161" lon="-1.71947">
        <ele>50</ele>
        <time>2018-03-15T20:55:56Z</time>
      </trkpt>
      <trkpt lat="46.68131" lon="-1.71931">
        <ele>48</ele>
        <time>2018-03-15T20:56:56Z</time>
      </trkpt>
      <trkpt lat="46.68104" lon="-1.71917">
        <ele>48</ele>
        <time>2018-03-15T20:57:56Z</time>
      </trkpt>
      <trkpt lat="46.68072" lon="-1.71899">
        <ele>46</ele>
        <time>2018-03-15T20:58:56Z</time>
      </trkpt>
      <trkpt lat="46.68043" lon="-1.71884">
        <ele>45</ele>
        <time>2018-03-15T20:59:56Z</time>
      </trkpt>
      <trkpt lat="46.68014" lon="-1.71869">
        <ele>44</ele>
        <time>2018-03-15T21:00:56Z</time>
      </trkpt>
      <trkpt lat="46.67993" lon="-1.71858">
        <ele>44</ele>
        <time>2018-03-15T21:01:56Z</time>
      </trkpt>
      <trkpt lat="46.6797" lon="-1.71846">
        <ele>44</ele>
        <time>2018-03-15T21:02:56Z</time>
      </trkpt>
      <trkpt lat="46.67944" lon="-1.71832">
        <ele>43</ele>
        <time>2018-03-15T21:03:56Z</time>
      </trkpt>
      <trkpt lat="46.67922" lon="-1.7182">
        <ele>44</ele>
        <time>2018-03-15T21:04:56Z</time>
      </trkpt>
      <trkpt lat="46.67892" lon="-1.71805">
        <ele>44</ele>
        <time>2018-03-15T21:05:56Z</time>
      </trkpt>
      <trkpt lat="46.67863" lon="-1.71787">
        <ele>45</ele>
        <time>2018-03-15T21:06:56Z</time>
      </trkpt>
      <trkpt lat="46.67846" lon="-1.71775">
        <ele>46</ele>
        <time>2018-03-15T21:07:56Z</time>
      </trkpt>
      <trkpt lat="46.6784" lon="-1.7177">
        <ele>46</ele>
        <time>2018-03-15T21:08:56Z</time>
      </trkpt>
      <trkpt lat="46.67835" lon="-1.71764">
        <ele>46</ele>
        <time>2018-03-15T21:09:56Z</time>
      </trkpt>
      <trkpt lat="46.67822" lon="-1.7175">
        <ele>47</ele>
        <time>2018-03-15T21:10:56Z</time>
      </trkpt>
      <trkpt lat="46.67808" lon="-1.71734">
        <ele>47</ele>
        <time>2018-03-15T21:11:56Z</time>
      </trkpt>
      <trkpt lat="46.67794" lon="-1.71715">
        <ele>47</ele>
        <time>2018-03-15T21:12:56Z</time>
      </trkpt>
      <trkpt lat="46.67782" lon="-1.71697">
        <ele>47</ele>
        <time>2018-03-15T21:13:56Z</time>
      </trkpt>
      <trkpt lat="46.67767" lon="-1.71668">
        <ele>46</ele>
        <time>2018-03-15T21:14:56Z</time>
      </trkpt>
      <trkpt lat="46.67754" lon="-1.71643">
        <ele>45</ele>
        <time>2018-03-15T21:15:56Z</time>
      </trkpt>
      <trkpt lat="46.67736" lon="-1.71611">
        <ele>44</ele>
        <time>2018-03-15T21:16:56Z</time>
      </trkpt>
      <trkpt lat="46.67726" lon="-1.71592">
        <ele>43</ele>
        <time>2018-03-15T21:17:56Z</time>
      </trkpt>
      <trkpt lat="46.67715" lon="-1.71574">
        <ele>43</ele>
        <time>2018-03-15T21:18:56Z</time>
      </trkpt>
      <trkpt lat="46.67701" lon="-1.7155">
        <ele>42</ele>
        <time>2018-03-15T21:19:56Z</time>
      </trkpt>
      <trkpt lat="46.67687" lon="-1.71531">
        <ele>42</ele>
        <time>2018-03-15T21:20:56Z</time>
      </trkpt>
      <trkpt lat="46.67676" lon="-1.71517">
        <ele>42</ele>
        <time>2018-03-15T21:21:56Z</time>
      </trkpt>
      <trkpt lat="46.67664" lon="-1.71505">
        <ele>42</ele>
        <time>2018-03-15T21:22:56Z</time>
      </trkpt>
      <trkpt lat="46.67651" lon="-1.71493">
        <ele>41</ele>
        <time>2018-03-15T21:23:56Z</time>
      </trkpt>
      <trkpt lat="46.67638" lon="-1.71483">
        <ele>40</ele>
        <time>2018-03-15T21:24:56Z</time>
      </trkpt>
      <trkpt lat="46.67625" lon="-1.71475">
        <ele>39</ele>
        <time>2018-03-15T21:25:56Z</time>
      </trkpt>
      <trkpt lat="46.67608" lon="-1.71466">
        <ele>38</ele>
        <time>2018-03-15T21:26:56Z</time>
      </trkpt>
      <trkpt lat="46.67592" lon="-1.71461">
        <ele>37</ele>
        <time>2018-03-15T21:27:56Z</time>
      </trkpt>
      <trkpt lat="46.67577" lon="-1.71458">
        <ele>36</ele>
        <time>2018-03-15T21:28:56Z</time>
      </trkpt>
      <trkpt lat="46.67566" lon="-1.71457">
        <ele>36</ele>
        <time>2018-03-15T21:29:56Z</time>
      </trkpt>
      <trkpt lat="46.67551" lon="-1.71455">
        <ele>35</ele>
        <time>2018-03-15T21:30:56Z</time>
      </trkpt>
      <trkpt lat="46.67534" lon="-1.71455">
        <ele>34</ele>
        <time>2018-03-15T21:31:56Z</time>
      </trkpt>
      <trkpt lat="46.67513" lon="-1.71456">
        <ele>34</ele>
        <time>2018-03-15T21:32:56Z</time>
      </trkpt>
      <trkpt lat="46.67492" lon="-1.71458">
        <ele>33</ele>
        <time>2018-03-15T21:33:56Z</time>
      </trkpt>
      <trkpt lat="46.67475" lon="-1.71462">
        <ele>32</ele>
        <time>2018-03-15T21:34:56Z</time>
      </trkpt>
      <trkpt lat="46.67461" lon="-1.71466">
        <ele>32</ele>
        <time>2018-03-15T21:35:56Z</time>
      </trkpt>
      <trkpt lat="46.67449" lon="-1.71472">
        <ele>31</ele>
        <time>2018-03-15T21:36:56Z</time>
      </trkpt>
      <trkpt lat="46.67436" lon="-1.71479">
        <ele>31</ele>
        <time>2018-03-15T21:37:56Z</time>
      </trkpt>
      <trkpt lat="46.67422" lon="-1.7149">
        <ele>30</ele>
        <time>2018-03-15T21:38:56Z</time>
      </trkpt>
      <trkpt lat="46.67405" lon="-1.71506">
        <ele>29</ele>
        <time>2018-03-15T21:39:56Z</time>
      </trkpt>
      <trkpt lat="46.67371" lon="-1.7154">
        <ele>28</ele>
        <time>2018-03-15T21:40:56Z</time>
      </trkpt>
      <trkpt lat="46.67345" lon="-1.7157">
        <ele>27</ele>
        <time>2018-03-15T21:41:56Z</time>
      </trkpt>
      <trkpt lat="46.6732" lon="-1.71596">
        <ele>25</ele>
        <time>2018-03-15T21:42:56Z</time>
      </trkpt>
      <trkpt lat="46.67314" lon="-1.71604">
        <ele>24</ele>
        <time>2018-03-15T21:43:56Z</time>
      </trkpt>
      <trkpt lat="46.67298" lon="-1.71621">
        <ele>23</ele>
        <time>2018-03-15T21:44:56Z</time>
      </trkpt>
      <trkpt lat="46.67254" lon="-1.71666">
        <ele>21</ele>
        <time>2018-03-15T21:45:56Z</time>
      </trkpt>
      <trkpt lat="46.67252" lon="-1.71668">
        <ele>21</ele>
        <time>2018-03-15T21:46:56Z</time>
      </trkpt>
      <trkpt lat="46.67249" lon="-1.7167">
        <ele>21</ele>
        <time>2018-03-15T21:47:56Z</time>
      </trkpt>
      <trkpt lat="46.67232" lon="-1.71686">
        <ele>19</ele>
        <time>2018-03-15T21:48:56Z</time>
      </trkpt>
      <trkpt lat="46.6721" lon="-1.717">
        <ele>18</ele>
        <time>2018-03-15T21:49:56Z</time>
      </trkpt>
      <trkpt lat="46.67194" lon="-1.71711">
        <ele>17</ele>
        <time>2018-03-15T21:50:56Z</time>
      </trkpt>
      <trkpt lat="46.67187" lon="-1.71713">
        <ele>16</ele>
        <time>2018-03-15T21:51:56Z</time>
      </trkpt>
      <trkpt lat="46.67175" lon="-1.71717">
        <ele>16</ele>
        <time>2018-03-15T21:52:56Z</time>
      </trkpt>
      <trkpt lat="46.67164" lon="-1.71721">
        <ele>16</ele>
        <time>2018-03-15T21:53:56Z</time>
      </trkpt>
      <trkpt lat="46.67144" lon="-1.71728">
        <ele>16</ele>
        <time>2018-03-15T21:54:56Z</time>
      </trkpt>
      <trkpt lat="46.67125" lon="-1.71733">
        <ele>16</ele>
        <time>2018-03-15T21:55:56Z</time>
      </trkpt>
      <trkpt lat="46.67117" lon="-1.71734">
        <ele>17</ele>
        <time>2018-03-15T21:56:56Z</time>
      </trkpt>
      <trkpt lat="46.67101" lon="-1.71735">
        <ele>17</ele>
        <time>2018-03-15T21:57:56Z</time>
      </trkpt>
      <trkpt lat="46.67082" lon="-1.71735">
        <ele>17</ele>
        <time>2018-03-15T21:58:56Z</time>
      </trkpt>
      <trkpt lat="46.67063" lon="-1.71733">
        <ele>17</ele>
        <time>2018-03-15T21:59:56Z</time>
      </trkpt>
      <trkpt lat="46.67032" lon="-1.7173">
        <ele>17</ele>
        <time>2018-03-15T22:00:56Z</time>
      </trkpt>
      <trkpt lat="46.66988" lon="-1.71721">
        <ele>17</ele>
        <time>2018-03-15T22:01:56Z</time>
      </trkpt>
      <trkpt lat="46.66957" lon="-1.71714">
        <ele>19</ele>
        <time>2018-03-15T22:02:56Z</time>
      </trkpt>
      <trkpt lat="46.66906" lon="-1.71704">
        <ele>21</ele>
        <time>2018-03-15T22:03:56Z</time>
      </trkpt>
      <trkpt lat="46.66873" lon="-1.71698">
        <ele>22</ele>
        <time>2018-03-15T22:04:56Z</time>
      </trkpt>
      <trkpt lat="46.66838" lon="-1.7169">
        <ele>23</ele>
        <time>2018-03-15T22:05:56Z</time>
      </trkpt>
      <trkpt lat="46.66794" lon="-1.71682">
        <ele>23</ele>
        <time>2018-03-15T22:06:56Z</time>
      </trkpt>
      <trkpt lat="46.66748" lon="-1.71674">
        <ele>23</ele>
        <time>2018-03-15T22:07:56Z</time>
      </trkpt>
      <trkpt lat="46.66722" lon="-1.71669">
        <ele>23</ele>
        <time>2018-03-15T22:08:56Z</time>
      </trkpt>
      <trkpt lat="46.6667" lon="-1.71658">
        <ele>23</ele>
        <time>2018-03-15T22:09:56Z</time>
      </trkpt>
      <trkpt lat="46.66626" lon="-1.71649">
        <ele>26</ele>
        <time>2018-03-15T22:10:56Z</time>
      </trkpt>
      <trkpt lat="46.66596" lon="-1.71644">
        <ele>27</ele>
        <time>2018-03-15T22:11:56Z</time>
      </trkpt>
      <trkpt lat="46.66569" lon="-1.71638">
        <ele>28</ele>
        <time>2018-03-15T22:12:56Z</time>
      </trkpt>
      <trkpt lat="46.66512" lon="-1.71628">
        <ele>29</ele>
        <time>2018-03-15T22:13:56Z</time>
      </trkpt>
      <trkpt lat="46.66485" lon="-1.71623">
        <ele>29</ele>
        <time>2018-03-15T22:14:56Z</time>
      </trkpt>
      <trkpt lat="46.66461" lon="-1.71619">
        <ele>29</ele>
        <time>2018-03-15T22:15:56Z</time>
      </trkpt>
      <trkpt lat="46.66429" lon="-1.71614">
        <ele>29</ele>
        <time>2018-03-15T22:16:56Z</time>
      </trkpt>
      <trkpt lat="46.66394" lon="-1.7161">
        <ele>31</ele>
        <time>2018-03-15T22:17:56Z</time>
      </trkpt>
      <trkpt lat="46.66363" lon="-1.71605">
        <ele>32</ele>
        <time>2018-03-15T22:18:56Z</time>
      </trkpt>
      <trkpt lat="46.66317" lon="-1.71598">
        <ele>34</ele>
        <time>2018-03-15T22:19:56Z</time>
      </trkpt>
      <trkpt lat="46.66288" lon="-1.71595">
        <ele>33</ele>
        <time>2018-03-15T22:20:56Z</time>
      </trkpt>
      <trkpt lat="46.66248" lon="-1.71589">
        <ele>32</ele>
        <time>2018-03-15T22:21:56Z</time>
      </trkpt>
      <trkpt lat="46.66217" lon="-1.71585">
        <ele>32</ele>
        <time>2018-03-15T22:22:56Z</time>
      </trkpt>
      <trkpt lat="46.66198" lon="-1.71582">
        <ele>32</ele>
        <time>2018-03-15T22:23:56Z</time>
      </trkpt>
      <trkpt lat="46.66169" lon="-1.7158">
        <ele>32</ele>
        <time>2018-03-15T22:24:56Z</time>
      </trkpt>
      <trkpt lat="46.66146" lon="-1.71578">
        <ele>33</ele>
        <time>2018-03-15T22:25:56Z</time>
      </trkpt>
      <trkpt lat="46.66113" lon="-1.71577">
        <ele>33</ele>
        <time>2018-03-15T22:26:56Z</time>
      </trkpt>
      <trkpt lat="46.66087" lon="-1.71576">
        <ele>34</ele>
        <time>2018-03-15T22:27:56Z</time>
      </trkpt>
      <trkpt lat="46.6604" lon="-1.71575">
        <ele>37</ele>
        <time>2018-03-15T22:28:56Z</time>
      </trkpt>
      <trkpt lat="46.65994" lon="-1.71574">
        <ele>39</ele>
        <time>2018-03-15T22:29:56Z</time>
      </trkpt>
      <trkpt lat="46.65949" lon="-1.71573">
        <ele>40</ele>
        <time>2018-03-15T22:30:56Z</time>
      </trkpt>
      <trkpt lat="46.65925" lon="-1.71572">
        <ele>41</ele>
        <time>2018-03-15T22:31:56Z</time>
      </trkpt>
      <trkpt lat="46.65909" lon="-1.71573">
        <ele>41</ele>
        <time>2018-03-15T22:32:56Z</time>
      </trkpt>
      <trkpt lat="46.65878" lon="-1.71572">
        <ele>41</ele>
        <time>2018-03-15T22:33:56Z</time>
      </trkpt>
      <trkpt lat="46.6584" lon="-1.71571">
        <ele>40</ele>
        <time>2018-03-15T22:34:56Z</time>
      </trkpt>
      <trkpt lat="46.65802" lon="-1.7157">
        <ele>41</ele>
        <time>2018-03-15T22:35:56Z</time>
      </trkpt>
      <trkpt lat="46.65763" lon="-1.71568">
        <ele>41</ele>
        <time>2018-03-15T22:36:56Z</time>
      </trkpt>
      <trkpt lat="46.65717" lon="-1.71566">
        <ele>42</ele>
        <time>2018-03-15T22:37:56Z</time>
      </trkpt>
      <trkpt lat="46.65696" lon="-1.71566">
        <ele>42</ele>
        <time>2018-03-15T22:38:56Z</time>
      </trkpt>
      <trkpt lat="46.65666" lon="-1.71565">
        <ele>43</ele>
        <time>2018-03-15T22:39:56Z</time>
      </trkpt>
      <trkpt lat="46.65648" lon="-1.71565">
        <ele>43</ele>
        <time>2018-03-15T22:40:56Z</time>
      </trkpt>
      <trkpt lat="46.65624" lon="-1.71564">
        <ele>44</ele>
        <time>2018-03-15T22:41:56Z</time>
      </trkpt>
      <trkpt lat="46.65591" lon="-1.71563">
        <ele>45</ele>
        <time>2018-03-15T22:42:56Z</time>
      </trkpt>
      <trkpt lat="46.65566" lon="-1.71562">
        <ele>45</ele>
        <time>2018-03-15T22:43:56Z</time>
      </trkpt>
      <trkpt lat="46.65538" lon="-1.71561">
        <ele>46</ele>
        <time>2018-03-15T22:44:56Z</time>
      </trkpt>
      <trkpt lat="46.65516" lon="-1.71561">
        <ele>47</ele>
        <time>2018-03-15T22:45:56Z</time>
      </trkpt>
      <trkpt lat="46.65479" lon="-1.7156">
        <ele>47</ele>
        <time>2018-03-15T22:46:56Z</time>
      </trkpt>
      <trkpt lat="46.65437" lon="-1.71559">
        <ele>48</ele>
        <time>2018-03-15T22:47:56Z</time>
      </trkpt>
      <trkpt lat="46.65404" lon="-1.71557">
        <ele>49</ele>
        <time>2018-03-15T22:48:56Z</time>
      </trkpt>
      <trkpt lat="46.65383" lon="-1.71557">
        <ele>50</ele>
        <time>2018-03-15T22:49:56Z</time>
      </trkpt>
      <trkpt lat="46.65361" lon="-1.71556">
        <ele>51</ele>
        <time>2018-03-15T22:50:56Z</time>
      </trkpt>
      <trkpt lat="46.65309" lon="-1.71554">
        <ele>52</ele>
        <time>2018-03-15T22:51:56Z</time>
      </trkpt>
      <trkpt lat="46.65298" lon="-1.71554">
        <ele>52</ele>
        <time>2018-03-15T22:52:56Z</time>
      </trkpt>
      <trkpt lat="46.6525" lon="-1.71552">
        <ele>53</ele>
        <time>2018-03-15T22:53:56Z</time>
      </trkpt>
      <trkpt lat="46.65186" lon="-1.7155">
        <ele>53</ele>
        <time>2018-03-15T22:54:56Z</time>
      </trkpt>
      <trkpt lat="46.65146" lon="-1.71548">
        <ele>52</ele>
        <time>2018-03-15T22:55:56Z</time>
      </trkpt>
      <trkpt lat="46.65142" lon="-1.71548">
        <ele>52</ele>
        <time>2018-03-15T22:56:56Z</time>
      </trkpt>
      <trkpt lat="46.65101" lon="-1.71547">
        <ele>52</ele>
        <time>2018-03-15T22:57:56Z</time>
      </trkpt>
      <trkpt lat="46.65051" lon="-1.71545">
        <ele>51</ele>
        <time>2018-03-15T22:58:56Z</time>
      </trkpt>
      <trkpt lat="46.65002" lon="-1.71542">
        <ele>51</ele>
        <time>2018-03-15T22:59:56Z</time>
      </trkpt>
      <trkpt lat="46.64987" lon="-1.71542">
        <ele>51</ele>
        <time>2018-03-15T23:00:56Z</time>
      </trkpt>
      <trkpt lat="46.64948" lon="-1.71541">
        <ele>51</ele>
        <time>2018-03-15T23:01:56Z</time>
      </trkpt>
      <trkpt lat="46.64906" lon="-1.71539">
        <ele>51</ele>
        <time>2018-03-15T23:02:56Z</time>
      </trkpt>
      <trkpt lat="46.64882" lon="-1.71538">
        <ele>51</ele>
        <time>2018-03-15T23:03:56Z</time>
      </trkpt>
      <trkpt lat="46.64843" lon="-1.71537">
        <ele>51</ele>
        <time>2018-03-15T23:04:56Z</time>
      </trkpt>
      <trkpt lat="46.64817" lon="-1.71536">
        <ele>51</ele>
        <time>2018-03-15T23:05:56Z</time>
      </trkpt>
      <trkpt lat="46.64808" lon="-1.71536">
        <ele>51</ele>
        <time>2018-03-15T23:06:56Z</time>
      </trkpt>
      <trkpt lat="46.64766" lon="-1.71534">
        <ele>52</ele>
        <time>2018-03-15T23:07:56Z</time>
      </trkpt>
      <trkpt lat="46.64721" lon="-1.71532">
        <ele>53</ele>
        <time>2018-03-15T23:08:56Z</time>
      </trkpt>
      <trkpt lat="46.64685" lon="-1.71531">
        <ele>53</ele>
        <time>2018-03-15T23:09:56Z</time>
      </trkpt>
      <trkpt lat="46.64645" lon="-1.7153">
        <ele>54</ele>
        <time>2018-03-15T23:10:56Z</time>
      </trkpt>
      <trkpt lat="46.64636" lon="-1.7153">
        <ele>54</ele>
        <time>2018-03-15T23:11:56Z</time>
      </trkpt>
      <trkpt lat="46.64599" lon="-1.71528">
        <ele>54</ele>
        <time>2018-03-15T23:12:56Z</time>
      </trkpt>
      <trkpt lat="46.64582" lon="-1.71527">
        <ele>54</ele>
        <time>2018-03-15T23:13:56Z</time>
      </trkpt>
      <trkpt lat="46.64547" lon="-1.71525">
        <ele>54</ele>
        <time>2018-03-15T23:14:56Z</time>
      </trkpt>
      <trkpt lat="46.64503" lon="-1.71524">
        <ele>54</ele>
        <time>2018-03-15T23:15:56Z</time>
      </trkpt>
      <trkpt lat="46.64476" lon="-1.71523">
        <ele>53</ele>
        <time>2018-03-15T23:16:56Z</time>
      </trkpt>
      <trkpt lat="46.64445" lon="-1.71524">
        <ele>53</ele>
        <time>2018-03-15T23:17:56Z</time>
      </trkpt>
      <trkpt lat="46.64437" lon="-1.71524">
        <ele>53</ele>
        <time>2018-03-15T23:18:56Z</time>
      </trkpt>
      <trkpt lat="46.64414" lon="-1.71523">
        <ele>52</ele>
        <time>2018-03-15T23:19:56Z</time>
      </trkpt>
      <trkpt lat="46.64397" lon="-1.71522">
        <ele>52</ele>
        <time>2018-03-15T23:20:56Z</time>
      </trkpt>
      <trkpt lat="46.64387" lon="-1.71521">
        <ele>52</ele>
        <time>2018-03-15T23:21:56Z</time>
      </trkpt>
      <trkpt lat="46.64362" lon="-1.7152">
        <ele>52</ele>
        <time>2018-03-15T23:22:56Z</time>
      </trkpt>
      <trkpt lat="46.64334" lon="-1.71519">
        <ele>51</ele>
        <time>2018-03-15T23:23:56Z</time>
      </trkpt>
      <trkpt lat="46.64315" lon="-1.71518">
        <ele>52</ele>
        <time>2018-03-15T23:24:56Z</time>
      </trkpt>
      <trkpt lat="46.64305" lon="-1.71518">
        <ele>52</ele>
        <time>2018-03-15T23:25:56Z</time>
      </trkpt>
      <trkpt lat="46.64262" lon="-1.71516">
        <ele>54</ele>
        <time>2018-03-15T23:26:56Z</time>
      </trkpt>
      <trkpt lat="46.64224" lon="-1.71514">
        <ele>55</ele>
        <time>2018-03-15T23:27:56Z</time>
      </trkpt>
      <trkpt lat="46.64204" lon="-1.71514">
        <ele>56</ele>
        <time>2018-03-15T23:28:56Z</time>
      </trkpt>
      <trkpt lat="46.64202" lon="-1.71514">
        <ele>56</ele>
        <time>2018-03-15T23:29:56Z</time>
      </trkpt>
      <trkpt lat="46.64182" lon="-1.71514">
        <ele>56</ele>
        <time>2018-03-15T23:30:56Z</time>
      </trkpt>
      <trkpt lat="46.64145" lon="-1.71512">
        <ele>57</ele>
        <time>2018-03-15T23:31:56Z</time>
      </trkpt>
      <trkpt lat="46.64135" lon="-1.71511">
        <ele>57</ele>
        <time>2018-03-15T23:32:56Z</time>
      </trkpt>
      <trkpt lat="46.64129" lon="-1.71512">
        <ele>57</ele>
        <time>2018-03-15T23:33:56Z</time>
      </trkpt>
      <trkpt lat="46.64124" lon="-1.71513">
        <ele>57</ele>
        <time>2018-03-15T23:34:56Z</time>
      </trkpt>
      <trkpt lat="46.64116" lon="-1.71515">
        <ele>57</ele>
        <time>2018-03-15T23:35:56Z</time>
      </trkpt>
      <trkpt lat="46.641" lon="-1.71521">
        <ele>57</ele>
        <time>2018-03-15T23:36:56Z</time>
      </trkpt>
      <trkpt lat="46.64092" lon="-1.71525">
        <ele>57</ele>
        <time>2018-03-15T23:37:56Z</time>
      </trkpt>
      <trkpt lat="46.64092" lon="-1.71525">
        <ele>57</ele>
        <time>2018-03-15T23:38:56Z</time>
      </trkpt>
      <trkpt lat="46.64089" lon="-1.7151">
        <ele>57</ele>
        <time>2018-03-15T23:39:56Z</time>
      </trkpt>
      <trkpt lat="46.64081" lon="-1.71491">
        <ele>57</ele>
        <time>2018-03-15T23:40:56Z</time>
      </trkpt>
      <trkpt lat="46.64068" lon="-1.71467">
        <ele>58</ele>
        <time>2018-03-15T23:41:56Z</time>
      </trkpt>
      <trkpt lat="46.64064" lon="-1.71458">
        <ele>58</ele>
        <time>2018-03-15T23:42:56Z</time>
      </trkpt>
      <trkpt lat="46.64057" lon="-1.71443">
        <ele>58</ele>
        <time>2018-03-15T23:43:56Z</time>
      </trkpt>
      <trkpt lat="46.64054" lon="-1.71435">
        <ele>59</ele>
        <time>2018-03-15T23:44:56Z</time>
      </trkpt>
      <trkpt lat="46.64051" lon="-1.71425">
        <ele>59</ele>
        <time>2018-03-15T23:45:56Z</time>
      </trkpt>
      <trkpt lat="46.6405" lon="-1.7142">
        <ele>59</ele>
        <time>2018-03-15T23:46:56Z</time>
      </trkpt>
      <trkpt lat="46.64048" lon="-1.71407">
        <ele>59</ele>
        <time>2018-03-15T23:47:56Z</time>
      </trkpt>
      <trkpt lat="46.64048" lon="-1.71403">
        <ele>59</ele>
        <time>2018-03-15T23:48:56Z</time>
      </trkpt>
      <trkpt lat="46.64049" lon="-1.71392">
        <ele>59</ele>
        <time>2018-03-15T23:49:56Z</time>
      </trkpt>
      <trkpt lat="46.64052" lon="-1.71362">
        <ele>59</ele>
        <time>2018-03-15T23:50:56Z</time>
      </trkpt>
      <trkpt lat="46.64052" lon="-1.7136">
        <ele>59</ele>
        <time>2018-03-15T23:51:56Z</time>
      </trkpt>
      <trkpt lat="46.64052" lon="-1.71356">
        <ele>59</ele>
        <time>2018-03-15T23:52:56Z</time>
      </trkpt>
      <trkpt lat="46.64053" lon="-1.71355">
        <ele>59</ele>
        <time>2018-03-15T23:53:56Z</time>
      </trkpt>
      <trkpt lat="46.64055" lon="-1.71334">
        <ele>59</ele>
        <time>2018-03-15T23:54:56Z</time>
      </trkpt>
      <trkpt lat="46.64057" lon="-1.71319">
        <ele>59</ele>
        <time>2018-03-15T23:55:56Z</time>
      </trkpt>
      <trkpt lat="46.64059" lon="-1.71295">
        <ele>58</ele>
        <time>2018-03-15T23:56:56Z</time>
      </trkpt>
      <trkpt lat="46.64061" lon="-1.71278">
        <ele>58</ele>
        <time>2018-03-15T23:57:56Z</time>
      </trkpt>
      <trkpt lat="46.64064" lon="-1.71254">
        <ele>57</ele>
        <time>2018-03-15T23:58:56Z</time>
      </trkpt>
      <trkpt lat="46.64064" lon="-1.71239">
        <ele>57</ele>
        <time>2018-03-15T23:59:56Z</time>
      </trkpt>
      <trkpt lat="46.64064" lon="-1.71233">
        <ele>57</ele>
        <time>2018-03-16T00:00:56Z</time>
      </trkpt>
      <trkpt lat="46.64062" lon="-1.71228">
        <ele>57</ele>
        <time>2018-03-16T00:01:56Z</time>
      </trkpt>
      <trkpt lat="46.64059" lon="-1.71221">
        <ele>57</ele>
        <time>2018-03-16T00:02:56Z</time>
      </trkpt>
      <trkpt lat="46.64056" lon="-1.71214">
        <ele>57</ele>
        <time>2018-03-16T00:03:56Z</time>
      </trkpt>
      <trkpt lat="46.64043" lon="-1.71189">
        <ele>57</ele>
        <time>2018-03-16T00:04:56Z</time>
      </trkpt>
      <trkpt lat="46.64024" lon="-1.71152">
        <ele>57</ele>
        <time>2018-03-16T00:05:56Z</time>
      </trkpt>
      <trkpt lat="46.64023" lon="-1.7115">
        <ele>57</ele>
        <time>2018-03-16T00:06:56Z</time>
      </trkpt>
      <trkpt lat="46.64003" lon="-1.71111">
        <ele>58</ele>
        <time>2018-03-16T00:07:56Z</time>
      </trkpt>
      <trkpt lat="46.63993" lon="-1.71093">
        <ele>58</ele>
        <time>2018-03-16T00:08:56Z</time>
      </trkpt>
      <trkpt lat="46.63991" lon="-1.71089">
        <ele>58</ele>
        <time>2018-03-16T00:09:56Z</time>
      </trkpt>
      <trkpt lat="46.63989" lon="-1.71086">
        <ele>58</ele>
        <time>2018-03-16T00:10:56Z</time>
      </trkpt>
      <trkpt lat="46.63975" lon="-1.71057">
        <ele>58</ele>
        <time>2018-03-16T00:11:56Z</time>
      </trkpt>
      <trkpt lat="46.6396" lon="-1.71029">
        <ele>57</ele>
        <time>2018-03-16T00:12:56Z</time>
      </trkpt>
      <trkpt lat="46.63953" lon="-1.71018">
        <ele>57</ele>
        <time>2018-03-16T00:13:56Z</time>
      </trkpt>
      <trkpt lat="46.6394" lon="-1.70994">
        <ele>57</ele>
        <time>2018-03-16T00:14:56Z</time>
      </trkpt>
      <trkpt lat="46.63936" lon="-1.70987">
        <ele>57</ele>
        <time>2018-03-16T00:15:56Z</time>
      </trkpt>
      <trkpt lat="46.63919" lon="-1.70953">
        <ele>58</ele>
        <time>2018-03-16T00:16:56Z</time>
      </trkpt>
      <trkpt lat="46.63903" lon="-1.70924">
        <ele>58</ele>
        <time>2018-03-16T00:17:56Z</time>
      </trkpt>
      <trkpt lat="46.63883" lon="-1.70884">
        <ele>58</ele>
        <time>2018-03-16T00:18:56Z</time>
      </trkpt>
      <trkpt lat="46.63874" lon="-1.70866">
        <ele>58</ele>
        <time>2018-03-16T00:19:56Z</time>
      </trkpt>
      <trkpt lat="46.63865" lon="-1.70847">
        <ele>57</ele>
        <time>2018-03-16T00:20:56Z</time>
      </trkpt>
      <trkpt lat="46.63839" lon="-1.70799">
        <ele>57</ele>
        <time>2018-03-16T00:21:56Z</time>
      </trkpt>
      <trkpt lat="46.63838" lon="-1.70796">
        <ele>57</ele>
        <time>2018-03-16T00:22:56Z</time>
      </trkpt>
      <trkpt lat="46.63802" lon="-1.70723">
        <ele>58</ele>
        <time>2018-03-16T00:23:56Z</time>
      </trkpt>
      <trkpt lat="46.63782" lon="-1.70683">
        <ele>59</ele>
        <time>2018-03-16T00:24:56Z</time>
      </trkpt>
      <trkpt lat="46.6375" lon="-1.70619">
        <ele>60</ele>
        <time>2018-03-16T00:25:56Z</time>
      </trkpt>
      <trkpt lat="46.63731" lon="-1.70582">
        <ele>60</ele>
        <time>2018-03-16T00:26:56Z</time>
      </trkpt>
      <trkpt lat="46.63729" lon="-1.70578">
        <ele>60</ele>
        <time>2018-03-16T00:27:56Z</time>
      </trkpt>
      <trkpt lat="46.63719" lon="-1.70557">
        <ele>59</ele>
        <time>2018-03-16T00:28:56Z</time>
      </trkpt>
      <trkpt lat="46.63715" lon="-1.70549">
        <ele>59</ele>
        <time>2018-03-16T00:29:56Z</time>
      </trkpt>
      <trkpt lat="46.63701" lon="-1.70522">
        <ele>59</ele>
        <time>2018-03-16T00:30:56Z</time>
      </trkpt>
      <trkpt lat="46.63696" lon="-1.70512">
        <ele>59</ele>
        <time>2018-03-16T00:31:56Z</time>
      </trkpt>
      <trkpt lat="46.63694" lon="-1.70508">
        <ele>59</ele>
        <time>2018-03-16T00:32:56Z</time>
      </trkpt>
      <trkpt lat="46.6369" lon="-1.70499">
        <ele>59</ele>
        <time>2018-03-16T00:33:56Z</time>
      </trkpt>
      <trkpt lat="46.63669" lon="-1.70459">
        <ele>59</ele>
        <time>2018-03-16T00:34:56Z</time>
      </trkpt>
      <trkpt lat="46.63659" lon="-1.70438">
        <ele>60</ele>
        <time>2018-03-16T00:35:56Z</time>
      </trkpt>
      <trkpt lat="46.63645" lon="-1.70411">
        <ele>61</ele>
        <time>2018-03-16T00:36:56Z</time>
      </trkpt>
      <trkpt lat="46.63644" lon="-1.70409">
        <ele>61</ele>
        <time>2018-03-16T00:37:56Z</time>
      </trkpt>
      <trkpt lat="46.63623" lon="-1.70368">
        <ele>61</ele>
        <time>2018-03-16T00:38:56Z</time>
      </trkpt>
      <trkpt lat="46.63622" lon="-1.70366">
        <ele>61</ele>
        <time>2018-03-16T00:39:56Z</time>
      </trkpt>
      <trkpt lat="46.6361" lon="-1.70342">
        <ele>61</ele>
        <time>2018-03-16T00:40:56Z</time>
      </trkpt>
      <trkpt lat="46.63591" lon="-1.70304">
        <ele>61</ele>
        <time>2018-03-16T00:41:56Z</time>
      </trkpt>
      <trkpt lat="46.63589" lon="-1.70299">
        <ele>61</ele>
        <time>2018-03-16T00:42:56Z</time>
      </trkpt>
      <trkpt lat="46.63569" lon="-1.7026">
        <ele>62</ele>
        <time>2018-03-16T00:43:56Z</time>
      </trkpt>
      <trkpt lat="46.63551" lon="-1.70223">
        <ele>62</ele>
        <time>2018-03-16T00:44:56Z</time>
      </trkpt>
      <trkpt lat="46.63543" lon="-1.70208">
        <ele>62</ele>
        <time>2018-03-16T00:45:56Z</time>
      </trkpt>
      <trkpt lat="46.63523" lon="-1.70169">
        <ele>62</ele>
        <time>2018-03-16T00:46:56Z</time>
      </trkpt>
      <trkpt lat="46.6352" lon="-1.70163">
        <ele>63</ele>
        <time>2018-03-16T00:47:56Z</time>
      </trkpt>
      <trkpt lat="46.63501" lon="-1.70125">
        <ele>63</ele>
        <time>2018-03-16T00:48:56Z</time>
      </trkpt>
      <trkpt lat="46.63477" lon="-1.70077">
        <ele>62</ele>
        <time>2018-03-16T00:49:56Z</time>
      </trkpt>
      <trkpt lat="46.63459" lon="-1.70042">
        <ele>62</ele>
        <time>2018-03-16T00:50:56Z</time>
      </trkpt>
      <trkpt lat="46.63455" lon="-1.70034">
        <ele>62</ele>
        <time>2018-03-16T00:51:56Z</time>
      </trkpt>
      <trkpt lat="46.63437" lon="-1.69997">
        <ele>61</ele>
        <time>2018-03-16T00:52:56Z</time>
      </trkpt>
      <trkpt lat="46.63417" lon="-1.69958">
        <ele>61</ele>
        <time>2018-03-16T00:53:56Z</time>
      </trkpt>
      <trkpt lat="46.63403" lon="-1.6993">
        <ele>61</ele>
        <time>2018-03-16T00:54:56Z</time>
      </trkpt>
      <trkpt lat="46.63399" lon="-1.69921">
        <ele>61</ele>
        <time>2018-03-16T00:55:56Z</time>
      </trkpt>
      <trkpt lat="46.63379" lon="-1.69881">
        <ele>60</ele>
        <time>2018-03-16T00:56:56Z</time>
      </trkpt>
      <trkpt lat="46.63351" lon="-1.69824">
        <ele>60</ele>
        <time>2018-03-16T00:57:56Z</time>
      </trkpt>
      <trkpt lat="46.6331" lon="-1.69743">
        <ele>60</ele>
        <time>2018-03-16T00:58:56Z</time>
      </trkpt>
      <trkpt lat="46.63297" lon="-1.69718">
        <ele>60</ele>
        <time>2018-03-16T00:59:56Z</time>
      </trkpt>
      <trkpt lat="46.63287" lon="-1.69698">
        <ele>60</ele>
        <time>2018-03-16T01:00:56Z</time>
      </trkpt>
      <trkpt lat="46.63265" lon="-1.69653">
        <ele>60</ele>
        <time>2018-03-16T01:01:56Z</time>
      </trkpt>
      <trkpt lat="46.63243" lon="-1.69609">
        <ele>61</ele>
        <time>2018-03-16T01:02:56Z</time>
      </trkpt>
      <trkpt lat="46.63239" lon="-1.69602">
        <ele>61</ele>
        <time>2018-03-16T01:03:56Z</time>
      </trkpt>
      <trkpt lat="46.63232" lon="-1.69587">
        <ele>61</ele>
        <time>2018-03-16T01:04:56Z</time>
      </trkpt>
      <trkpt lat="46.63225" lon="-1.69574">
        <ele>61</ele>
        <time>2018-03-16T01:05:56Z</time>
      </trkpt>
      <trkpt lat="46.63215" lon="-1.69553">
        <ele>61</ele>
        <time>2018-03-16T01:06:56Z</time>
      </trkpt>
      <trkpt lat="46.63205" lon="-1.69534">
        <ele>61</ele>
        <time>2018-03-16T01:07:56Z</time>
      </trkpt>
      <trkpt lat="46.63179" lon="-1.69479">
        <ele>60</ele>
        <time>2018-03-16T01:08:56Z</time>
      </trkpt>
      <trkpt lat="46.63154" lon="-1.6943">
        <ele>60</ele>
        <time>2018-03-16T01:09:56Z</time>
      </trkpt>
      <trkpt lat="46.63148" lon="-1.69418">
        <ele>60</ele>
        <time>2018-03-16T01:10:56Z</time>
      </trkpt>
      <trkpt lat="46.63142" lon="-1.69406">
        <ele>60</ele>
        <time>2018-03-16T01:11:56Z</time>
      </trkpt>
      <trkpt lat="46.63127" lon="-1.69375">
        <ele>60</ele>
        <time>2018-03-16T01:12:56Z</time>
      </trkpt>
      <trkpt lat="46.63108" lon="-1.69336">
        <ele>61</ele>
        <time>2018-03-16T01:13:56Z</time>
      </trkpt>
      <trkpt lat="46.63067" lon="-1.69255">
        <ele>62</ele>
        <time>2018-03-16T01:14:56Z</time>
      </trkpt>
      <trkpt lat="46.63023" lon="-1.69167">
        <ele>60</ele>
        <time>2018-03-16T01:15:56Z</time>
      </trkpt>
      <trkpt lat="46.62965" lon="-1.6905">
        <ele>57</ele>
        <time>2018-03-16T01:16:56Z</time>
      </trkpt>
      <trkpt lat="46.62923" lon="-1.68964">
        <ele>55</ele>
        <time>2018-03-16T01:17:56Z</time>
      </trkpt>
      <trkpt lat="46.62919" lon="-1.68956">
        <ele>55</ele>
        <time>2018-03-16T01:18:56Z</time>
      </trkpt>
      <trkpt lat="46.62913" lon="-1.68944">
        <ele>55</ele>
        <time>2018-03-16T01:19:56Z</time>
      </trkpt>
      <trkpt lat="46.62905" lon="-1.6893">
        <ele>55</ele>
        <time>2018-03-16T01:20:56Z</time>
      </trkpt>
      <trkpt lat="46.62841" lon="-1.688">
        <ele>54</ele>
        <time>2018-03-16T01:21:56Z</time>
      </trkpt>
      <trkpt lat="46.62808" lon="-1.68732">
        <ele>54</ele>
        <time>2018-03-16T01:22:56Z</time>
      </trkpt>
      <trkpt lat="46.62758" lon="-1.68633">
        <ele>49</ele>
        <time>2018-03-16T01:23:56Z</time>
      </trkpt>
      <trkpt lat="46.62713" lon="-1.68545">
        <ele>45</ele>
        <time>2018-03-16T01:24:56Z</time>
      </trkpt>
      <trkpt lat="46.62682" lon="-1.68484">
        <ele>42</ele>
        <time>2018-03-16T01:25:56Z</time>
      </trkpt>
      <trkpt lat="46.62671" lon="-1.68461">
        <ele>41</ele>
        <time>2018-03-16T01:26:56Z</time>
      </trkpt>
      <trkpt lat="46.62604" lon="-1.68328">
        <ele>40</ele>
        <time>2018-03-16T01:27:56Z</time>
      </trkpt>
      <trkpt lat="46.62573" lon="-1.68267">
        <ele>37</ele>
        <time>2018-03-16T01:28:56Z</time>
      </trkpt>
      <trkpt lat="46.62545" lon="-1.68212">
        <ele>36</ele>
        <time>2018-03-16T01:29:56Z</time>
      </trkpt>
      <trkpt lat="46.62486" lon="-1.68095">
        <ele>36</ele>
        <time>2018-03-16T01:30:56Z</time>
      </trkpt>
      <trkpt lat="46.62484" lon="-1.6809">
        <ele>36</ele>
        <time>2018-03-16T01:31:56Z</time>
      </trkpt>
      <trkpt lat="46.62443" lon="-1.68008">
        <ele>35</ele>
        <time>2018-03-16T01:32:56Z</time>
      </trkpt>
      <trkpt lat="46.62393" lon="-1.67907">
        <ele>34</ele>
        <time>2018-03-16T01:33:56Z</time>
      </trkpt>
      <trkpt lat="46.62363" lon="-1.67846">
        <ele>36</ele>
        <time>2018-03-16T01:34:56Z</time>
      </trkpt>
      <trkpt lat="46.62362" lon="-1.67844">
        <ele>36</ele>
        <time>2018-03-16T01:35:56Z</time>
      </trkpt>
      <trkpt lat="46.62344" lon="-1.67808">
        <ele>38</ele>
        <time>2018-03-16T01:36:56Z</time>
      </trkpt>
      <trkpt lat="46.62301" lon="-1.67722">
        <ele>40</ele>
        <time>2018-03-16T01:37:56Z</time>
      </trkpt>
      <trkpt lat="46.6229" lon="-1.67698">
        <ele>40</ele>
        <time>2018-03-16T01:38:56Z</time>
      </trkpt>
      <trkpt lat="46.62278" lon="-1.67674">
        <ele>41</ele>
        <time>2018-03-16T01:39:56Z</time>
      </trkpt>
      <trkpt lat="46.62276" lon="-1.67668">
        <ele>41</ele>
        <time>2018-03-16T01:40:56Z</time>
      </trkpt>
      <trkpt lat="46.62248" lon="-1.67604">
        <ele>43</ele>
        <time>2018-03-16T01:41:56Z</time>
      </trkpt>
      <trkpt lat="46.62237" lon="-1.6758">
        <ele>42</ele>
        <time>2018-03-16T01:42:56Z</time>
      </trkpt>
      <trkpt lat="46.62227" lon="-1.67554">
        <ele>41</ele>
        <time>2018-03-16T01:43:56Z</time>
      </trkpt>
      <trkpt lat="46.6222" lon="-1.6754">
        <ele>40</ele>
        <time>2018-03-16T01:44:56Z</time>
      </trkpt>
      <trkpt lat="46.62172" lon="-1.67427">
        <ele>39</ele>
        <time>2018-03-16T01:45:56Z</time>
      </trkpt>
      <trkpt lat="46.62171" lon="-1.67424">
        <ele>39</ele>
        <time>2018-03-16T01:46:56Z</time>
      </trkpt>
      <trkpt lat="46.62143" lon="-1.67359">
        <ele>38</ele>
        <time>2018-03-16T01:47:56Z</time>
      </trkpt>
      <trkpt lat="46.62136" lon="-1.67341">
        <ele>38</ele>
        <time>2018-03-16T01:48:56Z</time>
      </trkpt>
      <trkpt lat="46.62133" lon="-1.6733">
        <ele>38</ele>
        <time>2018-03-16T01:49:56Z</time>
      </trkpt>
      <trkpt lat="46.62131" lon="-1.67322">
        <ele>38</ele>
        <time>2018-03-16T01:50:56Z</time>
      </trkpt>
      <trkpt lat="46.62129" lon="-1.67311">
        <ele>37</ele>
        <time>2018-03-16T01:51:56Z</time>
      </trkpt>
      <trkpt lat="46.62127" lon="-1.673">
        <ele>37</ele>
        <time>2018-03-16T01:52:56Z</time>
      </trkpt>
      <trkpt lat="46.62126" lon="-1.6729">
        <ele>37</ele>
        <time>2018-03-16T01:53:56Z</time>
      </trkpt>
      <trkpt lat="46.62125" lon="-1.67278">
        <ele>37</ele>
        <time>2018-03-16T01:54:56Z</time>
      </trkpt>
      <trkpt lat="46.62124" lon="-1.67269">
        <ele>36</ele>
        <time>2018-03-16T01:55:56Z</time>
      </trkpt>
      <trkpt lat="46.6212" lon="-1.67184">
        <ele>34</ele>
        <time>2018-03-16T01:56:56Z</time>
      </trkpt>
      <trkpt lat="46.6212" lon="-1.6717">
        <ele>33</ele>
        <time>2018-03-16T01:57:56Z</time>
      </trkpt>
      <trkpt lat="46.6212" lon="-1.67164">
        <ele>33</ele>
        <time>2018-03-16T01:58:56Z</time>
      </trkpt>
      <trkpt lat="46.62117" lon="-1.67052">
        <ele>28</ele>
        <time>2018-03-16T01:59:56Z</time>
      </trkpt>
      <trkpt lat="46.62116" lon="-1.6701">
        <ele>27</ele>
        <time>2018-03-16T02:00:56Z</time>
      </trkpt>
      <trkpt lat="46.62115" lon="-1.67004">
        <ele>27</ele>
        <time>2018-03-16T02:01:56Z</time>
      </trkpt>
      <trkpt lat="46.62113" lon="-1.66905">
        <ele>23</ele>
        <time>2018-03-16T02:02:56Z</time>
      </trkpt>
      <trkpt lat="46.62111" lon="-1.66837">
        <ele>20</ele>
        <time>2018-03-16T02:03:56Z</time>
      </trkpt>
      <trkpt lat="46.6211" lon="-1.66798">
        <ele>20</ele>
        <time>2018-03-16T02:04:56Z</time>
      </trkpt>
      <trkpt lat="46.6211" lon="-1.66772">
        <ele>19</ele>
        <time>2018-03-16T02:05:56Z</time>
      </trkpt>
      <trkpt lat="46.6211" lon="-1.66756">
        <ele>19</ele>
        <time>2018-03-16T02:06:56Z</time>
      </trkpt>
      <trkpt lat="46.6211" lon="-1.66749">
        <ele>19</ele>
        <time>2018-03-16T02:07:56Z</time>
      </trkpt>
      <trkpt lat="46.62111" lon="-1.66742">
        <ele>19</ele>
        <time>2018-03-16T02:08:56Z</time>
      </trkpt>
      <trkpt lat="46.62111" lon="-1.66737">
        <ele>19</ele>
        <time>2018-03-16T02:09:56Z</time>
      </trkpt>
      <trkpt lat="46.62111" lon="-1.66735">
        <ele>19</ele>
        <time>2018-03-16T02:10:56Z</time>
      </trkpt>
      <trkpt lat="46.62112" lon="-1.6672">
        <ele>19</ele>
        <time>2018-03-16T02:11:56Z</time>
      </trkpt>
      <trkpt lat="46.62112" lon="-1.66701">
        <ele>19</ele>
        <time>2018-03-16T02:12:56Z</time>
      </trkpt>
      <trkpt lat="46.62113" lon="-1.66678">
        <ele>19</ele>
        <time>2018-03-16T02:13:56Z</time>
      </trkpt>
      <trkpt lat="46.62114" lon="-1.6666">
        <ele>19</ele>
        <time>2018-03-16T02:14:56Z</time>
      </trkpt>
      <trkpt lat="46.62113" lon="-1.66644">
        <ele>20</ele>
        <time>2018-03-16T02:15:56Z</time>
      </trkpt>
      <trkpt lat="46.62113" lon="-1.66638">
        <ele>20</ele>
        <time>2018-03-16T02:16:56Z</time>
      </trkpt>
      <trkpt lat="46.62113" lon="-1.66632">
        <ele>20</ele>
        <time>2018-03-16T02:17:56Z</time>
      </trkpt>
      <trkpt lat="46.62101" lon="-1.66544">
        <ele>21</ele>
        <time>2018-03-16T02:18:56Z</time>
      </trkpt>
      <trkpt lat="46.62092" lon="-1.66479">
        <ele>22</ele>
        <time>2018-03-16T02:19:56Z</time>
      </trkpt>
      <trkpt lat="46.6209" lon="-1.66457">
        <ele>22</ele>
        <time>2018-03-16T02:20:56Z</time>
      </trkpt>
      <trkpt lat="46.62089" lon="-1.66449">
        <ele>22</ele>
        <time>2018-03-16T02:21:56Z</time>
      </trkpt>
      <trkpt lat="46.62089" lon="-1.66439">
        <ele>22</ele>
        <time>2018-03-16T02:22:56Z</time>
      </trkpt>
      <trkpt lat="46.62089" lon="-1.66427">
        <ele>23</ele>
        <time>2018-03-16T02:23:56Z</time>
      </trkpt>
      <trkpt lat="46.62089" lon="-1.66419">
        <ele>23</ele>
        <time>2018-03-16T02:24:56Z</time>
      </trkpt>
      <trkpt lat="46.62089" lon="-1.66409">
        <ele>23</ele>
        <time>2018-03-16T02:25:56Z</time>
      </trkpt>
      <trkpt lat="46.6209" lon="-1.664">
        <ele>23</ele>
        <time>2018-03-16T02:26:56Z</time>
      </trkpt>
      <trkpt lat="46.62091" lon="-1.66387">
        <ele>24</ele>
        <time>2018-03-16T02:27:56Z</time>
      </trkpt>
      <trkpt lat="46.62094" lon="-1.66348">
        <ele>24</ele>
        <time>2018-03-16T02:28:56Z</time>
      </trkpt>
      <trkpt lat="46.62095" lon="-1.66328">
        <ele>25</ele>
        <time>2018-03-16T02:29:56Z</time>
      </trkpt>
      <trkpt lat="46.62097" lon="-1.663">
        <ele>24</ele>
        <time>2018-03-16T02:30:56Z</time>
      </trkpt>
      <trkpt lat="46.62097" lon="-1.66297">
        <ele>24</ele>
        <time>2018-03-16T02:31:56Z</time>
      </trkpt>
      <trkpt lat="46.62098" lon="-1.66294">
        <ele>24</ele>
        <time>2018-03-16T02:32:56Z</time>
      </trkpt>
      <trkpt lat="46.62098" lon="-1.66293">
        <ele>24</ele>
        <time>2018-03-16T02:33:56Z</time>
      </trkpt>
      <trkpt lat="46.62098" lon="-1.66291">
        <ele>24</ele>
        <time>2018-03-16T02:34:56Z</time>
      </trkpt>
      <trkpt lat="46.62099" lon="-1.66257">
        <ele>24</ele>
        <time>2018-03-16T02:35:56Z</time>
      </trkpt>
      <trkpt lat="46.62101" lon="-1.6622">
        <ele>24</ele>
        <time>2018-03-16T02:36:56Z</time>
      </trkpt>
      <trkpt lat="46.62102" lon="-1.66186">
        <ele>24</ele>
        <time>2018-03-16T02:37:56Z</time>
      </trkpt>
      <trkpt lat="46.62101" lon="-1.66165">
        <ele>24</ele>
        <time>2018-03-16T02:38:56Z</time>
      </trkpt>
      <trkpt lat="46.62097" lon="-1.66142">
        <ele>24</ele>
        <time>2018-03-16T02:39:56Z</time>
      </trkpt>
      <trkpt lat="46.62093" lon="-1.66128">
        <ele>24</ele>
        <time>2018-03-16T02:40:56Z</time>
      </trkpt>
      <trkpt lat="46.62091" lon="-1.66122">
        <ele>24</ele>
        <time>2018-03-16T02:41:56Z</time>
      </trkpt>
      <trkpt lat="46.62087" lon="-1.6611">
        <ele>25</ele>
        <time>2018-03-16T02:42:56Z</time>
      </trkpt>
      <trkpt lat="46.62082" lon="-1.66097">
        <ele>25</ele>
        <time>2018-03-16T02:43:56Z</time>
      </trkpt>
      <trkpt lat="46.62076" lon="-1.66085">
        <ele>25</ele>
        <time>2018-03-16T02:44:56Z</time>
      </trkpt>
      <trkpt lat="46.62067" lon="-1.66074">
        <ele>26</ele>
        <time>2018-03-16T02:45:56Z</time>
      </trkpt>
      <trkpt lat="46.62049" lon="-1.66059">
        <ele>27</ele>
        <time>2018-03-16T02:46:56Z</time>
      </trkpt>
      <trkpt lat="46.62044" lon="-1.66053">
        <ele>28</ele>
        <time>2018-03-16T02:47:56Z</time>
      </trkpt>
      <trkpt lat="46.62038" lon="-1.6605">
        <ele>28</ele>
        <time>2018-03-16T02:48:56Z</time>
      </trkpt>
      <trkpt lat="46.62012" lon="-1.66037">
        <ele>30</ele>
        <time>2018-03-16T02:49:56Z</time>
      </trkpt>
      <trkpt lat="46.61988" lon="-1.66022">
        <ele>31</ele>
        <time>2018-03-16T02:50:56Z</time>
      </trkpt>
      <trkpt lat="46.61982" lon="-1.66018">
        <ele>31</ele>
        <time>2018-03-16T02:51:56Z</time>
      </trkpt>
      <trkpt lat="46.61979" lon="-1.66014">
        <ele>31</ele>
        <time>2018-03-16T02:52:56Z</time>
      </trkpt>
      <trkpt lat="46.61979" lon="-1.66014">
        <ele>31</ele>
        <time>2018-03-16T02:53:56Z</time>
      </trkpt>
      <trkpt lat="46.61973" lon="-1.6603">
        <ele>31</ele>
        <time>2018-03-16T02:54:56Z</time>
      </trkpt>
      <trkpt lat="46.61966" lon="-1.6606">
        <ele>31</ele>
        <time>2018-03-16T02:55:56Z</time>
      </trkpt>
      <trkpt lat="46.61958" lon="-1.6608">
        <ele>32</ele>
        <time>2018-03-16T02:56:56Z</time>
      </trkpt>
      <trkpt lat="46.61948" lon="-1.66102">
        <ele>32</ele>
        <time>2018-03-16T02:57:56Z</time>
      </trkpt>
      <trkpt lat="46.61939" lon="-1.66124">
        <ele>32</ele>
        <time>2018-03-16T02:58:56Z</time>
      </trkpt>
      <trkpt lat="46.61929" lon="-1.66145">
        <ele>33</ele>
        <time>2018-03-16T02:59:56Z</time>
      </trkpt>
      <trkpt lat="46.61923" lon="-1.66159">
        <ele>33</ele>
        <time>2018-03-16T03:00:56Z</time>
      </trkpt>
      <trkpt lat="46.61918" lon="-1.66171">
        <ele>33</ele>
        <time>2018-03-16T03:01:56Z</time>
      </trkpt>
      <trkpt lat="46.61907" lon="-1.66192">
        <ele>33</ele>
        <time>2018-03-16T03:02:56Z</time>
      </trkpt>
      <trkpt lat="46.61898" lon="-1.66208">
        <ele>33</ele>
        <time>2018-03-16T03:03:56Z</time>
      </trkpt>
      <trkpt lat="46.61892" lon="-1.66215">
        <ele>33</ele>
        <time>2018-03-16T03:04:56Z</time>
      </trkpt>
      <trkpt lat="46.61885" lon="-1.66224">
        <ele>33</ele>
        <time>2018-03-16T03:05:56Z</time>
      </trkpt>
      <trkpt lat="46.61876" lon="-1.66233">
        <ele>33</ele>
        <time>2018-03-16T03:06:56Z</time>
      </trkpt>
      <trkpt lat="46.61865" lon="-1.66248">
        <ele>33</ele>
        <time>2018-03-16T03:07:56Z</time>
      </trkpt>
      <trkpt lat="46.61855" lon="-1.66263">
        <ele>33</ele>
        <time>2018-03-16T03:08:56Z</time>
      </trkpt>
      <trkpt lat="46.61848" lon="-1.66277">
        <ele>33</ele>
        <time>2018-03-16T03:09:56Z</time>
      </trkpt>
      <trkpt lat="46.61845" lon="-1.66286">
        <ele>33</ele>
        <time>2018-03-16T03:10:56Z</time>
      </trkpt>
      <trkpt lat="46.6184" lon="-1.66306">
        <ele>32</ele>
        <time>2018-03-16T03:11:56Z</time>
      </trkpt>
      <trkpt lat="46.61836" lon="-1.6632">
        <ele>31</ele>
        <time>2018-03-16T03:12:56Z</time>
      </trkpt>
      <trkpt lat="46.61832" lon="-1.66342">
        <ele>31</ele>
        <time>2018-03-16T03:13:56Z</time>
      </trkpt>
      <trkpt lat="46.61827" lon="-1.66354">
        <ele>31</ele>
        <time>2018-03-16T03:14:56Z</time>
      </trkpt>
      <trkpt lat="46.61812" lon="-1.66386">
        <ele>31</ele>
        <time>2018-03-16T03:15:56Z</time>
      </trkpt>
      <trkpt lat="46.61798" lon="-1.66409">
        <ele>30</ele>
        <time>2018-03-16T03:16:56Z</time>
      </trkpt>
      <trkpt lat="46.61782" lon="-1.66439">
        <ele>30</ele>
        <time>2018-03-16T03:17:56Z</time>
      </trkpt>
      <trkpt lat="46.61768" lon="-1.66462">
        <ele>30</ele>
        <time>2018-03-16T03:18:56Z</time>
      </trkpt>
      <trkpt lat="46.6174" lon="-1.6651">
        <ele>29</ele>
        <time>2018-03-16T03:19:56Z</time>
      </trkpt>
      <trkpt lat="46.61723" lon="-1.6654">
        <ele>28</ele>
        <time>2018-03-16T03:20:56Z</time>
      </trkpt>
      <trkpt lat="46.61712" lon="-1.66561">
        <ele>27</ele>
        <time>2018-03-16T03:21:56Z</time>
      </trkpt>
      <trkpt lat="46.61696" lon="-1.66588">
        <ele>26</ele>
        <time>2018-03-16T03:22:56Z</time>
      </trkpt>
      <trkpt lat="46.61689" lon="-1.66597">
        <ele>26</ele>
        <time>2018-03-16T03:23:56Z</time>
      </trkpt>
      <trkpt lat="46.61673" lon="-1.66617">
        <ele>25</ele>
        <time>2018-03-16T03:24:56Z</time>
      </trkpt>
      <trkpt lat="46.61651" lon="-1.66639">
        <ele>24</ele>
        <time>2018-03-16T03:25:56Z</time>
      </trkpt>
      <trkpt lat="46.61638" lon="-1.6665">
        <ele>24</ele>
        <time>2018-03-16T03:26:56Z</time>
      </trkpt>
      <trkpt lat="46.61633" lon="-1.66655">
        <ele>24</ele>
        <time>2018-03-16T03:27:56Z</time>
      </trkpt>
      <trkpt lat="46.6162" lon="-1.66671">
        <ele>23</ele>
        <time>2018-03-16T03:28:56Z</time>
      </trkpt>
      <trkpt lat="46.616" lon="-1.6669">
        <ele>23</ele>
        <time>2018-03-16T03:29:56Z</time>
      </trkpt>
      <trkpt lat="46.61582" lon="-1.66708">
        <ele>24</ele>
        <time>2018-03-16T03:30:56Z</time>
      </trkpt>
      <trkpt lat="46.61569" lon="-1.66721">
        <ele>24</ele>
        <time>2018-03-16T03:31:56Z</time>
      </trkpt>
      <trkpt lat="46.61557" lon="-1.66736">
        <ele>24</ele>
        <time>2018-03-16T03:32:56Z</time>
      </trkpt>
      <trkpt lat="46.61544" lon="-1.66754">
        <ele>24</ele>
        <time>2018-03-16T03:33:56Z</time>
      </trkpt>
      <trkpt lat="46.61535" lon="-1.66769">
        <ele>24</ele>
        <time>2018-03-16T03:34:56Z</time>
      </trkpt>
      <trkpt lat="46.61526" lon="-1.66785">
        <ele>24</ele>
        <time>2018-03-16T03:35:56Z</time>
      </trkpt>
      <trkpt lat="46.61507" lon="-1.6682">
        <ele>24</ele>
        <time>2018-03-16T03:36:56Z</time>
      </trkpt>
      <trkpt lat="46.61494" lon="-1.66844">
        <ele>24</ele>
        <time>2018-03-16T03:37:56Z</time>
      </trkpt>
      <trkpt lat="46.6148" lon="-1.66869">
        <ele>23</ele>
        <time>2018-03-16T03:38:56Z</time>
      </trkpt>
      <trkpt lat="46.61472" lon="-1.66884">
        <ele>23</ele>
        <time>2018-03-16T03:39:56Z</time>
      </trkpt>
      <trkpt lat="46.61456" lon="-1.66912">
        <ele>23</ele>
        <time>2018-03-16T03:40:56Z</time>
      </trkpt>
      <trkpt lat="46.61456" lon="-1.66912">
        <ele>23</ele>
        <time>2018-03-16T03:41:56Z</time>
      </trkpt>
      <trkpt lat="46.61436" lon="-1.66949">
        <ele>23</ele>
        <time>2018-03-16T03:42:56Z</time>
      </trkpt>
      <trkpt lat="46.61425" lon="-1.6697">
        <ele>23</ele>
        <time>2018-03-16T03:43:56Z</time>
      </trkpt>
      <trkpt lat="46.61421" lon="-1.66977">
        <ele>23</ele>
        <time>2018-03-16T03:44:56Z</time>
      </trkpt>
      <trkpt lat="46.61417" lon="-1.66983">
        <ele>23</ele>
        <time>2018-03-16T03:45:56Z</time>
      </trkpt>
      <trkpt lat="46.61412" lon="-1.66989">
        <ele>23</ele>
        <time>2018-03-16T03:46:56Z</time>
      </trkpt>
      <trkpt lat="46.61408" lon="-1.66992">
        <ele>23</ele>
        <time>2018-03-16T03:47:56Z</time>
      </trkpt>
      <trkpt lat="46.61404" lon="-1.66994">
        <ele>23</ele>
        <time>2018-03-16T03:48:56Z</time>
      </trkpt>
      <trkpt lat="46.614" lon="-1.66995">
        <ele>23</ele>
        <time>2018-03-16T03:49:56Z</time>
      </trkpt>
      <trkpt lat="46.61396" lon="-1.66995">
        <ele>23</ele>
        <time>2018-03-16T03:50:56Z</time>
      </trkpt>
      <trkpt lat="46.61389" lon="-1.66994">
        <ele>23</ele>
        <time>2018-03-16T03:51:56Z</time>
      </trkpt>
      <trkpt lat="46.61377" lon="-1.66989">
        <ele>24</ele>
        <time>2018-03-16T03:52:56Z</time>
      </trkpt>
      <trkpt lat="46.61352" lon="-1.66976">
        <ele>25</ele>
        <time>2018-03-16T03:53:56Z</time>
      </trkpt>
      <trkpt lat="46.61321" lon="-1.66961">
        <ele>27</ele>
        <time>2018-03-16T03:54:56Z</time>
      </trkpt>
      <trkpt lat="46.61301" lon="-1.6695">
        <ele>28</ele>
        <time>2018-03-16T03:55:56Z</time>
      </trkpt>
      <trkpt lat="46.61287" lon="-1.66946">
        <ele>29</ele>
        <time>2018-03-16T03:56:56Z</time>
      </trkpt>
      <trkpt lat="46.61269" lon="-1.66941">
        <ele>30</ele>
        <time>2018-03-16T03:57:56Z</time>
      </trkpt>
      <trkpt lat="46.6126" lon="-1.66941">
        <ele>30</ele>
        <time>2018-03-16T03:58:56Z</time>
      </trkpt>
      <trkpt lat="46.61252" lon="-1.66944">
        <ele>30</ele>
        <time>2018-03-16T03:59:56Z</time>
      </trkpt>
      <trkpt lat="46.61246" lon="-1.66948">
        <ele>30</ele>
        <time>2018-03-16T04:00:56Z</time>
      </trkpt>
      <trkpt lat="46.61241" lon="-1.66954">
        <ele>30</ele>
        <time>2018-03-16T04:01:56Z</time>
      </trkpt>
      <trkpt lat="46.61237" lon="-1.6696">
        <ele>30</ele>
        <time>2018-03-16T04:02:56Z</time>
      </trkpt>
      <trkpt lat="46.61234" lon="-1.66967">
        <ele>30</ele>
        <time>2018-03-16T04:03:56Z</time>
      </trkpt>
      <trkpt lat="46.61232" lon="-1.66975">
        <ele>30</ele>
        <time>2018-03-16T04:04:56Z</time>
      </trkpt>
      <trkpt lat="46.61228" lon="-1.67001">
        <ele>29</ele>
        <time>2018-03-16T04:05:56Z</time>
      </trkpt>
      <trkpt lat="46.61225" lon="-1.67042">
        <ele>28</ele>
        <time>2018-03-16T04:06:56Z</time>
      </trkpt>
      <trkpt lat="46.61219" lon="-1.67104">
        <ele>28</ele>
        <time>2018-03-16T04:07:56Z</time>
      </trkpt>
      <trkpt lat="46.61218" lon="-1.67119">
        <ele>28</ele>
        <time>2018-03-16T04:08:56Z</time>
      </trkpt>
      <trkpt lat="46.61216" lon="-1.67142">
        <ele>28</ele>
        <time>2018-03-16T04:09:56Z</time>
      </trkpt>
      <trkpt lat="46.6121" lon="-1.67199">
        <ele>28</ele>
        <time>2018-03-16T04:10:56Z</time>
      </trkpt>
      <trkpt lat="46.61207" lon="-1.67234">
        <ele>27</ele>
        <time>2018-03-16T04:11:56Z</time>
      </trkpt>
      <trkpt lat="46.61207" lon="-1.67241">
        <ele>27</ele>
        <time>2018-03-16T04:12:56Z</time>
      </trkpt>
      <trkpt lat="46.61206" lon="-1.67252">
        <ele>27</ele>
        <time>2018-03-16T04:13:56Z</time>
      </trkpt>
      <trkpt lat="46.61205" lon="-1.67257">
        <ele>27</ele>
        <time>2018-03-16T04:14:56Z</time>
      </trkpt>
      <trkpt lat="46.61203" lon="-1.67261">
        <ele>27</ele>
        <time>2018-03-16T04:15:56Z</time>
      </trkpt>
      <trkpt lat="46.61201" lon="-1.67262">
        <ele>28</ele>
        <time>2018-03-16T04:16:56Z</time>
      </trkpt>
      <trkpt lat="46.61198" lon="-1.67262">
        <ele>28</ele>
        <time>2018-03-16T04:17:56Z</time>
      </trkpt>
      <trkpt lat="46.61192" lon="-1.67261">
        <ele>28</ele>
        <time>2018-03-16T04:18:56Z</time>
      </trkpt>
      <trkpt lat="46.61165" lon="-1.67256">
        <ele>30</ele>
        <time>2018-03-16T04:19:56Z</time>
      </trkpt>
      <trkpt lat="46.61165" lon="-1.67256">
        <ele>30</ele>
        <time>2018-03-16T04:20:56Z</time>
      </trkpt>
      <trkpt lat="46.61156" lon="-1.67254">
        <ele>31</ele>
        <time>2018-03-16T04:21:56Z</time>
      </trkpt>
      <trkpt lat="46.61122" lon="-1.67249">
        <ele>33</ele>
        <time>2018-03-16T04:22:56Z</time>
      </trkpt>
      <trkpt lat="46.61108" lon="-1.67245">
        <ele>34</ele>
        <time>2018-03-16T04:23:56Z</time>
      </trkpt>
      <trkpt lat="46.611" lon="-1.67243">
        <ele>34</ele>
        <time>2018-03-16T04:24:56Z</time>
      </trkpt>
      <trkpt lat="46.61095" lon="-1.6724">
        <ele>34</ele>
        <time>2018-03-16T04:25:56Z</time>
      </trkpt>
      <trkpt lat="46.61088" lon="-1.67235">
        <ele>35</ele>
        <time>2018-03-16T04:26:56Z</time>
      </trkpt>
      <trkpt lat="46.61074" lon="-1.67224">
        <ele>35</ele>
        <time>2018-03-16T04:27:56Z</time>
      </trkpt>
      <trkpt lat="46.61043" lon="-1.67198">
        <ele>37</ele>
        <time>2018-03-16T04:28:56Z</time>
      </trkpt>
      <trkpt lat="46.61023" lon="-1.67181">
        <ele>38</ele>
        <time>2018-03-16T04:29:56Z</time>
      </trkpt>
      <trkpt lat="46.61001" lon="-1.67163">
        <ele>39</ele>
        <time>2018-03-16T04:30:56Z</time>
      </trkpt>
      <trkpt lat="46.60976" lon="-1.67141">
        <ele>39</ele>
        <time>2018-03-16T04:31:56Z</time>
      </trkpt>
      <trkpt lat="46.60957" lon="-1.67122">
        <ele>40</ele>
        <time>2018-03-16T04:32:56Z</time>
      </trkpt>
      <trkpt lat="46.60943" lon="-1.67108">
        <ele>40</ele>
        <time>2018-03-16T04:33:56Z</time>
      </trkpt>
      <trkpt lat="46.60933" lon="-1.67095">
        <ele>40</ele>
        <time>2018-03-16T04:34:56Z</time>
      </trkpt>
      <trkpt lat="46.60929" lon="-1.67088">
        <ele>41</ele>
        <time>2018-03-16T04:35:56Z</time>
      </trkpt>
      <trkpt lat="46.60924" lon="-1.67079">
        <ele>41</ele>
        <time>2018-03-16T04:36:56Z</time>
      </trkpt>
      <trkpt lat="46.60921" lon="-1.67072">
        <ele>41</ele>
        <time>2018-03-16T04:37:56Z</time>
      </trkpt>
      <trkpt lat="46.60918" lon="-1.67064">
        <ele>41</ele>
        <time>2018-03-16T04:38:56Z</time>
      </trkpt>
      <trkpt lat="46.60915" lon="-1.67054">
        <ele>41</ele>
        <time>2018-03-16T04:39:56Z</time>
      </trkpt>
      <trkpt lat="46.6091" lon="-1.6704">
        <ele>41</ele>
        <time>2018-03-16T04:40:56Z</time>
      </trkpt>
      <trkpt lat="46.609" lon="-1.67">
        <ele>42</ele>
        <time>2018-03-16T04:41:56Z</time>
      </trkpt>
      <trkpt lat="46.60891" lon="-1.6696">
        <ele>42</ele>
        <time>2018-03-16T04:42:56Z</time>
      </trkpt>
      <trkpt lat="46.60887" lon="-1.66944">
        <ele>43</ele>
        <time>2018-03-16T04:43:56Z</time>
      </trkpt>
      <trkpt lat="46.60884" lon="-1.66935">
        <ele>43</ele>
        <time>2018-03-16T04:44:56Z</time>
      </trkpt>
      <trkpt lat="46.60881" lon="-1.66924">
        <ele>43</ele>
        <time>2018-03-16T04:45:56Z</time>
      </trkpt>
      <trkpt lat="46.60877" lon="-1.66914">
        <ele>43</ele>
        <time>2018-03-16T04:46:56Z</time>
      </trkpt>
      <trkpt lat="46.60872" lon="-1.66902">
        <ele>43</ele>
        <time>2018-03-16T04:47:56Z</time>
      </trkpt>
      <trkpt lat="46.60865" lon="-1.6689">
        <ele>43</ele>
        <time>2018-03-16T04:48:56Z</time>
      </trkpt>
      <trkpt lat="46.60831" lon="-1.66829">
        <ele>44</ele>
        <time>2018-03-16T04:49:56Z</time>
      </trkpt>
      <trkpt lat="46.60801" lon="-1.66776">
        <ele>45</ele>
        <time>2018-03-16T04:50:56Z</time>
      </trkpt>
      <trkpt lat="46.60761" lon="-1.66707">
        <ele>45</ele>
        <time>2018-03-16T04:51:56Z</time>
      </trkpt>
      <trkpt lat="46.60727" lon="-1.6665">
        <ele>46</ele>
        <time>2018-03-16T04:52:56Z</time>
      </trkpt>
      <trkpt lat="46.60727" lon="-1.6665">
        <ele>46</ele>
        <time>2018-03-16T04:53:56Z</time>
      </trkpt>
      <trkpt lat="46.60752" lon="-1.6662">
        <ele>46</ele>
        <time>2018-03-16T04:54:56Z</time>
      </trkpt>
      <trkpt lat="46.6077" lon="-1.666">
        <ele>46</ele>
        <time>2018-03-16T04:55:56Z</time>
      </trkpt>
      <trkpt lat="46.6077" lon="-1.666">
        <ele>46</ele>
        <time>2018-03-16T04:56:56Z</time>
      </trkpt>
      <trkpt lat="46.60765" lon="-1.66594">
        <ele>46</ele>
        <time>2018-03-16T04:57:56Z</time>
      </trkpt>
      <trkpt lat="46.60762" lon="-1.66586">
        <ele>46</ele>
        <time>2018-03-16T04:58:56Z</time>
      </trkpt>
      <trkpt lat="46.6076" lon="-1.66576">
        <ele>46</ele>
        <time>2018-03-16T04:59:56Z</time>
      </trkpt>
      <trkpt lat="46.6076" lon="-1.66564">
        <ele>46</ele>
        <time>2018-03-16T05:00:56Z</time>
      </trkpt>
      <trkpt lat="46.60675" lon="-1.66514">
        <ele>49</ele>
        <time>2018-03-16T05:01:56Z</time>
      </trkpt>
      <trkpt lat="46.60667" lon="-1.6651">
        <ele>50</ele>
        <time>2018-03-16T05:02:56Z</time>
      </trkpt>
      <trkpt lat="46.60659" lon="-1.66506">
        <ele>50</ele>
        <time>2018-03-16T05:03:56Z</time>
      </trkpt>
      <trkpt lat="46.60651" lon="-1.66502">
        <ele>50</ele>
        <time>2018-03-16T05:04:56Z</time>
      </trkpt>
      <trkpt lat="46.60643" lon="-1.66498">
        <ele>50</ele>
        <time>2018-03-16T05:05:56Z</time>
      </trkpt>
      <trkpt lat="46.60636" lon="-1.66494">
        <ele>50</ele>
        <time>2018-03-16T05:06:56Z</time>
      </trkpt>
      <trkpt lat="46.60629" lon="-1.66491">
        <ele>49</ele>
        <time>2018-03-16T05:07:56Z</time>
      </trkpt>
      <trkpt lat="46.60621" lon="-1.66487">
        <ele>49</ele>
        <time>2018-03-16T05:08:56Z</time>
      </trkpt>
      <trkpt lat="46.60614" lon="-1.66483">
        <ele>49</ele>
        <time>2018-03-16T05:09:56Z</time>
      </trkpt>
      <trkpt lat="46.60608" lon="-1.66479">
        <ele>49</ele>
        <time>2018-03-16T05:10:56Z</time>
      </trkpt>
      <trkpt lat="46.60597" lon="-1.66474">
        <ele>49</ele>
        <time>2018-03-16T05:11:56Z</time>
      </trkpt>
      <trkpt lat="46.60571" lon="-1.6646">
        <ele>49</ele>
        <time>2018-03-16T05:12:56Z</time>
      </trkpt>
      <trkpt lat="46.60569" lon="-1.6646">
        <ele>49</ele>
        <time>2018-03-16T05:13:56Z</time>
      </trkpt>
      <trkpt lat="46.60566" lon="-1.66459">
        <ele>49</ele>
        <time>2018-03-16T05:14:56Z</time>
      </trkpt>
      <trkpt lat="46.60564" lon="-1.66459">
        <ele>49</ele>
        <time>2018-03-16T05:15:56Z</time>
      </trkpt>
      <trkpt lat="46.60562" lon="-1.66458">
        <ele>49</ele>
        <time>2018-03-16T05:16:56Z</time>
      </trkpt>
      <trkpt lat="46.6056" lon="-1.66457">
        <ele>49</ele>
        <time>2018-03-16T05:17:56Z</time>
      </trkpt>
      <trkpt lat="46.60559" lon="-1.66457">
        <ele>49</ele>
        <time>2018-03-16T05:18:56Z</time>
      </trkpt>
      <trkpt lat="46.60558" lon="-1.66456">
        <ele>49</ele>
        <time>2018-03-16T05:19:56Z</time>
      </trkpt>
      <trkpt lat="46.60557" lon="-1.66455">
        <ele>49</ele>
        <time>2018-03-16T05:20:56Z</time>
      </trkpt>
      <trkpt lat="46.60557" lon="-1.66455">
        <ele>49</ele>
        <time>2018-03-16T05:21:56Z</time>
      </trkpt>
      <trkpt lat="46.60555" lon="-1.66459">
        <ele>49</ele>
        <time>2018-03-16T05:22:56Z</time>
      </trkpt>
      <trkpt lat="46.60552" lon="-1.66462">
        <ele>49</ele>
        <time>2018-03-16T05:23:56Z</time>
      </trkpt>
      <trkpt lat="46.60548" lon="-1.66464">
        <ele>49</ele>
        <time>2018-03-16T05:24:56Z</time>
      </trkpt>
      <trkpt lat="46.60544" lon="-1.66465">
        <ele>49</ele>
        <time>2018-03-16T05:25:56Z</time>
      </trkpt>
      <trkpt lat="46.6054" lon="-1.66463">
        <ele>48</ele>
        <time>2018-03-16T05:26:56Z</time>
      </trkpt>
      <trkpt lat="46.60537" lon="-1.66462">
        <ele>48</ele>
        <time>2018-03-16T05:27:56Z</time>
      </trkpt>
      <trkpt lat="46.60534" lon="-1.66459">
        <ele>48</ele>
        <time>2018-03-16T05:28:56Z</time>
      </trkpt>
      <trkpt lat="46.60531" lon="-1.66453">
        <ele>48</ele>
        <time>2018-03-16T05:29:56Z</time>
      </trkpt>
      <trkpt lat="46.6053" lon="-1.66446">
        <ele>48</ele>
        <time>2018-03-16T05:30:56Z</time>
      </trkpt>
      <trkpt lat="46.6053" lon="-1.6644">
        <ele>48</ele>
        <time>2018-03-16T05:31:56Z</time>
      </trkpt>
      <trkpt lat="46.60531" lon="-1.66434">
        <ele>48</ele>
        <time>2018-03-16T05:32:56Z</time>
      </trkpt>
      <trkpt lat="46.60533" lon="-1.66429">
        <ele>48</ele>
        <time>2018-03-16T05:33:56Z</time>
      </trkpt>
      <trkpt lat="46.60537" lon="-1.66425">
        <ele>48</ele>
        <time>2018-03-16T05:34:56Z</time>
      </trkpt>
      <trkpt lat="46.60542" lon="-1.66422">
        <ele>49</ele>
        <time>2018-03-16T05:35:56Z</time>
      </trkpt>
      <trkpt lat="46.60547" lon="-1.66422">
        <ele>49</ele>
        <time>2018-03-16T05:36:56Z</time>
      </trkpt>
      <trkpt lat="46.60555" lon="-1.66407">
        <ele>49</ele>
        <time>2018-03-16T05:37:56Z</time>
      </trkpt>
      <trkpt lat="46.60556" lon="-1.66396">
        <ele>49</ele>
        <time>2018-03-16T05:38:56Z</time>
      </trkpt>
      <trkpt lat="46.60556" lon="-1.66388">
        <ele>49</ele>
        <time>2018-03-16T05:39:56Z</time>
      </trkpt>
      <trkpt lat="46.60556" lon="-1.66381">
        <ele>49</ele>
        <time>2018-03-16T05:40:56Z</time>
      </trkpt>
      <trkpt lat="46.60556" lon="-1.66375">
        <ele>49</ele>
        <time>2018-03-16T05:41:56Z</time>
      </trkpt>
      <trkpt lat="46.60555" lon="-1.66364">
        <ele>49</ele>
        <time>2018-03-16T05:42:56Z</time>
      </trkpt>
      <trkpt lat="46.60554" lon="-1.66354">
        <ele>49</ele>
        <time>2018-03-16T05:43:56Z</time>
      </trkpt>
      <trkpt lat="46.60553" lon="-1.66347">
        <ele>49</ele>
        <time>2018-03-16T05:44:56Z</time>
      </trkpt>
      <trkpt lat="46.6055" lon="-1.66338">
        <ele>49</ele>
        <time>2018-03-16T05:45:56Z</time>
      </trkpt>
      <trkpt lat="46.60549" lon="-1.66334">
        <ele>49</ele>
        <time>2018-03-16T05:46:56Z</time>
      </trkpt>
      <trkpt lat="46.60547" lon="-1.66326">
        <ele>49</ele>
        <time>2018-03-16T05:47:56Z</time>
      </trkpt>
      <trkpt lat="46.60542" lon="-1.66314">
        <ele>49</ele>
        <time>2018-03-16T05:48:56Z</time>
      </trkpt>
      <trkpt lat="46.60537" lon="-1.66301">
        <ele>49</ele>
        <time>2018-03-16T05:49:56Z</time>
      </trkpt>
      <trkpt lat="46.60528" lon="-1.66287">
        <ele>49</ele>
        <time>2018-03-16T05:50:56Z</time>
      </trkpt>
      <trkpt lat="46.60521" lon="-1.66276">
        <ele>48</ele>
        <time>2018-03-16T05:51:56Z</time>
      </trkpt>
      <trkpt lat="46.60515" lon="-1.66265">
        <ele>48</ele>
        <time>2018-03-16T05:52:56Z</time>
      </trkpt>
      <trkpt lat="46.60504" lon="-1.66247">
        <ele>48</ele>
        <time>2018-03-16T05:53:56Z</time>
      </trkpt>
      <trkpt lat="46.60497" lon="-1.66236">
        <ele>48</ele>
        <time>2018-03-16T05:54:56Z</time>
      </trkpt>
      <trkpt lat="46.60489" lon="-1.66223">
        <ele>48</ele>
        <time>2018-03-16T05:55:56Z</time>
      </trkpt>
      <trkpt lat="46.60479" lon="-1.66205">
        <ele>47</ele>
        <time>2018-03-16T05:56:56Z</time>
      </trkpt>
      <trkpt lat="46.60466" lon="-1.66182">
        <ele>47</ele>
        <time>2018-03-16T05:57:56Z</time>
      </trkpt>
      <trkpt lat="46.60464" lon="-1.66177">
        <ele>47</ele>
        <time>2018-03-16T05:58:56Z</time>
      </trkpt>
      <trkpt lat="46.60452" lon="-1.66154">
        <ele>46</ele>
        <time>2018-03-16T05:59:56Z</time>
      </trkpt>
      <trkpt lat="46.60451" lon="-1.66152">
        <ele>46</ele>
        <time>2018-03-16T06:00:56Z</time>
      </trkpt>
      <trkpt lat="46.6045" lon="-1.6615">
        <ele>46</ele>
        <time>2018-03-16T06:01:56Z</time>
      </trkpt>
      <trkpt lat="46.60449" lon="-1.66147">
        <ele>46</ele>
        <time>2018-03-16T06:02:56Z</time>
      </trkpt>
      <trkpt lat="46.60448" lon="-1.66142">
        <ele>46</ele>
        <time>2018-03-16T06:03:56Z</time>
      </trkpt>
      <trkpt lat="46.60447" lon="-1.66137">
        <ele>46</ele>
        <time>2018-03-16T06:04:56Z</time>
      </trkpt>
      <trkpt lat="46.60446" lon="-1.66127">
        <ele>46</ele>
        <time>2018-03-16T06:05:56Z</time>
      </trkpt>
      <trkpt lat="46.60446" lon="-1.6612">
        <ele>46</ele>
        <time>2018-03-16T06:06:56Z</time>
      </trkpt>
      <trkpt lat="46.60448" lon="-1.66103">
        <ele>46</ele>
        <time>2018-03-16T06:07:56Z</time>
      </trkpt>
      <trkpt lat="46.60445" lon="-1.66101">
        <ele>45</ele>
        <time>2018-03-16T06:08:56Z</time>
      </trkpt>
      <trkpt lat="46.60443" lon="-1.66099">
        <ele>45</ele>
        <time>2018-03-16T06:09:56Z</time>
      </trkpt>
      <trkpt lat="46.60441" lon="-1.66097">
        <ele>45</ele>
        <time>2018-03-16T06:10:56Z</time>
      </trkpt>
      <trkpt lat="46.60439" lon="-1.6609">
        <ele>45</ele>
        <time>2018-03-16T06:11:56Z</time>
      </trkpt>
      <trkpt lat="46.60438" lon="-1.66084">
        <ele>45</ele>
        <time>2018-03-16T06:12:56Z</time>
      </trkpt>
      <trkpt lat="46.60439" lon="-1.66081">
        <ele>45</ele>
        <time>2018-03-16T06:13:56Z</time>
      </trkpt>
      <trkpt lat="46.6044" lon="-1.66077">
        <ele>45</ele>
        <time>2018-03-16T06:14:56Z</time>
      </trkpt>
      <trkpt lat="46.60441" lon="-1.66074">
        <ele>45</ele>
        <time>2018-03-16T06:15:56Z</time>
      </trkpt>
      <trkpt lat="46.60442" lon="-1.66071">
        <ele>45</ele>
        <time>2018-03-16T06:16:56Z</time>
      </trkpt>
      <trkpt lat="46.60445" lon="-1.66067">
        <ele>45</ele>
        <time>2018-03-16T06:17:56Z</time>
      </trkpt>
      <trkpt lat="46.60448" lon="-1.66065">
        <ele>45</ele>
        <time>2018-03-16T06:18:56Z</time>
      </trkpt>
      <trkpt lat="46.60451" lon="-1.66064">
        <ele>46</ele>
        <time>2018-03-16T06:19:56Z</time>
      </trkpt>
      <trkpt lat="46.60455" lon="-1.66064">
        <ele>46</ele>
        <time>2018-03-16T06:20:56Z</time>
      </trkpt>
      <trkpt lat="46.60457" lon="-1.66064">
        <ele>46</ele>
        <time>2018-03-16T06:21:56Z</time>
      </trkpt>
      <trkpt lat="46.60466" lon="-1.66029">
        <ele>46</ele>
        <time>2018-03-16T06:22:56Z</time>
      </trkpt>
      <trkpt lat="46.60472" lon="-1.66006">
        <ele>46</ele>
        <time>2018-03-16T06:23:56Z</time>
      </trkpt>
      <trkpt lat="46.6048" lon="-1.65975">
        <ele>47</ele>
        <time>2018-03-16T06:24:56Z</time>
      </trkpt>
      <trkpt lat="46.60482" lon="-1.65966">
        <ele>47</ele>
        <time>2018-03-16T06:25:56Z</time>
      </trkpt>
      <trkpt lat="46.60486" lon="-1.65951">
        <ele>47</ele>
        <time>2018-03-16T06:26:56Z</time>
      </trkpt>
      <trkpt lat="46.60488" lon="-1.6594">
        <ele>47</ele>
        <time>2018-03-16T06:27:56Z</time>
      </trkpt>
      <trkpt lat="46.605" lon="-1.65894">
        <ele>47</ele>
        <time>2018-03-16T06:28:56Z</time>
      </trkpt>
      <trkpt lat="46.60502" lon="-1.65888">
        <ele>47</ele>
        <time>2018-03-16T06:29:56Z</time>
      </trkpt>
      <trkpt lat="46.60508" lon="-1.65868">
        <ele>47</ele>
        <time>2018-03-16T06:30:56Z</time>
      </trkpt>
      <trkpt lat="46.60511" lon="-1.65857">
        <ele>47</ele>
        <time>2018-03-16T06:31:56Z</time>
      </trkpt>
      <trkpt lat="46.60518" lon="-1.65834">
        <ele>47</ele>
        <time>2018-03-16T06:32:56Z</time>
      </trkpt>
      <trkpt lat="46.60518" lon="-1.65832">
        <ele>47</ele>
        <time>2018-03-16T06:33:56Z</time>
      </trkpt>
      <trkpt lat="46.60519" lon="-1.6583">
        <ele>47</ele>
        <time>2018-03-16T06:34:56Z</time>
      </trkpt>
      <trkpt lat="46.60522" lon="-1.6582">
        <ele>47</ele>
        <time>2018-03-16T06:35:56Z</time>
      </trkpt>
      <trkpt lat="46.60523" lon="-1.65817">
        <ele>47</ele>
        <time>2018-03-16T06:36:56Z</time>
      </trkpt>
      <trkpt lat="46.60523" lon="-1.65815">
        <ele>47</ele>
        <time>2018-03-16T06:37:56Z</time>
      </trkpt>
      <trkpt lat="46.60524" lon="-1.65812">
        <ele>48</ele>
        <time>2018-03-16T06:38:56Z</time>
      </trkpt>
      <trkpt lat="46.60524" lon="-1.65805">
        <ele>48</ele>
        <time>2018-03-16T06:39:56Z</time>
      </trkpt>
      <trkpt lat="46.60523" lon="-1.65794">
        <ele>48</ele>
        <time>2018-03-16T06:40:56Z</time>
      </trkpt>
      <trkpt lat="46.60523" lon="-1.6579">
        <ele>48</ele>
        <time>2018-03-16T06:41:56Z</time>
      </trkpt>
      <trkpt lat="46.6052" lon="-1.65783">
        <ele>48</ele>
        <time>2018-03-16T06:42:56Z</time>
      </trkpt>
      <trkpt lat="46.60516" lon="-1.65774">
        <ele>48</ele>
        <time>2018-03-16T06:43:56Z</time>
      </trkpt>
      <trkpt lat="46.6051" lon="-1.65766">
        <ele>48</ele>
        <time>2018-03-16T06:44:56Z</time>
      </trkpt>
      <trkpt lat="46.60509" lon="-1.65764">
        <ele>48</ele>
        <time>2018-03-16T06:45:56Z</time>
      </trkpt>
      <trkpt lat="46.60472" lon="-1.6574">
        <ele>48</ele>
        <time>2018-03-16T06:46:56Z</time>
      </trkpt>
      <trkpt lat="46.60466" lon="-1.65736">
        <ele>48</ele>
        <time>2018-03-16T06:47:56Z</time>
      </trkpt>
      <trkpt lat="46.60439" lon="-1.65715">
        <ele>48</ele>
        <time>2018-03-16T06:48:56Z</time>
      </trkpt>
      <trkpt lat="46.60435" lon="-1.65712">
        <ele>48</ele>
        <time>2018-03-16T06:49:56Z</time>
      </trkpt>
      <trkpt lat="46.60431" lon="-1.65709">
        <ele>48</ele>
        <time>2018-03-16T06:50:56Z</time>
      </trkpt>
      <trkpt lat="46.60417" lon="-1.65698">
        <ele>48</ele>
        <time>2018-03-16T06:51:56Z</time>
      </trkpt>
      <trkpt lat="46.60405" lon="-1.65689">
        <ele>48</ele>
        <time>2018-03-16T06:52:56Z</time>
      </trkpt>
      <trkpt lat="46.60394" lon="-1.65686">
        <ele>48</ele>
        <time>2018-03-16T06:53:56Z</time>
      </trkpt>
      <trkpt lat="46.60383" lon="-1.65685">
        <ele>47</ele>
        <time>2018-03-16T06:54:56Z</time>
      </trkpt>
      <trkpt lat="46.60376" lon="-1.65685">
        <ele>47</ele>
        <time>2018-03-16T06:55:56Z</time>
      </trkpt>
      <trkpt lat="46.60366" lon="-1.65689">
        <ele>47</ele>
        <time>2018-03-16T06:56:56Z</time>
      </trkpt>
      <trkpt lat="46.60366" lon="-1.65689">
        <ele>47</ele>
        <time>2018-03-16T06:57:56Z</time>
      </trkpt>
      <trkpt lat="46.60365" lon="-1.65692">
        <ele>47</ele>
        <time>2018-03-16T06:58:56Z</time>
      </trkpt>
      <trkpt lat="46.60364" lon="-1.65694">
        <ele>47</ele>
        <time>2018-03-16T06:59:56Z</time>
      </trkpt>
      <trkpt lat="46.60363" lon="-1.65696">
        <ele>47</ele>
        <time>2018-03-16T07:00:56Z</time>
      </trkpt>
      <trkpt lat="46.60361" lon="-1.65699">
        <ele>47</ele>
        <time>2018-03-16T07:01:56Z</time>
      </trkpt>
      <trkpt lat="46.6036" lon="-1.657">
        <ele>47</ele>
        <time>2018-03-16T07:02:56Z</time>
      </trkpt>
      <trkpt lat="46.60359" lon="-1.65702">
        <ele>47</ele>
        <time>2018-03-16T07:03:56Z</time>
      </trkpt>
      <trkpt lat="46.60357" lon="-1.65704">
        <ele>47</ele>
        <time>2018-03-16T07:04:56Z</time>
      </trkpt>
      <trkpt lat="46.60355" lon="-1.65705">
        <ele>47</ele>
        <time>2018-03-16T07:05:56Z</time>
      </trkpt>
      <trkpt lat="46.60353" lon="-1.65706">
        <ele>47</ele>
        <time>2018-03-16T07:06:56Z</time>
      </trkpt>
      <trkpt lat="46.60352" lon="-1.65707">
        <ele>47</ele>
        <time>2018-03-16T07:07:56Z</time>
      </trkpt>
      <trkpt lat="46.60351" lon="-1.65707">
        <ele>47</ele>
        <time>2018-03-16T07:08:56Z</time>
      </trkpt>
      <trkpt lat="46.60349" lon="-1.65707">
        <ele>47</ele>
        <time>2018-03-16T07:09:56Z</time>
      </trkpt>
      <trkpt lat="46.60348" lon="-1.65708">
        <ele>47</ele>
        <time>2018-03-16T07:10:56Z</time>
      </trkpt>
      <trkpt lat="46.60347" lon="-1.65708">
        <ele>47</ele>
        <time>2018-03-16T07:11:56Z</time>
      </trkpt>
      <trkpt lat="46.60345" lon="-1.65708">
        <ele>47</ele>
        <time>2018-03-16T07:12:56Z</time>
      </trkpt>
      <trkpt lat="46.60344" lon="-1.65707">
        <ele>47</ele>
        <time>2018-03-16T07:13:56Z</time>
      </trkpt>
      <trkpt lat="46.60343" lon="-1.65707">
        <ele>47</ele>
        <time>2018-03-16T07:14:56Z</time>
      </trkpt>
      <trkpt lat="46.60341" lon="-1.65707">
        <ele>47</ele>
        <time>2018-03-16T07:15:56Z</time>
      </trkpt>
      <trkpt lat="46.60339" lon="-1.65706">
        <ele>47</ele>
        <time>2018-03-16T07:16:56Z</time>
      </trkpt>
      <trkpt lat="46.60337" lon="-1.65705">
        <ele>47</ele>
        <time>2018-03-16T07:17:56Z</time>
      </trkpt>
      <trkpt lat="46.60336" lon="-1.65704">
        <ele>47</ele>
        <time>2018-03-16T07:18:56Z</time>
      </trkpt>
      <trkpt lat="46.60334" lon="-1.65702">
        <ele>47</ele>
        <time>2018-03-16T07:19:56Z</time>
      </trkpt>
      <trkpt lat="46.60333" lon="-1.65701">
        <ele>47</ele>
        <time>2018-03-16T07:20:56Z</time>
      </trkpt>
      <trkpt lat="46.60331" lon="-1.65699">
        <ele>47</ele>
        <time>2018-03-16T07:21:56Z</time>
      </trkpt>
      <trkpt lat="46.6033" lon="-1.65697">
        <ele>47</ele>
        <time>2018-03-16T07:22:56Z</time>
      </trkpt>
      <trkpt lat="46.60329" lon="-1.65695">
        <ele>47</ele>
        <time>2018-03-16T07:23:56Z</time>
      </trkpt>
      <trkpt lat="46.60328" lon="-1.65693">
        <ele>47</ele>
        <time>2018-03-16T07:24:56Z</time>
      </trkpt>
      <trkpt lat="46.60327" lon="-1.6569">
        <ele>47</ele>
        <time>2018-03-16T07:25:56Z</time>
      </trkpt>
      <trkpt lat="46.60326" lon="-1.65688">
        <ele>47</ele>
        <time>2018-03-16T07:26:56Z</time>
      </trkpt>
      <trkpt lat="46.60326" lon="-1.65685">
        <ele>47</ele>
        <time>2018-03-16T07:27:56Z</time>
      </trkpt>
      <trkpt lat="46.60325" lon="-1.65682">
        <ele>47</ele>
        <time>2018-03-16T07:28:56Z</time>
      </trkpt>
      <trkpt lat="46.60325" lon="-1.65679">
        <ele>47</ele>
        <time>2018-03-16T07:29:56Z</time>
      </trkpt>
      <trkpt lat="46.60325" lon="-1.65676">
        <ele>47</ele>
        <time>2018-03-16T07:30:56Z</time>
      </trkpt>
      <trkpt lat="46.60325" lon="-1.65674">
        <ele>47</ele>
        <time>2018-03-16T07:31:56Z</time>
      </trkpt>
      <trkpt lat="46.60325" lon="-1.65672">
        <ele>47</ele>
        <time>2018-03-16T07:32:56Z</time>
      </trkpt>
      <trkpt lat="46.60325" lon="-1.65669">
        <ele>47</ele>
        <time>2018-03-16T07:33:56Z</time>
      </trkpt>
      <trkpt lat="46.60326" lon="-1.65667">
        <ele>47</ele>
        <time>2018-03-16T07:34:56Z</time>
      </trkpt>
      <trkpt lat="46.60327" lon="-1.65665">
        <ele>47</ele>
        <time>2018-03-16T07:35:56Z</time>
      </trkpt>
      <trkpt lat="46.60327" lon="-1.65662">
        <ele>47</ele>
        <time>2018-03-16T07:36:56Z</time>
      </trkpt>
      <trkpt lat="46.60328" lon="-1.6566">
        <ele>47</ele>
        <time>2018-03-16T07:37:56Z</time>
      </trkpt>
      <trkpt lat="46.60329" lon="-1.65658">
        <ele>47</ele>
        <time>2018-03-16T07:38:56Z</time>
      </trkpt>
      <trkpt lat="46.60326" lon="-1.65646">
        <ele>47</ele>
        <time>2018-03-16T07:39:56Z</time>
      </trkpt>
      <trkpt lat="46.60324" lon="-1.65638">
        <ele>47</ele>
        <time>2018-03-16T07:40:56Z</time>
      </trkpt>
      <trkpt lat="46.60321" lon="-1.65629">
        <ele>47</ele>
        <time>2018-03-16T07:41:56Z</time>
      </trkpt>
      <trkpt lat="46.60318" lon="-1.65623">
        <ele>47</ele>
        <time>2018-03-16T07:42:56Z</time>
      </trkpt>
      <trkpt lat="46.60315" lon="-1.65613">
        <ele>47</ele>
        <time>2018-03-16T07:43:56Z</time>
      </trkpt>
      <trkpt lat="46.60313" lon="-1.65607">
        <ele>47</ele>
        <time>2018-03-16T07:44:56Z</time>
      </trkpt>
      <trkpt lat="46.6031" lon="-1.65601">
        <ele>47</ele>
        <time>2018-03-16T07:45:56Z</time>
      </trkpt>
      <trkpt lat="46.60305" lon="-1.65592">
        <ele>47</ele>
        <time>2018-03-16T07:46:56Z</time>
      </trkpt>
      <trkpt lat="46.603" lon="-1.65584">
        <ele>47</ele>
        <time>2018-03-16T07:47:56Z</time>
      </trkpt>
      <trkpt lat="46.60296" lon="-1.65577">
        <ele>47</ele>
        <time>2018-03-16T07:48:56Z</time>
      </trkpt>
      <trkpt lat="46.60289" lon="-1.65568">
        <ele>47</ele>
        <time>2018-03-16T07:49:56Z</time>
      </trkpt>
      <trkpt lat="46.60284" lon="-1.65562">
        <ele>47</ele>
        <time>2018-03-16T07:50:56Z</time>
      </trkpt>
      <trkpt lat="46.60278" lon="-1.65556">
        <ele>47</ele>
        <time>2018-03-16T07:51:56Z</time>
      </trkpt>
      <trkpt lat="46.60276" lon="-1.65554">
        <ele>47</ele>
        <time>2018-03-16T07:52:56Z</time>
      </trkpt>
      <trkpt lat="46.60274" lon="-1.65552">
        <ele>47</ele>
        <time>2018-03-16T07:53:56Z</time>
      </trkpt>
      <trkpt lat="46.6027" lon="-1.65548">
        <ele>48</ele>
        <time>2018-03-16T07:54:56Z</time>
      </trkpt>
      <trkpt lat="46.60269" lon="-1.65546">
        <ele>48</ele>
        <time>2018-03-16T07:55:56Z</time>
      </trkpt>
      <trkpt lat="46.60266" lon="-1.65542">
        <ele>48</ele>
        <time>2018-03-16T07:56:56Z</time>
      </trkpt>
      <trkpt lat="46.60264" lon="-1.6554">
        <ele>48</ele>
        <time>2018-03-16T07:57:56Z</time>
      </trkpt>
      <trkpt lat="46.60257" lon="-1.65532">
        <ele>48</ele>
        <time>2018-03-16T07:58:56Z</time>
      </trkpt>
      <trkpt lat="46.60256" lon="-1.65531">
        <ele>48</ele>
        <time>2018-03-16T07:59:56Z</time>
      </trkpt>
      <trkpt lat="46.60255" lon="-1.6553">
        <ele>48</ele>
        <time>2018-03-16T08:00:56Z</time>
      </trkpt>
      <trkpt lat="46.60246" lon="-1.65518">
        <ele>48</ele>
        <time>2018-03-16T08:01:56Z</time>
      </trkpt>
      <trkpt lat="46.60241" lon="-1.65513">
        <ele>48</ele>
        <time>2018-03-16T08:02:56Z</time>
      </trkpt>
      <trkpt lat="46.60237" lon="-1.65511">
        <ele>48</ele>
        <time>2018-03-16T08:03:56Z</time>
      </trkpt>
      <trkpt lat="46.60232" lon="-1.6551">
        <ele>48</ele>
        <time>2018-03-16T08:04:56Z</time>
      </trkpt>
      <trkpt lat="46.60228" lon="-1.65511">
        <ele>48</ele>
        <time>2018-03-16T08:05:56Z</time>
      </trkpt>
      <trkpt lat="46.60223" lon="-1.6551">
        <ele>48</ele>
        <time>2018-03-16T08:06:56Z</time>
      </trkpt>
      <trkpt lat="46.60223" lon="-1.6551">
        <ele>48</ele>
        <time>2018-03-16T08:07:56Z</time>
      </trkpt>
      <trkpt lat="46.6022" lon="-1.65513">
        <ele>48</ele>
        <time>2018-03-16T08:08:56Z</time>
      </trkpt>
      <trkpt lat="46.60218" lon="-1.65514">
        <ele>48</ele>
        <time>2018-03-16T08:09:56Z</time>
      </trkpt>
      <trkpt lat="46.60215" lon="-1.65516">
        <ele>48</ele>
        <time>2018-03-16T08:10:56Z</time>
      </trkpt>
      <trkpt lat="46.60213" lon="-1.65516">
        <ele>48</ele>
        <time>2018-03-16T08:11:56Z</time>
      </trkpt>
      <trkpt lat="46.60211" lon="-1.65516">
        <ele>48</ele>
        <time>2018-03-16T08:12:56Z</time>
      </trkpt>
      <trkpt lat="46.60208" lon="-1.65516">
        <ele>48</ele>
        <time>2018-03-16T08:13:56Z</time>
      </trkpt>
      <trkpt lat="46.60206" lon="-1.65516">
        <ele>48</ele>
        <time>2018-03-16T08:14:56Z</time>
      </trkpt>
      <trkpt lat="46.60204" lon="-1.65515">
        <ele>48</ele>
        <time>2018-03-16T08:15:56Z</time>
      </trkpt>
      <trkpt lat="46.60201" lon="-1.65513">
        <ele>48</ele>
        <time>2018-03-16T08:16:56Z</time>
      </trkpt>
      <trkpt lat="46.60199" lon="-1.65512">
        <ele>48</ele>
        <time>2018-03-16T08:17:56Z</time>
      </trkpt>
      <trkpt lat="46.60197" lon="-1.6551">
        <ele>48</ele>
        <time>2018-03-16T08:18:56Z</time>
      </trkpt>
      <trkpt lat="46.60196" lon="-1.65507">
        <ele>48</ele>
        <time>2018-03-16T08:19:56Z</time>
      </trkpt>
      <trkpt lat="46.60194" lon="-1.65505">
        <ele>48</ele>
        <time>2018-03-16T08:20:56Z</time>
      </trkpt>
      <trkpt lat="46.60193" lon="-1.65503">
        <ele>48</ele>
        <time>2018-03-16T08:21:56Z</time>
      </trkpt>
      <trkpt lat="46.60192" lon="-1.65502">
        <ele>48</ele>
        <time>2018-03-16T08:22:56Z</time>
      </trkpt>
      <trkpt lat="46.60191" lon="-1.65501">
        <ele>48</ele>
        <time>2018-03-16T08:23:56Z</time>
      </trkpt>
      <trkpt lat="46.6019" lon="-1.655">
        <ele>48</ele>
        <time>2018-03-16T08:24:56Z</time>
      </trkpt>
      <trkpt lat="46.6019" lon="-1.65499">
        <ele>48</ele>
        <time>2018-03-16T08:25:56Z</time>
      </trkpt>
      <trkpt lat="46.60189" lon="-1.65497">
        <ele>48</ele>
        <time>2018-03-16T08:26:56Z</time>
      </trkpt>
      <trkpt lat="46.60188" lon="-1.65496">
        <ele>48</ele>
        <time>2018-03-16T08:27:56Z</time>
      </trkpt>
      <trkpt lat="46.60187" lon="-1.65495">
        <ele>48</ele>
        <time>2018-03-16T08:28:56Z</time>
      </trkpt>
      <trkpt lat="46.60187" lon="-1.65493">
        <ele>48</ele>
        <time>2018-03-16T08:29:56Z</time>
      </trkpt>
      <trkpt lat="46.60186" lon="-1.65491">
        <ele>48</ele>
        <time>2018-03-16T08:30:56Z</time>
      </trkpt>
      <trkpt lat="46.60185" lon="-1.65488">
        <ele>48</ele>
        <time>2018-03-16T08:31:56Z</time>
      </trkpt>
      <trkpt lat="46.60185" lon="-1.65486">
        <ele>48</ele>
        <time>2018-03-16T08:32:56Z</time>
      </trkpt>
      <trkpt lat="46.60185" lon="-1.65484">
        <ele>48</ele>
        <time>2018-03-16T08:33:56Z</time>
      </trkpt>
      <trkpt lat="46.60184" lon="-1.65481">
        <ele>48</ele>
        <time>2018-03-16T08:34:56Z</time>
      </trkpt>
      <trkpt lat="46.60184" lon="-1.65479">
        <ele>48</ele>
        <time>2018-03-16T08:35:56Z</time>
      </trkpt>
      <trkpt lat="46.60184" lon="-1.65477">
        <ele>48</ele>
        <time>2018-03-16T08:36:56Z</time>
      </trkpt>
      <trkpt lat="46.60184" lon="-1.65475">
        <ele>48</ele>
        <time>2018-03-16T08:37:56Z</time>
      </trkpt>
      <trkpt lat="46.60184" lon="-1.65473">
        <ele>48</ele>
        <time>2018-03-16T08:38:56Z</time>
      </trkpt>
      <trkpt lat="46.60184" lon="-1.65471">
        <ele>48</ele>
        <time>2018-03-16T08:39:56Z</time>
      </trkpt>
      <trkpt lat="46.60184" lon="-1.6547">
        <ele>48</ele>
        <time>2018-03-16T08:40:56Z</time>
      </trkpt>
      <trkpt lat="46.60185" lon="-1.65468">
        <ele>48</ele>
        <time>2018-03-16T08:41:56Z</time>
      </trkpt>
      <trkpt lat="46.60185" lon="-1.65466">
        <ele>48</ele>
        <time>2018-03-16T08:42:56Z</time>
      </trkpt>
      <trkpt lat="46.60185" lon="-1.65464">
        <ele>48</ele>
        <time>2018-03-16T08:43:56Z</time>
      </trkpt>
      <trkpt lat="46.60186" lon="-1.65462">
        <ele>48</ele>
        <time>2018-03-16T08:44:56Z</time>
      </trkpt>
      <trkpt lat="46.6018" lon="-1.65448">
        <ele>48</ele>
        <time>2018-03-16T08:45:56Z</time>
      </trkpt>
      <trkpt lat="46.60172" lon="-1.65435">
        <ele>48</ele>
        <time>2018-03-16T08:46:56Z</time>
      </trkpt>
      <trkpt lat="46.60166" lon="-1.65426">
        <ele>48</ele>
        <time>2018-03-16T08:47:56Z</time>
      </trkpt>
      <trkpt lat="46.60157" lon="-1.65412">
        <ele>48</ele>
        <time>2018-03-16T08:48:56Z</time>
      </trkpt>
      <trkpt lat="46.60156" lon="-1.65411">
        <ele>48</ele>
        <time>2018-03-16T08:49:56Z</time>
      </trkpt>
      <trkpt lat="46.60149" lon="-1.65403">
        <ele>48</ele>
        <time>2018-03-16T08:50:56Z</time>
      </trkpt>
      <trkpt lat="46.60146" lon="-1.654">
        <ele>49</ele>
        <time>2018-03-16T08:51:56Z</time>
      </trkpt>
      <trkpt lat="46.60137" lon="-1.6539">
        <ele>49</ele>
        <time>2018-03-16T08:52:56Z</time>
      </trkpt>
      <trkpt lat="46.60128" lon="-1.65381">
        <ele>49</ele>
        <time>2018-03-16T08:53:56Z</time>
      </trkpt>
      <trkpt lat="46.60119" lon="-1.65373">
        <ele>49</ele>
        <time>2018-03-16T08:54:56Z</time>
      </trkpt>
      <trkpt lat="46.6011" lon="-1.65366">
        <ele>49</ele>
        <time>2018-03-16T08:55:56Z</time>
      </trkpt>
      <trkpt lat="46.60098" lon="-1.65358">
        <ele>49</ele>
        <time>2018-03-16T08:56:56Z</time>
      </trkpt>
      <trkpt lat="46.60041" lon="-1.65321">
        <ele>49</ele>
        <time>2018-03-16T08:57:56Z</time>
      </trkpt>
      <trkpt lat="46.60036" lon="-1.65318">
        <ele>49</ele>
        <time>2018-03-16T08:58:56Z</time>
      </trkpt>
      <trkpt lat="46.60017" lon="-1.65306">
        <ele>49</ele>
        <time>2018-03-16T08:59:56Z</time>
      </trkpt>
      <trkpt lat="46.60005" lon="-1.65298">
        <ele>49</ele>
        <time>2018-03-16T09:00:56Z</time>
      </trkpt>
      <trkpt lat="46.59953" lon="-1.65265">
        <ele>48</ele>
        <time>2018-03-16T09:01:56Z</time>
      </trkpt>
      <trkpt lat="46.59907" lon="-1.65237">
        <ele>47</ele>
        <time>2018-03-16T09:02:56Z</time>
      </trkpt>
      <trkpt lat="46.59904" lon="-1.65234">
        <ele>47</ele>
        <time>2018-03-16T09:03:56Z</time>
      </trkpt>
      <trkpt lat="46.59855" lon="-1.65204">
        <ele>45</ele>
        <time>2018-03-16T09:04:56Z</time>
      </trkpt>
      <trkpt lat="46.59811" lon="-1.65176">
        <ele>44</ele>
        <time>2018-03-16T09:05:56Z</time>
      </trkpt>
      <trkpt lat="46.59777" lon="-1.65154">
        <ele>44</ele>
        <time>2018-03-16T09:06:56Z</time>
      </trkpt>
      <trkpt lat="46.59737" lon="-1.65129">
        <ele>45</ele>
        <time>2018-03-16T09:07:56Z</time>
      </trkpt>
      <trkpt lat="46.5971" lon="-1.65111">
        <ele>45</ele>
        <time>2018-03-16T09:08:56Z</time>
      </trkpt>
      <trkpt lat="46.59667" lon="-1.65085">
        <ele>46</ele>
        <time>2018-03-16T09:09:56Z</time>
      </trkpt>
      <trkpt lat="46.59665" lon="-1.65084">
        <ele>46</ele>
        <time>2018-03-16T09:10:56Z</time>
      </trkpt>
      <trkpt lat="46.59645" lon="-1.65069">
        <ele>47</ele>
        <time>2018-03-16T09:11:56Z</time>
      </trkpt>
      <trkpt lat="46.59628" lon="-1.65059">
        <ele>48</ele>
        <time>2018-03-16T09:12:56Z</time>
      </trkpt>
      <trkpt lat="46.5959" lon="-1.65034">
        <ele>49</ele>
        <time>2018-03-16T09:13:56Z</time>
      </trkpt>
      <trkpt lat="46.59552" lon="-1.65011">
        <ele>49</ele>
        <time>2018-03-16T09:14:56Z</time>
      </trkpt>
      <trkpt lat="46.59536" lon="-1.65001">
        <ele>49</ele>
        <time>2018-03-16T09:15:56Z</time>
      </trkpt>
      <trkpt lat="46.59507" lon="-1.64983">
        <ele>49</ele>
        <time>2018-03-16T09:16:56Z</time>
      </trkpt>
      <trkpt lat="46.59495" lon="-1.64977">
        <ele>49</ele>
        <time>2018-03-16T09:17:56Z</time>
      </trkpt>
      <trkpt lat="46.59473" lon="-1.64963">
        <ele>49</ele>
        <time>2018-03-16T09:18:56Z</time>
      </trkpt>
      <trkpt lat="46.59467" lon="-1.64958">
        <ele>49</ele>
        <time>2018-03-16T09:19:56Z</time>
      </trkpt>
      <trkpt lat="46.59443" lon="-1.64944">
        <ele>48</ele>
        <time>2018-03-16T09:20:56Z</time>
      </trkpt>
      <trkpt lat="46.59413" lon="-1.64927">
        <ele>48</ele>
        <time>2018-03-16T09:21:56Z</time>
      </trkpt>
      <trkpt lat="46.59402" lon="-1.6492">
        <ele>48</ele>
        <time>2018-03-16T09:22:56Z</time>
      </trkpt>
      <trkpt lat="46.59396" lon="-1.64917">
        <ele>48</ele>
        <time>2018-03-16T09:23:56Z</time>
      </trkpt>
      <trkpt lat="46.59363" lon="-1.64895">
        <ele>47</ele>
        <time>2018-03-16T09:24:56Z</time>
      </trkpt>
      <trkpt lat="46.59343" lon="-1.64883">
        <ele>47</ele>
        <time>2018-03-16T09:25:56Z</time>
      </trkpt>
      <trkpt lat="46.59332" lon="-1.64879">
        <ele>46</ele>
        <time>2018-03-16T09:26:56Z</time>
      </trkpt>
      <trkpt lat="46.59275" lon="-1.64857">
        <ele>43</ele>
        <time>2018-03-16T09:27:56Z</time>
      </trkpt>
      <trkpt lat="46.59247" lon="-1.64847">
        <ele>41</ele>
        <time>2018-03-16T09:28:56Z</time>
      </trkpt>
      <trkpt lat="46.59216" lon="-1.64836">
        <ele>40</ele>
        <time>2018-03-16T09:29:56Z</time>
      </trkpt>
      <trkpt lat="46.59208" lon="-1.64832">
        <ele>39</ele>
        <time>2018-03-16T09:30:56Z</time>
      </trkpt>
      <trkpt lat="46.592" lon="-1.64827">
        <ele>39</ele>
        <time>2018-03-16T09:31:56Z</time>
      </trkpt>
      <trkpt lat="46.59176" lon="-1.64811">
        <ele>38</ele>
        <time>2018-03-16T09:32:56Z</time>
      </trkpt>
      <trkpt lat="46.59152" lon="-1.64803">
        <ele>38</ele>
        <time>2018-03-16T09:33:56Z</time>
      </trkpt>
      <trkpt lat="46.59139" lon="-1.64797">
        <ele>38</ele>
        <time>2018-03-16T09:34:56Z</time>
      </trkpt>
      <trkpt lat="46.59129" lon="-1.64794">
        <ele>38</ele>
        <time>2018-03-16T09:35:56Z</time>
      </trkpt>
      <trkpt lat="46.59124" lon="-1.64793">
        <ele>38</ele>
        <time>2018-03-16T09:36:56Z</time>
      </trkpt>
      <trkpt lat="46.59121" lon="-1.64792">
        <ele>38</ele>
        <time>2018-03-16T09:37:56Z</time>
      </trkpt>
      <trkpt lat="46.59119" lon="-1.64792">
        <ele>38</ele>
        <time>2018-03-16T09:38:56Z</time>
      </trkpt>
      <trkpt lat="46.59114" lon="-1.6479">
        <ele>38</ele>
        <time>2018-03-16T09:39:56Z</time>
      </trkpt>
      <trkpt lat="46.5911" lon="-1.64789">
        <ele>38</ele>
        <time>2018-03-16T09:40:56Z</time>
      </trkpt>
      <trkpt lat="46.59091" lon="-1.64786">
        <ele>38</ele>
        <time>2018-03-16T09:41:56Z</time>
      </trkpt>
      <trkpt lat="46.59077" lon="-1.64785">
        <ele>38</ele>
        <time>2018-03-16T09:42:56Z</time>
      </trkpt>
      <trkpt lat="46.5906" lon="-1.64784">
        <ele>39</ele>
        <time>2018-03-16T09:43:56Z</time>
      </trkpt>
      <trkpt lat="46.5906" lon="-1.64784">
        <ele>39</ele>
        <time>2018-03-16T09:44:56Z</time>
      </trkpt>
      <trkpt lat="46.59053" lon="-1.64783">
        <ele>39</ele>
        <time>2018-03-16T09:45:56Z</time>
      </trkpt>
      <trkpt lat="46.59042" lon="-1.64783">
        <ele>39</ele>
        <time>2018-03-16T09:46:56Z</time>
      </trkpt>
      <trkpt lat="46.59029" lon="-1.64784">
        <ele>39</ele>
        <time>2018-03-16T09:47:56Z</time>
      </trkpt>
      <trkpt lat="46.59012" lon="-1.64786">
        <ele>39</ele>
        <time>2018-03-16T09:48:56Z</time>
      </trkpt>
      <trkpt lat="46.59011" lon="-1.64786">
        <ele>39</ele>
        <time>2018-03-16T09:49:56Z</time>
      </trkpt>
      <trkpt lat="46.59011" lon="-1.64787">
        <ele>39</ele>
        <time>2018-03-16T09:50:56Z</time>
      </trkpt>
      <trkpt lat="46.59011" lon="-1.64788">
        <ele>39</ele>
        <time>2018-03-16T09:51:56Z</time>
      </trkpt>
      <trkpt lat="46.5901" lon="-1.64788">
        <ele>39</ele>
        <time>2018-03-16T09:52:56Z</time>
      </trkpt>
      <trkpt lat="46.5901" lon="-1.64789">
        <ele>39</ele>
        <time>2018-03-16T09:53:56Z</time>
      </trkpt>
      <trkpt lat="46.5901" lon="-1.6479">
        <ele>39</ele>
        <time>2018-03-16T09:54:56Z</time>
      </trkpt>
      <trkpt lat="46.5901" lon="-1.64791">
        <ele>39</ele>
        <time>2018-03-16T09:55:56Z</time>
      </trkpt>
      <trkpt lat="46.59009" lon="-1.64791">
        <ele>39</ele>
        <time>2018-03-16T09:56:56Z</time>
      </trkpt>
      <trkpt lat="46.59009" lon="-1.64792">
        <ele>39</ele>
        <time>2018-03-16T09:57:56Z</time>
      </trkpt>
      <trkpt lat="46.59008" lon="-1.64792">
        <ele>39</ele>
        <time>2018-03-16T09:58:56Z</time>
      </trkpt>
      <trkpt lat="46.59008" lon="-1.64793">
        <ele>39</ele>
        <time>2018-03-16T09:59:56Z</time>
      </trkpt>
      <trkpt lat="46.59007" lon="-1.64793">
        <ele>39</ele>
        <time>2018-03-16T10:00:56Z</time>
      </trkpt>
      <trkpt lat="46.59006" lon="-1.64793">
        <ele>39</ele>
        <time>2018-03-16T10:01:56Z</time>
      </trkpt>
      <trkpt lat="46.59005" lon="-1.64793">
        <ele>39</ele>
        <time>2018-03-16T10:02:56Z</time>
      </trkpt>
      <trkpt lat="46.59004" lon="-1.64793">
        <ele>39</ele>
        <time>2018-03-16T10:03:56Z</time>
      </trkpt>
      <trkpt lat="46.59003" lon="-1.64793">
        <ele>39</ele>
        <time>2018-03-16T10:04:56Z</time>
      </trkpt>
      <trkpt lat="46.59003" lon="-1.64792">
        <ele>39</ele>
        <time>2018-03-16T10:05:56Z</time>
      </trkpt>
      <trkpt lat="46.59002" lon="-1.64792">
        <ele>39</ele>
        <time>2018-03-16T10:06:56Z</time>
      </trkpt>
      <trkpt lat="46.59002" lon="-1.64791">
        <ele>39</ele>
        <time>2018-03-16T10:07:56Z</time>
      </trkpt>
      <trkpt lat="46.59002" lon="-1.6479">
        <ele>39</ele>
        <time>2018-03-16T10:08:56Z</time>
      </trkpt>
      <trkpt lat="46.59002" lon="-1.64789">
        <ele>39</ele>
        <time>2018-03-16T10:09:56Z</time>
      </trkpt>
      <trkpt lat="46.59001" lon="-1.64789">
        <ele>39</ele>
        <time>2018-03-16T10:10:56Z</time>
      </trkpt>
      <trkpt lat="46.59001" lon="-1.64788">
        <ele>39</ele>
        <time>2018-03-16T10:11:56Z</time>
      </trkpt>
      <trkpt lat="46.58988" lon="-1.6479">
        <ele>39</ele>
        <time>2018-03-16T10:12:56Z</time>
      </trkpt>
      <trkpt lat="46.58965" lon="-1.64791">
        <ele>38</ele>
        <time>2018-03-16T10:13:56Z</time>
      </trkpt>
      <trkpt lat="46.58926" lon="-1.64798">
        <ele>37</ele>
        <time>2018-03-16T10:14:56Z</time>
      </trkpt>
      <trkpt lat="46.58911" lon="-1.648">
        <ele>37</ele>
        <time>2018-03-16T10:15:56Z</time>
      </trkpt>
      <trkpt lat="46.58883" lon="-1.64805">
        <ele>37</ele>
        <time>2018-03-16T10:16:56Z</time>
      </trkpt>
      <trkpt lat="46.5886" lon="-1.6481">
        <ele>37</ele>
        <time>2018-03-16T10:17:56Z</time>
      </trkpt>
      <trkpt lat="46.5885" lon="-1.64811">
        <ele>37</ele>
        <time>2018-03-16T10:18:56Z</time>
      </trkpt>
      <trkpt lat="46.5882" lon="-1.64815">
        <ele>36</ele>
        <time>2018-03-16T10:19:56Z</time>
      </trkpt>
      <trkpt lat="46.58808" lon="-1.64814">
        <ele>35</ele>
        <time>2018-03-16T10:20:56Z</time>
      </trkpt>
      <trkpt lat="46.58796" lon="-1.64812">
        <ele>35</ele>
        <time>2018-03-16T10:21:56Z</time>
      </trkpt>
      <trkpt lat="46.58786" lon="-1.64808">
        <ele>35</ele>
        <time>2018-03-16T10:22:56Z</time>
      </trkpt>
      <trkpt lat="46.58777" lon="-1.64803">
        <ele>34</ele>
        <time>2018-03-16T10:23:56Z</time>
      </trkpt>
      <trkpt lat="46.58765" lon="-1.64795">
        <ele>34</ele>
        <time>2018-03-16T10:24:56Z</time>
      </trkpt>
      <trkpt lat="46.58755" lon="-1.64786">
        <ele>34</ele>
        <time>2018-03-16T10:25:56Z</time>
      </trkpt>
      <trkpt lat="46.58751" lon="-1.64783">
        <ele>34</ele>
        <time>2018-03-16T10:26:56Z</time>
      </trkpt>
      <trkpt lat="46.58744" lon="-1.64773">
        <ele>34</ele>
        <time>2018-03-16T10:27:56Z</time>
      </trkpt>
      <trkpt lat="46.58734" lon="-1.64761">
        <ele>35</ele>
        <time>2018-03-16T10:28:56Z</time>
      </trkpt>
      <trkpt lat="46.58721" lon="-1.64743">
        <ele>36</ele>
        <time>2018-03-16T10:29:56Z</time>
      </trkpt>
      <trkpt lat="46.58705" lon="-1.6472">
        <ele>36</ele>
        <time>2018-03-16T10:30:56Z</time>
      </trkpt>
      <trkpt lat="46.58705" lon="-1.6472">
        <ele>36</ele>
        <time>2018-03-16T10:31:56Z</time>
      </trkpt>
      <trkpt lat="46.58691" lon="-1.64729">
        <ele>36</ele>
        <time>2018-03-16T10:32:56Z</time>
      </trkpt>
      <trkpt lat="46.58677" lon="-1.64735">
        <ele>36</ele>
        <time>2018-03-16T10:33:56Z</time>
      </trkpt>
      <trkpt lat="46.58659" lon="-1.64742">
        <ele>36</ele>
        <time>2018-03-16T10:34:56Z</time>
      </trkpt>
      <trkpt lat="46.58631" lon="-1.64751">
        <ele>37</ele>
        <time>2018-03-16T10:35:56Z</time>
      </trkpt>
      <trkpt lat="46.58612" lon="-1.64757">
        <ele>38</ele>
        <time>2018-03-16T10:36:56Z</time>
      </trkpt>
      <trkpt lat="46.58588" lon="-1.64763">
        <ele>38</ele>
        <time>2018-03-16T10:37:56Z</time>
      </trkpt>
      <trkpt lat="46.58557" lon="-1.64773">
        <ele>39</ele>
        <time>2018-03-16T10:38:56Z</time>
      </trkpt>
      <trkpt lat="46.58531" lon="-1.64782">
        <ele>40</ele>
        <time>2018-03-16T10:39:56Z</time>
      </trkpt>
      <trkpt lat="46.58489" lon="-1.64795">
        <ele>41</ele>
        <time>2018-03-16T10:40:56Z</time>
      </trkpt>
      <trkpt lat="46.58478" lon="-1.64798">
        <ele>41</ele>
        <time>2018-03-16T10:41:56Z</time>
      </trkpt>
      <trkpt lat="46.58434" lon="-1.64811">
        <ele>41</ele>
        <time>2018-03-16T10:42:56Z</time>
      </trkpt>
      <trkpt lat="46.58373" lon="-1.6483">
        <ele>40</ele>
        <time>2018-03-16T10:43:56Z</time>
      </trkpt>
      <trkpt lat="46.5837" lon="-1.64831">
        <ele>40</ele>
        <time>2018-03-16T10:44:56Z</time>
      </trkpt>
      <trkpt lat="46.5832" lon="-1.64847">
        <ele>39</ele>
        <time>2018-03-16T10:45:56Z</time>
      </trkpt>
      <trkpt lat="46.5829" lon="-1.64857">
        <ele>39</ele>
        <time>2018-03-16T10:46:56Z</time>
      </trkpt>
      <trkpt lat="46.58265" lon="-1.64865">
        <ele>39</ele>
        <time>2018-03-16T10:47:56Z</time>
      </trkpt>
      <trkpt lat="46.58248" lon="-1.64871">
        <ele>39</ele>
        <time>2018-03-16T10:48:56Z</time>
      </trkpt>
      <trkpt lat="46.58231" lon="-1.64877">
        <ele>39</ele>
        <time>2018-03-16T10:49:56Z</time>
      </trkpt>
      <trkpt lat="46.58215" lon="-1.64886">
        <ele>39</ele>
        <time>2018-03-16T10:50:56Z</time>
      </trkpt>
      <trkpt lat="46.582" lon="-1.64895">
        <ele>40</ele>
        <time>2018-03-16T10:51:56Z</time>
      </trkpt>
      <trkpt lat="46.58185" lon="-1.64908">
        <ele>40</ele>
        <time>2018-03-16T10:52:56Z</time>
      </trkpt>
      <trkpt lat="46.5817" lon="-1.64923">
        <ele>40</ele>
        <time>2018-03-16T10:53:56Z</time>
      </trkpt>
      <trkpt lat="46.58158" lon="-1.64938">
        <ele>39</ele>
        <time>2018-03-16T10:54:56Z</time>
      </trkpt>
      <trkpt lat="46.58149" lon="-1.64949">
        <ele>39</ele>
        <time>2018-03-16T10:55:56Z</time>
      </trkpt>
      <trkpt lat="46.58114" lon="-1.64994">
        <ele>38</ele>
        <time>2018-03-16T10:56:56Z</time>
      </trkpt>
      <trkpt lat="46.58073" lon="-1.65046">
        <ele>39</ele>
        <time>2018-03-16T10:57:56Z</time>
      </trkpt>
      <trkpt lat="46.58051" lon="-1.65074">
        <ele>39</ele>
        <time>2018-03-16T10:58:56Z</time>
      </trkpt>
      <trkpt lat="46.58035" lon="-1.65094">
        <ele>40</ele>
        <time>2018-03-16T10:59:56Z</time>
      </trkpt>
      <trkpt lat="46.58012" lon="-1.65126">
        <ele>40</ele>
        <time>2018-03-16T11:00:56Z</time>
      </trkpt>
      <trkpt lat="46.57996" lon="-1.65149">
        <ele>41</ele>
        <time>2018-03-16T11:01:56Z</time>
      </trkpt>
      <trkpt lat="46.57985" lon="-1.65172">
        <ele>41</ele>
        <time>2018-03-16T11:02:56Z</time>
      </trkpt>
      <trkpt lat="46.57978" lon="-1.6519">
        <ele>41</ele>
        <time>2018-03-16T11:03:56Z</time>
      </trkpt>
      <trkpt lat="46.57971" lon="-1.65212">
        <ele>41</ele>
        <time>2018-03-16T11:04:56Z</time>
      </trkpt>
      <trkpt lat="46.57969" lon="-1.65219">
        <ele>41</ele>
        <time>2018-03-16T11:05:56Z</time>
      </trkpt>
      <trkpt lat="46.57964" lon="-1.65242">
        <ele>41</ele>
        <time>2018-03-16T11:06:56Z</time>
      </trkpt>
      <trkpt lat="46.57958" lon="-1.65279">
        <ele>41</ele>
        <time>2018-03-16T11:07:56Z</time>
      </trkpt>
      <trkpt lat="46.57954" lon="-1.65305">
        <ele>40</ele>
        <time>2018-03-16T11:08:56Z</time>
      </trkpt>
      <trkpt lat="46.57953" lon="-1.65317">
        <ele>40</ele>
        <time>2018-03-16T11:09:56Z</time>
      </trkpt>
      <trkpt lat="46.57947" lon="-1.65349">
        <ele>40</ele>
        <time>2018-03-16T11:10:56Z</time>
      </trkpt>
      <trkpt lat="46.57942" lon="-1.65372">
        <ele>39</ele>
        <time>2018-03-16T11:11:56Z</time>
      </trkpt>
      <trkpt lat="46.57938" lon="-1.65387">
        <ele>39</ele>
        <time>2018-03-16T11:12:56Z</time>
      </trkpt>
      <trkpt lat="46.57931" lon="-1.65406">
        <ele>39</ele>
        <time>2018-03-16T11:13:56Z</time>
      </trkpt>
      <trkpt lat="46.57915" lon="-1.65448">
        <ele>39</ele>
        <time>2018-03-16T11:14:56Z</time>
      </trkpt>
      <trkpt lat="46.57901" lon="-1.65487">
        <ele>40</ele>
        <time>2018-03-16T11:15:56Z</time>
      </trkpt>
      <trkpt lat="46.5788" lon="-1.65538">
        <ele>39</ele>
        <time>2018-03-16T11:16:56Z</time>
      </trkpt>
      <trkpt lat="46.5787" lon="-1.65563">
        <ele>39</ele>
        <time>2018-03-16T11:17:56Z</time>
      </trkpt>
      <trkpt lat="46.57851" lon="-1.65611">
        <ele>39</ele>
        <time>2018-03-16T11:18:56Z</time>
      </trkpt>
      <trkpt lat="46.57835" lon="-1.65649">
        <ele>39</ele>
        <time>2018-03-16T11:19:56Z</time>
      </trkpt>
      <trkpt lat="46.57826" lon="-1.65674">
        <ele>39</ele>
        <time>2018-03-16T11:20:56Z</time>
      </trkpt>
      <trkpt lat="46.5782" lon="-1.65694">
        <ele>38</ele>
        <time>2018-03-16T11:21:56Z</time>
      </trkpt>
      <trkpt lat="46.57812" lon="-1.65726">
        <ele>37</ele>
        <time>2018-03-16T11:22:56Z</time>
      </trkpt>
      <trkpt lat="46.57803" lon="-1.65773">
        <ele>36</ele>
        <time>2018-03-16T11:23:56Z</time>
      </trkpt>
      <trkpt lat="46.57798" lon="-1.65804">
        <ele>36</ele>
        <time>2018-03-16T11:24:56Z</time>
      </trkpt>
      <trkpt lat="46.57797" lon="-1.65812">
        <ele>35</ele>
        <time>2018-03-16T11:25:56Z</time>
      </trkpt>
      <trkpt lat="46.57778" lon="-1.65925">
        <ele>35</ele>
        <time>2018-03-16T11:26:56Z</time>
      </trkpt>
      <trkpt lat="46.5776" lon="-1.66027">
        <ele>36</ele>
        <time>2018-03-16T11:27:56Z</time>
      </trkpt>
      <trkpt lat="46.57747" lon="-1.66112">
        <ele>34</ele>
        <time>2018-03-16T11:28:56Z</time>
      </trkpt>
      <trkpt lat="46.57737" lon="-1.66167">
        <ele>33</ele>
        <time>2018-03-16T11:29:56Z</time>
      </trkpt>
      <trkpt lat="46.5772" lon="-1.66273">
        <ele>26</ele>
        <time>2018-03-16T11:30:56Z</time>
      </trkpt>
      <trkpt lat="46.57712" lon="-1.66319">
        <ele>23</ele>
        <time>2018-03-16T11:31:56Z</time>
      </trkpt>
      <trkpt lat="46.57709" lon="-1.66334">
        <ele>22</ele>
        <time>2018-03-16T11:32:56Z</time>
      </trkpt>
      <trkpt lat="46.57705" lon="-1.66346">
        <ele>22</ele>
        <time>2018-03-16T11:33:56Z</time>
      </trkpt>
      <trkpt lat="46.57699" lon="-1.66367">
        <ele>21</ele>
        <time>2018-03-16T11:34:56Z</time>
      </trkpt>
      <trkpt lat="46.5769" lon="-1.66392">
        <ele>21</ele>
        <time>2018-03-16T11:35:56Z</time>
      </trkpt>
      <trkpt lat="46.57678" lon="-1.66417">
        <ele>20</ele>
        <time>2018-03-16T11:36:56Z</time>
      </trkpt>
      <trkpt lat="46.57664" lon="-1.66442">
        <ele>18</ele>
        <time>2018-03-16T11:37:56Z</time>
      </trkpt>
      <trkpt lat="46.57651" lon="-1.66465">
        <ele>17</ele>
        <time>2018-03-16T11:38:56Z</time>
      </trkpt>
      <trkpt lat="46.57634" lon="-1.66486">
        <ele>16</ele>
        <time>2018-03-16T11:39:56Z</time>
      </trkpt>
      <trkpt lat="46.57617" lon="-1.66504">
        <ele>16</ele>
        <time>2018-03-16T11:40:56Z</time>
      </trkpt>
      <trkpt lat="46.57601" lon="-1.66521">
        <ele>16</ele>
        <time>2018-03-16T11:41:56Z</time>
      </trkpt>
      <trkpt lat="46.57586" lon="-1.66538">
        <ele>16</ele>
        <time>2018-03-16T11:42:56Z</time>
      </trkpt>
      <trkpt lat="46.57576" lon="-1.6655">
        <ele>15</ele>
        <time>2018-03-16T11:43:56Z</time>
      </trkpt>
      <trkpt lat="46.57571" lon="-1.66555">
        <ele>15</ele>
        <time>2018-03-16T11:44:56Z</time>
      </trkpt>
      <trkpt lat="46.57561" lon="-1.6657">
        <ele>14</ele>
        <time>2018-03-16T11:45:56Z</time>
      </trkpt>
      <trkpt lat="46.57553" lon="-1.66587">
        <ele>13</ele>
        <time>2018-03-16T11:46:56Z</time>
      </trkpt>
      <trkpt lat="46.57547" lon="-1.66605">
        <ele>12</ele>
        <time>2018-03-16T11:47:56Z</time>
      </trkpt>
      <trkpt lat="46.57538" lon="-1.66637">
        <ele>12</ele>
        <time>2018-03-16T11:48:56Z</time>
      </trkpt>
      <trkpt lat="46.5753" lon="-1.66671">
        <ele>12</ele>
        <time>2018-03-16T11:49:56Z</time>
      </trkpt>
      <trkpt lat="46.57527" lon="-1.66685">
        <ele>13</ele>
        <time>2018-03-16T11:50:56Z</time>
      </trkpt>
      <trkpt lat="46.57525" lon="-1.66694">
        <ele>13</ele>
        <time>2018-03-16T11:51:56Z</time>
      </trkpt>
      <trkpt lat="46.57523" lon="-1.66704">
        <ele>14</ele>
        <time>2018-03-16T11:52:56Z</time>
      </trkpt>
      <trkpt lat="46.5752" lon="-1.66716">
        <ele>14</ele>
        <time>2018-03-16T11:53:56Z</time>
      </trkpt>
      <trkpt lat="46.57515" lon="-1.66734">
        <ele>15</ele>
        <time>2018-03-16T11:54:56Z</time>
      </trkpt>
      <trkpt lat="46.57508" lon="-1.66756">
        <ele>16</ele>
        <time>2018-03-16T11:55:56Z</time>
      </trkpt>
      <trkpt lat="46.57496" lon="-1.66781">
        <ele>15</ele>
        <time>2018-03-16T11:56:56Z</time>
      </trkpt>
      <trkpt lat="46.57485" lon="-1.668">
        <ele>16</ele>
        <time>2018-03-16T11:57:56Z</time>
      </trkpt>
      <trkpt lat="46.57475" lon="-1.66813">
        <ele>16</ele>
        <time>2018-03-16T11:58:56Z</time>
      </trkpt>
      <trkpt lat="46.57452" lon="-1.66832">
        <ele>18</ele>
        <time>2018-03-16T11:59:56Z</time>
      </trkpt>
      <trkpt lat="46.57426" lon="-1.66852">
        <ele>20</ele>
        <time>2018-03-16T12:00:56Z</time>
      </trkpt>
      <trkpt lat="46.574" lon="-1.66873">
        <ele>22</ele>
        <time>2018-03-16T12:01:56Z</time>
      </trkpt>
      <trkpt lat="46.57364" lon="-1.66903">
        <ele>24</ele>
        <time>2018-03-16T12:02:56Z</time>
      </trkpt>
      <trkpt lat="46.57321" lon="-1.66938">
        <ele>25</ele>
        <time>2018-03-16T12:03:56Z</time>
      </trkpt>
      <trkpt lat="46.57276" lon="-1.66974">
        <ele>26</ele>
        <time>2018-03-16T12:04:56Z</time>
      </trkpt>
      <trkpt lat="46.57255" lon="-1.6699">
        <ele>26</ele>
        <time>2018-03-16T12:05:56Z</time>
      </trkpt>
      <trkpt lat="46.57254" lon="-1.66992">
        <ele>26</ele>
        <time>2018-03-16T12:06:56Z</time>
      </trkpt>
      <trkpt lat="46.57249" lon="-1.66995">
        <ele>26</ele>
        <time>2018-03-16T12:07:56Z</time>
      </trkpt>
      <trkpt lat="46.57245" lon="-1.66999">
        <ele>26</ele>
        <time>2018-03-16T12:08:56Z</time>
      </trkpt>
      <trkpt lat="46.57241" lon="-1.67002">
        <ele>26</ele>
        <time>2018-03-16T12:09:56Z</time>
      </trkpt>
      <trkpt lat="46.57226" lon="-1.67012">
        <ele>26</ele>
        <time>2018-03-16T12:10:56Z</time>
      </trkpt>
      <trkpt lat="46.57214" lon="-1.67021">
        <ele>25</ele>
        <time>2018-03-16T12:11:56Z</time>
      </trkpt>
      <trkpt lat="46.57197" lon="-1.67034">
        <ele>25</ele>
        <time>2018-03-16T12:12:56Z</time>
      </trkpt>
      <trkpt lat="46.57195" lon="-1.67036">
        <ele>25</ele>
        <time>2018-03-16T12:13:56Z</time>
      </trkpt>
      <trkpt lat="46.57193" lon="-1.67038">
        <ele>25</ele>
        <time>2018-03-16T12:14:56Z</time>
      </trkpt>
      <trkpt lat="46.57181" lon="-1.67049">
        <ele>24</ele>
        <time>2018-03-16T12:15:56Z</time>
      </trkpt>
      <trkpt lat="46.57166" lon="-1.67063">
        <ele>24</ele>
        <time>2018-03-16T12:16:56Z</time>
      </trkpt>
      <trkpt lat="46.5715" lon="-1.67081">
        <ele>23</ele>
        <time>2018-03-16T12:17:56Z</time>
      </trkpt>
      <trkpt lat="46.57139" lon="-1.67094">
        <ele>23</ele>
        <time>2018-03-16T12:18:56Z</time>
      </trkpt>
      <trkpt lat="46.5713" lon="-1.67103">
        <ele>24</ele>
        <time>2018-03-16T12:19:56Z</time>
      </trkpt>
      <trkpt lat="46.57115" lon="-1.67121">
        <ele>24</ele>
        <time>2018-03-16T12:20:56Z</time>
      </trkpt>
      <trkpt lat="46.57088" lon="-1.67154">
        <ele>25</ele>
        <time>2018-03-16T12:21:56Z</time>
      </trkpt>
      <trkpt lat="46.57067" lon="-1.67179">
        <ele>26</ele>
        <time>2018-03-16T12:22:56Z</time>
      </trkpt>
      <trkpt lat="46.5705" lon="-1.67194">
        <ele>27</ele>
        <time>2018-03-16T12:23:56Z</time>
      </trkpt>
      <trkpt lat="46.57031" lon="-1.67207">
        <ele>29</ele>
        <time>2018-03-16T12:24:56Z</time>
      </trkpt>
      <trkpt lat="46.57013" lon="-1.67216">
        <ele>29</ele>
        <time>2018-03-16T12:25:56Z</time>
      </trkpt>
      <trkpt lat="46.56992" lon="-1.67224">
        <ele>30</ele>
        <time>2018-03-16T12:26:56Z</time>
      </trkpt>
      <trkpt lat="46.56961" lon="-1.67232">
        <ele>31</ele>
        <time>2018-03-16T12:27:56Z</time>
      </trkpt>
      <trkpt lat="46.56954" lon="-1.67233">
        <ele>31</ele>
        <time>2018-03-16T12:28:56Z</time>
      </trkpt>
      <trkpt lat="46.56922" lon="-1.6724">
        <ele>32</ele>
        <time>2018-03-16T12:29:56Z</time>
      </trkpt>
      <trkpt lat="46.56878" lon="-1.67249">
        <ele>33</ele>
        <time>2018-03-16T12:30:56Z</time>
      </trkpt>
      <trkpt lat="46.56846" lon="-1.67255">
        <ele>34</ele>
        <time>2018-03-16T12:31:56Z</time>
      </trkpt>
      <trkpt lat="46.56817" lon="-1.67263">
        <ele>35</ele>
        <time>2018-03-16T12:32:56Z</time>
      </trkpt>
      <trkpt lat="46.56793" lon="-1.67273">
        <ele>35</ele>
        <time>2018-03-16T12:33:56Z</time>
      </trkpt>
      <trkpt lat="46.56781" lon="-1.67282">
        <ele>36</ele>
        <time>2018-03-16T12:34:56Z</time>
      </trkpt>
      <trkpt lat="46.56777" lon="-1.67286">
        <ele>36</ele>
        <time>2018-03-16T12:35:56Z</time>
      </trkpt>
      <trkpt lat="46.56777" lon="-1.67286">
        <ele>36</ele>
        <time>2018-03-16T12:36:56Z</time>
      </trkpt>
      <trkpt lat="46.56776" lon="-1.67284">
        <ele>36</ele>
        <time>2018-03-16T12:37:56Z</time>
      </trkpt>
      <trkpt lat="46.56774" lon="-1.67283">
        <ele>36</ele>
        <time>2018-03-16T12:38:56Z</time>
      </trkpt>
      <trkpt lat="46.56773" lon="-1.67281">
        <ele>36</ele>
        <time>2018-03-16T12:39:56Z</time>
      </trkpt>
      <trkpt lat="46.5677" lon="-1.6728">
        <ele>36</ele>
        <time>2018-03-16T12:40:56Z</time>
      </trkpt>
      <trkpt lat="46.56763" lon="-1.67279">
        <ele>37</ele>
        <time>2018-03-16T12:41:56Z</time>
      </trkpt>
      <trkpt lat="46.56733" lon="-1.67274">
        <ele>37</ele>
        <time>2018-03-16T12:42:56Z</time>
      </trkpt>
      <trkpt lat="46.56685" lon="-1.67267">
        <ele>38</ele>
        <time>2018-03-16T12:43:56Z</time>
      </trkpt>
      <trkpt lat="46.56665" lon="-1.67264">
        <ele>38</ele>
        <time>2018-03-16T12:44:56Z</time>
      </trkpt>
      <trkpt lat="46.56613" lon="-1.67258">
        <ele>37</ele>
        <time>2018-03-16T12:45:56Z</time>
      </trkpt>
      <trkpt lat="46.5656" lon="-1.6725">
        <ele>37</ele>
        <time>2018-03-16T12:46:56Z</time>
      </trkpt>
      <trkpt lat="46.5651" lon="-1.67243">
        <ele>37</ele>
        <time>2018-03-16T12:47:56Z</time>
      </trkpt>
      <trkpt lat="46.56476" lon="-1.6724">
        <ele>37</ele>
        <time>2018-03-16T12:48:56Z</time>
      </trkpt>
      <trkpt lat="46.56445" lon="-1.67235">
        <ele>37</ele>
        <time>2018-03-16T12:49:56Z</time>
      </trkpt>
      <trkpt lat="46.5639" lon="-1.67229">
        <ele>37</ele>
        <time>2018-03-16T12:50:56Z</time>
      </trkpt>
      <trkpt lat="46.56358" lon="-1.67225">
        <ele>37</ele>
        <time>2018-03-16T12:51:56Z</time>
      </trkpt>
      <trkpt lat="46.56335" lon="-1.67223">
        <ele>37</ele>
        <time>2018-03-16T12:52:56Z</time>
      </trkpt>
      <trkpt lat="46.56303" lon="-1.67218">
        <ele>37</ele>
        <time>2018-03-16T12:53:56Z</time>
      </trkpt>
      <trkpt lat="46.56251" lon="-1.67209">
        <ele>37</ele>
        <time>2018-03-16T12:54:56Z</time>
      </trkpt>
      <trkpt lat="46.56227" lon="-1.67204">
        <ele>36</ele>
        <time>2018-03-16T12:55:56Z</time>
      </trkpt>
      <trkpt lat="46.56187" lon="-1.67192">
        <ele>36</ele>
        <time>2018-03-16T12:56:56Z</time>
      </trkpt>
      <trkpt lat="46.56169" lon="-1.67186">
        <ele>36</ele>
        <time>2018-03-16T12:57:56Z</time>
      </trkpt>
      <trkpt lat="46.56124" lon="-1.6717">
        <ele>35</ele>
        <time>2018-03-16T12:58:56Z</time>
      </trkpt>
      <trkpt lat="46.56072" lon="-1.6715">
        <ele>35</ele>
        <time>2018-03-16T12:59:56Z</time>
      </trkpt>
      <trkpt lat="46.56064" lon="-1.67148">
        <ele>35</ele>
        <time>2018-03-16T13:00:56Z</time>
      </trkpt>
      <trkpt lat="46.56041" lon="-1.67139">
        <ele>35</ele>
        <time>2018-03-16T13:01:56Z</time>
      </trkpt>
      <trkpt lat="46.56011" lon="-1.67128">
        <ele>35</ele>
        <time>2018-03-16T13:02:56Z</time>
      </trkpt>
      <trkpt lat="46.55979" lon="-1.67118">
        <ele>35</ele>
        <time>2018-03-16T13:03:56Z</time>
      </trkpt>
      <trkpt lat="46.55959" lon="-1.67112">
        <ele>35</ele>
        <time>2018-03-16T13:04:56Z</time>
      </trkpt>
      <trkpt lat="46.55956" lon="-1.67111">
        <ele>34</ele>
        <time>2018-03-16T13:05:56Z</time>
      </trkpt>
      <trkpt lat="46.55935" lon="-1.67105">
        <ele>34</ele>
        <time>2018-03-16T13:06:56Z</time>
      </trkpt>
      <trkpt lat="46.55898" lon="-1.67098">
        <ele>34</ele>
        <time>2018-03-16T13:07:56Z</time>
      </trkpt>
      <trkpt lat="46.55848" lon="-1.6709">
        <ele>33</ele>
        <time>2018-03-16T13:08:56Z</time>
      </trkpt>
      <trkpt lat="46.558" lon="-1.67082">
        <ele>33</ele>
        <time>2018-03-16T13:09:56Z</time>
      </trkpt>
      <trkpt lat="46.55756" lon="-1.67077">
        <ele>32</ele>
        <time>2018-03-16T13:10:56Z</time>
      </trkpt>
      <trkpt lat="46.55728" lon="-1.67075">
        <ele>32</ele>
        <time>2018-03-16T13:11:56Z</time>
      </trkpt>
      <trkpt lat="46.5571" lon="-1.67075">
        <ele>31</ele>
        <time>2018-03-16T13:12:56Z</time>
      </trkpt>
      <trkpt lat="46.55702" lon="-1.67075">
        <ele>31</ele>
        <time>2018-03-16T13:13:56Z</time>
      </trkpt>
      <trkpt lat="46.55658" lon="-1.67078">
        <ele>31</ele>
        <time>2018-03-16T13:14:56Z</time>
      </trkpt>
      <trkpt lat="46.55618" lon="-1.67081">
        <ele>31</ele>
        <time>2018-03-16T13:15:56Z</time>
      </trkpt>
      <trkpt lat="46.55582" lon="-1.67084">
        <ele>31</ele>
        <time>2018-03-16T13:16:56Z</time>
      </trkpt>
      <trkpt lat="46.5558" lon="-1.67084">
        <ele>31</ele>
        <time>2018-03-16T13:17:56Z</time>
      </trkpt>
      <trkpt lat="46.55529" lon="-1.67088">
        <ele>30</ele>
        <time>2018-03-16T13:18:56Z</time>
      </trkpt>
      <trkpt lat="46.55506" lon="-1.67089">
        <ele>29</ele>
        <time>2018-03-16T13:19:56Z</time>
      </trkpt>
      <trkpt lat="46.55488" lon="-1.67087">
        <ele>28</ele>
        <time>2018-03-16T13:20:56Z</time>
      </trkpt>
      <trkpt lat="46.55474" lon="-1.67085">
        <ele>27</ele>
        <time>2018-03-16T13:21:56Z</time>
      </trkpt>
      <trkpt lat="46.55446" lon="-1.67071">
        <ele>26</ele>
        <time>2018-03-16T13:22:56Z</time>
      </trkpt>
      <trkpt lat="46.55435" lon="-1.67058">
        <ele>25</ele>
        <time>2018-03-16T13:23:56Z</time>
      </trkpt>
      <trkpt lat="46.55422" lon="-1.67045">
        <ele>24</ele>
        <time>2018-03-16T13:24:56Z</time>
      </trkpt>
      <trkpt lat="46.55399" lon="-1.67017">
        <ele>23</ele>
        <time>2018-03-16T13:25:56Z</time>
      </trkpt>
      <trkpt lat="46.55394" lon="-1.67009">
        <ele>23</ele>
        <time>2018-03-16T13:26:56Z</time>
      </trkpt>
      <trkpt lat="46.55376" lon="-1.66986">
        <ele>21</ele>
        <time>2018-03-16T13:27:56Z</time>
      </trkpt>
      <trkpt lat="46.55357" lon="-1.66964">
        <ele>20</ele>
        <time>2018-03-16T13:28:56Z</time>
      </trkpt>
      <trkpt lat="46.55337" lon="-1.66942">
        <ele>19</ele>
        <time>2018-03-16T13:29:56Z</time>
      </trkpt>
      <trkpt lat="46.55316" lon="-1.66921">
        <ele>18</ele>
        <time>2018-03-16T13:30:56Z</time>
      </trkpt>
      <trkpt lat="46.55304" lon="-1.66911">
        <ele>18</ele>
        <time>2018-03-16T13:31:56Z</time>
      </trkpt>
      <trkpt lat="46.55298" lon="-1.66908">
        <ele>17</ele>
        <time>2018-03-16T13:32:56Z</time>
      </trkpt>
      <trkpt lat="46.55288" lon="-1.66902">
        <ele>17</ele>
        <time>2018-03-16T13:33:56Z</time>
      </trkpt>
      <trkpt lat="46.55271" lon="-1.66896">
        <ele>16</ele>
        <time>2018-03-16T13:34:56Z</time>
      </trkpt>
      <trkpt lat="46.55265" lon="-1.66895">
        <ele>15</ele>
        <time>2018-03-16T13:35:56Z</time>
      </trkpt>
      <trkpt lat="46.55245" lon="-1.66891">
        <ele>14</ele>
        <time>2018-03-16T13:36:56Z</time>
      </trkpt>
      <trkpt lat="46.55205" lon="-1.66886">
        <ele>13</ele>
        <time>2018-03-16T13:37:56Z</time>
      </trkpt>
      <trkpt lat="46.55176" lon="-1.6688">
        <ele>11</ele>
        <time>2018-03-16T13:38:56Z</time>
      </trkpt>
      <trkpt lat="46.55149" lon="-1.66877">
        <ele>12</ele>
        <time>2018-03-16T13:39:56Z</time>
      </trkpt>
      <trkpt lat="46.5514" lon="-1.66876">
        <ele>12</ele>
        <time>2018-03-16T13:40:56Z</time>
      </trkpt>
      <trkpt lat="46.55132" lon="-1.66875">
        <ele>12</ele>
        <time>2018-03-16T13:41:56Z</time>
      </trkpt>
      <trkpt lat="46.5512" lon="-1.66874">
        <ele>12</ele>
        <time>2018-03-16T13:42:56Z</time>
      </trkpt>
      <trkpt lat="46.55112" lon="-1.66873">
        <ele>13</ele>
        <time>2018-03-16T13:43:56Z</time>
      </trkpt>
      <trkpt lat="46.55101" lon="-1.66877">
        <ele>13</ele>
        <time>2018-03-16T13:44:56Z</time>
      </trkpt>
      <trkpt lat="46.55091" lon="-1.66883">
        <ele>13</ele>
        <time>2018-03-16T13:45:56Z</time>
      </trkpt>
      <trkpt lat="46.55079" lon="-1.66893">
        <ele>13</ele>
        <time>2018-03-16T13:46:56Z</time>
      </trkpt>
      <trkpt lat="46.55049" lon="-1.66923">
        <ele>14</ele>
        <time>2018-03-16T13:47:56Z</time>
      </trkpt>
      <trkpt lat="46.55008" lon="-1.66966">
        <ele>14</ele>
        <time>2018-03-16T13:48:56Z</time>
      </trkpt>
      <trkpt lat="46.54971" lon="-1.67005">
        <ele>13</ele>
        <time>2018-03-16T13:49:56Z</time>
      </trkpt>
      <trkpt lat="46.54943" lon="-1.67034">
        <ele>14</ele>
        <time>2018-03-16T13:50:56Z</time>
      </trkpt>
      <trkpt lat="46.54933" lon="-1.67045">
        <ele>15</ele>
        <time>2018-03-16T13:51:56Z</time>
      </trkpt>
      <trkpt lat="46.54918" lon="-1.67056">
        <ele>15</ele>
        <time>2018-03-16T13:52:56Z</time>
      </trkpt>
      <trkpt lat="46.54908" lon="-1.67063">
        <ele>16</ele>
        <time>2018-03-16T13:53:56Z</time>
      </trkpt>
      <trkpt lat="46.54896" lon="-1.67068">
        <ele>16</ele>
        <time>2018-03-16T13:54:56Z</time>
      </trkpt>
      <trkpt lat="46.54893" lon="-1.67069">
        <ele>16</ele>
        <time>2018-03-16T13:55:56Z</time>
      </trkpt>
      <trkpt lat="46.54887" lon="-1.67071">
        <ele>16</ele>
        <time>2018-03-16T13:56:56Z</time>
      </trkpt>
      <trkpt lat="46.54876" lon="-1.67073">
        <ele>16</ele>
        <time>2018-03-16T13:57:56Z</time>
      </trkpt>
      <trkpt lat="46.54854" lon="-1.67076">
        <ele>17</ele>
        <time>2018-03-16T13:58:56Z</time>
      </trkpt>
      <trkpt lat="46.54831" lon="-1.67074">
        <ele>17</ele>
        <time>2018-03-16T13:59:56Z</time>
      </trkpt>
      <trkpt lat="46.54799" lon="-1.67068">
        <ele>18</ele>
        <time>2018-03-16T14:00:56Z</time>
      </trkpt>
      <trkpt lat="46.54764" lon="-1.6706">
        <ele>19</ele>
        <time>2018-03-16T14:01:56Z</time>
      </trkpt>
      <trkpt lat="46.54734" lon="-1.67053">
        <ele>20</ele>
        <time>2018-03-16T14:02:56Z</time>
      </trkpt>
      <trkpt lat="46.54708" lon="-1.67049">
        <ele>21</ele>
        <time>2018-03-16T14:03:56Z</time>
      </trkpt>
      <trkpt lat="46.54681" lon="-1.67045">
        <ele>22</ele>
        <time>2018-03-16T14:04:56Z</time>
      </trkpt>
      <trkpt lat="46.54655" lon="-1.67043">
        <ele>23</ele>
        <time>2018-03-16T14:05:56Z</time>
      </trkpt>
      <trkpt lat="46.54626" lon="-1.67042">
        <ele>24</ele>
        <time>2018-03-16T14:06:56Z</time>
      </trkpt>
      <trkpt lat="46.54609" lon="-1.67043">
        <ele>24</ele>
        <time>2018-03-16T14:07:56Z</time>
      </trkpt>
      <trkpt lat="46.54594" lon="-1.67044">
        <ele>25</ele>
        <time>2018-03-16T14:08:56Z</time>
      </trkpt>
      <trkpt lat="46.54591" lon="-1.67044">
        <ele>25</ele>
        <time>2018-03-16T14:09:56Z</time>
      </trkpt>
      <trkpt lat="46.54561" lon="-1.67047">
        <ele>26</ele>
        <time>2018-03-16T14:10:56Z</time>
      </trkpt>
      <trkpt lat="46.54531" lon="-1.67045">
        <ele>26</ele>
        <time>2018-03-16T14:11:56Z</time>
      </trkpt>
      <trkpt lat="46.54531" lon="-1.67045">
        <ele>26</ele>
        <time>2018-03-16T14:12:56Z</time>
      </trkpt>
      <trkpt lat="46.54529" lon="-1.6705">
        <ele>26</ele>
        <time>2018-03-16T14:13:56Z</time>
      </trkpt>
      <trkpt lat="46.54526" lon="-1.67064">
        <ele>27</ele>
        <time>2018-03-16T14:14:56Z</time>
      </trkpt>
      <trkpt lat="46.54522" lon="-1.67092">
        <ele>27</ele>
        <time>2018-03-16T14:15:56Z</time>
      </trkpt>
      <trkpt lat="46.5452" lon="-1.67116">
        <ele>28</ele>
        <time>2018-03-16T14:16:56Z</time>
      </trkpt>
      <trkpt lat="46.5452" lon="-1.67119">
        <ele>28</ele>
        <time>2018-03-16T14:17:56Z</time>
      </trkpt>
      <trkpt lat="46.54519" lon="-1.67145">
        <ele>28</ele>
        <time>2018-03-16T14:18:56Z</time>
      </trkpt>
      <trkpt lat="46.54518" lon="-1.67171">
        <ele>27</ele>
        <time>2018-03-16T14:19:56Z</time>
      </trkpt>
      <trkpt lat="46.54518" lon="-1.67185">
        <ele>27</ele>
        <time>2018-03-16T14:20:56Z</time>
      </trkpt>
      <trkpt lat="46.54518" lon="-1.67191">
        <ele>27</ele>
        <time>2018-03-16T14:21:56Z</time>
      </trkpt>
      <trkpt lat="46.54522" lon="-1.67209">
        <ele>27</ele>
        <time>2018-03-16T14:22:56Z</time>
      </trkpt>
      <trkpt lat="46.54524" lon="-1.6722">
        <ele>26</ele>
        <time>2018-03-16T14:23:56Z</time>
      </trkpt>
      <trkpt lat="46.54525" lon="-1.6722">
        <ele>26</ele>
        <time>2018-03-16T14:24:56Z</time>
      </trkpt>
      <trkpt lat="46.54526" lon="-1.6722">
        <ele>26</ele>
        <time>2018-03-16T14:25:56Z</time>
      </trkpt>
      <trkpt lat="46.54527" lon="-1.6722">
        <ele>26</ele>
        <time>2018-03-16T14:26:56Z</time>
      </trkpt>
      <trkpt lat="46.54528" lon="-1.6722">
        <ele>26</ele>
        <time>2018-03-16T14:27:56Z</time>
      </trkpt>
      <trkpt lat="46.54528" lon="-1.67221">
        <ele>26</ele>
        <time>2018-03-16T14:28:56Z</time>
      </trkpt>
      <trkpt lat="46.54529" lon="-1.67221">
        <ele>26</ele>
        <time>2018-03-16T14:29:56Z</time>
      </trkpt>
      <trkpt lat="46.54529" lon="-1.67222">
        <ele>26</ele>
        <time>2018-03-16T14:30:56Z</time>
      </trkpt>
      <trkpt lat="46.5453" lon="-1.67223">
        <ele>26</ele>
        <time>2018-03-16T14:31:56Z</time>
      </trkpt>
      <trkpt lat="46.5453" lon="-1.67224">
        <ele>26</ele>
        <time>2018-03-16T14:32:56Z</time>
      </trkpt>
      <trkpt lat="46.5453" lon="-1.67225">
        <ele>26</ele>
        <time>2018-03-16T14:33:56Z</time>
      </trkpt>
      <trkpt lat="46.5453" lon="-1.67226">
        <ele>26</ele>
        <time>2018-03-16T14:34:56Z</time>
      </trkpt>
      <trkpt lat="46.5453" lon="-1.67227">
        <ele>26</ele>
        <time>2018-03-16T14:35:56Z</time>
      </trkpt>
      <trkpt lat="46.5453" lon="-1.67228">
        <ele>26</ele>
        <time>2018-03-16T14:36:56Z</time>
      </trkpt>
      <trkpt lat="46.5453" lon="-1.67229">
        <ele>26</ele>
        <time>2018-03-16T14:37:56Z</time>
      </trkpt>
      <trkpt lat="46.5453" lon="-1.6723">
        <ele>26</ele>
        <time>2018-03-16T14:38:56Z</time>
      </trkpt>
      <trkpt lat="46.54529" lon="-1.6723">
        <ele>26</ele>
        <time>2018-03-16T14:39:56Z</time>
      </trkpt>
      <trkpt lat="46.54529" lon="-1.67231">
        <ele>26</ele>
        <time>2018-03-16T14:40:56Z</time>
      </trkpt>
      <trkpt lat="46.54528" lon="-1.67231">
        <ele>26</ele>
        <time>2018-03-16T14:41:56Z</time>
      </trkpt>
      <trkpt lat="46.54528" lon="-1.67232">
        <ele>26</ele>
        <time>2018-03-16T14:42:56Z</time>
      </trkpt>
      <trkpt lat="46.54527" lon="-1.67232">
        <ele>26</ele>
        <time>2018-03-16T14:43:56Z</time>
      </trkpt>
      <trkpt lat="46.54531" lon="-1.67246">
        <ele>26</ele>
        <time>2018-03-16T14:44:56Z</time>
      </trkpt>
      <trkpt lat="46.54533" lon="-1.67255">
        <ele>25</ele>
        <time>2018-03-16T14:45:56Z</time>
      </trkpt>
      <trkpt lat="46.54533" lon="-1.67258">
        <ele>25</ele>
        <time>2018-03-16T14:46:56Z</time>
      </trkpt>
      <trkpt lat="46.54537" lon="-1.6728">
        <ele>24</ele>
        <time>2018-03-16T14:47:56Z</time>
      </trkpt>
      <trkpt lat="46.54537" lon="-1.67283">
        <ele>24</ele>
        <time>2018-03-16T14:48:56Z</time>
      </trkpt>
      <trkpt lat="46.54539" lon="-1.67302">
        <ele>23</ele>
        <time>2018-03-16T14:49:56Z</time>
      </trkpt>
      <trkpt lat="46.54539" lon="-1.67306">
        <ele>22</ele>
        <time>2018-03-16T14:50:56Z</time>
      </trkpt>
      <trkpt lat="46.54539" lon="-1.67318">
        <ele>22</ele>
        <time>2018-03-16T14:51:56Z</time>
      </trkpt>
      <trkpt lat="46.54539" lon="-1.67327">
        <ele>21</ele>
        <time>2018-03-16T14:52:56Z</time>
      </trkpt>
      <trkpt lat="46.54539" lon="-1.67334">
        <ele>21</ele>
        <time>2018-03-16T14:53:56Z</time>
      </trkpt>
      <trkpt lat="46.54539" lon="-1.67341">
        <ele>21</ele>
        <time>2018-03-16T14:54:56Z</time>
      </trkpt>
      <trkpt lat="46.54538" lon="-1.67345">
        <ele>20</ele>
        <time>2018-03-16T14:55:56Z</time>
      </trkpt>
      <trkpt lat="46.54536" lon="-1.67354">
        <ele>20</ele>
        <time>2018-03-16T14:56:56Z</time>
      </trkpt>
      <trkpt lat="46.54536" lon="-1.67371">
        <ele>19</ele>
        <time>2018-03-16T14:57:56Z</time>
      </trkpt>
      <trkpt lat="46.54534" lon="-1.67406">
        <ele>18</ele>
        <time>2018-03-16T14:58:56Z</time>
      </trkpt>
      <trkpt lat="46.54535" lon="-1.67411">
        <ele>17</ele>
        <time>2018-03-16T14:59:56Z</time>
      </trkpt>
      <trkpt lat="46.54537" lon="-1.67439">
        <ele>17</ele>
        <time>2018-03-16T15:00:56Z</time>
      </trkpt>
      <trkpt lat="46.5454" lon="-1.67462">
        <ele>17</ele>
        <time>2018-03-16T15:01:56Z</time>
      </trkpt>
      <trkpt lat="46.54543" lon="-1.67486">
        <ele>17</ele>
        <time>2018-03-16T15:02:56Z</time>
      </trkpt>
      <trkpt lat="46.54545" lon="-1.67502">
        <ele>17</ele>
        <time>2018-03-16T15:03:56Z</time>
      </trkpt>
      <trkpt lat="46.5455" lon="-1.67537">
        <ele>18</ele>
        <time>2018-03-16T15:04:56Z</time>
      </trkpt>
      <trkpt lat="46.54552" lon="-1.67561">
        <ele>18</ele>
        <time>2018-03-16T15:05:56Z</time>
      </trkpt>
      <trkpt lat="46.54553" lon="-1.67572">
        <ele>18</ele>
        <time>2018-03-16T15:06:56Z</time>
      </trkpt>
      <trkpt lat="46.54553" lon="-1.67582">
        <ele>19</ele>
        <time>2018-03-16T15:07:56Z</time>
      </trkpt>
      <trkpt lat="46.54554" lon="-1.6759">
        <ele>19</ele>
        <time>2018-03-16T15:08:56Z</time>
      </trkpt>
      <trkpt lat="46.54557" lon="-1.67616">
        <ele>20</ele>
        <time>2018-03-16T15:09:56Z</time>
      </trkpt>
      <trkpt lat="46.54559" lon="-1.67639">
        <ele>21</ele>
        <time>2018-03-16T15:10:56Z</time>
      </trkpt>
      <trkpt lat="46.54559" lon="-1.6764">
        <ele>21</ele>
        <time>2018-03-16T15:11:56Z</time>
      </trkpt>
      <trkpt lat="46.54561" lon="-1.67654">
        <ele>21</ele>
        <time>2018-03-16T15:12:56Z</time>
      </trkpt>
      <trkpt lat="46.54564" lon="-1.6767">
        <ele>22</ele>
        <time>2018-03-16T15:13:56Z</time>
      </trkpt>
      <trkpt lat="46.54566" lon="-1.67681">
        <ele>22</ele>
        <time>2018-03-16T15:14:56Z</time>
      </trkpt>
      <trkpt lat="46.54567" lon="-1.67692">
        <ele>22</ele>
        <time>2018-03-16T15:15:56Z</time>
      </trkpt>
      <trkpt lat="46.54567" lon="-1.677">
        <ele>22</ele>
        <time>2018-03-16T15:16:56Z</time>
      </trkpt>
      <trkpt lat="46.54566" lon="-1.67713">
        <ele>23</ele>
        <time>2018-03-16T15:17:56Z</time>
      </trkpt>
      <trkpt lat="46.54567" lon="-1.67719">
        <ele>23</ele>
        <time>2018-03-16T15:18:56Z</time>
      </trkpt>
      <trkpt lat="46.54567" lon="-1.67728">
        <ele>23</ele>
        <time>2018-03-16T15:19:56Z</time>
      </trkpt>
      <trkpt lat="46.54567" lon="-1.67736">
        <ele>23</ele>
        <time>2018-03-16T15:20:56Z</time>
      </trkpt>
      <trkpt lat="46.54568" lon="-1.67741">
        <ele>23</ele>
        <time>2018-03-16T15:21:56Z</time>
      </trkpt>
      <trkpt lat="46.54568" lon="-1.67741">
        <ele>23</ele>
        <time>2018-03-16T15:22:56Z</time>
      </trkpt>
      <trkpt lat="46.54568" lon="-1.67742">
        <ele>23</ele>
        <time>2018-03-16T15:23:56Z</time>
      </trkpt>
      <trkpt lat="46.54569" lon="-1.67743">
        <ele>23</ele>
        <time>2018-03-16T15:24:56Z</time>
      </trkpt>
      <trkpt lat="46.54569" lon="-1.67744">
        <ele>23</ele>
        <time>2018-03-16T15:25:56Z</time>
      </trkpt>
      <trkpt lat="46.5457" lon="-1.67744">
        <ele>23</ele>
        <time>2018-03-16T15:26:56Z</time>
      </trkpt>
      <trkpt lat="46.5457" lon="-1.67745">
        <ele>23</ele>
        <time>2018-03-16T15:27:56Z</time>
      </trkpt>
      <trkpt lat="46.5457" lon="-1.67746">
        <ele>23</ele>
        <time>2018-03-16T15:28:56Z</time>
      </trkpt>
      <trkpt lat="46.5457" lon="-1.67747">
        <ele>23</ele>
        <time>2018-03-16T15:29:56Z</time>
      </trkpt>
      <trkpt lat="46.54571" lon="-1.67747">
        <ele>23</ele>
        <time>2018-03-16T15:30:56Z</time>
      </trkpt>
      <trkpt lat="46.54571" lon="-1.67748">
        <ele>23</ele>
        <time>2018-03-16T15:31:56Z</time>
      </trkpt>
      <trkpt lat="46.54571" lon="-1.67749">
        <ele>23</ele>
        <time>2018-03-16T15:32:56Z</time>
      </trkpt>
      <trkpt lat="46.54571" lon="-1.6775">
        <ele>23</ele>
        <time>2018-03-16T15:33:56Z</time>
      </trkpt>
      <trkpt lat="46.54571" lon="-1.67751">
        <ele>23</ele>
        <time>2018-03-16T15:34:56Z</time>
      </trkpt>
      <trkpt lat="46.54571" lon="-1.67752">
        <ele>23</ele>
        <time>2018-03-16T15:35:56Z</time>
      </trkpt>
      <trkpt lat="46.54571" lon="-1.67753">
        <ele>23</ele>
        <time>2018-03-16T15:36:56Z</time>
      </trkpt>
      <trkpt lat="46.54571" lon="-1.67754">
        <ele>23</ele>
        <time>2018-03-16T15:37:56Z</time>
      </trkpt>
      <trkpt lat="46.54571" lon="-1.67755">
        <ele>23</ele>
        <time>2018-03-16T15:38:56Z</time>
      </trkpt>
      <trkpt lat="46.54571" lon="-1.67756">
        <ele>23</ele>
        <time>2018-03-16T15:39:56Z</time>
      </trkpt>
      <trkpt lat="46.5457" lon="-1.67757">
        <ele>23</ele>
        <time>2018-03-16T15:40:56Z</time>
      </trkpt>
      <trkpt lat="46.5457" lon="-1.67758">
        <ele>23</ele>
        <time>2018-03-16T15:41:56Z</time>
      </trkpt>
      <trkpt lat="46.5457" lon="-1.67759">
        <ele>23</ele>
        <time>2018-03-16T15:42:56Z</time>
      </trkpt>
      <trkpt lat="46.54569" lon="-1.67759">
        <ele>23</ele>
        <time>2018-03-16T15:43:56Z</time>
      </trkpt>
      <trkpt lat="46.54569" lon="-1.6776">
        <ele>23</ele>
        <time>2018-03-16T15:44:56Z</time>
      </trkpt>
      <trkpt lat="46.54571" lon="-1.67765">
        <ele>23</ele>
        <time>2018-03-16T15:45:56Z</time>
      </trkpt>
      <trkpt lat="46.54574" lon="-1.67774">
        <ele>23</ele>
        <time>2018-03-16T15:46:56Z</time>
      </trkpt>
      <trkpt lat="46.54575" lon="-1.67784">
        <ele>24</ele>
        <time>2018-03-16T15:47:56Z</time>
      </trkpt>
      <trkpt lat="46.54577" lon="-1.67799">
        <ele>24</ele>
        <time>2018-03-16T15:48:56Z</time>
      </trkpt>
      <trkpt lat="46.54578" lon="-1.67818">
        <ele>25</ele>
        <time>2018-03-16T15:49:56Z</time>
      </trkpt>
      <trkpt lat="46.54578" lon="-1.67831">
        <ele>25</ele>
        <time>2018-03-16T15:50:56Z</time>
      </trkpt>
      <trkpt lat="46.54577" lon="-1.67855">
        <ele>25</ele>
        <time>2018-03-16T15:51:56Z</time>
      </trkpt>
      <trkpt lat="46.54574" lon="-1.67884">
        <ele>24</ele>
        <time>2018-03-16T15:52:56Z</time>
      </trkpt>
      <trkpt lat="46.54573" lon="-1.67901">
        <ele>24</ele>
        <time>2018-03-16T15:53:56Z</time>
      </trkpt>
      <trkpt lat="46.5457" lon="-1.67935">
        <ele>24</ele>
        <time>2018-03-16T15:54:56Z</time>
      </trkpt>
      <trkpt lat="46.54562" lon="-1.68038">
        <ele>22</ele>
        <time>2018-03-16T15:55:56Z</time>
      </trkpt>
      <trkpt lat="46.5456" lon="-1.68061">
        <ele>22</ele>
        <time>2018-03-16T15:56:56Z</time>
      </trkpt>
      <trkpt lat="46.54558" lon="-1.68082">
        <ele>21</ele>
        <time>2018-03-16T15:57:56Z</time>
      </trkpt>
      <trkpt lat="46.54553" lon="-1.68137">
        <ele>20</ele>
        <time>2018-03-16T15:58:56Z</time>
      </trkpt>
      <trkpt lat="46.54549" lon="-1.68189">
        <ele>19</ele>
        <time>2018-03-16T15:59:56Z</time>
      </trkpt>
      <trkpt lat="46.54547" lon="-1.6822">
        <ele>18</ele>
        <time>2018-03-16T16:00:56Z</time>
      </trkpt>
      <trkpt lat="46.54546" lon="-1.6824">
        <ele>17</ele>
        <time>2018-03-16T16:01:56Z</time>
      </trkpt>
      <trkpt lat="46.54545" lon="-1.68257">
        <ele>17</ele>
        <time>2018-03-16T16:02:56Z</time>
      </trkpt>
      <trkpt lat="46.54544" lon="-1.68282">
        <ele>16</ele>
        <time>2018-03-16T16:03:56Z</time>
      </trkpt>
      <trkpt lat="46.54544" lon="-1.68308">
        <ele>16</ele>
        <time>2018-03-16T16:04:56Z</time>
      </trkpt>
      <trkpt lat="46.54544" lon="-1.68335">
        <ele>15</ele>
        <time>2018-03-16T16:05:56Z</time>
      </trkpt>
      <trkpt lat="46.54547" lon="-1.68361">
        <ele>15</ele>
        <time>2018-03-16T16:06:56Z</time>
      </trkpt>
      <trkpt lat="46.5455" lon="-1.68389">
        <ele>15</ele>
        <time>2018-03-16T16:07:56Z</time>
      </trkpt>
      <trkpt lat="46.54554" lon="-1.68416">
        <ele>15</ele>
        <time>2018-03-16T16:08:56Z</time>
      </trkpt>
      <trkpt lat="46.54559" lon="-1.68441">
        <ele>15</ele>
        <time>2018-03-16T16:09:56Z</time>
      </trkpt>
      <trkpt lat="46.54562" lon="-1.68459">
        <ele>15</ele>
        <time>2018-03-16T16:10:56Z</time>
      </trkpt>
      <trkpt lat="46.54566" lon="-1.68483">
        <ele>15</ele>
        <time>2018-03-16T16:11:56Z</time>
      </trkpt>
      <trkpt lat="46.54567" lon="-1.68499">
        <ele>15</ele>
        <time>2018-03-16T16:12:56Z</time>
      </trkpt>
      <trkpt lat="46.54568" lon="-1.68516">
        <ele>15</ele>
        <time>2018-03-16T16:13:56Z</time>
      </trkpt>
      <trkpt lat="46.54569" lon="-1.68526">
        <ele>15</ele>
        <time>2018-03-16T16:14:56Z</time>
      </trkpt>
      <trkpt lat="46.54569" lon="-1.68542">
        <ele>15</ele>
        <time>2018-03-16T16:15:56Z</time>
      </trkpt>
      <trkpt lat="46.54568" lon="-1.68571">
        <ele>15</ele>
        <time>2018-03-16T16:16:56Z</time>
      </trkpt>
      <trkpt lat="46.54566" lon="-1.6859">
        <ele>15</ele>
        <time>2018-03-16T16:17:56Z</time>
      </trkpt>
      <trkpt lat="46.54563" lon="-1.68615">
        <ele>15</ele>
        <time>2018-03-16T16:18:56Z</time>
      </trkpt>
      <trkpt lat="46.54558" lon="-1.68646">
        <ele>15</ele>
        <time>2018-03-16T16:19:56Z</time>
      </trkpt>
      <trkpt lat="46.54553" lon="-1.68679">
        <ele>15</ele>
        <time>2018-03-16T16:20:56Z</time>
      </trkpt>
      <trkpt lat="46.54548" lon="-1.68708">
        <ele>15</ele>
        <time>2018-03-16T16:21:56Z</time>
      </trkpt>
      <trkpt lat="46.54545" lon="-1.68729">
        <ele>15</ele>
        <time>2018-03-16T16:22:56Z</time>
      </trkpt>
      <trkpt lat="46.54538" lon="-1.68775">
        <ele>15</ele>
        <time>2018-03-16T16:23:56Z</time>
      </trkpt>
      <trkpt lat="46.54529" lon="-1.68829">
        <ele>14</ele>
        <time>2018-03-16T16:24:56Z</time>
      </trkpt>
      <trkpt lat="46.54523" lon="-1.68874">
        <ele>12</ele>
        <time>2018-03-16T16:25:56Z</time>
      </trkpt>
      <trkpt lat="46.54515" lon="-1.68923">
        <ele>11</ele>
        <time>2018-03-16T16:26:56Z</time>
      </trkpt>
      <trkpt lat="46.5451" lon="-1.68953">
        <ele>10</ele>
        <time>2018-03-16T16:27:56Z</time>
      </trkpt>
      <trkpt lat="46.54505" lon="-1.68987">
        <ele>10</ele>
        <time>2018-03-16T16:28:56Z</time>
      </trkpt>
      <trkpt lat="46.54497" lon="-1.69033">
        <ele>10</ele>
        <time>2018-03-16T16:29:56Z</time>
      </trkpt>
      <trkpt lat="46.54491" lon="-1.69062">
        <ele>11</ele>
        <time>2018-03-16T16:30:56Z</time>
      </trkpt>
      <trkpt lat="46.54482" lon="-1.69095">
        <ele>11</ele>
        <time>2018-03-16T16:31:56Z</time>
      </trkpt>
      <trkpt lat="46.54472" lon="-1.69129">
        <ele>12</ele>
        <time>2018-03-16T16:32:56Z</time>
      </trkpt>
      <trkpt lat="46.54463" lon="-1.69161">
        <ele>13</ele>
        <time>2018-03-16T16:33:56Z</time>
      </trkpt>
      <trkpt lat="46.54457" lon="-1.69181">
        <ele>13</ele>
        <time>2018-03-16T16:34:56Z</time>
      </trkpt>
      <trkpt lat="46.54448" lon="-1.69209">
        <ele>14</ele>
        <time>2018-03-16T16:35:56Z</time>
      </trkpt>
      <trkpt lat="46.54447" lon="-1.69213">
        <ele>14</ele>
        <time>2018-03-16T16:36:56Z</time>
      </trkpt>
      <trkpt lat="46.54437" lon="-1.69244">
        <ele>14</ele>
        <time>2018-03-16T16:37:56Z</time>
      </trkpt>
      <trkpt lat="46.54422" lon="-1.69293">
        <ele>14</ele>
        <time>2018-03-16T16:38:56Z</time>
      </trkpt>
      <trkpt lat="46.5441" lon="-1.69331">
        <ele>14</ele>
        <time>2018-03-16T16:39:56Z</time>
      </trkpt>
      <trkpt lat="46.54398" lon="-1.69357">
        <ele>14</ele>
        <time>2018-03-16T16:40:56Z</time>
      </trkpt>
      <trkpt lat="46.54385" lon="-1.69384">
        <ele>15</ele>
        <time>2018-03-16T16:41:56Z</time>
      </trkpt>
      <trkpt lat="46.54372" lon="-1.69406">
        <ele>16</ele>
        <time>2018-03-16T16:42:56Z</time>
      </trkpt>
      <trkpt lat="46.54357" lon="-1.69428">
        <ele>17</ele>
        <time>2018-03-16T16:43:56Z</time>
      </trkpt>
      <trkpt lat="46.54331" lon="-1.69463">
        <ele>20</ele>
        <time>2018-03-16T16:44:56Z</time>
      </trkpt>
      <trkpt lat="46.54231" lon="-1.69586">
        <ele>22</ele>
        <time>2018-03-16T16:45:56Z</time>
      </trkpt>
      <trkpt lat="46.54176" lon="-1.69658">
        <ele>23</ele>
        <time>2018-03-16T16:46:56Z</time>
      </trkpt>
      <trkpt lat="46.54118" lon="-1.69729">
        <ele>25</ele>
        <time>2018-03-16T16:47:56Z</time>
      </trkpt>
      <trkpt lat="46.54108" lon="-1.69743">
        <ele>25</ele>
        <time>2018-03-16T16:48:56Z</time>
      </trkpt>
      <trkpt lat="46.54086" lon="-1.69771">
        <ele>24</ele>
        <time>2018-03-16T16:49:56Z</time>
      </trkpt>
      <trkpt lat="46.54028" lon="-1.69843">
        <ele>24</ele>
        <time>2018-03-16T16:50:56Z</time>
      </trkpt>
      <trkpt lat="46.53978" lon="-1.69906">
        <ele>25</ele>
        <time>2018-03-16T16:51:56Z</time>
      </trkpt>
      <trkpt lat="46.53892" lon="-1.70015">
        <ele>27</ele>
        <time>2018-03-16T16:52:56Z</time>
      </trkpt>
      <trkpt lat="46.53888" lon="-1.7002">
        <ele>27</ele>
        <time>2018-03-16T16:53:56Z</time>
      </trkpt>
      <trkpt lat="46.5385" lon="-1.70063">
        <ele>28</ele>
        <time>2018-03-16T16:54:56Z</time>
      </trkpt>
      <trkpt lat="46.53791" lon="-1.70137">
        <ele>27</ele>
        <time>2018-03-16T16:55:56Z</time>
      </trkpt>
      <trkpt lat="46.53715" lon="-1.70232">
        <ele>27</ele>
        <time>2018-03-16T16:56:56Z</time>
      </trkpt>
      <trkpt lat="46.53625" lon="-1.70345">
        <ele>29</ele>
        <time>2018-03-16T16:57:56Z</time>
      </trkpt>
      <trkpt lat="46.53552" lon="-1.70438">
        <ele>32</ele>
        <time>2018-03-16T16:58:56Z</time>
      </trkpt>
      <trkpt lat="46.53504" lon="-1.70497">
        <ele>33</ele>
        <time>2018-03-16T16:59:56Z</time>
      </trkpt>
      <trkpt lat="46.53461" lon="-1.70556">
        <ele>34</ele>
        <time>2018-03-16T17:00:56Z</time>
      </trkpt>
      <trkpt lat="46.53457" lon="-1.70561">
        <ele>34</ele>
        <time>2018-03-16T17:01:56Z</time>
      </trkpt>
      <trkpt lat="46.53433" lon="-1.70598">
        <ele>35</ele>
        <time>2018-03-16T17:02:56Z</time>
      </trkpt>
      <trkpt lat="46.534" lon="-1.70657">
        <ele>35</ele>
        <time>2018-03-16T17:03:56Z</time>
      </trkpt>
      <trkpt lat="46.5337" lon="-1.70712">
        <ele>33</ele>
        <time>2018-03-16T17:04:56Z</time>
      </trkpt>
      <trkpt lat="46.53341" lon="-1.70766">
        <ele>33</ele>
        <time>2018-03-16T17:05:56Z</time>
      </trkpt>
      <trkpt lat="46.53317" lon="-1.70808">
        <ele>32</ele>
        <time>2018-03-16T17:06:56Z</time>
      </trkpt>
      <trkpt lat="46.53288" lon="-1.7086">
        <ele>32</ele>
        <time>2018-03-16T17:07:56Z</time>
      </trkpt>
      <trkpt lat="46.53267" lon="-1.70899">
        <ele>32</ele>
        <time>2018-03-16T17:08:56Z</time>
      </trkpt>
      <trkpt lat="46.53226" lon="-1.70974">
        <ele>32</ele>
        <time>2018-03-16T17:09:56Z</time>
      </trkpt>
      <trkpt lat="46.53186" lon="-1.71046">
        <ele>35</ele>
        <time>2018-03-16T17:10:56Z</time>
      </trkpt>
      <trkpt lat="46.53132" lon="-1.71143">
        <ele>37</ele>
        <time>2018-03-16T17:11:56Z</time>
      </trkpt>
      <trkpt lat="46.53081" lon="-1.71236">
        <ele>38</ele>
        <time>2018-03-16T17:12:56Z</time>
      </trkpt>
      <trkpt lat="46.53045" lon="-1.71303">
        <ele>40</ele>
        <time>2018-03-16T17:13:56Z</time>
      </trkpt>
      <trkpt lat="46.53001" lon="-1.71383">
        <ele>40</ele>
        <time>2018-03-16T17:14:56Z</time>
      </trkpt>
      <trkpt lat="46.52967" lon="-1.71444">
        <ele>40</ele>
        <time>2018-03-16T17:15:56Z</time>
      </trkpt>
      <trkpt lat="46.52922" lon="-1.71526">
        <ele>41</ele>
        <time>2018-03-16T17:16:56Z</time>
      </trkpt>
      <trkpt lat="46.52905" lon="-1.71558">
        <ele>42</ele>
        <time>2018-03-16T17:17:56Z</time>
      </trkpt>
      <trkpt lat="46.52885" lon="-1.716">
        <ele>42</ele>
        <time>2018-03-16T17:18:56Z</time>
      </trkpt>
      <trkpt lat="46.52881" lon="-1.71608">
        <ele>42</ele>
        <time>2018-03-16T17:19:56Z</time>
      </trkpt>
      <trkpt lat="46.52877" lon="-1.71622">
        <ele>42</ele>
        <time>2018-03-16T17:20:56Z</time>
      </trkpt>
      <trkpt lat="46.52873" lon="-1.71635">
        <ele>42</ele>
        <time>2018-03-16T17:21:56Z</time>
      </trkpt>
      <trkpt lat="46.52865" lon="-1.71665">
        <ele>41</ele>
        <time>2018-03-16T17:22:56Z</time>
      </trkpt>
      <trkpt lat="46.5286" lon="-1.71685">
        <ele>41</ele>
        <time>2018-03-16T17:23:56Z</time>
      </trkpt>
      <trkpt lat="46.52857" lon="-1.71708">
        <ele>41</ele>
        <time>2018-03-16T17:24:56Z</time>
      </trkpt>
      <trkpt lat="46.52845" lon="-1.71784">
        <ele>41</ele>
        <time>2018-03-16T17:25:56Z</time>
      </trkpt>
      <trkpt lat="46.52841" lon="-1.71812">
        <ele>41</ele>
        <time>2018-03-16T17:26:56Z</time>
      </trkpt>
      <trkpt lat="46.52836" lon="-1.71841">
        <ele>42</ele>
        <time>2018-03-16T17:27:56Z</time>
      </trkpt>
      <trkpt lat="46.52832" lon="-1.71866">
        <ele>42</ele>
        <time>2018-03-16T17:28:56Z</time>
      </trkpt>
      <trkpt lat="46.52826" lon="-1.71898">
        <ele>43</ele>
        <time>2018-03-16T17:29:56Z</time>
      </trkpt>
      <trkpt lat="46.52821" lon="-1.71929">
        <ele>42</ele>
        <time>2018-03-16T17:30:56Z</time>
      </trkpt>
      <trkpt lat="46.52812" lon="-1.71977">
        <ele>41</ele>
        <time>2018-03-16T17:31:56Z</time>
      </trkpt>
      <trkpt lat="46.52805" lon="-1.72008">
        <ele>40</ele>
        <time>2018-03-16T17:32:56Z</time>
      </trkpt>
      <trkpt lat="46.52797" lon="-1.72038">
        <ele>39</ele>
        <time>2018-03-16T17:33:56Z</time>
      </trkpt>
      <trkpt lat="46.52777" lon="-1.72093">
        <ele>38</ele>
        <time>2018-03-16T17:34:56Z</time>
      </trkpt>
      <trkpt lat="46.52768" lon="-1.72117">
        <ele>39</ele>
        <time>2018-03-16T17:35:56Z</time>
      </trkpt>
      <trkpt lat="46.52758" lon="-1.7214">
        <ele>39</ele>
        <time>2018-03-16T17:36:56Z</time>
      </trkpt>
      <trkpt lat="46.52735" lon="-1.72196">
        <ele>39</ele>
        <time>2018-03-16T17:37:56Z</time>
      </trkpt>
      <trkpt lat="46.52711" lon="-1.72252">
        <ele>39</ele>
        <time>2018-03-16T17:38:56Z</time>
      </trkpt>
      <trkpt lat="46.52694" lon="-1.72292">
        <ele>39</ele>
        <time>2018-03-16T17:39:56Z</time>
      </trkpt>
      <trkpt lat="46.52671" lon="-1.72354">
        <ele>39</ele>
        <time>2018-03-16T17:40:56Z</time>
      </trkpt>
      <trkpt lat="46.52655" lon="-1.72404">
        <ele>40</ele>
        <time>2018-03-16T17:41:56Z</time>
      </trkpt>
      <trkpt lat="46.52638" lon="-1.72483">
        <ele>40</ele>
        <time>2018-03-16T17:42:56Z</time>
      </trkpt>
      <trkpt lat="46.52626" lon="-1.72548">
        <ele>40</ele>
        <time>2018-03-16T17:43:56Z</time>
      </trkpt>
      <trkpt lat="46.52617" lon="-1.72596">
        <ele>40</ele>
        <time>2018-03-16T17:44:56Z</time>
      </trkpt>
      <trkpt lat="46.52598" lon="-1.72698">
        <ele>40</ele>
        <time>2018-03-16T17:45:56Z</time>
      </trkpt>
      <trkpt lat="46.52581" lon="-1.72791">
        <ele>39</ele>
        <time>2018-03-16T17:46:56Z</time>
      </trkpt>
      <trkpt lat="46.52577" lon="-1.72808">
        <ele>39</ele>
        <time>2018-03-16T17:47:56Z</time>
      </trkpt>
      <trkpt lat="46.52575" lon="-1.7282">
        <ele>39</ele>
        <time>2018-03-16T17:48:56Z</time>
      </trkpt>
      <trkpt lat="46.52559" lon="-1.72898">
        <ele>38</ele>
        <time>2018-03-16T17:49:56Z</time>
      </trkpt>
      <trkpt lat="46.52537" lon="-1.73011">
        <ele>37</ele>
        <time>2018-03-16T17:50:56Z</time>
      </trkpt>
      <trkpt lat="46.5252" lon="-1.73091">
        <ele>37</ele>
        <time>2018-03-16T17:51:56Z</time>
      </trkpt>
      <trkpt lat="46.52514" lon="-1.73122">
        <ele>37</ele>
        <time>2018-03-16T17:52:56Z</time>
      </trkpt>
      <trkpt lat="46.52505" lon="-1.73168">
        <ele>37</ele>
        <time>2018-03-16T17:53:56Z</time>
      </trkpt>
      <trkpt lat="46.52494" lon="-1.7323">
        <ele>37</ele>
        <time>2018-03-16T17:54:56Z</time>
      </trkpt>
      <trkpt lat="46.5249" lon="-1.73257">
        <ele>37</ele>
        <time>2018-03-16T17:55:56Z</time>
      </trkpt>
      <trkpt lat="46.52489" lon="-1.73263">
        <ele>37</ele>
        <time>2018-03-16T17:56:56Z</time>
      </trkpt>
      <trkpt lat="46.52488" lon="-1.73275">
        <ele>37</ele>
        <time>2018-03-16T17:57:56Z</time>
      </trkpt>
      <trkpt lat="46.52487" lon="-1.73308">
        <ele>37</ele>
        <time>2018-03-16T17:58:56Z</time>
      </trkpt>
      <trkpt lat="46.52487" lon="-1.73331">
        <ele>37</ele>
        <time>2018-03-16T17:59:56Z</time>
      </trkpt>
      <trkpt lat="46.52489" lon="-1.73394">
        <ele>36</ele>
        <time>2018-03-16T18:00:56Z</time>
      </trkpt>
      <trkpt lat="46.5249" lon="-1.73419">
        <ele>35</ele>
        <time>2018-03-16T18:01:56Z</time>
      </trkpt>
      <trkpt lat="46.52491" lon="-1.73454">
        <ele>35</ele>
        <time>2018-03-16T18:02:56Z</time>
      </trkpt>
      <trkpt lat="46.52492" lon="-1.73483">
        <ele>36</ele>
        <time>2018-03-16T18:03:56Z</time>
      </trkpt>
      <trkpt lat="46.52493" lon="-1.73523">
        <ele>36</ele>
        <time>2018-03-16T18:04:56Z</time>
      </trkpt>
      <trkpt lat="46.52495" lon="-1.73552">
        <ele>35</ele>
        <time>2018-03-16T18:05:56Z</time>
      </trkpt>
      <trkpt lat="46.52496" lon="-1.73571">
        <ele>35</ele>
        <time>2018-03-16T18:06:56Z</time>
      </trkpt>
      <trkpt lat="46.52499" lon="-1.73588">
        <ele>35</ele>
        <time>2018-03-16T18:07:56Z</time>
      </trkpt>
      <trkpt lat="46.52503" lon="-1.73607">
        <ele>35</ele>
        <time>2018-03-16T18:08:56Z</time>
      </trkpt>
      <trkpt lat="46.52503" lon="-1.73608">
        <ele>35</ele>
        <time>2018-03-16T18:09:56Z</time>
      </trkpt>
      <trkpt lat="46.52515" lon="-1.73638">
        <ele>34</ele>
        <time>2018-03-16T18:10:56Z</time>
      </trkpt>
      <trkpt lat="46.52516" lon="-1.73638">
        <ele>34</ele>
        <time>2018-03-16T18:11:56Z</time>
      </trkpt>
      <trkpt lat="46.52517" lon="-1.73638">
        <ele>34</ele>
        <time>2018-03-16T18:12:56Z</time>
      </trkpt>
      <trkpt lat="46.52518" lon="-1.73638">
        <ele>34</ele>
        <time>2018-03-16T18:13:56Z</time>
      </trkpt>
      <trkpt lat="46.52518" lon="-1.73639">
        <ele>34</ele>
        <time>2018-03-16T18:14:56Z</time>
      </trkpt>
      <trkpt lat="46.52519" lon="-1.73639">
        <ele>34</ele>
        <time>2018-03-16T18:15:56Z</time>
      </trkpt>
      <trkpt lat="46.5252" lon="-1.7364">
        <ele>34</ele>
        <time>2018-03-16T18:16:56Z</time>
      </trkpt>
      <trkpt lat="46.52521" lon="-1.73641">
        <ele>34</ele>
        <time>2018-03-16T18:17:56Z</time>
      </trkpt>
      <trkpt lat="46.52522" lon="-1.73642">
        <ele>34</ele>
        <time>2018-03-16T18:18:56Z</time>
      </trkpt>
      <trkpt lat="46.52522" lon="-1.73643">
        <ele>34</ele>
        <time>2018-03-16T18:19:56Z</time>
      </trkpt>
      <trkpt lat="46.52523" lon="-1.73644">
        <ele>34</ele>
        <time>2018-03-16T18:20:56Z</time>
      </trkpt>
      <trkpt lat="46.52523" lon="-1.73645">
        <ele>34</ele>
        <time>2018-03-16T18:21:56Z</time>
      </trkpt>
      <trkpt lat="46.52524" lon="-1.73646">
        <ele>34</ele>
        <time>2018-03-16T18:22:56Z</time>
      </trkpt>
      <trkpt lat="46.52524" lon="-1.73647">
        <ele>34</ele>
        <time>2018-03-16T18:23:56Z</time>
      </trkpt>
      <trkpt lat="46.52524" lon="-1.73648">
        <ele>34</ele>
        <time>2018-03-16T18:24:56Z</time>
      </trkpt>
      <trkpt lat="46.52524" lon="-1.73649">
        <ele>34</ele>
        <time>2018-03-16T18:25:56Z</time>
      </trkpt>
      <trkpt lat="46.52524" lon="-1.7365">
        <ele>34</ele>
        <time>2018-03-16T18:26:56Z</time>
      </trkpt>
      <trkpt lat="46.52525" lon="-1.73651">
        <ele>34</ele>
        <time>2018-03-16T18:27:56Z</time>
      </trkpt>
      <trkpt lat="46.52525" lon="-1.73652">
        <ele>34</ele>
        <time>2018-03-16T18:28:56Z</time>
      </trkpt>
      <trkpt lat="46.52525" lon="-1.73653">
        <ele>34</ele>
        <time>2018-03-16T18:29:56Z</time>
      </trkpt>
      <trkpt lat="46.52525" lon="-1.73654">
        <ele>34</ele>
        <time>2018-03-16T18:30:56Z</time>
      </trkpt>
      <trkpt lat="46.52524" lon="-1.73654">
        <ele>34</ele>
        <time>2018-03-16T18:31:56Z</time>
      </trkpt>
      <trkpt lat="46.52524" lon="-1.73655">
        <ele>34</ele>
        <time>2018-03-16T18:32:56Z</time>
      </trkpt>
      <trkpt lat="46.52524" lon="-1.73656">
        <ele>34</ele>
        <time>2018-03-16T18:33:56Z</time>
      </trkpt>
      <trkpt lat="46.52524" lon="-1.73657">
        <ele>34</ele>
        <time>2018-03-16T18:34:56Z</time>
      </trkpt>
      <trkpt lat="46.52524" lon="-1.73658">
        <ele>34</ele>
        <time>2018-03-16T18:35:56Z</time>
      </trkpt>
      <trkpt lat="46.52523" lon="-1.73659">
        <ele>34</ele>
        <time>2018-03-16T18:36:56Z</time>
      </trkpt>
      <trkpt lat="46.52523" lon="-1.7366">
        <ele>34</ele>
        <time>2018-03-16T18:37:56Z</time>
      </trkpt>
      <trkpt lat="46.52523" lon="-1.73661">
        <ele>34</ele>
        <time>2018-03-16T18:38:56Z</time>
      </trkpt>
      <trkpt lat="46.52522" lon="-1.73661">
        <ele>34</ele>
        <time>2018-03-16T18:39:56Z</time>
      </trkpt>
      <trkpt lat="46.52522" lon="-1.73662">
        <ele>34</ele>
        <time>2018-03-16T18:40:56Z</time>
      </trkpt>
      <trkpt lat="46.52522" lon="-1.73663">
        <ele>34</ele>
        <time>2018-03-16T18:41:56Z</time>
      </trkpt>
      <trkpt lat="46.52521" lon="-1.73663">
        <ele>34</ele>
        <time>2018-03-16T18:42:56Z</time>
      </trkpt>
      <trkpt lat="46.52521" lon="-1.73664">
        <ele>34</ele>
        <time>2018-03-16T18:43:56Z</time>
      </trkpt>
      <trkpt lat="46.5252" lon="-1.73664">
        <ele>34</ele>
        <time>2018-03-16T18:44:56Z</time>
      </trkpt>
      <trkpt lat="46.5252" lon="-1.73665">
        <ele>34</ele>
        <time>2018-03-16T18:45:56Z</time>
      </trkpt>
      <trkpt lat="46.5252" lon="-1.73688">
        <ele>33</ele>
        <time>2018-03-16T18:46:56Z</time>
      </trkpt>
      <trkpt lat="46.5252" lon="-1.73688">
        <ele>33</ele>
        <time>2018-03-16T18:47:56Z</time>
      </trkpt>
      <trkpt lat="46.52522" lon="-1.73696">
        <ele>33</ele>
        <time>2018-03-16T18:48:56Z</time>
      </trkpt>
      <trkpt lat="46.52523" lon="-1.73697">
        <ele>33</ele>
        <time>2018-03-16T18:49:56Z</time>
      </trkpt>
      <trkpt lat="46.52537" lon="-1.73746">
        <ele>32</ele>
        <time>2018-03-16T18:50:56Z</time>
      </trkpt>
      <trkpt lat="46.52541" lon="-1.73761">
        <ele>32</ele>
        <time>2018-03-16T18:51:56Z</time>
      </trkpt>
      <trkpt lat="46.52543" lon="-1.73767">
        <ele>32</ele>
        <time>2018-03-16T18:52:56Z</time>
      </trkpt>
      <trkpt lat="46.52545" lon="-1.73775">
        <ele>32</ele>
        <time>2018-03-16T18:53:56Z</time>
      </trkpt>
      <trkpt lat="46.52548" lon="-1.73784">
        <ele>31</ele>
        <time>2018-03-16T18:54:56Z</time>
      </trkpt>
      <trkpt lat="46.5255" lon="-1.73788">
        <ele>31</ele>
        <time>2018-03-16T18:55:56Z</time>
      </trkpt>
      <trkpt lat="46.52567" lon="-1.73843">
        <ele>31</ele>
        <time>2018-03-16T18:56:56Z</time>
      </trkpt>
      <trkpt lat="46.52574" lon="-1.73867">
        <ele>30</ele>
        <time>2018-03-16T18:57:56Z</time>
      </trkpt>
      <trkpt lat="46.52591" lon="-1.7394">
        <ele>30</ele>
        <time>2018-03-16T18:58:56Z</time>
      </trkpt>
      <trkpt lat="46.52601" lon="-1.73993">
        <ele>30</ele>
        <time>2018-03-16T18:59:56Z</time>
      </trkpt>
      <trkpt lat="46.52608" lon="-1.74038">
        <ele>31</ele>
        <time>2018-03-16T19:00:56Z</time>
      </trkpt>
      <trkpt lat="46.52619" lon="-1.74121">
        <ele>32</ele>
        <time>2018-03-16T19:01:56Z</time>
      </trkpt>
      <trkpt lat="46.5263" lon="-1.74203">
        <ele>33</ele>
        <time>2018-03-16T19:02:56Z</time>
      </trkpt>
      <trkpt lat="46.5263" lon="-1.74207">
        <ele>33</ele>
        <time>2018-03-16T19:03:56Z</time>
      </trkpt>
      <trkpt lat="46.52636" lon="-1.7426">
        <ele>34</ele>
        <time>2018-03-16T19:04:56Z</time>
      </trkpt>
      <trkpt lat="46.52638" lon="-1.74303">
        <ele>33</ele>
        <time>2018-03-16T19:05:56Z</time>
      </trkpt>
      <trkpt lat="46.52638" lon="-1.74314">
        <ele>33</ele>
        <time>2018-03-16T19:06:56Z</time>
      </trkpt>
      <trkpt lat="46.52637" lon="-1.74337">
        <ele>33</ele>
        <time>2018-03-16T19:07:56Z</time>
      </trkpt>
      <trkpt lat="46.52636" lon="-1.74343">
        <ele>33</ele>
        <time>2018-03-16T19:08:56Z</time>
      </trkpt>
      <trkpt lat="46.52639" lon="-1.74353">
        <ele>33</ele>
        <time>2018-03-16T19:09:56Z</time>
      </trkpt>
      <trkpt lat="46.52638" lon="-1.74403">
        <ele>34</ele>
        <time>2018-03-16T19:10:56Z</time>
      </trkpt>
      <trkpt lat="46.52638" lon="-1.74462">
        <ele>34</ele>
        <time>2018-03-16T19:11:56Z</time>
      </trkpt>
      <trkpt lat="46.52639" lon="-1.74496">
        <ele>34</ele>
        <time>2018-03-16T19:12:56Z</time>
      </trkpt>
      <trkpt lat="46.5264" lon="-1.74507">
        <ele>34</ele>
        <time>2018-03-16T19:13:56Z</time>
      </trkpt>
      <trkpt lat="46.52641" lon="-1.74528">
        <ele>34</ele>
        <time>2018-03-16T19:14:56Z</time>
      </trkpt>
      <trkpt lat="46.52642" lon="-1.74539">
        <ele>34</ele>
        <time>2018-03-16T19:15:56Z</time>
      </trkpt>
      <trkpt lat="46.52644" lon="-1.74562">
        <ele>34</ele>
        <time>2018-03-16T19:16:56Z</time>
      </trkpt>
      <trkpt lat="46.52644" lon="-1.74571">
        <ele>34</ele>
        <time>2018-03-16T19:17:56Z</time>
      </trkpt>
      <trkpt lat="46.52654" lon="-1.74622">
        <ele>35</ele>
        <time>2018-03-16T19:18:56Z</time>
      </trkpt>
      <trkpt lat="46.52682" lon="-1.74725">
        <ele>37</ele>
        <time>2018-03-16T19:19:56Z</time>
      </trkpt>
      <trkpt lat="46.52683" lon="-1.74728">
        <ele>37</ele>
        <time>2018-03-16T19:20:56Z</time>
      </trkpt>
      <trkpt lat="46.52697" lon="-1.7478">
        <ele>38</ele>
        <time>2018-03-16T19:21:56Z</time>
      </trkpt>
      <trkpt lat="46.52709" lon="-1.7483">
        <ele>39</ele>
        <time>2018-03-16T19:22:56Z</time>
      </trkpt>
      <trkpt lat="46.52712" lon="-1.74844">
        <ele>39</ele>
        <time>2018-03-16T19:23:56Z</time>
      </trkpt>
      <trkpt lat="46.52714" lon="-1.74851">
        <ele>39</ele>
        <time>2018-03-16T19:24:56Z</time>
      </trkpt>
      <trkpt lat="46.52715" lon="-1.74858">
        <ele>39</ele>
        <time>2018-03-16T19:25:56Z</time>
      </trkpt>
      <trkpt lat="46.5272" lon="-1.7487">
        <ele>39</ele>
        <time>2018-03-16T19:26:56Z</time>
      </trkpt>
      <trkpt lat="46.52726" lon="-1.74907">
        <ele>39</ele>
        <time>2018-03-16T19:27:56Z</time>
      </trkpt>
      <trkpt lat="46.5273" lon="-1.74934">
        <ele>39</ele>
        <time>2018-03-16T19:28:56Z</time>
      </trkpt>
      <trkpt lat="46.52731" lon="-1.74945">
        <ele>39</ele>
        <time>2018-03-16T19:29:56Z</time>
      </trkpt>
      <trkpt lat="46.52735" lon="-1.7499">
        <ele>39</ele>
        <time>2018-03-16T19:30:56Z</time>
      </trkpt>
      <trkpt lat="46.52734" lon="-1.74999">
        <ele>38</ele>
        <time>2018-03-16T19:31:56Z</time>
      </trkpt>
      <trkpt lat="46.52738" lon="-1.75034">
        <ele>39</ele>
        <time>2018-03-16T19:32:56Z</time>
      </trkpt>
      <trkpt lat="46.5274" lon="-1.7505">
        <ele>39</ele>
        <time>2018-03-16T19:33:56Z</time>
      </trkpt>
      <trkpt lat="46.52746" lon="-1.75078">
        <ele>39</ele>
        <time>2018-03-16T19:34:56Z</time>
      </trkpt>
      <trkpt lat="46.52748" lon="-1.75088">
        <ele>39</ele>
        <time>2018-03-16T19:35:56Z</time>
      </trkpt>
      <trkpt lat="46.52754" lon="-1.75102">
        <ele>39</ele>
        <time>2018-03-16T19:36:56Z</time>
      </trkpt>
      <trkpt lat="46.5276" lon="-1.75116">
        <ele>39</ele>
        <time>2018-03-16T19:37:56Z</time>
      </trkpt>
      <trkpt lat="46.5276" lon="-1.75117">
        <ele>39</ele>
        <time>2018-03-16T19:38:56Z</time>
      </trkpt>
      <trkpt lat="46.52761" lon="-1.75117">
        <ele>39</ele>
        <time>2018-03-16T19:39:56Z</time>
      </trkpt>
      <trkpt lat="46.52762" lon="-1.75118">
        <ele>39</ele>
        <time>2018-03-16T19:40:56Z</time>
      </trkpt>
      <trkpt lat="46.52763" lon="-1.75119">
        <ele>39</ele>
        <time>2018-03-16T19:41:56Z</time>
      </trkpt>
      <trkpt lat="46.52763" lon="-1.7512">
        <ele>39</ele>
        <time>2018-03-16T19:42:56Z</time>
      </trkpt>
      <trkpt lat="46.52764" lon="-1.7512">
        <ele>39</ele>
        <time>2018-03-16T19:43:56Z</time>
      </trkpt>
      <trkpt lat="46.52764" lon="-1.75121">
        <ele>39</ele>
        <time>2018-03-16T19:44:56Z</time>
      </trkpt>
      <trkpt lat="46.52764" lon="-1.75122">
        <ele>39</ele>
        <time>2018-03-16T19:45:56Z</time>
      </trkpt>
      <trkpt lat="46.52765" lon="-1.75122">
        <ele>39</ele>
        <time>2018-03-16T19:46:56Z</time>
      </trkpt>
      <trkpt lat="46.52765" lon="-1.75123">
        <ele>39</ele>
        <time>2018-03-16T19:47:56Z</time>
      </trkpt>
      <trkpt lat="46.52765" lon="-1.75124">
        <ele>39</ele>
        <time>2018-03-16T19:48:56Z</time>
      </trkpt>
      <trkpt lat="46.52765" lon="-1.75125">
        <ele>39</ele>
        <time>2018-03-16T19:49:56Z</time>
      </trkpt>
      <trkpt lat="46.52765" lon="-1.75126">
        <ele>39</ele>
        <time>2018-03-16T19:50:56Z</time>
      </trkpt>
      <trkpt lat="46.52765" lon="-1.75127">
        <ele>39</ele>
        <time>2018-03-16T19:51:56Z</time>
      </trkpt>
      <trkpt lat="46.52765" lon="-1.75128">
        <ele>39</ele>
        <time>2018-03-16T19:52:56Z</time>
      </trkpt>
      <trkpt lat="46.52765" lon="-1.75129">
        <ele>39</ele>
        <time>2018-03-16T19:53:56Z</time>
      </trkpt>
      <trkpt lat="46.52765" lon="-1.7513">
        <ele>39</ele>
        <time>2018-03-16T19:54:56Z</time>
      </trkpt>
      <trkpt lat="46.52765" lon="-1.75131">
        <ele>39</ele>
        <time>2018-03-16T19:55:56Z</time>
      </trkpt>
      <trkpt lat="46.52764" lon="-1.75131">
        <ele>39</ele>
        <time>2018-03-16T19:56:56Z</time>
      </trkpt>
      <trkpt lat="46.52764" lon="-1.75132">
        <ele>39</ele>
        <time>2018-03-16T19:57:56Z</time>
      </trkpt>
      <trkpt lat="46.52764" lon="-1.75133">
        <ele>39</ele>
        <time>2018-03-16T19:58:56Z</time>
      </trkpt>
      <trkpt lat="46.52763" lon="-1.75134">
        <ele>39</ele>
        <time>2018-03-16T19:59:56Z</time>
      </trkpt>
      <trkpt lat="46.52765" lon="-1.7515">
        <ele>39</ele>
        <time>2018-03-16T20:00:56Z</time>
      </trkpt>
      <trkpt lat="46.52766" lon="-1.75161">
        <ele>39</ele>
        <time>2018-03-16T20:01:56Z</time>
      </trkpt>
      <trkpt lat="46.52766" lon="-1.75162">
        <ele>39</ele>
        <time>2018-03-16T20:02:56Z</time>
      </trkpt>
      <trkpt lat="46.52773" lon="-1.75181">
        <ele>39</ele>
        <time>2018-03-16T20:03:56Z</time>
      </trkpt>
      <trkpt lat="46.52782" lon="-1.752">
        <ele>38</ele>
        <time>2018-03-16T20:04:56Z</time>
      </trkpt>
      <trkpt lat="46.5279" lon="-1.75212">
        <ele>39</ele>
        <time>2018-03-16T20:05:56Z</time>
      </trkpt>
      <trkpt lat="46.52801" lon="-1.75226">
        <ele>39</ele>
        <time>2018-03-16T20:06:56Z</time>
      </trkpt>
      <trkpt lat="46.5281" lon="-1.75238">
        <ele>39</ele>
        <time>2018-03-16T20:07:56Z</time>
      </trkpt>
      <trkpt lat="46.52811" lon="-1.7524">
        <ele>39</ele>
        <time>2018-03-16T20:08:56Z</time>
      </trkpt>
      <trkpt lat="46.52815" lon="-1.75251">
        <ele>39</ele>
        <time>2018-03-16T20:09:56Z</time>
      </trkpt>
      <trkpt lat="46.52817" lon="-1.7526">
        <ele>39</ele>
        <time>2018-03-16T20:10:56Z</time>
      </trkpt>
      <trkpt lat="46.5282" lon="-1.75276">
        <ele>38</ele>
        <time>2018-03-16T20:11:56Z</time>
      </trkpt>
      <trkpt lat="46.52824" lon="-1.75286">
        <ele>38</ele>
        <time>2018-03-16T20:12:56Z</time>
      </trkpt>
      <trkpt lat="46.52824" lon="-1.75286">
        <ele>38</ele>
        <time>2018-03-16T20:13:56Z</time>
      </trkpt>
      <trkpt lat="46.52825" lon="-1.75287">
        <ele>38</ele>
        <time>2018-03-16T20:14:56Z</time>
      </trkpt>
      <trkpt lat="46.52827" lon="-1.75289">
        <ele>38</ele>
        <time>2018-03-16T20:15:56Z</time>
      </trkpt>
      <trkpt lat="46.52829" lon="-1.75291">
        <ele>38</ele>
        <time>2018-03-16T20:16:56Z</time>
      </trkpt>
      <trkpt lat="46.52831" lon="-1.75293">
        <ele>38</ele>
        <time>2018-03-16T20:17:56Z</time>
      </trkpt>
      <trkpt lat="46.52832" lon="-1.75295">
        <ele>38</ele>
        <time>2018-03-16T20:18:56Z</time>
      </trkpt>
      <trkpt lat="46.52834" lon="-1.75298">
        <ele>38</ele>
        <time>2018-03-16T20:19:56Z</time>
      </trkpt>
      <trkpt lat="46.52835" lon="-1.753">
        <ele>38</ele>
        <time>2018-03-16T20:20:56Z</time>
      </trkpt>
      <trkpt lat="46.52836" lon="-1.75303">
        <ele>38</ele>
        <time>2018-03-16T20:21:56Z</time>
      </trkpt>
      <trkpt lat="46.52837" lon="-1.75305">
        <ele>38</ele>
        <time>2018-03-16T20:22:56Z</time>
      </trkpt>
      <trkpt lat="46.52837" lon="-1.75308">
        <ele>38</ele>
        <time>2018-03-16T20:23:56Z</time>
      </trkpt>
      <trkpt lat="46.52838" lon="-1.7531">
        <ele>38</ele>
        <time>2018-03-16T20:24:56Z</time>
      </trkpt>
      <trkpt lat="46.52838" lon="-1.75313">
        <ele>38</ele>
        <time>2018-03-16T20:25:56Z</time>
      </trkpt>
      <trkpt lat="46.52838" lon="-1.75315">
        <ele>38</ele>
        <time>2018-03-16T20:26:56Z</time>
      </trkpt>
      <trkpt lat="46.52839" lon="-1.75318">
        <ele>37</ele>
        <time>2018-03-16T20:27:56Z</time>
      </trkpt>
      <trkpt lat="46.52839" lon="-1.7532">
        <ele>37</ele>
        <time>2018-03-16T20:28:56Z</time>
      </trkpt>
      <trkpt lat="46.52839" lon="-1.75323">
        <ele>37</ele>
        <time>2018-03-16T20:29:56Z</time>
      </trkpt>
      <trkpt lat="46.52839" lon="-1.75325">
        <ele>37</ele>
        <time>2018-03-16T20:30:56Z</time>
      </trkpt>
      <trkpt lat="46.52838" lon="-1.75328">
        <ele>37</ele>
        <time>2018-03-16T20:31:56Z</time>
      </trkpt>
      <trkpt lat="46.52838" lon="-1.7533">
        <ele>37</ele>
        <time>2018-03-16T20:32:56Z</time>
      </trkpt>
      <trkpt lat="46.52837" lon="-1.75333">
        <ele>37</ele>
        <time>2018-03-16T20:33:56Z</time>
      </trkpt>
      <trkpt lat="46.52837" lon="-1.75335">
        <ele>37</ele>
        <time>2018-03-16T20:34:56Z</time>
      </trkpt>
      <trkpt lat="46.52836" lon="-1.75337">
        <ele>37</ele>
        <time>2018-03-16T20:35:56Z</time>
      </trkpt>
      <trkpt lat="46.52835" lon="-1.7534">
        <ele>37</ele>
        <time>2018-03-16T20:36:56Z</time>
      </trkpt>
      <trkpt lat="46.52834" lon="-1.75342">
        <ele>37</ele>
        <time>2018-03-16T20:37:56Z</time>
      </trkpt>
      <trkpt lat="46.52842" lon="-1.75372">
        <ele>37</ele>
        <time>2018-03-16T20:38:56Z</time>
      </trkpt>
      <trkpt lat="46.52845" lon="-1.75378">
        <ele>37</ele>
        <time>2018-03-16T20:39:56Z</time>
      </trkpt>
      <trkpt lat="46.52851" lon="-1.75392">
        <ele>37</ele>
        <time>2018-03-16T20:40:56Z</time>
      </trkpt>
      <trkpt lat="46.52856" lon="-1.75405">
        <ele>37</ele>
        <time>2018-03-16T20:41:56Z</time>
      </trkpt>
      <trkpt lat="46.52858" lon="-1.75414">
        <ele>37</ele>
        <time>2018-03-16T20:42:56Z</time>
      </trkpt>
      <trkpt lat="46.52866" lon="-1.75433">
        <ele>36</ele>
        <time>2018-03-16T20:43:56Z</time>
      </trkpt>
      <trkpt lat="46.5287" lon="-1.75443">
        <ele>36</ele>
        <time>2018-03-16T20:44:56Z</time>
      </trkpt>
      <trkpt lat="46.52882" lon="-1.75471">
        <ele>35</ele>
        <time>2018-03-16T20:45:56Z</time>
      </trkpt>
      <trkpt lat="46.52886" lon="-1.75478">
        <ele>35</ele>
        <time>2018-03-16T20:46:56Z</time>
      </trkpt>
      <trkpt lat="46.52894" lon="-1.75495">
        <ele>35</ele>
        <time>2018-03-16T20:47:56Z</time>
      </trkpt>
      <trkpt lat="46.52902" lon="-1.75513">
        <ele>35</ele>
        <time>2018-03-16T20:48:56Z</time>
      </trkpt>
      <trkpt lat="46.52903" lon="-1.75516">
        <ele>35</ele>
        <time>2018-03-16T20:49:56Z</time>
      </trkpt>
      <trkpt lat="46.52916" lon="-1.75543">
        <ele>35</ele>
        <time>2018-03-16T20:50:56Z</time>
      </trkpt>
      <trkpt lat="46.52918" lon="-1.75548">
        <ele>35</ele>
        <time>2018-03-16T20:51:56Z</time>
      </trkpt>
      <trkpt lat="46.5295" lon="-1.75604">
        <ele>34</ele>
        <time>2018-03-16T20:52:56Z</time>
      </trkpt>
      <trkpt lat="46.52965" lon="-1.75628">
        <ele>33</ele>
        <time>2018-03-16T20:53:56Z</time>
      </trkpt>
      <trkpt lat="46.52977" lon="-1.75649">
        <ele>33</ele>
        <time>2018-03-16T20:54:56Z</time>
      </trkpt>
      <trkpt lat="46.52991" lon="-1.75673">
        <ele>32</ele>
        <time>2018-03-16T20:55:56Z</time>
      </trkpt>
      <trkpt lat="46.52994" lon="-1.75678">
        <ele>32</ele>
        <time>2018-03-16T20:56:56Z</time>
      </trkpt>
      <trkpt lat="46.53006" lon="-1.75697">
        <ele>32</ele>
        <time>2018-03-16T20:57:56Z</time>
      </trkpt>
      <trkpt lat="46.53011" lon="-1.75703">
        <ele>32</ele>
        <time>2018-03-16T20:58:56Z</time>
      </trkpt>
      <trkpt lat="46.53018" lon="-1.75712">
        <ele>32</ele>
        <time>2018-03-16T20:59:56Z</time>
      </trkpt>
      <trkpt lat="46.53021" lon="-1.75717">
        <ele>32</ele>
        <time>2018-03-16T21:00:56Z</time>
      </trkpt>
      <trkpt lat="46.53024" lon="-1.7572">
        <ele>32</ele>
        <time>2018-03-16T21:01:56Z</time>
      </trkpt>
      <trkpt lat="46.53032" lon="-1.75729">
        <ele>32</ele>
        <time>2018-03-16T21:02:56Z</time>
      </trkpt>
      <trkpt lat="46.5304" lon="-1.75736">
        <ele>32</ele>
        <time>2018-03-16T21:03:56Z</time>
      </trkpt>
      <trkpt lat="46.53046" lon="-1.75741">
        <ele>32</ele>
        <time>2018-03-16T21:04:56Z</time>
      </trkpt>
      <trkpt lat="46.53058" lon="-1.75751">
        <ele>32</ele>
        <time>2018-03-16T21:05:56Z</time>
      </trkpt>
      <trkpt lat="46.53061" lon="-1.75753">
        <ele>32</ele>
        <time>2018-03-16T21:06:56Z</time>
      </trkpt>
      <trkpt lat="46.53065" lon="-1.75756">
        <ele>32</ele>
        <time>2018-03-16T21:07:56Z</time>
      </trkpt>
      <trkpt lat="46.53079" lon="-1.75766">
        <ele>31</ele>
        <time>2018-03-16T21:08:56Z</time>
      </trkpt>
      <trkpt lat="46.53103" lon="-1.75785">
        <ele>31</ele>
        <time>2018-03-16T21:09:56Z</time>
      </trkpt>
      <trkpt lat="46.53109" lon="-1.75789">
        <ele>30</ele>
        <time>2018-03-16T21:10:56Z</time>
      </trkpt>
      <trkpt lat="46.53128" lon="-1.75806">
        <ele>30</ele>
        <time>2018-03-16T21:11:56Z</time>
      </trkpt>
      <trkpt lat="46.53144" lon="-1.7582">
        <ele>29</ele>
        <time>2018-03-16T21:12:56Z</time>
      </trkpt>
      <trkpt lat="46.53166" lon="-1.75842">
        <ele>29</ele>
        <time>2018-03-16T21:13:56Z</time>
      </trkpt>
      <trkpt lat="46.53172" lon="-1.75848">
        <ele>29</ele>
        <time>2018-03-16T21:14:56Z</time>
      </trkpt>
      <trkpt lat="46.53181" lon="-1.75856">
        <ele>29</ele>
        <time>2018-03-16T21:15:56Z</time>
      </trkpt>
      <trkpt lat="46.53188" lon="-1.75862">
        <ele>29</ele>
        <time>2018-03-16T21:16:56Z</time>
      </trkpt>
      <trkpt lat="46.53198" lon="-1.75871">
        <ele>30</ele>
        <time>2018-03-16T21:17:56Z</time>
      </trkpt>
      <trkpt lat="46.53214" lon="-1.75884">
        <ele>30</ele>
        <time>2018-03-16T21:18:56Z</time>
      </trkpt>
      <trkpt lat="46.53229" lon="-1.75898">
        <ele>30</ele>
        <time>2018-03-16T21:19:56Z</time>
      </trkpt>
      <trkpt lat="46.53246" lon="-1.75914">
        <ele>30</ele>
        <time>2018-03-16T21:20:56Z</time>
      </trkpt>
      <trkpt lat="46.53257" lon="-1.75925">
        <ele>30</ele>
        <time>2018-03-16T21:21:56Z</time>
      </trkpt>
      <trkpt lat="46.53266" lon="-1.75937">
        <ele>29</ele>
        <time>2018-03-16T21:22:56Z</time>
      </trkpt>
      <trkpt lat="46.53275" lon="-1.75952">
        <ele>29</ele>
        <time>2018-03-16T21:23:56Z</time>
      </trkpt>
      <trkpt lat="46.53284" lon="-1.75968">
        <ele>29</ele>
        <time>2018-03-16T21:24:56Z</time>
      </trkpt>
      <trkpt lat="46.53314" lon="-1.76022">
        <ele>28</ele>
        <time>2018-03-16T21:25:56Z</time>
      </trkpt>
      <trkpt lat="46.53319" lon="-1.76031">
        <ele>28</ele>
        <time>2018-03-16T21:26:56Z</time>
      </trkpt>
      <trkpt lat="46.53327" lon="-1.76047">
        <ele>28</ele>
        <time>2018-03-16T21:27:56Z</time>
      </trkpt>
      <trkpt lat="46.53334" lon="-1.76061">
        <ele>28</ele>
        <time>2018-03-16T21:28:56Z</time>
      </trkpt>
      <trkpt lat="46.53343" lon="-1.76076">
        <ele>28</ele>
        <time>2018-03-16T21:29:56Z</time>
      </trkpt>
      <trkpt lat="46.53349" lon="-1.76089">
        <ele>28</ele>
        <time>2018-03-16T21:30:56Z</time>
      </trkpt>
      <trkpt lat="46.53356" lon="-1.76101">
        <ele>29</ele>
        <time>2018-03-16T21:31:56Z</time>
      </trkpt>
      <trkpt lat="46.53366" lon="-1.76119">
        <ele>29</ele>
        <time>2018-03-16T21:32:56Z</time>
      </trkpt>
      <trkpt lat="46.53376" lon="-1.76136">
        <ele>29</ele>
        <time>2018-03-16T21:33:56Z</time>
      </trkpt>
      <trkpt lat="46.5338" lon="-1.76142">
        <ele>29</ele>
        <time>2018-03-16T21:34:56Z</time>
      </trkpt>
      <trkpt lat="46.53386" lon="-1.76152">
        <ele>29</ele>
        <time>2018-03-16T21:35:56Z</time>
      </trkpt>
      <trkpt lat="46.53394" lon="-1.76159">
        <ele>29</ele>
        <time>2018-03-16T21:36:56Z</time>
      </trkpt>
      <trkpt lat="46.53402" lon="-1.76171">
        <ele>30</ele>
        <time>2018-03-16T21:37:56Z</time>
      </trkpt>
      <trkpt lat="46.5341" lon="-1.76183">
        <ele>30</ele>
        <time>2018-03-16T21:38:56Z</time>
      </trkpt>
      <trkpt lat="46.53413" lon="-1.76188">
        <ele>30</ele>
        <time>2018-03-16T21:39:56Z</time>
      </trkpt>
      <trkpt lat="46.53418" lon="-1.76195">
        <ele>30</ele>
        <time>2018-03-16T21:40:56Z</time>
      </trkpt>
      <trkpt lat="46.53423" lon="-1.76203">
        <ele>30</ele>
        <time>2018-03-16T21:41:56Z</time>
      </trkpt>
      <trkpt lat="46.53428" lon="-1.76211">
        <ele>30</ele>
        <time>2018-03-16T21:42:56Z</time>
      </trkpt>
      <trkpt lat="46.5343" lon="-1.76214">
        <ele>30</ele>
        <time>2018-03-16T21:43:56Z</time>
      </trkpt>
      <trkpt lat="46.53433" lon="-1.7622">
        <ele>30</ele>
        <time>2018-03-16T21:44:56Z</time>
      </trkpt>
      <trkpt lat="46.53436" lon="-1.76229">
        <ele>29</ele>
        <time>2018-03-16T21:45:56Z</time>
      </trkpt>
      <trkpt lat="46.5344" lon="-1.7624">
        <ele>29</ele>
        <time>2018-03-16T21:46:56Z</time>
      </trkpt>
      <trkpt lat="46.53442" lon="-1.76249">
        <ele>29</ele>
        <time>2018-03-16T21:47:56Z</time>
      </trkpt>
      <trkpt lat="46.53444" lon="-1.76259">
        <ele>29</ele>
        <time>2018-03-16T21:48:56Z</time>
      </trkpt>
      <trkpt lat="46.53446" lon="-1.76268">
        <ele>29</ele>
        <time>2018-03-16T21:49:56Z</time>
      </trkpt>
      <trkpt lat="46.53449" lon="-1.7628">
        <ele>29</ele>
        <time>2018-03-16T21:50:56Z</time>
      </trkpt>
      <trkpt lat="46.53451" lon="-1.76294">
        <ele>29</ele>
        <time>2018-03-16T21:51:56Z</time>
      </trkpt>
      <trkpt lat="46.53453" lon="-1.76309">
        <ele>29</ele>
        <time>2018-03-16T21:52:56Z</time>
      </trkpt>
      <trkpt lat="46.53454" lon="-1.76317">
        <ele>29</ele>
        <time>2018-03-16T21:53:56Z</time>
      </trkpt>
      <trkpt lat="46.53455" lon="-1.76321">
        <ele>29</ele>
        <time>2018-03-16T21:54:56Z</time>
      </trkpt>
      <trkpt lat="46.53455" lon="-1.76322">
        <ele>29</ele>
        <time>2018-03-16T21:55:56Z</time>
      </trkpt>
      <trkpt lat="46.53456" lon="-1.76338">
        <ele>29</ele>
        <time>2018-03-16T21:56:56Z</time>
      </trkpt>
      <trkpt lat="46.53458" lon="-1.76352">
        <ele>29</ele>
        <time>2018-03-16T21:57:56Z</time>
      </trkpt>
      <trkpt lat="46.53459" lon="-1.76377">
        <ele>30</ele>
        <time>2018-03-16T21:58:56Z</time>
      </trkpt>
      <trkpt lat="46.53459" lon="-1.76393">
        <ele>30</ele>
        <time>2018-03-16T21:59:56Z</time>
      </trkpt>
      <trkpt lat="46.53458" lon="-1.76406">
        <ele>29</ele>
        <time>2018-03-16T22:00:56Z</time>
      </trkpt>
      <trkpt lat="46.53458" lon="-1.7641">
        <ele>29</ele>
        <time>2018-03-16T22:01:56Z</time>
      </trkpt>
      <trkpt lat="46.53459" lon="-1.76421">
        <ele>29</ele>
        <time>2018-03-16T22:02:56Z</time>
      </trkpt>
      <trkpt lat="46.5346" lon="-1.76439">
        <ele>29</ele>
        <time>2018-03-16T22:03:56Z</time>
      </trkpt>
      <trkpt lat="46.53463" lon="-1.76466">
        <ele>29</ele>
        <time>2018-03-16T22:04:56Z</time>
      </trkpt>
      <trkpt lat="46.53466" lon="-1.76483">
        <ele>29</ele>
        <time>2018-03-16T22:05:56Z</time>
      </trkpt>
      <trkpt lat="46.5347" lon="-1.76505">
        <ele>29</ele>
        <time>2018-03-16T22:06:56Z</time>
      </trkpt>
      <trkpt lat="46.53472" lon="-1.76517">
        <ele>29</ele>
        <time>2018-03-16T22:07:56Z</time>
      </trkpt>
      <trkpt lat="46.53478" lon="-1.76544">
        <ele>28</ele>
        <time>2018-03-16T22:08:56Z</time>
      </trkpt>
      <trkpt lat="46.53483" lon="-1.76562">
        <ele>28</ele>
        <time>2018-03-16T22:09:56Z</time>
      </trkpt>
      <trkpt lat="46.53498" lon="-1.76604">
        <ele>28</ele>
        <time>2018-03-16T22:10:56Z</time>
      </trkpt>
      <trkpt lat="46.53515" lon="-1.76666">
        <ele>29</ele>
        <time>2018-03-16T22:11:56Z</time>
      </trkpt>
      <trkpt lat="46.53518" lon="-1.76675">
        <ele>29</ele>
        <time>2018-03-16T22:12:56Z</time>
      </trkpt>
      <trkpt lat="46.5352" lon="-1.76684">
        <ele>29</ele>
        <time>2018-03-16T22:13:56Z</time>
      </trkpt>
      <trkpt lat="46.53523" lon="-1.76697">
        <ele>29</ele>
        <time>2018-03-16T22:14:56Z</time>
      </trkpt>
      <trkpt lat="46.53526" lon="-1.7671">
        <ele>29</ele>
        <time>2018-03-16T22:15:56Z</time>
      </trkpt>
      <trkpt lat="46.53529" lon="-1.76723">
        <ele>28</ele>
        <time>2018-03-16T22:16:56Z</time>
      </trkpt>
      <trkpt lat="46.5353" lon="-1.76727">
        <ele>28</ele>
        <time>2018-03-16T22:17:56Z</time>
      </trkpt>
      <trkpt lat="46.53533" lon="-1.76743">
        <ele>28</ele>
        <time>2018-03-16T22:18:56Z</time>
      </trkpt>
      <trkpt lat="46.53536" lon="-1.76759">
        <ele>28</ele>
        <time>2018-03-16T22:19:56Z</time>
      </trkpt>
      <trkpt lat="46.53542" lon="-1.76794">
        <ele>28</ele>
        <time>2018-03-16T22:20:56Z</time>
      </trkpt>
      <trkpt lat="46.53545" lon="-1.76819">
        <ele>28</ele>
        <time>2018-03-16T22:21:56Z</time>
      </trkpt>
      <trkpt lat="46.53548" lon="-1.76831">
        <ele>29</ele>
        <time>2018-03-16T22:22:56Z</time>
      </trkpt>
      <trkpt lat="46.53548" lon="-1.76837">
        <ele>29</ele>
        <time>2018-03-16T22:23:56Z</time>
      </trkpt>
      <trkpt lat="46.53549" lon="-1.76844">
        <ele>29</ele>
        <time>2018-03-16T22:24:56Z</time>
      </trkpt>
      <trkpt lat="46.53553" lon="-1.76869">
        <ele>28</ele>
        <time>2018-03-16T22:25:56Z</time>
      </trkpt>
      <trkpt lat="46.5356" lon="-1.76924">
        <ele>28</ele>
        <time>2018-03-16T22:26:56Z</time>
      </trkpt>
      <trkpt lat="46.5357" lon="-1.76977">
        <ele>28</ele>
        <time>2018-03-16T22:27:56Z</time>
      </trkpt>
      <trkpt lat="46.53577" lon="-1.77008">
        <ele>29</ele>
        <time>2018-03-16T22:28:56Z</time>
      </trkpt>
      <trkpt lat="46.53578" lon="-1.77014">
        <ele>29</ele>
        <time>2018-03-16T22:29:56Z</time>
      </trkpt>
      <trkpt lat="46.53615" lon="-1.77172">
        <ele>28</ele>
        <time>2018-03-16T22:30:56Z</time>
      </trkpt>
      <trkpt lat="46.53618" lon="-1.77185">
        <ele>28</ele>
        <time>2018-03-16T22:31:56Z</time>
      </trkpt>
      <trkpt lat="46.53625" lon="-1.77216">
        <ele>29</ele>
        <time>2018-03-16T22:32:56Z</time>
      </trkpt>
      <trkpt lat="46.53633" lon="-1.77243">
        <ele>29</ele>
        <time>2018-03-16T22:33:56Z</time>
      </trkpt>
      <trkpt lat="46.53639" lon="-1.77265">
        <ele>28</ele>
        <time>2018-03-16T22:34:56Z</time>
      </trkpt>
      <trkpt lat="46.53643" lon="-1.77288">
        <ele>28</ele>
        <time>2018-03-16T22:35:56Z</time>
      </trkpt>
      <trkpt lat="46.53645" lon="-1.77294">
        <ele>28</ele>
        <time>2018-03-16T22:36:56Z</time>
      </trkpt>
      <trkpt lat="46.53647" lon="-1.77302">
        <ele>28</ele>
        <time>2018-03-16T22:37:56Z</time>
      </trkpt>
      <trkpt lat="46.5365" lon="-1.77308">
        <ele>28</ele>
        <time>2018-03-16T22:38:56Z</time>
      </trkpt>
      <trkpt lat="46.53653" lon="-1.77313">
        <ele>28</ele>
        <time>2018-03-16T22:39:56Z</time>
      </trkpt>
      <trkpt lat="46.53656" lon="-1.77318">
        <ele>28</ele>
        <time>2018-03-16T22:40:56Z</time>
      </trkpt>
      <trkpt lat="46.53658" lon="-1.77322">
        <ele>28</ele>
        <time>2018-03-16T22:41:56Z</time>
      </trkpt>
      <trkpt lat="46.53672" lon="-1.7735">
        <ele>28</ele>
        <time>2018-03-16T22:42:56Z</time>
      </trkpt>
      <trkpt lat="46.5369" lon="-1.77377">
        <ele>27</ele>
        <time>2018-03-16T22:43:56Z</time>
      </trkpt>
      <trkpt lat="46.53692" lon="-1.77381">
        <ele>27</ele>
        <time>2018-03-16T22:44:56Z</time>
      </trkpt>
      <trkpt lat="46.53696" lon="-1.77388">
        <ele>27</ele>
        <time>2018-03-16T22:45:56Z</time>
      </trkpt>
      <trkpt lat="46.537" lon="-1.77397">
        <ele>27</ele>
        <time>2018-03-16T22:46:56Z</time>
      </trkpt>
      <trkpt lat="46.53702" lon="-1.77403">
        <ele>27</ele>
        <time>2018-03-16T22:47:56Z</time>
      </trkpt>
      <trkpt lat="46.53705" lon="-1.77414">
        <ele>27</ele>
        <time>2018-03-16T22:48:56Z</time>
      </trkpt>
      <trkpt lat="46.53712" lon="-1.77438">
        <ele>26</ele>
        <time>2018-03-16T22:49:56Z</time>
      </trkpt>
      <trkpt lat="46.53717" lon="-1.77459">
        <ele>26</ele>
        <time>2018-03-16T22:50:56Z</time>
      </trkpt>
      <trkpt lat="46.53723" lon="-1.77481">
        <ele>25</ele>
        <time>2018-03-16T22:51:56Z</time>
      </trkpt>
      <trkpt lat="46.53726" lon="-1.77497">
        <ele>25</ele>
        <time>2018-03-16T22:52:56Z</time>
      </trkpt>
      <trkpt lat="46.53729" lon="-1.77515">
        <ele>25</ele>
        <time>2018-03-16T22:53:56Z</time>
      </trkpt>
      <trkpt lat="46.53732" lon="-1.77535">
        <ele>24</ele>
        <time>2018-03-16T22:54:56Z</time>
      </trkpt>
      <trkpt lat="46.53736" lon="-1.77573">
        <ele>23</ele>
        <time>2018-03-16T22:55:56Z</time>
      </trkpt>
      <trkpt lat="46.53747" lon="-1.77641">
        <ele>22</ele>
        <time>2018-03-16T22:56:56Z</time>
      </trkpt>
      <trkpt lat="46.53758" lon="-1.77702">
        <ele>21</ele>
        <time>2018-03-16T22:57:56Z</time>
      </trkpt>
      <trkpt lat="46.53761" lon="-1.77721">
        <ele>21</ele>
        <time>2018-03-16T22:58:56Z</time>
      </trkpt>
      <trkpt lat="46.53764" lon="-1.77743">
        <ele>20</ele>
        <time>2018-03-16T22:59:56Z</time>
      </trkpt>
      <trkpt lat="46.53769" lon="-1.77784">
        <ele>19</ele>
        <time>2018-03-16T23:00:56Z</time>
      </trkpt>
      <trkpt lat="46.53774" lon="-1.77831">
        <ele>17</ele>
        <time>2018-03-16T23:01:56Z</time>
      </trkpt>
      <trkpt lat="46.53776" lon="-1.77854">
        <ele>17</ele>
        <time>2018-03-16T23:02:56Z</time>
      </trkpt>
      <trkpt lat="46.53776" lon="-1.77871">
        <ele>16</ele>
        <time>2018-03-16T23:03:56Z</time>
      </trkpt>
      <trkpt lat="46.53776" lon="-1.77887">
        <ele>16</ele>
        <time>2018-03-16T23:04:56Z</time>
      </trkpt>
      <trkpt lat="46.53775" lon="-1.77902">
        <ele>16</ele>
        <time>2018-03-16T23:05:56Z</time>
      </trkpt>
      <trkpt lat="46.53773" lon="-1.77914">
        <ele>15</ele>
        <time>2018-03-16T23:06:56Z</time>
      </trkpt>
      <trkpt lat="46.53767" lon="-1.77947">
        <ele>15</ele>
        <time>2018-03-16T23:07:56Z</time>
      </trkpt>
      <trkpt lat="46.53759" lon="-1.77984">
        <ele>14</ele>
        <time>2018-03-16T23:08:56Z</time>
      </trkpt>
      <trkpt lat="46.53758" lon="-1.78003">
        <ele>13</ele>
        <time>2018-03-16T23:09:56Z</time>
      </trkpt>
      <trkpt lat="46.53757" lon="-1.78014">
        <ele>13</ele>
        <time>2018-03-16T23:10:56Z</time>
      </trkpt>
      <trkpt lat="46.53757" lon="-1.78024">
        <ele>13</ele>
        <time>2018-03-16T23:11:56Z</time>
      </trkpt>
      <trkpt lat="46.53758" lon="-1.78034">
        <ele>13</ele>
        <time>2018-03-16T23:12:56Z</time>
      </trkpt>
      <trkpt lat="46.5376" lon="-1.78046">
        <ele>13</ele>
        <time>2018-03-16T23:13:56Z</time>
      </trkpt>
      <trkpt lat="46.53765" lon="-1.78073">
        <ele>13</ele>
        <time>2018-03-16T23:14:56Z</time>
      </trkpt>
      <trkpt lat="46.5377" lon="-1.78096">
        <ele>13</ele>
        <time>2018-03-16T23:15:56Z</time>
      </trkpt>
      <trkpt lat="46.53776" lon="-1.78117">
        <ele>13</ele>
        <time>2018-03-16T23:16:56Z</time>
      </trkpt>
      <trkpt lat="46.53778" lon="-1.78124">
        <ele>13</ele>
        <time>2018-03-16T23:17:56Z</time>
      </trkpt>
      <trkpt lat="46.53779" lon="-1.78126">
        <ele>13</ele>
        <time>2018-03-16T23:18:56Z</time>
      </trkpt>
      <trkpt lat="46.53787" lon="-1.78143">
        <ele>13</ele>
        <time>2018-03-16T23:19:56Z</time>
      </trkpt>
      <trkpt lat="46.53788" lon="-1.78143">
        <ele>13</ele>
        <time>2018-03-16T23:20:56Z</time>
      </trkpt>
      <trkpt lat="46.53789" lon="-1.78144">
        <ele>13</ele>
        <time>2018-03-16T23:21:56Z</time>
      </trkpt>
      <trkpt lat="46.5379" lon="-1.78144">
        <ele>13</ele>
        <time>2018-03-16T23:22:56Z</time>
      </trkpt>
      <trkpt lat="46.53791" lon="-1.78144">
        <ele>13</ele>
        <time>2018-03-16T23:23:56Z</time>
      </trkpt>
      <trkpt lat="46.53791" lon="-1.78145">
        <ele>13</ele>
        <time>2018-03-16T23:24:56Z</time>
      </trkpt>
      <trkpt lat="46.53792" lon="-1.78145">
        <ele>13</ele>
        <time>2018-03-16T23:25:56Z</time>
      </trkpt>
      <trkpt lat="46.53793" lon="-1.78146">
        <ele>13</ele>
        <time>2018-03-16T23:26:56Z</time>
      </trkpt>
      <trkpt lat="46.53794" lon="-1.78147">
        <ele>13</ele>
        <time>2018-03-16T23:27:56Z</time>
      </trkpt>
      <trkpt lat="46.53795" lon="-1.78148">
        <ele>13</ele>
        <time>2018-03-16T23:28:56Z</time>
      </trkpt>
      <trkpt lat="46.53795" lon="-1.78149">
        <ele>13</ele>
        <time>2018-03-16T23:29:56Z</time>
      </trkpt>
      <trkpt lat="46.53795" lon="-1.7815">
        <ele>13</ele>
        <time>2018-03-16T23:30:56Z</time>
      </trkpt>
      <trkpt lat="46.53796" lon="-1.7815">
        <ele>13</ele>
        <time>2018-03-16T23:31:56Z</time>
      </trkpt>
      <trkpt lat="46.53796" lon="-1.78151">
        <ele>13</ele>
        <time>2018-03-16T23:32:56Z</time>
      </trkpt>
      <trkpt lat="46.53796" lon="-1.78152">
        <ele>13</ele>
        <time>2018-03-16T23:33:56Z</time>
      </trkpt>
      <trkpt lat="46.53797" lon="-1.78153">
        <ele>13</ele>
        <time>2018-03-16T23:34:56Z</time>
      </trkpt>
      <trkpt lat="46.53797" lon="-1.78154">
        <ele>13</ele>
        <time>2018-03-16T23:35:56Z</time>
      </trkpt>
      <trkpt lat="46.53797" lon="-1.78155">
        <ele>13</ele>
        <time>2018-03-16T23:36:56Z</time>
      </trkpt>
      <trkpt lat="46.53797" lon="-1.78156">
        <ele>13</ele>
        <time>2018-03-16T23:37:56Z</time>
      </trkpt>
      <trkpt lat="46.53797" lon="-1.78157">
        <ele>13</ele>
        <time>2018-03-16T23:38:56Z</time>
      </trkpt>
      <trkpt lat="46.53797" lon="-1.78158">
        <ele>12</ele>
        <time>2018-03-16T23:39:56Z</time>
      </trkpt>
      <trkpt lat="46.53797" lon="-1.78159">
        <ele>12</ele>
        <time>2018-03-16T23:40:56Z</time>
      </trkpt>
      <trkpt lat="46.53797" lon="-1.7816">
        <ele>12</ele>
        <time>2018-03-16T23:41:56Z</time>
      </trkpt>
      <trkpt lat="46.53797" lon="-1.78161">
        <ele>12</ele>
        <time>2018-03-16T23:42:56Z</time>
      </trkpt>
      <trkpt lat="46.53797" lon="-1.78162">
        <ele>12</ele>
        <time>2018-03-16T23:43:56Z</time>
      </trkpt>
      <trkpt lat="46.53797" lon="-1.78163">
        <ele>12</ele>
        <time>2018-03-16T23:44:56Z</time>
      </trkpt>
      <trkpt lat="46.53797" lon="-1.78164">
        <ele>12</ele>
        <time>2018-03-16T23:45:56Z</time>
      </trkpt>
      <trkpt lat="46.53796" lon="-1.78164">
        <ele>12</ele>
        <time>2018-03-16T23:46:56Z</time>
      </trkpt>
      <trkpt lat="46.53796" lon="-1.78165">
        <ele>12</ele>
        <time>2018-03-16T23:47:56Z</time>
      </trkpt>
      <trkpt lat="46.53796" lon="-1.78166">
        <ele>12</ele>
        <time>2018-03-16T23:48:56Z</time>
      </trkpt>
      <trkpt lat="46.53796" lon="-1.78167">
        <ele>12</ele>
        <time>2018-03-16T23:49:56Z</time>
      </trkpt>
      <trkpt lat="46.53795" lon="-1.78168">
        <ele>12</ele>
        <time>2018-03-16T23:50:56Z</time>
      </trkpt>
      <trkpt lat="46.53795" lon="-1.78169">
        <ele>12</ele>
        <time>2018-03-16T23:51:56Z</time>
      </trkpt>
      <trkpt lat="46.53794" lon="-1.78169">
        <ele>12</ele>
        <time>2018-03-16T23:52:56Z</time>
      </trkpt>
      <trkpt lat="46.53802" lon="-1.78198">
        <ele>12</ele>
        <time>2018-03-16T23:53:56Z</time>
      </trkpt>
      <trkpt lat="46.5381" lon="-1.7822">
        <ele>12</ele>
        <time>2018-03-16T23:54:56Z</time>
      </trkpt>
      <trkpt lat="46.53819" lon="-1.78241">
        <ele>12</ele>
        <time>2018-03-16T23:55:56Z</time>
      </trkpt>
      <trkpt lat="46.53827" lon="-1.78255">
        <ele>12</ele>
        <time>2018-03-16T23:56:56Z</time>
      </trkpt>
      <trkpt lat="46.53846" lon="-1.78284">
        <ele>12</ele>
        <time>2018-03-16T23:57:56Z</time>
      </trkpt>
      <trkpt lat="46.53849" lon="-1.78289">
        <ele>12</ele>
        <time>2018-03-16T23:58:56Z</time>
      </trkpt>
      <trkpt lat="46.53851" lon="-1.78296">
        <ele>12</ele>
        <time>2018-03-16T23:59:56Z</time>
      </trkpt>
      <trkpt lat="46.53852" lon="-1.783">
        <ele>12</ele>
        <time>2018-03-17T00:00:56Z</time>
      </trkpt>
      <trkpt lat="46.53854" lon="-1.78304">
        <ele>12</ele>
        <time>2018-03-17T00:01:56Z</time>
      </trkpt>
      <trkpt lat="46.53855" lon="-1.78314">
        <ele>12</ele>
        <time>2018-03-17T00:02:56Z</time>
      </trkpt>
      <trkpt lat="46.53858" lon="-1.78331">
        <ele>12</ele>
        <time>2018-03-17T00:03:56Z</time>
      </trkpt>
      <trkpt lat="46.5386" lon="-1.78345">
        <ele>12</ele>
        <time>2018-03-17T00:04:56Z</time>
      </trkpt>
      <trkpt lat="46.53867" lon="-1.78371">
        <ele>11</ele>
        <time>2018-03-17T00:05:56Z</time>
      </trkpt>
      <trkpt lat="46.53879" lon="-1.78416">
        <ele>10</ele>
        <time>2018-03-17T00:06:56Z</time>
      </trkpt>
      <trkpt lat="46.53888" lon="-1.78448">
        <ele>9</ele>
        <time>2018-03-17T00:07:56Z</time>
      </trkpt>
      <trkpt lat="46.53892" lon="-1.78467">
        <ele>9</ele>
        <time>2018-03-17T00:08:56Z</time>
      </trkpt>
      <trkpt lat="46.53895" lon="-1.78485">
        <ele>9</ele>
        <time>2018-03-17T00:09:56Z</time>
      </trkpt>
      <trkpt lat="46.539" lon="-1.78511">
        <ele>9</ele>
        <time>2018-03-17T00:10:56Z</time>
      </trkpt>
      <trkpt lat="46.53902" lon="-1.78529">
        <ele>9</ele>
        <time>2018-03-17T00:11:56Z</time>
      </trkpt>
      <trkpt lat="46.53904" lon="-1.78556">
        <ele>9</ele>
        <time>2018-03-17T00:12:56Z</time>
      </trkpt>
      <trkpt lat="46.53905" lon="-1.78585">
        <ele>9</ele>
        <time>2018-03-17T00:13:56Z</time>
      </trkpt>
      <trkpt lat="46.53907" lon="-1.78648">
        <ele>9</ele>
        <time>2018-03-17T00:14:56Z</time>
      </trkpt>
      <trkpt lat="46.53907" lon="-1.78695">
        <ele>10</ele>
        <time>2018-03-17T00:15:56Z</time>
      </trkpt>
      <trkpt lat="46.53908" lon="-1.78723">
        <ele>10</ele>
        <time>2018-03-17T00:16:56Z</time>
      </trkpt>
      <trkpt lat="46.53909" lon="-1.78758">
        <ele>11</ele>
        <time>2018-03-17T00:17:56Z</time>
      </trkpt>
      <trkpt lat="46.53912" lon="-1.78799">
        <ele>10</ele>
        <time>2018-03-17T00:18:56Z</time>
      </trkpt>
      <trkpt lat="46.53913" lon="-1.78813">
        <ele>9</ele>
        <time>2018-03-17T00:19:56Z</time>
      </trkpt>
      <trkpt lat="46.53916" lon="-1.78841">
        <ele>9</ele>
        <time>2018-03-17T00:20:56Z</time>
      </trkpt>
      <trkpt lat="46.53918" lon="-1.78859">
        <ele>9</ele>
        <time>2018-03-17T00:21:56Z</time>
      </trkpt>
      <trkpt lat="46.5392" lon="-1.78873">
        <ele>9</ele>
        <time>2018-03-17T00:22:56Z</time>
      </trkpt>
      <trkpt lat="46.53922" lon="-1.78893">
        <ele>9</ele>
        <time>2018-03-17T00:23:56Z</time>
      </trkpt>
      <trkpt lat="46.53923" lon="-1.78902">
        <ele>9</ele>
        <time>2018-03-17T00:24:56Z</time>
      </trkpt>
      <trkpt lat="46.53923" lon="-1.78913">
        <ele>9</ele>
        <time>2018-03-17T00:25:56Z</time>
      </trkpt>
      <trkpt lat="46.53924" lon="-1.78934">
        <ele>9</ele>
        <time>2018-03-17T00:26:56Z</time>
      </trkpt>
      <trkpt lat="46.53926" lon="-1.78959">
        <ele>9</ele>
        <time>2018-03-17T00:27:56Z</time>
      </trkpt>
      <trkpt lat="46.53927" lon="-1.78988">
        <ele>9</ele>
        <time>2018-03-17T00:28:56Z</time>
      </trkpt>
      <trkpt lat="46.53928" lon="-1.79022">
        <ele>9</ele>
        <time>2018-03-17T00:29:56Z</time>
      </trkpt>
      <trkpt lat="46.53929" lon="-1.79068">
        <ele>9</ele>
        <time>2018-03-17T00:30:56Z</time>
      </trkpt>
      <trkpt lat="46.53931" lon="-1.79111">
        <ele>8</ele>
        <time>2018-03-17T00:31:56Z</time>
      </trkpt>
      <trkpt lat="46.53932" lon="-1.79156">
        <ele>8</ele>
        <time>2018-03-17T00:32:56Z</time>
      </trkpt>
      <trkpt lat="46.53933" lon="-1.79181">
        <ele>8</ele>
        <time>2018-03-17T00:33:56Z</time>
      </trkpt>
      <trkpt lat="46.53934" lon="-1.79199">
        <ele>8</ele>
        <time>2018-03-17T00:34:56Z</time>
      </trkpt>
      <trkpt lat="46.53934" lon="-1.79212">
        <ele>8</ele>
        <time>2018-03-17T00:35:56Z</time>
      </trkpt>
      <trkpt lat="46.53936" lon="-1.79226">
        <ele>8</ele>
        <time>2018-03-17T00:36:56Z</time>
      </trkpt>
      <trkpt lat="46.53938" lon="-1.79239">
        <ele>7</ele>
        <time>2018-03-17T00:37:56Z</time>
      </trkpt>
      <trkpt lat="46.5394" lon="-1.79247">
        <ele>7</ele>
        <time>2018-03-17T00:38:56Z</time>
      </trkpt>
      <trkpt lat="46.53941" lon="-1.79251">
        <ele>7</ele>
        <time>2018-03-17T00:39:56Z</time>
      </trkpt>
      <trkpt lat="46.53942" lon="-1.79255">
        <ele>7</ele>
        <time>2018-03-17T00:40:56Z</time>
      </trkpt>
      <trkpt lat="46.53956" lon="-1.79306">
        <ele>7</ele>
        <time>2018-03-17T00:41:56Z</time>
      </trkpt>
      <trkpt lat="46.53978" lon="-1.7938">
        <ele>7</ele>
        <time>2018-03-17T00:42:56Z</time>
      </trkpt>
      <trkpt lat="46.53987" lon="-1.79412">
        <ele>7</ele>
        <time>2018-03-17T00:43:56Z</time>
      </trkpt>
      <trkpt lat="46.53996" lon="-1.79445">
        <ele>7</ele>
        <time>2018-03-17T00:44:56Z</time>
      </trkpt>
      <trkpt lat="46.54003" lon="-1.79466">
        <ele>6</ele>
        <time>2018-03-17T00:45:56Z</time>
      </trkpt>
      <trkpt lat="46.54009" lon="-1.79481">
        <ele>6</ele>
        <time>2018-03-17T00:46:56Z</time>
      </trkpt>
      <trkpt lat="46.5401" lon="-1.79485">
        <ele>6</ele>
        <time>2018-03-17T00:47:56Z</time>
      </trkpt>
      <trkpt lat="46.54028" lon="-1.79512">
        <ele>6</ele>
        <time>2018-03-17T00:48:56Z</time>
      </trkpt>
      <trkpt lat="46.54028" lon="-1.79512">
        <ele>6</ele>
        <time>2018-03-17T00:49:56Z</time>
      </trkpt>
      <trkpt lat="46.54029" lon="-1.79512">
        <ele>6</ele>
        <time>2018-03-17T00:50:56Z</time>
      </trkpt>
      <trkpt lat="46.54029" lon="-1.79513">
        <ele>6</ele>
        <time>2018-03-17T00:51:56Z</time>
      </trkpt>
      <trkpt lat="46.5403" lon="-1.79513">
        <ele>6</ele>
        <time>2018-03-17T00:52:56Z</time>
      </trkpt>
      <trkpt lat="46.5403" lon="-1.79514">
        <ele>6</ele>
        <time>2018-03-17T00:53:56Z</time>
      </trkpt>
      <trkpt lat="46.54031" lon="-1.79514">
        <ele>6</ele>
        <time>2018-03-17T00:54:56Z</time>
      </trkpt>
      <trkpt lat="46.54031" lon="-1.79515">
        <ele>6</ele>
        <time>2018-03-17T00:55:56Z</time>
      </trkpt>
      <trkpt lat="46.54031" lon="-1.79516">
        <ele>6</ele>
        <time>2018-03-17T00:56:56Z</time>
      </trkpt>
      <trkpt lat="46.54032" lon="-1.79516">
        <ele>6</ele>
        <time>2018-03-17T00:57:56Z</time>
      </trkpt>
      <trkpt lat="46.54032" lon="-1.79517">
        <ele>6</ele>
        <time>2018-03-17T00:58:56Z</time>
      </trkpt>
      <trkpt lat="46.54032" lon="-1.79518">
        <ele>6</ele>
        <time>2018-03-17T00:59:56Z</time>
      </trkpt>
      <trkpt lat="46.54033" lon="-1.79518">
        <ele>6</ele>
        <time>2018-03-17T01:00:56Z</time>
      </trkpt>
      <trkpt lat="46.54033" lon="-1.79519">
        <ele>6</ele>
        <time>2018-03-17T01:01:56Z</time>
      </trkpt>
      <trkpt lat="46.54033" lon="-1.7952">
        <ele>6</ele>
        <time>2018-03-17T01:02:56Z</time>
      </trkpt>
      <trkpt lat="46.54033" lon="-1.79521">
        <ele>6</ele>
        <time>2018-03-17T01:03:56Z</time>
      </trkpt>
      <trkpt lat="46.54033" lon="-1.79522">
        <ele>6</ele>
        <time>2018-03-17T01:04:56Z</time>
      </trkpt>
      <trkpt lat="46.5405" lon="-1.79537">
        <ele>5</ele>
        <time>2018-03-17T01:05:56Z</time>
      </trkpt>
      <trkpt lat="46.5406" lon="-1.79545">
        <ele>5</ele>
        <time>2018-03-17T01:06:56Z</time>
      </trkpt>
      <trkpt lat="46.54067" lon="-1.79548">
        <ele>5</ele>
        <time>2018-03-17T01:07:56Z</time>
      </trkpt>
      <trkpt lat="46.54077" lon="-1.79553">
        <ele>5</ele>
        <time>2018-03-17T01:08:56Z</time>
      </trkpt>
      <trkpt lat="46.54088" lon="-1.79559">
        <ele>5</ele>
        <time>2018-03-17T01:09:56Z</time>
      </trkpt>
      <trkpt lat="46.54103" lon="-1.79569">
        <ele>5</ele>
        <time>2018-03-17T01:10:56Z</time>
      </trkpt>
      <trkpt lat="46.54118" lon="-1.7958">
        <ele>5</ele>
        <time>2018-03-17T01:11:56Z</time>
      </trkpt>
      <trkpt lat="46.54131" lon="-1.79591">
        <ele>5</ele>
        <time>2018-03-17T01:12:56Z</time>
      </trkpt>
      <trkpt lat="46.5414" lon="-1.796">
        <ele>5</ele>
        <time>2018-03-17T01:13:56Z</time>
      </trkpt>
      <trkpt lat="46.54153" lon="-1.79613">
        <ele>5</ele>
        <time>2018-03-17T01:14:56Z</time>
      </trkpt>
      <trkpt lat="46.54163" lon="-1.79625">
        <ele>5</ele>
        <time>2018-03-17T01:15:56Z</time>
      </trkpt>
      <trkpt lat="46.54167" lon="-1.79631">
        <ele>5</ele>
        <time>2018-03-17T01:16:56Z</time>
      </trkpt>
      <trkpt lat="46.5417" lon="-1.79637">
        <ele>5</ele>
        <time>2018-03-17T01:17:56Z</time>
      </trkpt>
      <trkpt lat="46.54175" lon="-1.79644">
        <ele>5</ele>
        <time>2018-03-17T01:18:56Z</time>
      </trkpt>
      <trkpt lat="46.54179" lon="-1.79653">
        <ele>5</ele>
        <time>2018-03-17T01:19:56Z</time>
      </trkpt>
      <trkpt lat="46.54183" lon="-1.79661">
        <ele>5</ele>
        <time>2018-03-17T01:20:56Z</time>
      </trkpt>
      <trkpt lat="46.54191" lon="-1.79677">
        <ele>5</ele>
        <time>2018-03-17T01:21:56Z</time>
      </trkpt>
      <trkpt lat="46.54196" lon="-1.79692">
        <ele>5</ele>
        <time>2018-03-17T01:22:56Z</time>
      </trkpt>
      <trkpt lat="46.54203" lon="-1.79708">
        <ele>5</ele>
        <time>2018-03-17T01:23:56Z</time>
      </trkpt>
      <trkpt lat="46.5421" lon="-1.79728">
        <ele>5</ele>
        <time>2018-03-17T01:24:56Z</time>
      </trkpt>
      <trkpt lat="46.54212" lon="-1.79734">
        <ele>5</ele>
        <time>2018-03-17T01:25:56Z</time>
      </trkpt>
      <trkpt lat="46.54216" lon="-1.79744">
        <ele>5</ele>
        <time>2018-03-17T01:26:56Z</time>
      </trkpt>
      <trkpt lat="46.54223" lon="-1.79765">
        <ele>5</ele>
        <time>2018-03-17T01:27:56Z</time>
      </trkpt>
      <trkpt lat="46.54225" lon="-1.79771">
        <ele>5</ele>
        <time>2018-03-17T01:28:56Z</time>
      </trkpt>
      <trkpt lat="46.54228" lon="-1.79778">
        <ele>5</ele>
        <time>2018-03-17T01:29:56Z</time>
      </trkpt>
      <trkpt lat="46.54242" lon="-1.79812">
        <ele>6</ele>
        <time>2018-03-17T01:30:56Z</time>
      </trkpt>
      <trkpt lat="46.54252" lon="-1.79839">
        <ele>6</ele>
        <time>2018-03-17T01:31:56Z</time>
      </trkpt>
      <trkpt lat="46.54261" lon="-1.79862">
        <ele>6</ele>
        <time>2018-03-17T01:32:56Z</time>
      </trkpt>
      <trkpt lat="46.54264" lon="-1.7987">
        <ele>6</ele>
        <time>2018-03-17T01:33:56Z</time>
      </trkpt>
      <trkpt lat="46.54267" lon="-1.79878">
        <ele>6</ele>
        <time>2018-03-17T01:34:56Z</time>
      </trkpt>
      <trkpt lat="46.54272" lon="-1.79892">
        <ele>6</ele>
        <time>2018-03-17T01:35:56Z</time>
      </trkpt>
      <trkpt lat="46.54277" lon="-1.79907">
        <ele>6</ele>
        <time>2018-03-17T01:36:56Z</time>
      </trkpt>
      <trkpt lat="46.54281" lon="-1.79923">
        <ele>6</ele>
        <time>2018-03-17T01:37:56Z</time>
      </trkpt>
      <trkpt lat="46.54286" lon="-1.79938">
        <ele>5</ele>
        <time>2018-03-17T01:38:56Z</time>
      </trkpt>
      <trkpt lat="46.5429" lon="-1.79955">
        <ele>5</ele>
        <time>2018-03-17T01:39:56Z</time>
      </trkpt>
      <trkpt lat="46.54295" lon="-1.79973">
        <ele>5</ele>
        <time>2018-03-17T01:40:56Z</time>
      </trkpt>
      <trkpt lat="46.54299" lon="-1.79989">
        <ele>5</ele>
        <time>2018-03-17T01:41:56Z</time>
      </trkpt>
      <trkpt lat="46.54302" lon="-1.80001">
        <ele>5</ele>
        <time>2018-03-17T01:42:56Z</time>
      </trkpt>
      <trkpt lat="46.54306" lon="-1.80014">
        <ele>5</ele>
        <time>2018-03-17T01:43:56Z</time>
      </trkpt>
      <trkpt lat="46.5431" lon="-1.80025">
        <ele>4</ele>
        <time>2018-03-17T01:44:56Z</time>
      </trkpt>
      <trkpt lat="46.54313" lon="-1.80034">
        <ele>4</ele>
        <time>2018-03-17T01:45:56Z</time>
      </trkpt>
      <trkpt lat="46.54317" lon="-1.80043">
        <ele>4</ele>
        <time>2018-03-17T01:46:56Z</time>
      </trkpt>
      <trkpt lat="46.54321" lon="-1.80053">
        <ele>4</ele>
        <time>2018-03-17T01:47:56Z</time>
      </trkpt>
      <trkpt lat="46.54324" lon="-1.8006">
        <ele>4</ele>
        <time>2018-03-17T01:48:56Z</time>
      </trkpt>
      <trkpt lat="46.54328" lon="-1.80066">
        <ele>4</ele>
        <time>2018-03-17T01:49:56Z</time>
      </trkpt>
      <trkpt lat="46.54331" lon="-1.80071">
        <ele>4</ele>
        <time>2018-03-17T01:50:56Z</time>
      </trkpt>
      <trkpt lat="46.54344" lon="-1.80092">
        <ele>4</ele>
        <time>2018-03-17T01:51:56Z</time>
      </trkpt>
      <trkpt lat="46.54352" lon="-1.80105">
        <ele>4</ele>
        <time>2018-03-17T01:52:56Z</time>
      </trkpt>
      <trkpt lat="46.54356" lon="-1.80111">
        <ele>4</ele>
        <time>2018-03-17T01:53:56Z</time>
      </trkpt>
      <trkpt lat="46.54366" lon="-1.80125">
        <ele>4</ele>
        <time>2018-03-17T01:54:56Z</time>
      </trkpt>
      <trkpt lat="46.54374" lon="-1.80139">
        <ele>4</ele>
        <time>2018-03-17T01:55:56Z</time>
      </trkpt>
      <trkpt lat="46.54384" lon="-1.80153">
        <ele>4</ele>
        <time>2018-03-17T01:56:56Z</time>
      </trkpt>
      <trkpt lat="46.54391" lon="-1.80164">
        <ele>4</ele>
        <time>2018-03-17T01:57:56Z</time>
      </trkpt>
      <trkpt lat="46.54392" lon="-1.80166">
        <ele>4</ele>
        <time>2018-03-17T01:58:56Z</time>
      </trkpt>
      <trkpt lat="46.544" lon="-1.80178">
        <ele>4</ele>
        <time>2018-03-17T01:59:56Z</time>
      </trkpt>
      <trkpt lat="46.54407" lon="-1.80188">
        <ele>4</ele>
        <time>2018-03-17T02:00:56Z</time>
      </trkpt>
      <trkpt lat="46.54425" lon="-1.80218">
        <ele>5</ele>
        <time>2018-03-17T02:01:56Z</time>
      </trkpt>
      <trkpt lat="46.54436" lon="-1.80236">
        <ele>5</ele>
        <time>2018-03-17T02:02:56Z</time>
      </trkpt>
      <trkpt lat="46.54441" lon="-1.80246">
        <ele>5</ele>
        <time>2018-03-17T02:03:56Z</time>
      </trkpt>
      <trkpt lat="46.54443" lon="-1.80248">
        <ele>5</ele>
        <time>2018-03-17T02:04:56Z</time>
      </trkpt>
      <trkpt lat="46.54451" lon="-1.80257">
        <ele>5</ele>
        <time>2018-03-17T02:05:56Z</time>
      </trkpt>
      <trkpt lat="46.54454" lon="-1.80261">
        <ele>5</ele>
        <time>2018-03-17T02:06:56Z</time>
      </trkpt>
      <trkpt lat="46.54459" lon="-1.80264">
        <ele>5</ele>
        <time>2018-03-17T02:07:56Z</time>
      </trkpt>
      <trkpt lat="46.54468" lon="-1.80269">
        <ele>6</ele>
        <time>2018-03-17T02:08:56Z</time>
      </trkpt>
      <trkpt lat="46.54469" lon="-1.8027">
        <ele>6</ele>
        <time>2018-03-17T02:09:56Z</time>
      </trkpt>
      <trkpt lat="46.5447" lon="-1.8027">
        <ele>6</ele>
        <time>2018-03-17T02:10:56Z</time>
      </trkpt>
      <trkpt lat="46.54471" lon="-1.80271">
        <ele>6</ele>
        <time>2018-03-17T02:11:56Z</time>
      </trkpt>
      <trkpt lat="46.54472" lon="-1.80271">
        <ele>6</ele>
        <time>2018-03-17T02:12:56Z</time>
      </trkpt>
      <trkpt lat="46.54473" lon="-1.80272">
        <ele>6</ele>
        <time>2018-03-17T02:13:56Z</time>
      </trkpt>
      <trkpt lat="46.54474" lon="-1.80272">
        <ele>6</ele>
        <time>2018-03-17T02:14:56Z</time>
      </trkpt>
      <trkpt lat="46.54475" lon="-1.80273">
        <ele>6</ele>
        <time>2018-03-17T02:15:56Z</time>
      </trkpt>
      <trkpt lat="46.5448" lon="-1.80276">
        <ele>6</ele>
        <time>2018-03-17T02:16:56Z</time>
      </trkpt>
      <trkpt lat="46.54486" lon="-1.80279">
        <ele>6</ele>
        <time>2018-03-17T02:17:56Z</time>
      </trkpt>
      <trkpt lat="46.54492" lon="-1.80283">
        <ele>6</ele>
        <time>2018-03-17T02:18:56Z</time>
      </trkpt>
      <trkpt lat="46.54497" lon="-1.80286">
        <ele>6</ele>
        <time>2018-03-17T02:19:56Z</time>
      </trkpt>
      <trkpt lat="46.54503" lon="-1.8029">
        <ele>6</ele>
        <time>2018-03-17T02:20:56Z</time>
      </trkpt>
      <trkpt lat="46.54508" lon="-1.80293">
        <ele>6</ele>
        <time>2018-03-17T02:21:56Z</time>
      </trkpt>
      <trkpt lat="46.54514" lon="-1.80297">
        <ele>6</ele>
        <time>2018-03-17T02:22:56Z</time>
      </trkpt>
      <trkpt lat="46.54519" lon="-1.80301">
        <ele>6</ele>
        <time>2018-03-17T02:23:56Z</time>
      </trkpt>
      <trkpt lat="46.54536" lon="-1.80314">
        <ele>6</ele>
        <time>2018-03-17T02:24:56Z</time>
      </trkpt>
      <trkpt lat="46.54558" lon="-1.8033">
        <ele>6</ele>
        <time>2018-03-17T02:25:56Z</time>
      </trkpt>
      <trkpt lat="46.54582" lon="-1.80348">
        <ele>6</ele>
        <time>2018-03-17T02:26:56Z</time>
      </trkpt>
      <trkpt lat="46.54591" lon="-1.80356">
        <ele>6</ele>
        <time>2018-03-17T02:27:56Z</time>
      </trkpt>
      <trkpt lat="46.54594" lon="-1.80359">
        <ele>6</ele>
        <time>2018-03-17T02:28:56Z</time>
      </trkpt>
      <trkpt lat="46.54602" lon="-1.80363">
        <ele>6</ele>
        <time>2018-03-17T02:29:56Z</time>
      </trkpt>
      <trkpt lat="46.54614" lon="-1.80373">
        <ele>6</ele>
        <time>2018-03-17T02:30:56Z</time>
      </trkpt>
      <trkpt lat="46.5462" lon="-1.80378">
        <ele>6</ele>
        <time>2018-03-17T02:31:56Z</time>
      </trkpt>
      <trkpt lat="46.54628" lon="-1.80385">
        <ele>6</ele>
        <time>2018-03-17T02:32:56Z</time>
      </trkpt>
      <trkpt lat="46.54628" lon="-1.80385">
        <ele>6</ele>
        <time>2018-03-17T02:33:56Z</time>
      </trkpt>
      <trkpt lat="46.54629" lon="-1.80384">
        <ele>6</ele>
        <time>2018-03-17T02:34:56Z</time>
      </trkpt>
      <trkpt lat="46.54631" lon="-1.80383">
        <ele>6</ele>
        <time>2018-03-17T02:35:56Z</time>
      </trkpt>
      <trkpt lat="46.54633" lon="-1.80383">
        <ele>6</ele>
        <time>2018-03-17T02:36:56Z</time>
      </trkpt>
      <trkpt lat="46.54634" lon="-1.80383">
        <ele>6</ele>
        <time>2018-03-17T02:37:56Z</time>
      </trkpt>
      <trkpt lat="46.54636" lon="-1.80384">
        <ele>6</ele>
        <time>2018-03-17T02:38:56Z</time>
      </trkpt>
      <trkpt lat="46.54637" lon="-1.80385">
        <ele>6</ele>
        <time>2018-03-17T02:39:56Z</time>
      </trkpt>
      <trkpt lat="46.54638" lon="-1.80387">
        <ele>6</ele>
        <time>2018-03-17T02:40:56Z</time>
      </trkpt>
      <trkpt lat="46.54638" lon="-1.80388">
        <ele>6</ele>
        <time>2018-03-17T02:41:56Z</time>
      </trkpt>
      <trkpt lat="46.54639" lon="-1.8039">
        <ele>6</ele>
        <time>2018-03-17T02:42:56Z</time>
      </trkpt>
      <trkpt lat="46.54639" lon="-1.80392">
        <ele>6</ele>
        <time>2018-03-17T02:43:56Z</time>
      </trkpt>
      <trkpt lat="46.54638" lon="-1.80394">
        <ele>6</ele>
        <time>2018-03-17T02:44:56Z</time>
      </trkpt>
      <trkpt lat="46.54646" lon="-1.804">
        <ele>6</ele>
        <time>2018-03-17T02:45:56Z</time>
      </trkpt>
      <trkpt lat="46.54651" lon="-1.80405">
        <ele>6</ele>
        <time>2018-03-17T02:46:56Z</time>
      </trkpt>
      <trkpt lat="46.54657" lon="-1.8041">
        <ele>6</ele>
        <time>2018-03-17T02:47:56Z</time>
      </trkpt>
      <trkpt lat="46.54661" lon="-1.80413">
        <ele>6</ele>
        <time>2018-03-17T02:48:56Z</time>
      </trkpt>
      <trkpt lat="46.54668" lon="-1.80423">
        <ele>6</ele>
        <time>2018-03-17T02:49:56Z</time>
      </trkpt>
      <trkpt lat="46.54676" lon="-1.80434">
        <ele>6</ele>
        <time>2018-03-17T02:50:56Z</time>
      </trkpt>
      <trkpt lat="46.54677" lon="-1.80434">
        <ele>6</ele>
        <time>2018-03-17T02:51:56Z</time>
      </trkpt>
      <trkpt lat="46.54677" lon="-1.80433">
        <ele>6</ele>
        <time>2018-03-17T02:52:56Z</time>
      </trkpt>
      <trkpt lat="46.54678" lon="-1.80433">
        <ele>6</ele>
        <time>2018-03-17T02:53:56Z</time>
      </trkpt>
      <trkpt lat="46.54679" lon="-1.80433">
        <ele>6</ele>
        <time>2018-03-17T02:54:56Z</time>
      </trkpt>
      <trkpt lat="46.5468" lon="-1.80433">
        <ele>6</ele>
        <time>2018-03-17T02:55:56Z</time>
      </trkpt>
      <trkpt lat="46.54681" lon="-1.80433">
        <ele>6</ele>
        <time>2018-03-17T02:56:56Z</time>
      </trkpt>
      <trkpt lat="46.54682" lon="-1.80433">
        <ele>6</ele>
        <time>2018-03-17T02:57:56Z</time>
      </trkpt>
      <trkpt lat="46.54682" lon="-1.80434">
        <ele>6</ele>
        <time>2018-03-17T02:58:56Z</time>
      </trkpt>
      <trkpt lat="46.54683" lon="-1.80434">
        <ele>6</ele>
        <time>2018-03-17T02:59:56Z</time>
      </trkpt>
      <trkpt lat="46.54684" lon="-1.80434">
        <ele>6</ele>
        <time>2018-03-17T03:00:56Z</time>
      </trkpt>
      <trkpt lat="46.54684" lon="-1.80435">
        <ele>6</ele>
        <time>2018-03-17T03:01:56Z</time>
      </trkpt>
      <trkpt lat="46.54685" lon="-1.80435">
        <ele>6</ele>
        <time>2018-03-17T03:02:56Z</time>
      </trkpt>
      <trkpt lat="46.54685" lon="-1.80436">
        <ele>6</ele>
        <time>2018-03-17T03:03:56Z</time>
      </trkpt>
      <trkpt lat="46.54685" lon="-1.80437">
        <ele>6</ele>
        <time>2018-03-17T03:04:56Z</time>
      </trkpt>
      <trkpt lat="46.54686" lon="-1.80437">
        <ele>6</ele>
        <time>2018-03-17T03:05:56Z</time>
      </trkpt>
      <trkpt lat="46.54686" lon="-1.80438">
        <ele>6</ele>
        <time>2018-03-17T03:06:56Z</time>
      </trkpt>
      <trkpt lat="46.54686" lon="-1.80439">
        <ele>6</ele>
        <time>2018-03-17T03:07:56Z</time>
      </trkpt>
      <trkpt lat="46.54687" lon="-1.80439">
        <ele>6</ele>
        <time>2018-03-17T03:08:56Z</time>
      </trkpt>
      <trkpt lat="46.54687" lon="-1.8044">
        <ele>6</ele>
        <time>2018-03-17T03:09:56Z</time>
      </trkpt>
      <trkpt lat="46.54692" lon="-1.80444">
        <ele>6</ele>
        <time>2018-03-17T03:10:56Z</time>
      </trkpt>
      <trkpt lat="46.54706" lon="-1.80455">
        <ele>6</ele>
        <time>2018-03-17T03:11:56Z</time>
      </trkpt>
      <trkpt lat="46.54717" lon="-1.80465">
        <ele>6</ele>
        <time>2018-03-17T03:12:56Z</time>
      </trkpt>
      <trkpt lat="46.54722" lon="-1.8047">
        <ele>6</ele>
        <time>2018-03-17T03:13:56Z</time>
      </trkpt>
      <trkpt lat="46.54748" lon="-1.80489">
        <ele>5</ele>
        <time>2018-03-17T03:14:56Z</time>
      </trkpt>
      <trkpt lat="46.54754" lon="-1.80493">
        <ele>5</ele>
        <time>2018-03-17T03:15:56Z</time>
      </trkpt>
      <trkpt lat="46.54767" lon="-1.80503">
        <ele>5</ele>
        <time>2018-03-17T03:16:56Z</time>
      </trkpt>
      <trkpt lat="46.54786" lon="-1.80518">
        <ele>5</ele>
        <time>2018-03-17T03:17:56Z</time>
      </trkpt>
      <trkpt lat="46.54798" lon="-1.80528">
        <ele>6</ele>
        <time>2018-03-17T03:18:56Z</time>
      </trkpt>
      <trkpt lat="46.54812" lon="-1.80541">
        <ele>6</ele>
        <time>2018-03-17T03:19:56Z</time>
      </trkpt>
      <trkpt lat="46.54828" lon="-1.80554">
        <ele>5</ele>
        <time>2018-03-17T03:20:56Z</time>
      </trkpt>
      <trkpt lat="46.54847" lon="-1.80572">
        <ele>5</ele>
        <time>2018-03-17T03:21:56Z</time>
      </trkpt>
      <trkpt lat="46.54865" lon="-1.80585">
        <ele>5</ele>
        <time>2018-03-17T03:22:56Z</time>
      </trkpt>
      <trkpt lat="46.54886" lon="-1.80603">
        <ele>5</ele>
        <time>2018-03-17T03:23:56Z</time>
      </trkpt>
      <trkpt lat="46.54887" lon="-1.80604">
        <ele>5</ele>
        <time>2018-03-17T03:24:56Z</time>
      </trkpt>
      <trkpt lat="46.54903" lon="-1.80616">
        <ele>6</ele>
        <time>2018-03-17T03:25:56Z</time>
      </trkpt>
      <trkpt lat="46.54913" lon="-1.80622">
        <ele>6</ele>
        <time>2018-03-17T03:26:56Z</time>
      </trkpt>
      <trkpt lat="46.54931" lon="-1.80631">
        <ele>6</ele>
        <time>2018-03-17T03:27:56Z</time>
      </trkpt>
      <trkpt lat="46.54939" lon="-1.80635">
        <ele>6</ele>
        <time>2018-03-17T03:28:56Z</time>
      </trkpt>
      <trkpt lat="46.54946" lon="-1.80638">
        <ele>6</ele>
        <time>2018-03-17T03:29:56Z</time>
      </trkpt>
      <trkpt lat="46.54957" lon="-1.80644">
        <ele>6</ele>
        <time>2018-03-17T03:30:56Z</time>
      </trkpt>
      <trkpt lat="46.54974" lon="-1.80651">
        <ele>6</ele>
        <time>2018-03-17T03:31:56Z</time>
      </trkpt>
      <trkpt lat="46.54987" lon="-1.80654">
        <ele>6</ele>
        <time>2018-03-17T03:32:56Z</time>
      </trkpt>
      <trkpt lat="46.55003" lon="-1.80656">
        <ele>6</ele>
        <time>2018-03-17T03:33:56Z</time>
      </trkpt>
      <trkpt lat="46.55019" lon="-1.80656">
        <ele>6</ele>
        <time>2018-03-17T03:34:56Z</time>
      </trkpt>
      <trkpt lat="46.55037" lon="-1.80656">
        <ele>6</ele>
        <time>2018-03-17T03:35:56Z</time>
      </trkpt>
      <trkpt lat="46.55051" lon="-1.80654">
        <ele>6</ele>
        <time>2018-03-17T03:36:56Z</time>
      </trkpt>
      <trkpt lat="46.55071" lon="-1.8065">
        <ele>5</ele>
        <time>2018-03-17T03:37:56Z</time>
      </trkpt>
      <trkpt lat="46.55073" lon="-1.80649">
        <ele>5</ele>
        <time>2018-03-17T03:38:56Z</time>
      </trkpt>
      <trkpt lat="46.55096" lon="-1.80645">
        <ele>5</ele>
        <time>2018-03-17T03:39:56Z</time>
      </trkpt>
      <trkpt lat="46.55112" lon="-1.80644">
        <ele>5</ele>
        <time>2018-03-17T03:40:56Z</time>
      </trkpt>
      <trkpt lat="46.55123" lon="-1.80644">
        <ele>5</ele>
        <time>2018-03-17T03:41:56Z</time>
      </trkpt>
      <trkpt lat="46.55134" lon="-1.80645">
        <ele>5</ele>
        <time>2018-03-17T03:42:56Z</time>
      </trkpt>
      <trkpt lat="46.55152" lon="-1.80647">
        <ele>5</ele>
        <time>2018-03-17T03:43:56Z</time>
      </trkpt>
      <trkpt lat="46.55158" lon="-1.80647">
        <ele>5</ele>
        <time>2018-03-17T03:44:56Z</time>
      </trkpt>
      <trkpt lat="46.55169" lon="-1.80651">
        <ele>4</ele>
        <time>2018-03-17T03:45:56Z</time>
      </trkpt>
      <trkpt lat="46.55178" lon="-1.80654">
        <ele>4</ele>
        <time>2018-03-17T03:46:56Z</time>
      </trkpt>
      <trkpt lat="46.55187" lon="-1.80657">
        <ele>4</ele>
        <time>2018-03-17T03:47:56Z</time>
      </trkpt>
      <trkpt lat="46.55194" lon="-1.8066">
        <ele>4</ele>
        <time>2018-03-17T03:48:56Z</time>
      </trkpt>
      <trkpt lat="46.55201" lon="-1.80664">
        <ele>4</ele>
        <time>2018-03-17T03:49:56Z</time>
      </trkpt>
      <trkpt lat="46.55209" lon="-1.80669">
        <ele>4</ele>
        <time>2018-03-17T03:50:56Z</time>
      </trkpt>
      <trkpt lat="46.55219" lon="-1.80677">
        <ele>4</ele>
        <time>2018-03-17T03:51:56Z</time>
      </trkpt>
      <trkpt lat="46.55232" lon="-1.80688">
        <ele>4</ele>
        <time>2018-03-17T03:52:56Z</time>
      </trkpt>
      <trkpt lat="46.55245" lon="-1.807">
        <ele>4</ele>
        <time>2018-03-17T03:53:56Z</time>
      </trkpt>
      <trkpt lat="46.55267" lon="-1.80721">
        <ele>4</ele>
        <time>2018-03-17T03:54:56Z</time>
      </trkpt>
      <trkpt lat="46.55285" lon="-1.80738">
        <ele>4</ele>
        <time>2018-03-17T03:55:56Z</time>
      </trkpt>
      <trkpt lat="46.55307" lon="-1.8076">
        <ele>5</ele>
        <time>2018-03-17T03:56:56Z</time>
      </trkpt>
      <trkpt lat="46.55317" lon="-1.80771">
        <ele>5</ele>
        <time>2018-03-17T03:57:56Z</time>
      </trkpt>
      <trkpt lat="46.55326" lon="-1.8078">
        <ele>5</ele>
        <time>2018-03-17T03:58:56Z</time>
      </trkpt>
      <trkpt lat="46.55335" lon="-1.80791">
        <ele>5</ele>
        <time>2018-03-17T03:59:56Z</time>
      </trkpt>
      <trkpt lat="46.55338" lon="-1.80794">
        <ele>5</ele>
        <time>2018-03-17T04:00:56Z</time>
      </trkpt>
      <trkpt lat="46.55352" lon="-1.80813">
        <ele>4</ele>
        <time>2018-03-17T04:01:56Z</time>
      </trkpt>
      <trkpt lat="46.55362" lon="-1.80828">
        <ele>4</ele>
        <time>2018-03-17T04:02:56Z</time>
      </trkpt>
      <trkpt lat="46.55371" lon="-1.80844">
        <ele>4</ele>
        <time>2018-03-17T04:03:56Z</time>
      </trkpt>
      <trkpt lat="46.55376" lon="-1.80853">
        <ele>5</ele>
        <time>2018-03-17T04:04:56Z</time>
      </trkpt>
      <trkpt lat="46.55382" lon="-1.80865">
        <ele>5</ele>
        <time>2018-03-17T04:05:56Z</time>
      </trkpt>
      <trkpt lat="46.55387" lon="-1.80877">
        <ele>5</ele>
        <time>2018-03-17T04:06:56Z</time>
      </trkpt>
      <trkpt lat="46.5539" lon="-1.80885">
        <ele>5</ele>
        <time>2018-03-17T04:07:56Z</time>
      </trkpt>
      <trkpt lat="46.55399" lon="-1.80908">
        <ele>5</ele>
        <time>2018-03-17T04:08:56Z</time>
      </trkpt>
      <trkpt lat="46.554" lon="-1.80911">
        <ele>5</ele>
        <time>2018-03-17T04:09:56Z</time>
      </trkpt>
      <trkpt lat="46.55404" lon="-1.80923">
        <ele>5</ele>
        <time>2018-03-17T04:10:56Z</time>
      </trkpt>
      <trkpt lat="46.5541" lon="-1.80942">
        <ele>5</ele>
        <time>2018-03-17T04:11:56Z</time>
      </trkpt>
      <trkpt lat="46.55416" lon="-1.80962">
        <ele>6</ele>
        <time>2018-03-17T04:12:56Z</time>
      </trkpt>
      <trkpt lat="46.5542" lon="-1.80974">
        <ele>6</ele>
        <time>2018-03-17T04:13:56Z</time>
      </trkpt>
      <trkpt lat="46.55425" lon="-1.80985">
        <ele>6</ele>
        <time>2018-03-17T04:14:56Z</time>
      </trkpt>
      <trkpt lat="46.55428" lon="-1.80992">
        <ele>6</ele>
        <time>2018-03-17T04:15:56Z</time>
      </trkpt>
      <trkpt lat="46.55432" lon="-1.80998">
        <ele>6</ele>
        <time>2018-03-17T04:16:56Z</time>
      </trkpt>
      <trkpt lat="46.55434" lon="-1.81003">
        <ele>6</ele>
        <time>2018-03-17T04:17:56Z</time>
      </trkpt>
      <trkpt lat="46.55441" lon="-1.81013">
        <ele>6</ele>
        <time>2018-03-17T04:18:56Z</time>
      </trkpt>
      <trkpt lat="46.55452" lon="-1.81026">
        <ele>6</ele>
        <time>2018-03-17T04:19:56Z</time>
      </trkpt>
      <trkpt lat="46.55459" lon="-1.81033">
        <ele>6</ele>
        <time>2018-03-17T04:20:56Z</time>
      </trkpt>
      <trkpt lat="46.55467" lon="-1.81039">
        <ele>6</ele>
        <time>2018-03-17T04:21:56Z</time>
      </trkpt>
      <trkpt lat="46.55474" lon="-1.81043">
        <ele>6</ele>
        <time>2018-03-17T04:22:56Z</time>
      </trkpt>
      <trkpt lat="46.55496" lon="-1.81054">
        <ele>6</ele>
        <time>2018-03-17T04:23:56Z</time>
      </trkpt>
      <trkpt lat="46.55515" lon="-1.81062">
        <ele>6</ele>
        <time>2018-03-17T04:24:56Z</time>
      </trkpt>
      <trkpt lat="46.55527" lon="-1.81068">
        <ele>6</ele>
        <time>2018-03-17T04:25:56Z</time>
      </trkpt>
      <trkpt lat="46.55543" lon="-1.81075">
        <ele>6</ele>
        <time>2018-03-17T04:26:56Z</time>
      </trkpt>
      <trkpt lat="46.55573" lon="-1.81088">
        <ele>5</ele>
        <time>2018-03-17T04:27:56Z</time>
      </trkpt>
      <trkpt lat="46.55589" lon="-1.81095">
        <ele>5</ele>
        <time>2018-03-17T04:28:56Z</time>
      </trkpt>
      <trkpt lat="46.55596" lon="-1.81096">
        <ele>6</ele>
        <time>2018-03-17T04:29:56Z</time>
      </trkpt>
      <trkpt lat="46.55608" lon="-1.81101">
        <ele>6</ele>
        <time>2018-03-17T04:30:56Z</time>
      </trkpt>
      <trkpt lat="46.55635" lon="-1.81111">
        <ele>7</ele>
        <time>2018-03-17T04:31:56Z</time>
      </trkpt>
      <trkpt lat="46.55637" lon="-1.81112">
        <ele>7</ele>
        <time>2018-03-17T04:32:56Z</time>
      </trkpt>
      <trkpt lat="46.55649" lon="-1.81118">
        <ele>8</ele>
        <time>2018-03-17T04:33:56Z</time>
      </trkpt>
      <trkpt lat="46.55658" lon="-1.81122">
        <ele>9</ele>
        <time>2018-03-17T04:34:56Z</time>
      </trkpt>
      <trkpt lat="46.55665" lon="-1.81126">
        <ele>9</ele>
        <time>2018-03-17T04:35:56Z</time>
      </trkpt>
      <trkpt lat="46.55676" lon="-1.81131">
        <ele>9</ele>
        <time>2018-03-17T04:36:56Z</time>
      </trkpt>
      <trkpt lat="46.55682" lon="-1.81134">
        <ele>10</ele>
        <time>2018-03-17T04:37:56Z</time>
      </trkpt>
      <trkpt lat="46.55688" lon="-1.81138">
        <ele>10</ele>
        <time>2018-03-17T04:38:56Z</time>
      </trkpt>
      <trkpt lat="46.55707" lon="-1.81147">
        <ele>11</ele>
        <time>2018-03-17T04:39:56Z</time>
      </trkpt>
      <trkpt lat="46.55722" lon="-1.81154">
        <ele>12</ele>
        <time>2018-03-17T04:40:56Z</time>
      </trkpt>
      <trkpt lat="46.55727" lon="-1.81156">
        <ele>12</ele>
        <time>2018-03-17T04:41:56Z</time>
      </trkpt>
      <trkpt lat="46.55731" lon="-1.81156">
        <ele>12</ele>
        <time>2018-03-17T04:42:56Z</time>
      </trkpt>
      <trkpt lat="46.55734" lon="-1.81156">
        <ele>12</ele>
        <time>2018-03-17T04:43:56Z</time>
      </trkpt>
      <trkpt lat="46.55738" lon="-1.81155">
        <ele>12</ele>
        <time>2018-03-17T04:44:56Z</time>
      </trkpt>
      <trkpt lat="46.55742" lon="-1.81153">
        <ele>12</ele>
        <time>2018-03-17T04:45:56Z</time>
      </trkpt>
      <trkpt lat="46.55746" lon="-1.8115">
        <ele>12</ele>
        <time>2018-03-17T04:46:56Z</time>
      </trkpt>
      <trkpt lat="46.55751" lon="-1.81145">
        <ele>13</ele>
        <time>2018-03-17T04:47:56Z</time>
      </trkpt>
      <trkpt lat="46.55757" lon="-1.81139">
        <ele>13</ele>
        <time>2018-03-17T04:48:56Z</time>
      </trkpt>
      <trkpt lat="46.55762" lon="-1.81132">
        <ele>13</ele>
        <time>2018-03-17T04:49:56Z</time>
      </trkpt>
      <trkpt lat="46.55767" lon="-1.81124">
        <ele>13</ele>
        <time>2018-03-17T04:50:56Z</time>
      </trkpt>
      <trkpt lat="46.55785" lon="-1.81096">
        <ele>13</ele>
        <time>2018-03-17T04:51:56Z</time>
      </trkpt>
      <trkpt lat="46.55803" lon="-1.81067">
        <ele>13</ele>
        <time>2018-03-17T04:52:56Z</time>
      </trkpt>
      <trkpt lat="46.55826" lon="-1.81029">
        <ele>12</ele>
        <time>2018-03-17T04:53:56Z</time>
      </trkpt>
      <trkpt lat="46.55842" lon="-1.81011">
        <ele>12</ele>
        <time>2018-03-17T04:54:56Z</time>
      </trkpt>
      <trkpt lat="46.55847" lon="-1.81005">
        <ele>12</ele>
        <time>2018-03-17T04:55:56Z</time>
      </trkpt>
      <trkpt lat="46.55853" lon="-1.81002">
        <ele>12</ele>
        <time>2018-03-17T04:56:56Z</time>
      </trkpt>
      <trkpt lat="46.5586" lon="-1.80999">
        <ele>11</ele>
        <time>2018-03-17T04:57:56Z</time>
      </trkpt>
      <trkpt lat="46.55868" lon="-1.80996">
        <ele>11</ele>
        <time>2018-03-17T04:58:56Z</time>
      </trkpt>
      <trkpt lat="46.55875" lon="-1.80995">
        <ele>11</ele>
        <time>2018-03-17T04:59:56Z</time>
      </trkpt>
      <trkpt lat="46.55883" lon="-1.80996">
        <ele>11</ele>
        <time>2018-03-17T05:00:56Z</time>
      </trkpt>
      <trkpt lat="46.55891" lon="-1.80997">
        <ele>10</ele>
        <time>2018-03-17T05:01:56Z</time>
      </trkpt>
      <trkpt lat="46.55898" lon="-1.80999">
        <ele>10</ele>
        <time>2018-03-17T05:02:56Z</time>
      </trkpt>
      <trkpt lat="46.55903" lon="-1.81003">
        <ele>11</ele>
        <time>2018-03-17T05:03:56Z</time>
      </trkpt>
      <trkpt lat="46.55915" lon="-1.81015">
        <ele>11</ele>
        <time>2018-03-17T05:04:56Z</time>
      </trkpt>
      <trkpt lat="46.55932" lon="-1.81034">
        <ele>12</ele>
        <time>2018-03-17T05:05:56Z</time>
      </trkpt>
      <trkpt lat="46.55959" lon="-1.81063">
        <ele>13</ele>
        <time>2018-03-17T05:06:56Z</time>
      </trkpt>
      <trkpt lat="46.56052" lon="-1.81165">
        <ele>14</ele>
        <time>2018-03-17T05:07:56Z</time>
      </trkpt>
      <trkpt lat="46.56073" lon="-1.81192">
        <ele>14</ele>
        <time>2018-03-17T05:08:56Z</time>
      </trkpt>
      <trkpt lat="46.56142" lon="-1.81277">
        <ele>19</ele>
        <time>2018-03-17T05:09:56Z</time>
      </trkpt>
      <trkpt lat="46.56163" lon="-1.81304">
        <ele>20</ele>
        <time>2018-03-17T05:10:56Z</time>
      </trkpt>
      <trkpt lat="46.56197" lon="-1.8135">
        <ele>20</ele>
        <time>2018-03-17T05:11:56Z</time>
      </trkpt>
      <trkpt lat="46.56218" lon="-1.81378">
        <ele>19</ele>
        <time>2018-03-17T05:12:56Z</time>
      </trkpt>
      <trkpt lat="46.56228" lon="-1.81392">
        <ele>19</ele>
        <time>2018-03-17T05:13:56Z</time>
      </trkpt>
      <trkpt lat="46.56238" lon="-1.81405">
        <ele>19</ele>
        <time>2018-03-17T05:14:56Z</time>
      </trkpt>
      <trkpt lat="46.56247" lon="-1.81417">
        <ele>18</ele>
        <time>2018-03-17T05:15:56Z</time>
      </trkpt>
      <trkpt lat="46.56258" lon="-1.81431">
        <ele>18</ele>
        <time>2018-03-17T05:16:56Z</time>
      </trkpt>
      <trkpt lat="46.56267" lon="-1.81441">
        <ele>18</ele>
        <time>2018-03-17T05:17:56Z</time>
      </trkpt>
      <trkpt lat="46.56276" lon="-1.8145">
        <ele>17</ele>
        <time>2018-03-17T05:18:56Z</time>
      </trkpt>
      <trkpt lat="46.56287" lon="-1.81463">
        <ele>17</ele>
        <time>2018-03-17T05:19:56Z</time>
      </trkpt>
      <trkpt lat="46.56339" lon="-1.81516">
        <ele>14</ele>
        <time>2018-03-17T05:20:56Z</time>
      </trkpt>
      <trkpt lat="46.56384" lon="-1.8156">
        <ele>14</ele>
        <time>2018-03-17T05:21:56Z</time>
      </trkpt>
      <trkpt lat="46.56421" lon="-1.81598">
        <ele>13</ele>
        <time>2018-03-17T05:22:56Z</time>
      </trkpt>
      <trkpt lat="46.56436" lon="-1.81612">
        <ele>13</ele>
        <time>2018-03-17T05:23:56Z</time>
      </trkpt>
      <trkpt lat="46.56457" lon="-1.81632">
        <ele>13</ele>
        <time>2018-03-17T05:24:56Z</time>
      </trkpt>
      <trkpt lat="46.56475" lon="-1.8165">
        <ele>13</ele>
        <time>2018-03-17T05:25:56Z</time>
      </trkpt>
      <trkpt lat="46.56516" lon="-1.81693">
        <ele>14</ele>
        <time>2018-03-17T05:26:56Z</time>
      </trkpt>
      <trkpt lat="46.5658" lon="-1.8176">
        <ele>13</ele>
        <time>2018-03-17T05:27:56Z</time>
      </trkpt>
      <trkpt lat="46.5663" lon="-1.8181">
        <ele>16</ele>
        <time>2018-03-17T05:28:56Z</time>
      </trkpt>
      <trkpt lat="46.56651" lon="-1.8183">
        <ele>16</ele>
        <time>2018-03-17T05:29:56Z</time>
      </trkpt>
      <trkpt lat="46.56685" lon="-1.81861">
        <ele>15</ele>
        <time>2018-03-17T05:30:56Z</time>
      </trkpt>
      <trkpt lat="46.56741" lon="-1.81914">
        <ele>12</ele>
        <time>2018-03-17T05:31:56Z</time>
      </trkpt>
      <trkpt lat="46.56761" lon="-1.81932">
        <ele>11</ele>
        <time>2018-03-17T05:32:56Z</time>
      </trkpt>
      <trkpt lat="46.56783" lon="-1.81952">
        <ele>11</ele>
        <time>2018-03-17T05:33:56Z</time>
      </trkpt>
      <trkpt lat="46.5681" lon="-1.81976">
        <ele>12</ele>
        <time>2018-03-17T05:34:56Z</time>
      </trkpt>
      <trkpt lat="46.56833" lon="-1.81994">
        <ele>13</ele>
        <time>2018-03-17T05:35:56Z</time>
      </trkpt>
      <trkpt lat="46.56918" lon="-1.82046">
        <ele>12</ele>
        <time>2018-03-17T05:36:56Z</time>
      </trkpt>
      <trkpt lat="46.56995" lon="-1.82105">
        <ele>10</ele>
        <time>2018-03-17T05:37:56Z</time>
      </trkpt>
      <trkpt lat="46.5701" lon="-1.82118">
        <ele>10</ele>
        <time>2018-03-17T05:38:56Z</time>
      </trkpt>
      <trkpt lat="46.57032" lon="-1.82138">
        <ele>10</ele>
        <time>2018-03-17T05:39:56Z</time>
      </trkpt>
      <trkpt lat="46.57081" lon="-1.82179">
        <ele>9</ele>
        <time>2018-03-17T05:40:56Z</time>
      </trkpt>
      <trkpt lat="46.57116" lon="-1.82209">
        <ele>11</ele>
        <time>2018-03-17T05:41:56Z</time>
      </trkpt>
      <trkpt lat="46.57145" lon="-1.82234">
        <ele>12</ele>
        <time>2018-03-17T05:42:56Z</time>
      </trkpt>
      <trkpt lat="46.57167" lon="-1.82252">
        <ele>12</ele>
        <time>2018-03-17T05:43:56Z</time>
      </trkpt>
      <trkpt lat="46.57182" lon="-1.82265">
        <ele>12</ele>
        <time>2018-03-17T05:44:56Z</time>
      </trkpt>
      <trkpt lat="46.57207" lon="-1.82284">
        <ele>12</ele>
        <time>2018-03-17T05:45:56Z</time>
      </trkpt>
      <trkpt lat="46.57224" lon="-1.82297">
        <ele>12</ele>
        <time>2018-03-17T05:46:56Z</time>
      </trkpt>
      <trkpt lat="46.57242" lon="-1.82306">
        <ele>12</ele>
        <time>2018-03-17T05:47:56Z</time>
      </trkpt>
      <trkpt lat="46.57254" lon="-1.82311">
        <ele>12</ele>
        <time>2018-03-17T05:48:56Z</time>
      </trkpt>
      <trkpt lat="46.57256" lon="-1.82312">
        <ele>12</ele>
        <time>2018-03-17T05:49:56Z</time>
      </trkpt>
      <trkpt lat="46.5727" lon="-1.82318">
        <ele>12</ele>
        <time>2018-03-17T05:50:56Z</time>
      </trkpt>
      <trkpt lat="46.57284" lon="-1.82322">
        <ele>12</ele>
        <time>2018-03-17T05:51:56Z</time>
      </trkpt>
      <trkpt lat="46.57301" lon="-1.82325">
        <ele>12</ele>
        <time>2018-03-17T05:52:56Z</time>
      </trkpt>
      <trkpt lat="46.57315" lon="-1.82327">
        <ele>13</ele>
        <time>2018-03-17T05:53:56Z</time>
      </trkpt>
      <trkpt lat="46.5733" lon="-1.82327">
        <ele>13</ele>
        <time>2018-03-17T05:54:56Z</time>
      </trkpt>
      <trkpt lat="46.57347" lon="-1.82326">
        <ele>13</ele>
        <time>2018-03-17T05:55:56Z</time>
      </trkpt>
      <trkpt lat="46.57364" lon="-1.82325">
        <ele>13</ele>
        <time>2018-03-17T05:56:56Z</time>
      </trkpt>
      <trkpt lat="46.57385" lon="-1.82323">
        <ele>13</ele>
        <time>2018-03-17T05:57:56Z</time>
      </trkpt>
      <trkpt lat="46.57385" lon="-1.82323">
        <ele>13</ele>
        <time>2018-03-17T05:58:56Z</time>
      </trkpt>
      <trkpt lat="46.57416" lon="-1.8232">
        <ele>13</ele>
        <time>2018-03-17T05:59:56Z</time>
      </trkpt>
      <trkpt lat="46.57491" lon="-1.82313">
        <ele>13</ele>
        <time>2018-03-17T06:00:56Z</time>
      </trkpt>
      <trkpt lat="46.5756" lon="-1.82306">
        <ele>13</ele>
        <time>2018-03-17T06:01:56Z</time>
      </trkpt>
      <trkpt lat="46.57582" lon="-1.82304">
        <ele>13</ele>
        <time>2018-03-17T06:02:56Z</time>
      </trkpt>
      <trkpt lat="46.57618" lon="-1.82301">
        <ele>12</ele>
        <time>2018-03-17T06:03:56Z</time>
      </trkpt>
      <trkpt lat="46.57625" lon="-1.82301">
        <ele>12</ele>
        <time>2018-03-17T06:04:56Z</time>
      </trkpt>
      <trkpt lat="46.5763" lon="-1.823">
        <ele>12</ele>
        <time>2018-03-17T06:05:56Z</time>
      </trkpt>
      <trkpt lat="46.57631" lon="-1.823">
        <ele>12</ele>
        <time>2018-03-17T06:06:56Z</time>
      </trkpt>
      <trkpt lat="46.57636" lon="-1.82299">
        <ele>12</ele>
        <time>2018-03-17T06:07:56Z</time>
      </trkpt>
      <trkpt lat="46.57687" lon="-1.82294">
        <ele>11</ele>
        <time>2018-03-17T06:08:56Z</time>
      </trkpt>
      <trkpt lat="46.57726" lon="-1.82291">
        <ele>10</ele>
        <time>2018-03-17T06:09:56Z</time>
      </trkpt>
      <trkpt lat="46.57736" lon="-1.8229">
        <ele>10</ele>
        <time>2018-03-17T06:10:56Z</time>
      </trkpt>
      <trkpt lat="46.57752" lon="-1.8229">
        <ele>10</ele>
        <time>2018-03-17T06:11:56Z</time>
      </trkpt>
      <trkpt lat="46.57776" lon="-1.8229">
        <ele>10</ele>
        <time>2018-03-17T06:12:56Z</time>
      </trkpt>
      <trkpt lat="46.57793" lon="-1.82291">
        <ele>10</ele>
        <time>2018-03-17T06:13:56Z</time>
      </trkpt>
      <trkpt lat="46.57807" lon="-1.82293">
        <ele>10</ele>
        <time>2018-03-17T06:14:56Z</time>
      </trkpt>
      <trkpt lat="46.57825" lon="-1.82295">
        <ele>10</ele>
        <time>2018-03-17T06:15:56Z</time>
      </trkpt>
      <trkpt lat="46.57846" lon="-1.82299">
        <ele>10</ele>
        <time>2018-03-17T06:16:56Z</time>
      </trkpt>
      <trkpt lat="46.57868" lon="-1.82304">
        <ele>11</ele>
        <time>2018-03-17T06:17:56Z</time>
      </trkpt>
      <trkpt lat="46.57889" lon="-1.82311">
        <ele>11</ele>
        <time>2018-03-17T06:18:56Z</time>
      </trkpt>
      <trkpt lat="46.57913" lon="-1.82317">
        <ele>11</ele>
        <time>2018-03-17T06:19:56Z</time>
      </trkpt>
      <trkpt lat="46.57932" lon="-1.82322">
        <ele>11</ele>
        <time>2018-03-17T06:20:56Z</time>
      </trkpt>
      <trkpt lat="46.57969" lon="-1.82334">
        <ele>10</ele>
        <time>2018-03-17T06:21:56Z</time>
      </trkpt>
      <trkpt lat="46.58021" lon="-1.82352">
        <ele>10</ele>
        <time>2018-03-17T06:22:56Z</time>
      </trkpt>
      <trkpt lat="46.58066" lon="-1.82367">
        <ele>11</ele>
        <time>2018-03-17T06:23:56Z</time>
      </trkpt>
      <trkpt lat="46.58096" lon="-1.82377">
        <ele>12</ele>
        <time>2018-03-17T06:24:56Z</time>
      </trkpt>
      <trkpt lat="46.58114" lon="-1.82384">
        <ele>12</ele>
        <time>2018-03-17T06:25:56Z</time>
      </trkpt>
      <trkpt lat="46.5813" lon="-1.8239">
        <ele>12</ele>
        <time>2018-03-17T06:26:56Z</time>
      </trkpt>
      <trkpt lat="46.58144" lon="-1.82394">
        <ele>12</ele>
        <time>2018-03-17T06:27:56Z</time>
      </trkpt>
      <trkpt lat="46.58154" lon="-1.824">
        <ele>12</ele>
        <time>2018-03-17T06:28:56Z</time>
      </trkpt>
      <trkpt lat="46.58164" lon="-1.82406">
        <ele>12</ele>
        <time>2018-03-17T06:29:56Z</time>
      </trkpt>
      <trkpt lat="46.58176" lon="-1.82414">
        <ele>11</ele>
        <time>2018-03-17T06:30:56Z</time>
      </trkpt>
      <trkpt lat="46.58189" lon="-1.82426">
        <ele>11</ele>
        <time>2018-03-17T06:31:56Z</time>
      </trkpt>
      <trkpt lat="46.58206" lon="-1.82442">
        <ele>10</ele>
        <time>2018-03-17T06:32:56Z</time>
      </trkpt>
      <trkpt lat="46.58232" lon="-1.82473">
        <ele>9</ele>
        <time>2018-03-17T06:33:56Z</time>
      </trkpt>
      <trkpt lat="46.58249" lon="-1.82493">
        <ele>9</ele>
        <time>2018-03-17T06:34:56Z</time>
      </trkpt>
      <trkpt lat="46.5829" lon="-1.82541">
        <ele>8</ele>
        <time>2018-03-17T06:35:56Z</time>
      </trkpt>
      <trkpt lat="46.58323" lon="-1.82579">
        <ele>8</ele>
        <time>2018-03-17T06:36:56Z</time>
      </trkpt>
      <trkpt lat="46.58352" lon="-1.82614">
        <ele>7</ele>
        <time>2018-03-17T06:37:56Z</time>
      </trkpt>
      <trkpt lat="46.58374" lon="-1.82637">
        <ele>7</ele>
        <time>2018-03-17T06:38:56Z</time>
      </trkpt>
      <trkpt lat="46.58393" lon="-1.8266">
        <ele>6</ele>
        <time>2018-03-17T06:39:56Z</time>
      </trkpt>
      <trkpt lat="46.58401" lon="-1.82665">
        <ele>6</ele>
        <time>2018-03-17T06:40:56Z</time>
      </trkpt>
      <trkpt lat="46.58411" lon="-1.82673">
        <ele>5</ele>
        <time>2018-03-17T06:41:56Z</time>
      </trkpt>
      <trkpt lat="46.58415" lon="-1.82676">
        <ele>5</ele>
        <time>2018-03-17T06:42:56Z</time>
      </trkpt>
      <trkpt lat="46.58425" lon="-1.82687">
        <ele>6</ele>
        <time>2018-03-17T06:43:56Z</time>
      </trkpt>
      <trkpt lat="46.58442" lon="-1.82705">
        <ele>6</ele>
        <time>2018-03-17T06:44:56Z</time>
      </trkpt>
      <trkpt lat="46.5846" lon="-1.82719">
        <ele>7</ele>
        <time>2018-03-17T06:45:56Z</time>
      </trkpt>
      <trkpt lat="46.58474" lon="-1.82729">
        <ele>7</ele>
        <time>2018-03-17T06:46:56Z</time>
      </trkpt>
      <trkpt lat="46.58498" lon="-1.82744">
        <ele>7</ele>
        <time>2018-03-17T06:47:56Z</time>
      </trkpt>
      <trkpt lat="46.58518" lon="-1.82757">
        <ele>7</ele>
        <time>2018-03-17T06:48:56Z</time>
      </trkpt>
      <trkpt lat="46.58559" lon="-1.82781">
        <ele>8</ele>
        <time>2018-03-17T06:49:56Z</time>
      </trkpt>
      <trkpt lat="46.5857" lon="-1.82786">
        <ele>8</ele>
        <time>2018-03-17T06:50:56Z</time>
      </trkpt>
      <trkpt lat="46.58575" lon="-1.82789">
        <ele>8</ele>
        <time>2018-03-17T06:51:56Z</time>
      </trkpt>
      <trkpt lat="46.58597" lon="-1.82804">
        <ele>8</ele>
        <time>2018-03-17T06:52:56Z</time>
      </trkpt>
      <trkpt lat="46.58619" lon="-1.82815">
        <ele>7</ele>
        <time>2018-03-17T06:53:56Z</time>
      </trkpt>
      <trkpt lat="46.58642" lon="-1.82827">
        <ele>7</ele>
        <time>2018-03-17T06:54:56Z</time>
      </trkpt>
      <trkpt lat="46.58666" lon="-1.82837">
        <ele>6</ele>
        <time>2018-03-17T06:55:56Z</time>
      </trkpt>
      <trkpt lat="46.58691" lon="-1.82847">
        <ele>6</ele>
        <time>2018-03-17T06:56:56Z</time>
      </trkpt>
      <trkpt lat="46.58691" lon="-1.82847">
        <ele>6</ele>
        <time>2018-03-17T06:57:56Z</time>
      </trkpt>
      <trkpt lat="46.58699" lon="-1.82854">
        <ele>6</ele>
        <time>2018-03-17T06:58:56Z</time>
      </trkpt>
      <trkpt lat="46.58705" lon="-1.82864">
        <ele>6</ele>
        <time>2018-03-17T06:59:56Z</time>
      </trkpt>
      <trkpt lat="46.58709" lon="-1.82875">
        <ele>6</ele>
        <time>2018-03-17T07:00:56Z</time>
      </trkpt>
      <trkpt lat="46.5871" lon="-1.82884">
        <ele>7</ele>
        <time>2018-03-17T07:01:56Z</time>
      </trkpt>
      <trkpt lat="46.58709" lon="-1.829">
        <ele>8</ele>
        <time>2018-03-17T07:02:56Z</time>
      </trkpt>
      <trkpt lat="46.58701" lon="-1.82913">
        <ele>9</ele>
        <time>2018-03-17T07:03:56Z</time>
      </trkpt>
      <trkpt lat="46.58701" lon="-1.82913">
        <ele>9</ele>
        <time>2018-03-17T07:04:56Z</time>
      </trkpt>
      <trkpt lat="46.58698" lon="-1.82922">
        <ele>10</ele>
        <time>2018-03-17T07:05:56Z</time>
      </trkpt>
      <trkpt lat="46.58697" lon="-1.82928">
        <ele>10</ele>
        <time>2018-03-17T07:06:56Z</time>
      </trkpt>
      <trkpt lat="46.58697" lon="-1.82934">
        <ele>11</ele>
        <time>2018-03-17T07:07:56Z</time>
      </trkpt>
      <trkpt lat="46.58698" lon="-1.8294">
        <ele>11</ele>
        <time>2018-03-17T07:08:56Z</time>
      </trkpt>
      <trkpt lat="46.58701" lon="-1.8295">
        <ele>11</ele>
        <time>2018-03-17T07:09:56Z</time>
      </trkpt>
      <trkpt lat="46.5871" lon="-1.82964">
        <ele>10</ele>
        <time>2018-03-17T07:10:56Z</time>
      </trkpt>
      <trkpt lat="46.58725" lon="-1.8299">
        <ele>9</ele>
        <time>2018-03-17T07:11:56Z</time>
      </trkpt>
      <trkpt lat="46.58742" lon="-1.83022">
        <ele>8</ele>
        <time>2018-03-17T07:12:56Z</time>
      </trkpt>
      <trkpt lat="46.58759" lon="-1.83057">
        <ele>7</ele>
        <time>2018-03-17T07:13:56Z</time>
      </trkpt>
      <trkpt lat="46.58772" lon="-1.83083">
        <ele>6</ele>
        <time>2018-03-17T07:14:56Z</time>
      </trkpt>
      <trkpt lat="46.58783" lon="-1.83109">
        <ele>6</ele>
        <time>2018-03-17T07:15:56Z</time>
      </trkpt>
      <trkpt lat="46.58793" lon="-1.83129">
        <ele>7</ele>
        <time>2018-03-17T07:16:56Z</time>
      </trkpt>
      <trkpt lat="46.58802" lon="-1.83149">
        <ele>7</ele>
        <time>2018-03-17T07:17:56Z</time>
      </trkpt>
      <trkpt lat="46.58808" lon="-1.83158">
        <ele>7</ele>
        <time>2018-03-17T07:18:56Z</time>
      </trkpt>
      <trkpt lat="46.58817" lon="-1.83173">
        <ele>7</ele>
        <time>2018-03-17T07:19:56Z</time>
      </trkpt>
      <trkpt lat="46.58829" lon="-1.83184">
        <ele>7</ele>
        <time>2018-03-17T07:20:56Z</time>
      </trkpt>
      <trkpt lat="46.58838" lon="-1.83193">
        <ele>8</ele>
        <time>2018-03-17T07:21:56Z</time>
      </trkpt>
      <trkpt lat="46.58849" lon="-1.83199">
        <ele>8</ele>
        <time>2018-03-17T07:22:56Z</time>
      </trkpt>
      <trkpt lat="46.58877" lon="-1.83211">
        <ele>9</ele>
        <time>2018-03-17T07:23:56Z</time>
      </trkpt>
      <trkpt lat="46.58882" lon="-1.83213">
        <ele>10</ele>
        <time>2018-03-17T07:24:56Z</time>
      </trkpt>
      <trkpt lat="46.58924" lon="-1.83227">
        <ele>10</ele>
        <time>2018-03-17T07:25:56Z</time>
      </trkpt>
      <trkpt lat="46.58982" lon="-1.83247">
        <ele>9</ele>
        <time>2018-03-17T07:26:56Z</time>
      </trkpt>
      <trkpt lat="46.59026" lon="-1.83261">
        <ele>9</ele>
        <time>2018-03-17T07:27:56Z</time>
      </trkpt>
      <trkpt lat="46.59038" lon="-1.83265">
        <ele>8</ele>
        <time>2018-03-17T07:28:56Z</time>
      </trkpt>
      <trkpt lat="46.59104" lon="-1.83289">
        <ele>6</ele>
        <time>2018-03-17T07:29:56Z</time>
      </trkpt>
      <trkpt lat="46.59152" lon="-1.83305">
        <ele>4</ele>
        <time>2018-03-17T07:30:56Z</time>
      </trkpt>
      <trkpt lat="46.59167" lon="-1.8331">
        <ele>4</ele>
        <time>2018-03-17T07:31:56Z</time>
      </trkpt>
      <trkpt lat="46.5918" lon="-1.83315">
        <ele>3</ele>
        <time>2018-03-17T07:32:56Z</time>
      </trkpt>
      <trkpt lat="46.59183" lon="-1.83316">
        <ele>3</ele>
        <time>2018-03-17T07:33:56Z</time>
      </trkpt>
      <trkpt lat="46.59197" lon="-1.8332">
        <ele>3</ele>
        <time>2018-03-17T07:34:56Z</time>
      </trkpt>
      <trkpt lat="46.592" lon="-1.8332">
        <ele>3</ele>
        <time>2018-03-17T07:35:56Z</time>
      </trkpt>
      <trkpt lat="46.59208" lon="-1.83322">
        <ele>3</ele>
        <time>2018-03-17T07:36:56Z</time>
      </trkpt>
      <trkpt lat="46.59218" lon="-1.83322">
        <ele>2</ele>
        <time>2018-03-17T07:37:56Z</time>
      </trkpt>
      <trkpt lat="46.59227" lon="-1.83323">
        <ele>2</ele>
        <time>2018-03-17T07:38:56Z</time>
      </trkpt>
      <trkpt lat="46.59239" lon="-1.83321">
        <ele>2</ele>
        <time>2018-03-17T07:39:56Z</time>
      </trkpt>
      <trkpt lat="46.5925" lon="-1.83319">
        <ele>2</ele>
        <time>2018-03-17T07:40:56Z</time>
      </trkpt>
      <trkpt lat="46.5926" lon="-1.83318">
        <ele>2</ele>
        <time>2018-03-17T07:41:56Z</time>
      </trkpt>
      <trkpt lat="46.59273" lon="-1.83318">
        <ele>2</ele>
        <time>2018-03-17T07:42:56Z</time>
      </trkpt>
      <trkpt lat="46.59287" lon="-1.83319">
        <ele>2</ele>
        <time>2018-03-17T07:43:56Z</time>
      </trkpt>
      <trkpt lat="46.59305" lon="-1.83323">
        <ele>2</ele>
        <time>2018-03-17T07:44:56Z</time>
      </trkpt>
      <trkpt lat="46.59325" lon="-1.8333">
        <ele>2</ele>
        <time>2018-03-17T07:45:56Z</time>
      </trkpt>
      <trkpt lat="46.59343" lon="-1.83336">
        <ele>2</ele>
        <time>2018-03-17T07:46:56Z</time>
      </trkpt>
      <trkpt lat="46.59357" lon="-1.83342">
        <ele>2</ele>
        <time>2018-03-17T07:47:56Z</time>
      </trkpt>
      <trkpt lat="46.59373" lon="-1.8335">
        <ele>2</ele>
        <time>2018-03-17T07:48:56Z</time>
      </trkpt>
      <trkpt lat="46.59382" lon="-1.83355">
        <ele>2</ele>
        <time>2018-03-17T07:49:56Z</time>
      </trkpt>
      <trkpt lat="46.59394" lon="-1.83361">
        <ele>2</ele>
        <time>2018-03-17T07:50:56Z</time>
      </trkpt>
      <trkpt lat="46.59404" lon="-1.83368">
        <ele>2</ele>
        <time>2018-03-17T07:51:56Z</time>
      </trkpt>
      <trkpt lat="46.59415" lon="-1.83374">
        <ele>2</ele>
        <time>2018-03-17T07:52:56Z</time>
      </trkpt>
      <trkpt lat="46.59425" lon="-1.83376">
        <ele>2</ele>
        <time>2018-03-17T07:53:56Z</time>
      </trkpt>
      <trkpt lat="46.59433" lon="-1.83375">
        <ele>2</ele>
        <time>2018-03-17T07:54:56Z</time>
      </trkpt>
      <trkpt lat="46.59439" lon="-1.83374">
        <ele>2</ele>
        <time>2018-03-17T07:55:56Z</time>
      </trkpt>
      <trkpt lat="46.59444" lon="-1.83371">
        <ele>2</ele>
        <time>2018-03-17T07:56:56Z</time>
      </trkpt>
      <trkpt lat="46.59444" lon="-1.8337">
        <ele>2</ele>
        <time>2018-03-17T07:57:56Z</time>
      </trkpt>
      <trkpt lat="46.5946" lon="-1.8336">
        <ele>2</ele>
        <time>2018-03-17T07:58:56Z</time>
      </trkpt>
      <trkpt lat="46.59481" lon="-1.83347">
        <ele>2</ele>
        <time>2018-03-17T07:59:56Z</time>
      </trkpt>
      <trkpt lat="46.59483" lon="-1.83345">
        <ele>3</ele>
        <time>2018-03-17T08:00:56Z</time>
      </trkpt>
      <trkpt lat="46.59489" lon="-1.83342">
        <ele>3</ele>
        <time>2018-03-17T08:01:56Z</time>
      </trkpt>
      <trkpt lat="46.59489" lon="-1.83342">
        <ele>3</ele>
        <time>2018-03-17T08:02:56Z</time>
      </trkpt>
      <trkpt lat="46.59518" lon="-1.83322">
        <ele>3</ele>
        <time>2018-03-17T08:03:56Z</time>
      </trkpt>
      <trkpt lat="46.59525" lon="-1.83318">
        <ele>3</ele>
        <time>2018-03-17T08:04:56Z</time>
      </trkpt>
      <trkpt lat="46.59527" lon="-1.83316">
        <ele>3</ele>
        <time>2018-03-17T08:05:56Z</time>
      </trkpt>
      <trkpt lat="46.59539" lon="-1.83311">
        <ele>4</ele>
        <time>2018-03-17T08:06:56Z</time>
      </trkpt>
      <trkpt lat="46.59573" lon="-1.83288">
        <ele>4</ele>
        <time>2018-03-17T08:07:56Z</time>
      </trkpt>
      <trkpt lat="46.59574" lon="-1.83287">
        <ele>4</ele>
        <time>2018-03-17T08:08:56Z</time>
      </trkpt>
      <trkpt lat="46.59628" lon="-1.83252">
        <ele>4</ele>
        <time>2018-03-17T08:09:56Z</time>
      </trkpt>
      <trkpt lat="46.59667" lon="-1.83226">
        <ele>4</ele>
        <time>2018-03-17T08:10:56Z</time>
      </trkpt>
      <trkpt lat="46.59696" lon="-1.83207">
        <ele>4</ele>
        <time>2018-03-17T08:11:56Z</time>
      </trkpt>
      <trkpt lat="46.59719" lon="-1.83192">
        <ele>4</ele>
        <time>2018-03-17T08:12:56Z</time>
      </trkpt>
      <trkpt lat="46.59733" lon="-1.83185">
        <ele>5</ele>
        <time>2018-03-17T08:13:56Z</time>
      </trkpt>
      <trkpt lat="46.59742" lon="-1.83179">
        <ele>5</ele>
        <time>2018-03-17T08:14:56Z</time>
      </trkpt>
      <trkpt lat="46.59759" lon="-1.83171">
        <ele>5</ele>
        <time>2018-03-17T08:15:56Z</time>
      </trkpt>
      <trkpt lat="46.59774" lon="-1.83162">
        <ele>5</ele>
        <time>2018-03-17T08:16:56Z</time>
      </trkpt>
      <trkpt lat="46.59777" lon="-1.83161">
        <ele>5</ele>
        <time>2018-03-17T08:17:56Z</time>
      </trkpt>
      <trkpt lat="46.59792" lon="-1.83152">
        <ele>5</ele>
        <time>2018-03-17T08:18:56Z</time>
      </trkpt>
      <trkpt lat="46.59806" lon="-1.83144">
        <ele>5</ele>
        <time>2018-03-17T08:19:56Z</time>
      </trkpt>
      <trkpt lat="46.59836" lon="-1.83129">
        <ele>6</ele>
        <time>2018-03-17T08:20:56Z</time>
      </trkpt>
      <trkpt lat="46.59864" lon="-1.83116">
        <ele>7</ele>
        <time>2018-03-17T08:21:56Z</time>
      </trkpt>
      <trkpt lat="46.59891" lon="-1.83106">
        <ele>8</ele>
        <time>2018-03-17T08:22:56Z</time>
      </trkpt>
      <trkpt lat="46.59914" lon="-1.83098">
        <ele>9</ele>
        <time>2018-03-17T08:23:56Z</time>
      </trkpt>
      <trkpt lat="46.59937" lon="-1.8309">
        <ele>9</ele>
        <time>2018-03-17T08:24:56Z</time>
      </trkpt>
      <trkpt lat="46.59961" lon="-1.83087">
        <ele>10</ele>
        <time>2018-03-17T08:25:56Z</time>
      </trkpt>
      <trkpt lat="46.59975" lon="-1.83086">
        <ele>10</ele>
        <time>2018-03-17T08:26:56Z</time>
      </trkpt>
      <trkpt lat="46.60002" lon="-1.83088">
        <ele>11</ele>
        <time>2018-03-17T08:27:56Z</time>
      </trkpt>
      <trkpt lat="46.60027" lon="-1.8309">
        <ele>12</ele>
        <time>2018-03-17T08:28:56Z</time>
      </trkpt>
      <trkpt lat="46.60038" lon="-1.83091">
        <ele>12</ele>
        <time>2018-03-17T08:29:56Z</time>
      </trkpt>
      <trkpt lat="46.60045" lon="-1.83092">
        <ele>12</ele>
        <time>2018-03-17T08:30:56Z</time>
      </trkpt>
      <trkpt lat="46.60078" lon="-1.83094">
        <ele>14</ele>
        <time>2018-03-17T08:31:56Z</time>
      </trkpt>
      <trkpt lat="46.60098" lon="-1.83094">
        <ele>14</ele>
        <time>2018-03-17T08:32:56Z</time>
      </trkpt>
      <trkpt lat="46.60116" lon="-1.83089">
        <ele>15</ele>
        <time>2018-03-17T08:33:56Z</time>
      </trkpt>
      <trkpt lat="46.60123" lon="-1.83087">
        <ele>15</ele>
        <time>2018-03-17T08:34:56Z</time>
      </trkpt>
      <trkpt lat="46.60137" lon="-1.83081">
        <ele>15</ele>
        <time>2018-03-17T08:35:56Z</time>
      </trkpt>
      <trkpt lat="46.60151" lon="-1.83073">
        <ele>16</ele>
        <time>2018-03-17T08:36:56Z</time>
      </trkpt>
      <trkpt lat="46.60164" lon="-1.83065">
        <ele>16</ele>
        <time>2018-03-17T08:37:56Z</time>
      </trkpt>
      <trkpt lat="46.60188" lon="-1.83048">
        <ele>17</ele>
        <time>2018-03-17T08:38:56Z</time>
      </trkpt>
      <trkpt lat="46.60213" lon="-1.83031">
        <ele>17</ele>
        <time>2018-03-17T08:39:56Z</time>
      </trkpt>
      <trkpt lat="46.6024" lon="-1.83014">
        <ele>17</ele>
        <time>2018-03-17T08:40:56Z</time>
      </trkpt>
      <trkpt lat="46.60251" lon="-1.83007">
        <ele>17</ele>
        <time>2018-03-17T08:41:56Z</time>
      </trkpt>
      <trkpt lat="46.60261" lon="-1.83003">
        <ele>17</ele>
        <time>2018-03-17T08:42:56Z</time>
      </trkpt>
      <trkpt lat="46.60268" lon="-1.83001">
        <ele>17</ele>
        <time>2018-03-17T08:43:56Z</time>
      </trkpt>
      <trkpt lat="46.6029" lon="-1.82997">
        <ele>18</ele>
        <time>2018-03-17T08:44:56Z</time>
      </trkpt>
      <trkpt lat="46.60303" lon="-1.82995">
        <ele>18</ele>
        <time>2018-03-17T08:45:56Z</time>
      </trkpt>
      <trkpt lat="46.60312" lon="-1.82994">
        <ele>18</ele>
        <time>2018-03-17T08:46:56Z</time>
      </trkpt>
      <trkpt lat="46.60319" lon="-1.82994">
        <ele>19</ele>
        <time>2018-03-17T08:47:56Z</time>
      </trkpt>
      <trkpt lat="46.60322" lon="-1.82995">
        <ele>19</ele>
        <time>2018-03-17T08:48:56Z</time>
      </trkpt>
      <trkpt lat="46.60335" lon="-1.82998">
        <ele>19</ele>
        <time>2018-03-17T08:49:56Z</time>
      </trkpt>
      <trkpt lat="46.60341" lon="-1.82994">
        <ele>19</ele>
        <time>2018-03-17T08:50:56Z</time>
      </trkpt>
      <trkpt lat="46.60347" lon="-1.82992">
        <ele>19</ele>
        <time>2018-03-17T08:51:56Z</time>
      </trkpt>
      <trkpt lat="46.60347" lon="-1.82992">
        <ele>19</ele>
        <time>2018-03-17T08:52:56Z</time>
      </trkpt>
      <trkpt lat="46.60347" lon="-1.82991">
        <ele>19</ele>
        <time>2018-03-17T08:53:56Z</time>
      </trkpt>
      <trkpt lat="46.60348" lon="-1.82991">
        <ele>19</ele>
        <time>2018-03-17T08:54:56Z</time>
      </trkpt>
      <trkpt lat="46.60348" lon="-1.8299">
        <ele>19</ele>
        <time>2018-03-17T08:55:56Z</time>
      </trkpt>
      <trkpt lat="46.60348" lon="-1.82989">
        <ele>19</ele>
        <time>2018-03-17T08:56:56Z</time>
      </trkpt>
      <trkpt lat="46.60348" lon="-1.82988">
        <ele>19</ele>
        <time>2018-03-17T08:57:56Z</time>
      </trkpt>
      <trkpt lat="46.60349" lon="-1.82988">
        <ele>19</ele>
        <time>2018-03-17T08:58:56Z</time>
      </trkpt>
      <trkpt lat="46.60349" lon="-1.82987">
        <ele>19</ele>
        <time>2018-03-17T08:59:56Z</time>
      </trkpt>
      <trkpt lat="46.60349" lon="-1.82986">
        <ele>19</ele>
        <time>2018-03-17T09:00:56Z</time>
      </trkpt>
      <trkpt lat="46.6035" lon="-1.82986">
        <ele>19</ele>
        <time>2018-03-17T09:01:56Z</time>
      </trkpt>
      <trkpt lat="46.6035" lon="-1.82985">
        <ele>19</ele>
        <time>2018-03-17T09:02:56Z</time>
      </trkpt>
      <trkpt lat="46.60351" lon="-1.82985">
        <ele>19</ele>
        <time>2018-03-17T09:03:56Z</time>
      </trkpt>
      <trkpt lat="46.60351" lon="-1.82984">
        <ele>19</ele>
        <time>2018-03-17T09:04:56Z</time>
      </trkpt>
      <trkpt lat="46.60352" lon="-1.82984">
        <ele>19</ele>
        <time>2018-03-17T09:05:56Z</time>
      </trkpt>
      <trkpt lat="46.60352" lon="-1.82983">
        <ele>19</ele>
        <time>2018-03-17T09:06:56Z</time>
      </trkpt>
      <trkpt lat="46.60353" lon="-1.82983">
        <ele>19</ele>
        <time>2018-03-17T09:07:56Z</time>
      </trkpt>
      <trkpt lat="46.60354" lon="-1.82982">
        <ele>19</ele>
        <time>2018-03-17T09:08:56Z</time>
      </trkpt>
      <trkpt lat="46.60355" lon="-1.82982">
        <ele>19</ele>
        <time>2018-03-17T09:09:56Z</time>
      </trkpt>
      <trkpt lat="46.60356" lon="-1.82982">
        <ele>19</ele>
        <time>2018-03-17T09:10:56Z</time>
      </trkpt>
      <trkpt lat="46.60357" lon="-1.82982">
        <ele>19</ele>
        <time>2018-03-17T09:11:56Z</time>
      </trkpt>
      <trkpt lat="46.60358" lon="-1.82982">
        <ele>19</ele>
        <time>2018-03-17T09:12:56Z</time>
      </trkpt>
      <trkpt lat="46.60358" lon="-1.82983">
        <ele>19</ele>
        <time>2018-03-17T09:13:56Z</time>
      </trkpt>
      <trkpt lat="46.60359" lon="-1.82983">
        <ele>19</ele>
        <time>2018-03-17T09:14:56Z</time>
      </trkpt>
      <trkpt lat="46.6036" lon="-1.82984">
        <ele>19</ele>
        <time>2018-03-17T09:15:56Z</time>
      </trkpt>
      <trkpt lat="46.60361" lon="-1.82985">
        <ele>19</ele>
        <time>2018-03-17T09:16:56Z</time>
      </trkpt>
      <trkpt lat="46.60362" lon="-1.82986">
        <ele>19</ele>
        <time>2018-03-17T09:17:56Z</time>
      </trkpt>
      <trkpt lat="46.60362" lon="-1.82987">
        <ele>19</ele>
        <time>2018-03-17T09:18:56Z</time>
      </trkpt>
      <trkpt lat="46.60363" lon="-1.82987">
        <ele>19</ele>
        <time>2018-03-17T09:19:56Z</time>
      </trkpt>
      <trkpt lat="46.60363" lon="-1.82988">
        <ele>19</ele>
        <time>2018-03-17T09:20:56Z</time>
      </trkpt>
      <trkpt lat="46.60363" lon="-1.82989">
        <ele>19</ele>
        <time>2018-03-17T09:21:56Z</time>
      </trkpt>
      <trkpt lat="46.60363" lon="-1.8299">
        <ele>19</ele>
        <time>2018-03-17T09:22:56Z</time>
      </trkpt>
      <trkpt lat="46.60364" lon="-1.8299">
        <ele>19</ele>
        <time>2018-03-17T09:23:56Z</time>
      </trkpt>
      <trkpt lat="46.60364" lon="-1.82991">
        <ele>19</ele>
        <time>2018-03-17T09:24:56Z</time>
      </trkpt>
      <trkpt lat="46.60364" lon="-1.82992">
        <ele>19</ele>
        <time>2018-03-17T09:25:56Z</time>
      </trkpt>
      <trkpt lat="46.60368" lon="-1.82998">
        <ele>19</ele>
        <time>2018-03-17T09:26:56Z</time>
      </trkpt>
      <trkpt lat="46.60373" lon="-1.83003">
        <ele>19</ele>
        <time>2018-03-17T09:27:56Z</time>
      </trkpt>
      <trkpt lat="46.60378" lon="-1.83006">
        <ele>19</ele>
        <time>2018-03-17T09:28:56Z</time>
      </trkpt>
      <trkpt lat="46.60396" lon="-1.83013">
        <ele>19</ele>
        <time>2018-03-17T09:29:56Z</time>
      </trkpt>
      <trkpt lat="46.60431" lon="-1.83024">
        <ele>20</ele>
        <time>2018-03-17T09:30:56Z</time>
      </trkpt>
      <trkpt lat="46.60438" lon="-1.83026">
        <ele>21</ele>
        <time>2018-03-17T09:31:56Z</time>
      </trkpt>
      <trkpt lat="46.60459" lon="-1.83032">
        <ele>22</ele>
        <time>2018-03-17T09:32:56Z</time>
      </trkpt>
      <trkpt lat="46.60464" lon="-1.83033">
        <ele>22</ele>
        <time>2018-03-17T09:33:56Z</time>
      </trkpt>
      <trkpt lat="46.60473" lon="-1.83033">
        <ele>22</ele>
        <time>2018-03-17T09:34:56Z</time>
      </trkpt>
      <trkpt lat="46.60486" lon="-1.83031">
        <ele>23</ele>
        <time>2018-03-17T09:35:56Z</time>
      </trkpt>
      <trkpt lat="46.60498" lon="-1.8303">
        <ele>24</ele>
        <time>2018-03-17T09:36:56Z</time>
      </trkpt>
      <trkpt lat="46.60505" lon="-1.83029">
        <ele>24</ele>
        <time>2018-03-17T09:37:56Z</time>
      </trkpt>
      <trkpt lat="46.60509" lon="-1.83028">
        <ele>24</ele>
        <time>2018-03-17T09:38:56Z</time>
      </trkpt>
      <trkpt lat="46.60521" lon="-1.83027">
        <ele>25</ele>
        <time>2018-03-17T09:39:56Z</time>
      </trkpt>
      <trkpt lat="46.60532" lon="-1.83029">
        <ele>25</ele>
        <time>2018-03-17T09:40:56Z</time>
      </trkpt>
      <trkpt lat="46.60537" lon="-1.83031">
        <ele>25</ele>
        <time>2018-03-17T09:41:56Z</time>
      </trkpt>
      <trkpt lat="46.60541" lon="-1.83035">
        <ele>25</ele>
        <time>2018-03-17T09:42:56Z</time>
      </trkpt>
      <trkpt lat="46.60543" lon="-1.83036">
        <ele>25</ele>
        <time>2018-03-17T09:43:56Z</time>
      </trkpt>
      <trkpt lat="46.60545" lon="-1.83039">
        <ele>25</ele>
        <time>2018-03-17T09:44:56Z</time>
      </trkpt>
      <trkpt lat="46.60547" lon="-1.83044">
        <ele>25</ele>
        <time>2018-03-17T09:45:56Z</time>
      </trkpt>
      <trkpt lat="46.60548" lon="-1.83049">
        <ele>25</ele>
        <time>2018-03-17T09:46:56Z</time>
      </trkpt>
      <trkpt lat="46.60552" lon="-1.8306">
        <ele>25</ele>
        <time>2018-03-17T09:47:56Z</time>
      </trkpt>
      <trkpt lat="46.60556" lon="-1.83078">
        <ele>25</ele>
        <time>2018-03-17T09:48:56Z</time>
      </trkpt>
      <trkpt lat="46.60559" lon="-1.83094">
        <ele>25</ele>
        <time>2018-03-17T09:49:56Z</time>
      </trkpt>
      <trkpt lat="46.60561" lon="-1.83115">
        <ele>24</ele>
        <time>2018-03-17T09:50:56Z</time>
      </trkpt>
      <trkpt lat="46.60562" lon="-1.83128">
        <ele>24</ele>
        <time>2018-03-17T09:51:56Z</time>
      </trkpt>
      <trkpt lat="46.6056" lon="-1.83167">
        <ele>23</ele>
        <time>2018-03-17T09:52:56Z</time>
      </trkpt>
      <trkpt lat="46.6056" lon="-1.83169">
        <ele>23</ele>
        <time>2018-03-17T09:53:56Z</time>
      </trkpt>
      <trkpt lat="46.60559" lon="-1.83193">
        <ele>22</ele>
        <time>2018-03-17T09:54:56Z</time>
      </trkpt>
      <trkpt lat="46.60558" lon="-1.83223">
        <ele>21</ele>
        <time>2018-03-17T09:55:56Z</time>
      </trkpt>
      <trkpt lat="46.60557" lon="-1.83248">
        <ele>21</ele>
        <time>2018-03-17T09:56:56Z</time>
      </trkpt>
      <trkpt lat="46.60557" lon="-1.83271">
        <ele>21</ele>
        <time>2018-03-17T09:57:56Z</time>
      </trkpt>
      <trkpt lat="46.60557" lon="-1.83278">
        <ele>21</ele>
        <time>2018-03-17T09:58:56Z</time>
      </trkpt>
      <trkpt lat="46.60557" lon="-1.83293">
        <ele>21</ele>
        <time>2018-03-17T09:59:56Z</time>
      </trkpt>
      <trkpt lat="46.60561" lon="-1.83337">
        <ele>21</ele>
        <time>2018-03-17T10:00:56Z</time>
      </trkpt>
      <trkpt lat="46.60564" lon="-1.83348">
        <ele>20</ele>
        <time>2018-03-17T10:01:56Z</time>
      </trkpt>
      <trkpt lat="46.60567" lon="-1.83367">
        <ele>20</ele>
        <time>2018-03-17T10:02:56Z</time>
      </trkpt>
      <trkpt lat="46.60568" lon="-1.83373">
        <ele>20</ele>
        <time>2018-03-17T10:03:56Z</time>
      </trkpt>
      <trkpt lat="46.60575" lon="-1.83408">
        <ele>20</ele>
        <time>2018-03-17T10:04:56Z</time>
      </trkpt>
      <trkpt lat="46.60583" lon="-1.83452">
        <ele>20</ele>
        <time>2018-03-17T10:05:56Z</time>
      </trkpt>
      <trkpt lat="46.6059" lon="-1.83484">
        <ele>20</ele>
        <time>2018-03-17T10:06:56Z</time>
      </trkpt>
      <trkpt lat="46.60591" lon="-1.83491">
        <ele>20</ele>
        <time>2018-03-17T10:07:56Z</time>
      </trkpt>
      <trkpt lat="46.60595" lon="-1.83499">
        <ele>20</ele>
        <time>2018-03-17T10:08:56Z</time>
      </trkpt>
      <trkpt lat="46.60603" lon="-1.8352">
        <ele>20</ele>
        <time>2018-03-17T10:09:56Z</time>
      </trkpt>
      <trkpt lat="46.60603" lon="-1.8352">
        <ele>20</ele>
        <time>2018-03-17T10:10:56Z</time>
      </trkpt>
      <trkpt lat="46.60604" lon="-1.8352">
        <ele>20</ele>
        <time>2018-03-17T10:11:56Z</time>
      </trkpt>
      <trkpt lat="46.60604" lon="-1.83519">
        <ele>20</ele>
        <time>2018-03-17T10:12:56Z</time>
      </trkpt>
      <trkpt lat="46.60605" lon="-1.83519">
        <ele>20</ele>
        <time>2018-03-17T10:13:56Z</time>
      </trkpt>
      <trkpt lat="46.60606" lon="-1.83519">
        <ele>20</ele>
        <time>2018-03-17T10:14:56Z</time>
      </trkpt>
      <trkpt lat="46.60606" lon="-1.8352">
        <ele>20</ele>
        <time>2018-03-17T10:15:56Z</time>
      </trkpt>
      <trkpt lat="46.60607" lon="-1.8352">
        <ele>20</ele>
        <time>2018-03-17T10:16:56Z</time>
      </trkpt>
      <trkpt lat="46.60608" lon="-1.8352">
        <ele>20</ele>
        <time>2018-03-17T10:17:56Z</time>
      </trkpt>
      <trkpt lat="46.60608" lon="-1.83521">
        <ele>20</ele>
        <time>2018-03-17T10:18:56Z</time>
      </trkpt>
      <trkpt lat="46.60609" lon="-1.83521">
        <ele>20</ele>
        <time>2018-03-17T10:19:56Z</time>
      </trkpt>
      <trkpt lat="46.6061" lon="-1.83522">
        <ele>20</ele>
        <time>2018-03-17T10:20:56Z</time>
      </trkpt>
      <trkpt lat="46.60611" lon="-1.83523">
        <ele>20</ele>
        <time>2018-03-17T10:21:56Z</time>
      </trkpt>
      <trkpt lat="46.60611" lon="-1.83524">
        <ele>20</ele>
        <time>2018-03-17T10:22:56Z</time>
      </trkpt>
      <trkpt lat="46.60612" lon="-1.83524">
        <ele>20</ele>
        <time>2018-03-17T10:23:56Z</time>
      </trkpt>
      <trkpt lat="46.60612" lon="-1.83525">
        <ele>20</ele>
        <time>2018-03-17T10:24:56Z</time>
      </trkpt>
      <trkpt lat="46.60613" lon="-1.83526">
        <ele>20</ele>
        <time>2018-03-17T10:25:56Z</time>
      </trkpt>
      <trkpt lat="46.60613" lon="-1.83527">
        <ele>20</ele>
        <time>2018-03-17T10:26:56Z</time>
      </trkpt>
      <trkpt lat="46.60613" lon="-1.83528">
        <ele>20</ele>
        <time>2018-03-17T10:27:56Z</time>
      </trkpt>
      <trkpt lat="46.60614" lon="-1.83529">
        <ele>20</ele>
        <time>2018-03-17T10:28:56Z</time>
      </trkpt>
      <trkpt lat="46.60614" lon="-1.8353">
        <ele>20</ele>
        <time>2018-03-17T10:29:56Z</time>
      </trkpt>
      <trkpt lat="46.60614" lon="-1.83531">
        <ele>20</ele>
        <time>2018-03-17T10:30:56Z</time>
      </trkpt>
      <trkpt lat="46.60614" lon="-1.83532">
        <ele>20</ele>
        <time>2018-03-17T10:31:56Z</time>
      </trkpt>
      <trkpt lat="46.60615" lon="-1.83533">
        <ele>20</ele>
        <time>2018-03-17T10:32:56Z</time>
      </trkpt>
      <trkpt lat="46.60615" lon="-1.83534">
        <ele>20</ele>
        <time>2018-03-17T10:33:56Z</time>
      </trkpt>
      <trkpt lat="46.60615" lon="-1.83535">
        <ele>20</ele>
        <time>2018-03-17T10:34:56Z</time>
      </trkpt>
      <trkpt lat="46.60615" lon="-1.83536">
        <ele>20</ele>
        <time>2018-03-17T10:35:56Z</time>
      </trkpt>
      <trkpt lat="46.60614" lon="-1.83537">
        <ele>20</ele>
        <time>2018-03-17T10:36:56Z</time>
      </trkpt>
      <trkpt lat="46.60614" lon="-1.83538">
        <ele>20</ele>
        <time>2018-03-17T10:37:56Z</time>
      </trkpt>
      <trkpt lat="46.60614" lon="-1.83539">
        <ele>20</ele>
        <time>2018-03-17T10:38:56Z</time>
      </trkpt>
      <trkpt lat="46.60614" lon="-1.8354">
        <ele>20</ele>
        <time>2018-03-17T10:39:56Z</time>
      </trkpt>
      <trkpt lat="46.60613" lon="-1.83541">
        <ele>20</ele>
        <time>2018-03-17T10:40:56Z</time>
      </trkpt>
      <trkpt lat="46.60613" lon="-1.83542">
        <ele>20</ele>
        <time>2018-03-17T10:41:56Z</time>
      </trkpt>
      <trkpt lat="46.60612" lon="-1.83543">
        <ele>19</ele>
        <time>2018-03-17T10:42:56Z</time>
      </trkpt>
      <trkpt lat="46.60612" lon="-1.83544">
        <ele>19</ele>
        <time>2018-03-17T10:43:56Z</time>
      </trkpt>
      <trkpt lat="46.60611" lon="-1.83545">
        <ele>19</ele>
        <time>2018-03-17T10:44:56Z</time>
      </trkpt>
      <trkpt lat="46.60611" lon="-1.83546">
        <ele>19</ele>
        <time>2018-03-17T10:45:56Z</time>
      </trkpt>
      <trkpt lat="46.6061" lon="-1.83546">
        <ele>19</ele>
        <time>2018-03-17T10:46:56Z</time>
      </trkpt>
      <trkpt lat="46.6061" lon="-1.83547">
        <ele>19</ele>
        <time>2018-03-17T10:47:56Z</time>
      </trkpt>
      <trkpt lat="46.60609" lon="-1.83547">
        <ele>19</ele>
        <time>2018-03-17T10:48:56Z</time>
      </trkpt>
      <trkpt lat="46.60609" lon="-1.83548">
        <ele>19</ele>
        <time>2018-03-17T10:49:56Z</time>
      </trkpt>
      <trkpt lat="46.60608" lon="-1.83548">
        <ele>19</ele>
        <time>2018-03-17T10:50:56Z</time>
      </trkpt>
      <trkpt lat="46.60609" lon="-1.83567">
        <ele>19</ele>
        <time>2018-03-17T10:51:56Z</time>
      </trkpt>
      <trkpt lat="46.60609" lon="-1.83583">
        <ele>18</ele>
        <time>2018-03-17T10:52:56Z</time>
      </trkpt>
      <trkpt lat="46.6061" lon="-1.83585">
        <ele>18</ele>
        <time>2018-03-17T10:53:56Z</time>
      </trkpt>
      <trkpt lat="46.60612" lon="-1.83592">
        <ele>18</ele>
        <time>2018-03-17T10:54:56Z</time>
      </trkpt>
      <trkpt lat="46.60617" lon="-1.8361">
        <ele>18</ele>
        <time>2018-03-17T10:55:56Z</time>
      </trkpt>
      <trkpt lat="46.60624" lon="-1.83638">
        <ele>18</ele>
        <time>2018-03-17T10:56:56Z</time>
      </trkpt>
      <trkpt lat="46.60631" lon="-1.83667">
        <ele>18</ele>
        <time>2018-03-17T10:57:56Z</time>
      </trkpt>
      <trkpt lat="46.6064" lon="-1.83701">
        <ele>17</ele>
        <time>2018-03-17T10:58:56Z</time>
      </trkpt>
      <trkpt lat="46.60646" lon="-1.83728">
        <ele>17</ele>
        <time>2018-03-17T10:59:56Z</time>
      </trkpt>
      <trkpt lat="46.60651" lon="-1.83748">
        <ele>17</ele>
        <time>2018-03-17T11:00:56Z</time>
      </trkpt>
      <trkpt lat="46.60655" lon="-1.83766">
        <ele>17</ele>
        <time>2018-03-17T11:01:56Z</time>
      </trkpt>
      <trkpt lat="46.60664" lon="-1.83802">
        <ele>18</ele>
        <time>2018-03-17T11:02:56Z</time>
      </trkpt>
      <trkpt lat="46.60669" lon="-1.83823">
        <ele>18</ele>
        <time>2018-03-17T11:03:56Z</time>
      </trkpt>
      <trkpt lat="46.60674" lon="-1.83841">
        <ele>18</ele>
        <time>2018-03-17T11:04:56Z</time>
      </trkpt>
      <trkpt lat="46.60681" lon="-1.83865">
        <ele>18</ele>
        <time>2018-03-17T11:05:56Z</time>
      </trkpt>
      <trkpt lat="46.60685" lon="-1.83884">
        <ele>18</ele>
        <time>2018-03-17T11:06:56Z</time>
      </trkpt>
      <trkpt lat="46.60689" lon="-1.83892">
        <ele>18</ele>
        <time>2018-03-17T11:07:56Z</time>
      </trkpt>
      <trkpt lat="46.60702" lon="-1.83943">
        <ele>15</ele>
        <time>2018-03-17T11:08:56Z</time>
      </trkpt>
      <trkpt lat="46.60704" lon="-1.83954">
        <ele>14</ele>
        <time>2018-03-17T11:09:56Z</time>
      </trkpt>
      <trkpt lat="46.60706" lon="-1.83962">
        <ele>13</ele>
        <time>2018-03-17T11:10:56Z</time>
      </trkpt>
      <trkpt lat="46.60715" lon="-1.83995">
        <ele>10</ele>
        <time>2018-03-17T11:11:56Z</time>
      </trkpt>
      <trkpt lat="46.60723" lon="-1.84027">
        <ele>8</ele>
        <time>2018-03-17T11:12:56Z</time>
      </trkpt>
      <trkpt lat="46.60743" lon="-1.84103">
        <ele>4</ele>
        <time>2018-03-17T11:13:56Z</time>
      </trkpt>
      <trkpt lat="46.60743" lon="-1.84111">
        <ele>4</ele>
        <time>2018-03-17T11:14:56Z</time>
      </trkpt>
      <trkpt lat="46.60786" lon="-1.84277">
        <ele>7</ele>
        <time>2018-03-17T11:15:56Z</time>
      </trkpt>
      <trkpt lat="46.60813" lon="-1.84385">
        <ele>9</ele>
        <time>2018-03-17T11:16:56Z</time>
      </trkpt>
      <trkpt lat="46.60822" lon="-1.84407">
        <ele>10</ele>
        <time>2018-03-17T11:17:56Z</time>
      </trkpt>
      <trkpt lat="46.60833" lon="-1.84432">
        <ele>10</ele>
        <time>2018-03-17T11:18:56Z</time>
      </trkpt>
      <trkpt lat="46.6084" lon="-1.84446">
        <ele>11</ele>
        <time>2018-03-17T11:19:56Z</time>
      </trkpt>
      <trkpt lat="46.60848" lon="-1.84462">
        <ele>11</ele>
        <time>2018-03-17T11:20:56Z</time>
      </trkpt>
      <trkpt lat="46.60858" lon="-1.84477">
        <ele>12</ele>
        <time>2018-03-17T11:21:56Z</time>
      </trkpt>
      <trkpt lat="46.60866" lon="-1.84491">
        <ele>12</ele>
        <time>2018-03-17T11:22:56Z</time>
      </trkpt>
      <trkpt lat="46.60885" lon="-1.84517">
        <ele>13</ele>
        <time>2018-03-17T11:23:56Z</time>
      </trkpt>
      <trkpt lat="46.60902" lon="-1.84537">
        <ele>14</ele>
        <time>2018-03-17T11:24:56Z</time>
      </trkpt>
      <trkpt lat="46.60913" lon="-1.84549">
        <ele>15</ele>
        <time>2018-03-17T11:25:56Z</time>
      </trkpt>
      <trkpt lat="46.60924" lon="-1.84559">
        <ele>15</ele>
        <time>2018-03-17T11:26:56Z</time>
      </trkpt>
      <trkpt lat="46.60929" lon="-1.84568">
        <ele>16</ele>
        <time>2018-03-17T11:27:56Z</time>
      </trkpt>
      <trkpt lat="46.60936" lon="-1.84575">
        <ele>16</ele>
        <time>2018-03-17T11:28:56Z</time>
      </trkpt>
      <trkpt lat="46.60943" lon="-1.8458">
        <ele>16</ele>
        <time>2018-03-17T11:29:56Z</time>
      </trkpt>
      <trkpt lat="46.60963" lon="-1.84597">
        <ele>18</ele>
        <time>2018-03-17T11:30:56Z</time>
      </trkpt>
      <trkpt lat="46.60984" lon="-1.84615">
        <ele>18</ele>
        <time>2018-03-17T11:31:56Z</time>
      </trkpt>
      <trkpt lat="46.60999" lon="-1.84627">
        <ele>19</ele>
        <time>2018-03-17T11:32:56Z</time>
      </trkpt>
      <trkpt lat="46.61021" lon="-1.84645">
        <ele>19</ele>
        <time>2018-03-17T11:33:56Z</time>
      </trkpt>
      <trkpt lat="46.6105" lon="-1.8467">
        <ele>19</ele>
        <time>2018-03-17T11:34:56Z</time>
      </trkpt>
      <trkpt lat="46.61062" lon="-1.84679">
        <ele>19</ele>
        <time>2018-03-17T11:35:56Z</time>
      </trkpt>
      <trkpt lat="46.61072" lon="-1.84688">
        <ele>19</ele>
        <time>2018-03-17T11:36:56Z</time>
      </trkpt>
      <trkpt lat="46.61077" lon="-1.84693">
        <ele>19</ele>
        <time>2018-03-17T11:37:56Z</time>
      </trkpt>
      <trkpt lat="46.61083" lon="-1.84699">
        <ele>19</ele>
        <time>2018-03-17T11:38:56Z</time>
      </trkpt>
      <trkpt lat="46.61089" lon="-1.84707">
        <ele>19</ele>
        <time>2018-03-17T11:39:56Z</time>
      </trkpt>
      <trkpt lat="46.611" lon="-1.84726">
        <ele>19</ele>
        <time>2018-03-17T11:40:56Z</time>
      </trkpt>
      <trkpt lat="46.61106" lon="-1.84734">
        <ele>19</ele>
        <time>2018-03-17T11:41:56Z</time>
      </trkpt>
      <trkpt lat="46.61108" lon="-1.84737">
        <ele>19</ele>
        <time>2018-03-17T11:42:56Z</time>
      </trkpt>
      <trkpt lat="46.61112" lon="-1.8474">
        <ele>19</ele>
        <time>2018-03-17T11:43:56Z</time>
      </trkpt>
      <trkpt lat="46.61119" lon="-1.84744">
        <ele>19</ele>
        <time>2018-03-17T11:44:56Z</time>
      </trkpt>
      <trkpt lat="46.61119" lon="-1.84744">
        <ele>19</ele>
        <time>2018-03-17T11:45:56Z</time>
      </trkpt>
      <trkpt lat="46.61121" lon="-1.84743">
        <ele>19</ele>
        <time>2018-03-17T11:46:56Z</time>
      </trkpt>
      <trkpt lat="46.61123" lon="-1.84742">
        <ele>19</ele>
        <time>2018-03-17T11:47:56Z</time>
      </trkpt>
      <trkpt lat="46.61125" lon="-1.84742">
        <ele>19</ele>
        <time>2018-03-17T11:48:56Z</time>
      </trkpt>
      <trkpt lat="46.61127" lon="-1.84742">
        <ele>19</ele>
        <time>2018-03-17T11:49:56Z</time>
      </trkpt>
      <trkpt lat="46.61129" lon="-1.84742">
        <ele>19</ele>
        <time>2018-03-17T11:50:56Z</time>
      </trkpt>
      <trkpt lat="46.61131" lon="-1.84743">
        <ele>19</ele>
        <time>2018-03-17T11:51:56Z</time>
      </trkpt>
      <trkpt lat="46.61133" lon="-1.84744">
        <ele>19</ele>
        <time>2018-03-17T11:52:56Z</time>
      </trkpt>
      <trkpt lat="46.61135" lon="-1.84745">
        <ele>19</ele>
        <time>2018-03-17T11:53:56Z</time>
      </trkpt>
      <trkpt lat="46.61137" lon="-1.84747">
        <ele>19</ele>
        <time>2018-03-17T11:54:56Z</time>
      </trkpt>
      <trkpt lat="46.61139" lon="-1.84748">
        <ele>19</ele>
        <time>2018-03-17T11:55:56Z</time>
      </trkpt>
      <trkpt lat="46.6114" lon="-1.8475">
        <ele>19</ele>
        <time>2018-03-17T11:56:56Z</time>
      </trkpt>
      <trkpt lat="46.61142" lon="-1.84752">
        <ele>19</ele>
        <time>2018-03-17T11:57:56Z</time>
      </trkpt>
      <trkpt lat="46.61143" lon="-1.84755">
        <ele>19</ele>
        <time>2018-03-17T11:58:56Z</time>
      </trkpt>
      <trkpt lat="46.61144" lon="-1.84757">
        <ele>19</ele>
        <time>2018-03-17T11:59:56Z</time>
      </trkpt>
      <trkpt lat="46.61145" lon="-1.8476">
        <ele>19</ele>
        <time>2018-03-17T12:00:56Z</time>
      </trkpt>
      <trkpt lat="46.61146" lon="-1.84763">
        <ele>19</ele>
        <time>2018-03-17T12:01:56Z</time>
      </trkpt>
      <trkpt lat="46.61147" lon="-1.84766">
        <ele>19</ele>
        <time>2018-03-17T12:02:56Z</time>
      </trkpt>
      <trkpt lat="46.61147" lon="-1.84768">
        <ele>19</ele>
        <time>2018-03-17T12:03:56Z</time>
      </trkpt>
      <trkpt lat="46.61148" lon="-1.84771">
        <ele>19</ele>
        <time>2018-03-17T12:04:56Z</time>
      </trkpt>
      <trkpt lat="46.61148" lon="-1.84774">
        <ele>19</ele>
        <time>2018-03-17T12:05:56Z</time>
      </trkpt>
      <trkpt lat="46.61148" lon="-1.84777">
        <ele>19</ele>
        <time>2018-03-17T12:06:56Z</time>
      </trkpt>
      <trkpt lat="46.61147" lon="-1.8478">
        <ele>19</ele>
        <time>2018-03-17T12:07:56Z</time>
      </trkpt>
      <trkpt lat="46.61147" lon="-1.84783">
        <ele>19</ele>
        <time>2018-03-17T12:08:56Z</time>
      </trkpt>
      <trkpt lat="46.61146" lon="-1.84785">
        <ele>19</ele>
        <time>2018-03-17T12:09:56Z</time>
      </trkpt>
      <trkpt lat="46.61145" lon="-1.84788">
        <ele>19</ele>
        <time>2018-03-17T12:10:56Z</time>
      </trkpt>
      <trkpt lat="46.61144" lon="-1.8479">
        <ele>20</ele>
        <time>2018-03-17T12:11:56Z</time>
      </trkpt>
      <trkpt lat="46.61143" lon="-1.84792">
        <ele>20</ele>
        <time>2018-03-17T12:12:56Z</time>
      </trkpt>
      <trkpt lat="46.61142" lon="-1.84794">
        <ele>20</ele>
        <time>2018-03-17T12:13:56Z</time>
      </trkpt>
      <trkpt lat="46.61141" lon="-1.84796">
        <ele>20</ele>
        <time>2018-03-17T12:14:56Z</time>
      </trkpt>
      <trkpt lat="46.61139" lon="-1.84798">
        <ele>20</ele>
        <time>2018-03-17T12:15:56Z</time>
      </trkpt>
      <trkpt lat="46.61138" lon="-1.84813">
        <ele>20</ele>
        <time>2018-03-17T12:16:56Z</time>
      </trkpt>
      <trkpt lat="46.61135" lon="-1.84824">
        <ele>20</ele>
        <time>2018-03-17T12:17:56Z</time>
      </trkpt>
      <trkpt lat="46.61135" lon="-1.84824">
        <ele>20</ele>
        <time>2018-03-17T12:18:56Z</time>
      </trkpt>
      <trkpt lat="46.61134" lon="-1.84843">
        <ele>20</ele>
        <time>2018-03-17T12:19:56Z</time>
      </trkpt>
      <trkpt lat="46.61135" lon="-1.8487">
        <ele>21</ele>
        <time>2018-03-17T12:20:56Z</time>
      </trkpt>
      <trkpt lat="46.61136" lon="-1.84903">
        <ele>22</ele>
        <time>2018-03-17T12:21:56Z</time>
      </trkpt>
      <trkpt lat="46.61138" lon="-1.84922">
        <ele>22</ele>
        <time>2018-03-17T12:22:56Z</time>
      </trkpt>
      <trkpt lat="46.61139" lon="-1.84937">
        <ele>21</ele>
        <time>2018-03-17T12:23:56Z</time>
      </trkpt>
      <trkpt lat="46.61144" lon="-1.84955">
        <ele>21</ele>
        <time>2018-03-17T12:24:56Z</time>
      </trkpt>
      <trkpt lat="46.61149" lon="-1.84967">
        <ele>21</ele>
        <time>2018-03-17T12:25:56Z</time>
      </trkpt>
      <trkpt lat="46.61152" lon="-1.84973">
        <ele>20</ele>
        <time>2018-03-17T12:26:56Z</time>
      </trkpt>
      <trkpt lat="46.61167" lon="-1.84994">
        <ele>19</ele>
        <time>2018-03-17T12:27:56Z</time>
      </trkpt>
      <trkpt lat="46.61188" lon="-1.85018">
        <ele>19</ele>
        <time>2018-03-17T12:28:56Z</time>
      </trkpt>
      <trkpt lat="46.61204" lon="-1.85035">
        <ele>19</ele>
        <time>2018-03-17T12:29:56Z</time>
      </trkpt>
      <trkpt lat="46.61222" lon="-1.85059">
        <ele>18</ele>
        <time>2018-03-17T12:30:56Z</time>
      </trkpt>
      <trkpt lat="46.61236" lon="-1.85081">
        <ele>18</ele>
        <time>2018-03-17T12:31:56Z</time>
      </trkpt>
      <trkpt lat="46.61247" lon="-1.85103">
        <ele>18</ele>
        <time>2018-03-17T12:32:56Z</time>
      </trkpt>
      <trkpt lat="46.61258" lon="-1.85125">
        <ele>17</ele>
        <time>2018-03-17T12:33:56Z</time>
      </trkpt>
      <trkpt lat="46.61273" lon="-1.85149">
        <ele>17</ele>
        <time>2018-03-17T12:34:56Z</time>
      </trkpt>
      <trkpt lat="46.61294" lon="-1.85178">
        <ele>16</ele>
        <time>2018-03-17T12:35:56Z</time>
      </trkpt>
      <trkpt lat="46.61313" lon="-1.85197">
        <ele>16</ele>
        <time>2018-03-17T12:36:56Z</time>
      </trkpt>
      <trkpt lat="46.61332" lon="-1.85213">
        <ele>16</ele>
        <time>2018-03-17T12:37:56Z</time>
      </trkpt>
      <trkpt lat="46.61348" lon="-1.85235">
        <ele>16</ele>
        <time>2018-03-17T12:38:56Z</time>
      </trkpt>
      <trkpt lat="46.61353" lon="-1.85242">
        <ele>15</ele>
        <time>2018-03-17T12:39:56Z</time>
      </trkpt>
      <trkpt lat="46.61362" lon="-1.8526">
        <ele>15</ele>
        <time>2018-03-17T12:40:56Z</time>
      </trkpt>
      <trkpt lat="46.61369" lon="-1.85279">
        <ele>15</ele>
        <time>2018-03-17T12:41:56Z</time>
      </trkpt>
      <trkpt lat="46.61376" lon="-1.85305">
        <ele>15</ele>
        <time>2018-03-17T12:42:56Z</time>
      </trkpt>
      <trkpt lat="46.61384" lon="-1.8534">
        <ele>15</ele>
        <time>2018-03-17T12:43:56Z</time>
      </trkpt>
      <trkpt lat="46.61392" lon="-1.85372">
        <ele>14</ele>
        <time>2018-03-17T12:44:56Z</time>
      </trkpt>
      <trkpt lat="46.61401" lon="-1.85409">
        <ele>14</ele>
        <time>2018-03-17T12:45:56Z</time>
      </trkpt>
      <trkpt lat="46.6141" lon="-1.8544">
        <ele>13</ele>
        <time>2018-03-17T12:46:56Z</time>
      </trkpt>
      <trkpt lat="46.61418" lon="-1.85467">
        <ele>13</ele>
        <time>2018-03-17T12:47:56Z</time>
      </trkpt>
      <trkpt lat="46.61427" lon="-1.85492">
        <ele>12</ele>
        <time>2018-03-17T12:48:56Z</time>
      </trkpt>
      <trkpt lat="46.61438" lon="-1.85514">
        <ele>11</ele>
        <time>2018-03-17T12:49:56Z</time>
      </trkpt>
      <trkpt lat="46.61445" lon="-1.85531">
        <ele>11</ele>
        <time>2018-03-17T12:50:56Z</time>
      </trkpt>
      <trkpt lat="46.61453" lon="-1.85553">
        <ele>10</ele>
        <time>2018-03-17T12:51:56Z</time>
      </trkpt>
      <trkpt lat="46.61462" lon="-1.85579">
        <ele>10</ele>
        <time>2018-03-17T12:52:56Z</time>
      </trkpt>
      <trkpt lat="46.61469" lon="-1.85604">
        <ele>10</ele>
        <time>2018-03-17T12:53:56Z</time>
      </trkpt>
      <trkpt lat="46.61476" lon="-1.85631">
        <ele>10</ele>
        <time>2018-03-17T12:54:56Z</time>
      </trkpt>
      <trkpt lat="46.61483" lon="-1.85661">
        <ele>9</ele>
        <time>2018-03-17T12:55:56Z</time>
      </trkpt>
      <trkpt lat="46.61486" lon="-1.8568">
        <ele>9</ele>
        <time>2018-03-17T12:56:56Z</time>
      </trkpt>
      <trkpt lat="46.61489" lon="-1.85696">
        <ele>9</ele>
        <time>2018-03-17T12:57:56Z</time>
      </trkpt>
      <trkpt lat="46.61492" lon="-1.85716">
        <ele>9</ele>
        <time>2018-03-17T12:58:56Z</time>
      </trkpt>
      <trkpt lat="46.61494" lon="-1.85729">
        <ele>8</ele>
        <time>2018-03-17T12:59:56Z</time>
      </trkpt>
      <trkpt lat="46.61498" lon="-1.85747">
        <ele>8</ele>
        <time>2018-03-17T13:00:56Z</time>
      </trkpt>
      <trkpt lat="46.61503" lon="-1.85767">
        <ele>8</ele>
        <time>2018-03-17T13:01:56Z</time>
      </trkpt>
      <trkpt lat="46.61503" lon="-1.85767">
        <ele>8</ele>
        <time>2018-03-17T13:02:56Z</time>
      </trkpt>
      <trkpt lat="46.61506" lon="-1.85768">
        <ele>8</ele>
        <time>2018-03-17T13:03:56Z</time>
      </trkpt>
      <trkpt lat="46.61508" lon="-1.8577">
        <ele>8</ele>
        <time>2018-03-17T13:04:56Z</time>
      </trkpt>
      <trkpt lat="46.6151" lon="-1.85772">
        <ele>8</ele>
        <time>2018-03-17T13:05:56Z</time>
      </trkpt>
      <trkpt lat="46.61511" lon="-1.85774">
        <ele>8</ele>
        <time>2018-03-17T13:06:56Z</time>
      </trkpt>
      <trkpt lat="46.61512" lon="-1.85776">
        <ele>8</ele>
        <time>2018-03-17T13:07:56Z</time>
      </trkpt>
      <trkpt lat="46.61512" lon="-1.8578">
        <ele>8</ele>
        <time>2018-03-17T13:08:56Z</time>
      </trkpt>
      <trkpt lat="46.61513" lon="-1.85783">
        <ele>8</ele>
        <time>2018-03-17T13:09:56Z</time>
      </trkpt>
      <trkpt lat="46.61513" lon="-1.85785">
        <ele>7</ele>
        <time>2018-03-17T13:10:56Z</time>
      </trkpt>
      <trkpt lat="46.61513" lon="-1.85789">
        <ele>7</ele>
        <time>2018-03-17T13:11:56Z</time>
      </trkpt>
      <trkpt lat="46.61522" lon="-1.85804">
        <ele>7</ele>
        <time>2018-03-17T13:12:56Z</time>
      </trkpt>
      <trkpt lat="46.61529" lon="-1.85815">
        <ele>7</ele>
        <time>2018-03-17T13:13:56Z</time>
      </trkpt>
      <trkpt lat="46.61535" lon="-1.85823">
        <ele>7</ele>
        <time>2018-03-17T13:14:56Z</time>
      </trkpt>
      <trkpt lat="46.61539" lon="-1.8583">
        <ele>7</ele>
        <time>2018-03-17T13:15:56Z</time>
      </trkpt>
      <trkpt lat="46.61543" lon="-1.85837">
        <ele>7</ele>
        <time>2018-03-17T13:16:56Z</time>
      </trkpt>
      <trkpt lat="46.61546" lon="-1.85843">
        <ele>7</ele>
        <time>2018-03-17T13:17:56Z</time>
      </trkpt>
      <trkpt lat="46.61549" lon="-1.85849">
        <ele>7</ele>
        <time>2018-03-17T13:18:56Z</time>
      </trkpt>
      <trkpt lat="46.61552" lon="-1.85855">
        <ele>7</ele>
        <time>2018-03-17T13:19:56Z</time>
      </trkpt>
      <trkpt lat="46.61554" lon="-1.85862">
        <ele>7</ele>
        <time>2018-03-17T13:20:56Z</time>
      </trkpt>
      <trkpt lat="46.61565" lon="-1.85887">
        <ele>7</ele>
        <time>2018-03-17T13:21:56Z</time>
      </trkpt>
      <trkpt lat="46.61577" lon="-1.8591">
        <ele>7</ele>
        <time>2018-03-17T13:22:56Z</time>
      </trkpt>
      <trkpt lat="46.61588" lon="-1.85926">
        <ele>7</ele>
        <time>2018-03-17T13:23:56Z</time>
      </trkpt>
      <trkpt lat="46.61601" lon="-1.85945">
        <ele>7</ele>
        <time>2018-03-17T13:24:56Z</time>
      </trkpt>
      <trkpt lat="46.61617" lon="-1.85966">
        <ele>7</ele>
        <time>2018-03-17T13:25:56Z</time>
      </trkpt>
      <trkpt lat="46.61624" lon="-1.85975">
        <ele>7</ele>
        <time>2018-03-17T13:26:56Z</time>
      </trkpt>
      <trkpt lat="46.61642" lon="-1.86002">
        <ele>7</ele>
        <time>2018-03-17T13:27:56Z</time>
      </trkpt>
      <trkpt lat="46.61643" lon="-1.86003">
        <ele>7</ele>
        <time>2018-03-17T13:28:56Z</time>
      </trkpt>
      <trkpt lat="46.61653" lon="-1.86016">
        <ele>8</ele>
        <time>2018-03-17T13:29:56Z</time>
      </trkpt>
      <trkpt lat="46.61669" lon="-1.86038">
        <ele>8</ele>
        <time>2018-03-17T13:30:56Z</time>
      </trkpt>
      <trkpt lat="46.61672" lon="-1.86042">
        <ele>8</ele>
        <time>2018-03-17T13:31:56Z</time>
      </trkpt>
      <trkpt lat="46.6168" lon="-1.86054">
        <ele>8</ele>
        <time>2018-03-17T13:32:56Z</time>
      </trkpt>
      <trkpt lat="46.61685" lon="-1.86063">
        <ele>8</ele>
        <time>2018-03-17T13:33:56Z</time>
      </trkpt>
      <trkpt lat="46.61695" lon="-1.86079">
        <ele>8</ele>
        <time>2018-03-17T13:34:56Z</time>
      </trkpt>
      <trkpt lat="46.61707" lon="-1.86101">
        <ele>8</ele>
        <time>2018-03-17T13:35:56Z</time>
      </trkpt>
      <trkpt lat="46.61722" lon="-1.86132">
        <ele>8</ele>
        <time>2018-03-17T13:36:56Z</time>
      </trkpt>
      <trkpt lat="46.61736" lon="-1.86158">
        <ele>8</ele>
        <time>2018-03-17T13:37:56Z</time>
      </trkpt>
      <trkpt lat="46.61744" lon="-1.86173">
        <ele>8</ele>
        <time>2018-03-17T13:38:56Z</time>
      </trkpt>
      <trkpt lat="46.61752" lon="-1.86188">
        <ele>8</ele>
        <time>2018-03-17T13:39:56Z</time>
      </trkpt>
      <trkpt lat="46.61756" lon="-1.86197">
        <ele>8</ele>
        <time>2018-03-17T13:40:56Z</time>
      </trkpt>
      <trkpt lat="46.6176" lon="-1.86208">
        <ele>8</ele>
        <time>2018-03-17T13:41:56Z</time>
      </trkpt>
      <trkpt lat="46.61761" lon="-1.86215">
        <ele>8</ele>
        <time>2018-03-17T13:42:56Z</time>
      </trkpt>
      <trkpt lat="46.61763" lon="-1.86228">
        <ele>8</ele>
        <time>2018-03-17T13:43:56Z</time>
      </trkpt>
      <trkpt lat="46.61764" lon="-1.86243">
        <ele>8</ele>
        <time>2018-03-17T13:44:56Z</time>
      </trkpt>
      <trkpt lat="46.61764" lon="-1.86258">
        <ele>8</ele>
        <time>2018-03-17T13:45:56Z</time>
      </trkpt>
      <trkpt lat="46.61766" lon="-1.86296">
        <ele>8</ele>
        <time>2018-03-17T13:46:56Z</time>
      </trkpt>
      <trkpt lat="46.61766" lon="-1.86307">
        <ele>8</ele>
        <time>2018-03-17T13:47:56Z</time>
      </trkpt>
      <trkpt lat="46.61765" lon="-1.8632">
        <ele>8</ele>
        <time>2018-03-17T13:48:56Z</time>
      </trkpt>
      <trkpt lat="46.61765" lon="-1.86325">
        <ele>8</ele>
        <time>2018-03-17T13:49:56Z</time>
      </trkpt>
      <trkpt lat="46.61764" lon="-1.8633">
        <ele>8</ele>
        <time>2018-03-17T13:50:56Z</time>
      </trkpt>
      <trkpt lat="46.61763" lon="-1.86334">
        <ele>8</ele>
        <time>2018-03-17T13:51:56Z</time>
      </trkpt>
      <trkpt lat="46.6176" lon="-1.86343">
        <ele>8</ele>
        <time>2018-03-17T13:52:56Z</time>
      </trkpt>
      <trkpt lat="46.6176" lon="-1.86343">
        <ele>8</ele>
        <time>2018-03-17T13:53:56Z</time>
      </trkpt>
      <trkpt lat="46.61754" lon="-1.86353">
        <ele>8</ele>
        <time>2018-03-17T13:54:56Z</time>
      </trkpt>
      <trkpt lat="46.61747" lon="-1.86358">
        <ele>8</ele>
        <time>2018-03-17T13:55:56Z</time>
      </trkpt>
      <trkpt lat="46.61739" lon="-1.86363">
        <ele>8</ele>
        <time>2018-03-17T13:56:56Z</time>
      </trkpt>
      <trkpt lat="46.61725" lon="-1.86373">
        <ele>8</ele>
        <time>2018-03-17T13:57:56Z</time>
      </trkpt>
      <trkpt lat="46.61723" lon="-1.86374">
        <ele>8</ele>
        <time>2018-03-17T13:58:56Z</time>
      </trkpt>
      <trkpt lat="46.61703" lon="-1.86388">
        <ele>9</ele>
        <time>2018-03-17T13:59:56Z</time>
      </trkpt>
      <trkpt lat="46.61691" lon="-1.86396">
        <ele>9</ele>
        <time>2018-03-17T14:00:56Z</time>
      </trkpt>
      <trkpt lat="46.61677" lon="-1.86407">
        <ele>9</ele>
        <time>2018-03-17T14:01:56Z</time>
      </trkpt>
      <trkpt lat="46.61677" lon="-1.86407">
        <ele>9</ele>
        <time>2018-03-17T14:02:56Z</time>
      </trkpt>
      <trkpt lat="46.61664" lon="-1.86415">
        <ele>9</ele>
        <time>2018-03-17T14:03:56Z</time>
      </trkpt>
      <trkpt lat="46.61653" lon="-1.86424">
        <ele>8</ele>
        <time>2018-03-17T14:04:56Z</time>
      </trkpt>
      <trkpt lat="46.61646" lon="-1.86434">
        <ele>8</ele>
        <time>2018-03-17T14:05:56Z</time>
      </trkpt>
      <trkpt lat="46.61641" lon="-1.86444">
        <ele>8</ele>
        <time>2018-03-17T14:06:56Z</time>
      </trkpt>
      <trkpt lat="46.6164" lon="-1.86447">
        <ele>7</ele>
        <time>2018-03-17T14:07:56Z</time>
      </trkpt>
      <trkpt lat="46.61638" lon="-1.86452">
        <ele>7</ele>
        <time>2018-03-17T14:08:56Z</time>
      </trkpt>
      <trkpt lat="46.61638" lon="-1.86454">
        <ele>7</ele>
        <time>2018-03-17T14:09:56Z</time>
      </trkpt>
      <trkpt lat="46.61637" lon="-1.86463">
        <ele>7</ele>
        <time>2018-03-17T14:10:56Z</time>
      </trkpt>
      <trkpt lat="46.61635" lon="-1.86494">
        <ele>7</ele>
        <time>2018-03-17T14:11:56Z</time>
      </trkpt>
      <trkpt lat="46.61632" lon="-1.86529">
        <ele>6</ele>
        <time>2018-03-17T14:12:56Z</time>
      </trkpt>
      <trkpt lat="46.61632" lon="-1.86541">
        <ele>6</ele>
        <time>2018-03-17T14:13:56Z</time>
      </trkpt>
      <trkpt lat="46.61632" lon="-1.86547">
        <ele>6</ele>
        <time>2018-03-17T14:14:56Z</time>
      </trkpt>
      <trkpt lat="46.61631" lon="-1.86562">
        <ele>6</ele>
        <time>2018-03-17T14:15:56Z</time>
      </trkpt>
      <trkpt lat="46.6163" lon="-1.86577">
        <ele>5</ele>
        <time>2018-03-17T14:16:56Z</time>
      </trkpt>
      <trkpt lat="46.61626" lon="-1.8662">
        <ele>5</ele>
        <time>2018-03-17T14:17:56Z</time>
      </trkpt>
      <trkpt lat="46.61625" lon="-1.86643">
        <ele>4</ele>
        <time>2018-03-17T14:18:56Z</time>
      </trkpt>
      <trkpt lat="46.61625" lon="-1.86645">
        <ele>4</ele>
        <time>2018-03-17T14:19:56Z</time>
      </trkpt>
      <trkpt lat="46.61624" lon="-1.86662">
        <ele>4</ele>
        <time>2018-03-17T14:20:56Z</time>
      </trkpt>
      <trkpt lat="46.61625" lon="-1.86671">
        <ele>4</ele>
        <time>2018-03-17T14:21:56Z</time>
      </trkpt>
      <trkpt lat="46.61627" lon="-1.86689">
        <ele>4</ele>
        <time>2018-03-17T14:22:56Z</time>
      </trkpt>
      <trkpt lat="46.6163" lon="-1.8671">
        <ele>4</ele>
        <time>2018-03-17T14:23:56Z</time>
      </trkpt>
      <trkpt lat="46.61636" lon="-1.86737">
        <ele>4</ele>
        <time>2018-03-17T14:24:56Z</time>
      </trkpt>
      <trkpt lat="46.61641" lon="-1.86767">
        <ele>4</ele>
        <time>2018-03-17T14:25:56Z</time>
      </trkpt>
      <trkpt lat="46.61647" lon="-1.86798">
        <ele>4</ele>
        <time>2018-03-17T14:26:56Z</time>
      </trkpt>
      <trkpt lat="46.61654" lon="-1.86833">
        <ele>4</ele>
        <time>2018-03-17T14:27:56Z</time>
      </trkpt>
      <trkpt lat="46.61662" lon="-1.86867">
        <ele>4</ele>
        <time>2018-03-17T14:28:56Z</time>
      </trkpt>
      <trkpt lat="46.61669" lon="-1.86889">
        <ele>4</ele>
        <time>2018-03-17T14:29:56Z</time>
      </trkpt>
      <trkpt lat="46.61677" lon="-1.8691">
        <ele>5</ele>
        <time>2018-03-17T14:30:56Z</time>
      </trkpt>
      <trkpt lat="46.61688" lon="-1.86935">
        <ele>5</ele>
        <time>2018-03-17T14:31:56Z</time>
      </trkpt>
      <trkpt lat="46.61696" lon="-1.86948">
        <ele>5</ele>
        <time>2018-03-17T14:32:56Z</time>
      </trkpt>
      <trkpt lat="46.61729" lon="-1.86988">
        <ele>6</ele>
        <time>2018-03-17T14:33:56Z</time>
      </trkpt>
      <trkpt lat="46.61736" lon="-1.86996">
        <ele>7</ele>
        <time>2018-03-17T14:34:56Z</time>
      </trkpt>
      <trkpt lat="46.61745" lon="-1.87005">
        <ele>4</ele>
        <time>2018-03-17T14:35:56Z</time>
      </trkpt>
      <trkpt lat="46.61759" lon="-1.87018">
        <ele>7</ele>
        <time>2018-03-17T14:36:56Z</time>
      </trkpt>
      <trkpt lat="46.61766" lon="-1.87024">
        <ele>7</ele>
        <time>2018-03-17T14:37:56Z</time>
      </trkpt>
      <trkpt lat="46.61785" lon="-1.87042">
        <ele>7</ele>
        <time>2018-03-17T14:38:56Z</time>
      </trkpt>
      <trkpt lat="46.61805" lon="-1.87061">
        <ele>7</ele>
        <time>2018-03-17T14:39:56Z</time>
      </trkpt>
      <trkpt lat="46.61819" lon="-1.87074">
        <ele>7</ele>
        <time>2018-03-17T14:40:56Z</time>
      </trkpt>
      <trkpt lat="46.6183" lon="-1.87085">
        <ele>7</ele>
        <time>2018-03-17T14:41:56Z</time>
      </trkpt>
      <trkpt lat="46.61833" lon="-1.87088">
        <ele>7</ele>
        <time>2018-03-17T14:42:56Z</time>
      </trkpt>
      <trkpt lat="46.61842" lon="-1.87096">
        <ele>7</ele>
        <time>2018-03-17T14:43:56Z</time>
      </trkpt>
      <trkpt lat="46.61861" lon="-1.87113">
        <ele>6</ele>
        <time>2018-03-17T14:44:56Z</time>
      </trkpt>
      <trkpt lat="46.619" lon="-1.87149">
        <ele>7</ele>
        <time>2018-03-17T14:45:56Z</time>
      </trkpt>
      <trkpt lat="46.619" lon="-1.87148">
        <ele>7</ele>
        <time>2018-03-17T14:46:56Z</time>
      </trkpt>
      <trkpt lat="46.61901" lon="-1.87147">
        <ele>7</ele>
        <time>2018-03-17T14:47:56Z</time>
      </trkpt>
      <trkpt lat="46.61901" lon="-1.87146">
        <ele>7</ele>
        <time>2018-03-17T14:48:56Z</time>
      </trkpt>
      <trkpt lat="46.61901" lon="-1.87145">
        <ele>7</ele>
        <time>2018-03-17T14:49:56Z</time>
      </trkpt>
      <trkpt lat="46.61901" lon="-1.87144">
        <ele>7</ele>
        <time>2018-03-17T14:50:56Z</time>
      </trkpt>
      <trkpt lat="46.61902" lon="-1.87143">
        <ele>7</ele>
        <time>2018-03-17T14:51:56Z</time>
      </trkpt>
      <trkpt lat="46.61902" lon="-1.87142">
        <ele>7</ele>
        <time>2018-03-17T14:52:56Z</time>
      </trkpt>
      <trkpt lat="46.61903" lon="-1.87141">
        <ele>7</ele>
        <time>2018-03-17T14:53:56Z</time>
      </trkpt>
      <trkpt lat="46.61903" lon="-1.8714">
        <ele>7</ele>
        <time>2018-03-17T14:54:56Z</time>
      </trkpt>
      <trkpt lat="46.61904" lon="-1.8714">
        <ele>7</ele>
        <time>2018-03-17T14:55:56Z</time>
      </trkpt>
      <trkpt lat="46.61904" lon="-1.87139">
        <ele>7</ele>
        <time>2018-03-17T14:56:56Z</time>
      </trkpt>
      <trkpt lat="46.61905" lon="-1.87138">
        <ele>7</ele>
        <time>2018-03-17T14:57:56Z</time>
      </trkpt>
      <trkpt lat="46.61906" lon="-1.87138">
        <ele>7</ele>
        <time>2018-03-17T14:58:56Z</time>
      </trkpt>
      <trkpt lat="46.61906" lon="-1.87137">
        <ele>7</ele>
        <time>2018-03-17T14:59:56Z</time>
      </trkpt>
      <trkpt lat="46.61907" lon="-1.87137">
        <ele>7</ele>
        <time>2018-03-17T15:00:56Z</time>
      </trkpt>
      <trkpt lat="46.61908" lon="-1.87137">
        <ele>7</ele>
        <time>2018-03-17T15:01:56Z</time>
      </trkpt>
      <trkpt lat="46.61909" lon="-1.87137">
        <ele>7</ele>
        <time>2018-03-17T15:02:56Z</time>
      </trkpt>
      <trkpt lat="46.61909" lon="-1.87136">
        <ele>7</ele>
        <time>2018-03-17T15:03:56Z</time>
      </trkpt>
      <trkpt lat="46.6191" lon="-1.87136">
        <ele>7</ele>
        <time>2018-03-17T15:04:56Z</time>
      </trkpt>
      <trkpt lat="46.6191" lon="-1.87137">
        <ele>7</ele>
        <time>2018-03-17T15:05:56Z</time>
      </trkpt>
      <trkpt lat="46.61911" lon="-1.87137">
        <ele>7</ele>
        <time>2018-03-17T15:06:56Z</time>
      </trkpt>
      <trkpt lat="46.61912" lon="-1.87137">
        <ele>7</ele>
        <time>2018-03-17T15:07:56Z</time>
      </trkpt>
      <trkpt lat="46.61913" lon="-1.87137">
        <ele>7</ele>
        <time>2018-03-17T15:08:56Z</time>
      </trkpt>
      <trkpt lat="46.61913" lon="-1.87138">
        <ele>7</ele>
        <time>2018-03-17T15:09:56Z</time>
      </trkpt>
      <trkpt lat="46.61914" lon="-1.87138">
        <ele>7</ele>
        <time>2018-03-17T15:10:56Z</time>
      </trkpt>
      <trkpt lat="46.61914" lon="-1.87139">
        <ele>7</ele>
        <time>2018-03-17T15:11:56Z</time>
      </trkpt>
      <trkpt lat="46.61915" lon="-1.87139">
        <ele>7</ele>
        <time>2018-03-17T15:12:56Z</time>
      </trkpt>
      <trkpt lat="46.61915" lon="-1.8714">
        <ele>7</ele>
        <time>2018-03-17T15:13:56Z</time>
      </trkpt>
      <trkpt lat="46.61916" lon="-1.8714">
        <ele>7</ele>
        <time>2018-03-17T15:14:56Z</time>
      </trkpt>
      <trkpt lat="46.61916" lon="-1.87141">
        <ele>7</ele>
        <time>2018-03-17T15:15:56Z</time>
      </trkpt>
      <trkpt lat="46.61917" lon="-1.87142">
        <ele>7</ele>
        <time>2018-03-17T15:16:56Z</time>
      </trkpt>
      <trkpt lat="46.61917" lon="-1.87143">
        <ele>7</ele>
        <time>2018-03-17T15:17:56Z</time>
      </trkpt>
      <trkpt lat="46.61918" lon="-1.87144">
        <ele>7</ele>
        <time>2018-03-17T15:18:56Z</time>
      </trkpt>
      <trkpt lat="46.61918" lon="-1.87145">
        <ele>7</ele>
        <time>2018-03-17T15:19:56Z</time>
      </trkpt>
      <trkpt lat="46.61918" lon="-1.87146">
        <ele>7</ele>
        <time>2018-03-17T15:20:56Z</time>
      </trkpt>
      <trkpt lat="46.61918" lon="-1.87147">
        <ele>7</ele>
        <time>2018-03-17T15:21:56Z</time>
      </trkpt>
      <trkpt lat="46.61918" lon="-1.87148">
        <ele>7</ele>
        <time>2018-03-17T15:22:56Z</time>
      </trkpt>
      <trkpt lat="46.61918" lon="-1.87149">
        <ele>7</ele>
        <time>2018-03-17T15:23:56Z</time>
      </trkpt>
      <trkpt lat="46.61918" lon="-1.8715">
        <ele>7</ele>
        <time>2018-03-17T15:24:56Z</time>
      </trkpt>
      <trkpt lat="46.61918" lon="-1.87151">
        <ele>7</ele>
        <time>2018-03-17T15:25:56Z</time>
      </trkpt>
      <trkpt lat="46.61918" lon="-1.87152">
        <ele>7</ele>
        <time>2018-03-17T15:26:56Z</time>
      </trkpt>
      <trkpt lat="46.61918" lon="-1.87153">
        <ele>7</ele>
        <time>2018-03-17T15:27:56Z</time>
      </trkpt>
      <trkpt lat="46.61918" lon="-1.87154">
        <ele>7</ele>
        <time>2018-03-17T15:28:56Z</time>
      </trkpt>
      <trkpt lat="46.61918" lon="-1.87155">
        <ele>7</ele>
        <time>2018-03-17T15:29:56Z</time>
      </trkpt>
      <trkpt lat="46.61917" lon="-1.87156">
        <ele>7</ele>
        <time>2018-03-17T15:30:56Z</time>
      </trkpt>
      <trkpt lat="46.6192" lon="-1.87165">
        <ele>7</ele>
        <time>2018-03-17T15:31:56Z</time>
      </trkpt>
      <trkpt lat="46.61923" lon="-1.8717">
        <ele>7</ele>
        <time>2018-03-17T15:32:56Z</time>
      </trkpt>
      <trkpt lat="46.61923" lon="-1.8717">
        <ele>7</ele>
        <time>2018-03-17T15:33:56Z</time>
      </trkpt>
      <trkpt lat="46.61925" lon="-1.87172">
        <ele>7</ele>
        <time>2018-03-17T15:34:56Z</time>
      </trkpt>
      <trkpt lat="46.61936" lon="-1.87179">
        <ele>7</ele>
        <time>2018-03-17T15:35:56Z</time>
      </trkpt>
      <trkpt lat="46.61957" lon="-1.87192">
        <ele>6</ele>
        <time>2018-03-17T15:36:56Z</time>
      </trkpt>
      <trkpt lat="46.61973" lon="-1.87201">
        <ele>6</ele>
        <time>2018-03-17T15:37:56Z</time>
      </trkpt>
      <trkpt lat="46.61985" lon="-1.87208">
        <ele>6</ele>
        <time>2018-03-17T15:38:56Z</time>
      </trkpt>
      <trkpt lat="46.6201" lon="-1.87223">
        <ele>6</ele>
        <time>2018-03-17T15:39:56Z</time>
      </trkpt>
      <trkpt lat="46.62022" lon="-1.8723">
        <ele>6</ele>
        <time>2018-03-17T15:40:56Z</time>
      </trkpt>
      <trkpt lat="46.62032" lon="-1.87236">
        <ele>6</ele>
        <time>2018-03-17T15:41:56Z</time>
      </trkpt>
      <trkpt lat="46.62043" lon="-1.87238">
        <ele>6</ele>
        <time>2018-03-17T15:42:56Z</time>
      </trkpt>
      <trkpt lat="46.62053" lon="-1.87238">
        <ele>6</ele>
        <time>2018-03-17T15:43:56Z</time>
      </trkpt>
      <trkpt lat="46.62061" lon="-1.87235">
        <ele>6</ele>
        <time>2018-03-17T15:44:56Z</time>
      </trkpt>
      <trkpt lat="46.6207" lon="-1.87232">
        <ele>6</ele>
        <time>2018-03-17T15:45:56Z</time>
      </trkpt>
      <trkpt lat="46.62087" lon="-1.87223">
        <ele>6</ele>
        <time>2018-03-17T15:46:56Z</time>
      </trkpt>
      <trkpt lat="46.62091" lon="-1.8722">
        <ele>7</ele>
        <time>2018-03-17T15:47:56Z</time>
      </trkpt>
      <trkpt lat="46.62098" lon="-1.87217">
        <ele>7</ele>
        <time>2018-03-17T15:48:56Z</time>
      </trkpt>
      <trkpt lat="46.62111" lon="-1.87211">
        <ele>7</ele>
        <time>2018-03-17T15:49:56Z</time>
      </trkpt>
      <trkpt lat="46.62126" lon="-1.87206">
        <ele>8</ele>
        <time>2018-03-17T15:50:56Z</time>
      </trkpt>
      <trkpt lat="46.62133" lon="-1.87206">
        <ele>8</ele>
        <time>2018-03-17T15:51:56Z</time>
      </trkpt>
      <trkpt lat="46.62144" lon="-1.87208">
        <ele>8</ele>
        <time>2018-03-17T15:52:56Z</time>
      </trkpt>
      <trkpt lat="46.62156" lon="-1.87213">
        <ele>8</ele>
        <time>2018-03-17T15:53:56Z</time>
      </trkpt>
      <trkpt lat="46.62171" lon="-1.87222">
        <ele>8</ele>
        <time>2018-03-17T15:54:56Z</time>
      </trkpt>
      <trkpt lat="46.62178" lon="-1.87228">
        <ele>8</ele>
        <time>2018-03-17T15:55:56Z</time>
      </trkpt>
      <trkpt lat="46.62178" lon="-1.87228">
        <ele>8</ele>
        <time>2018-03-17T15:56:56Z</time>
      </trkpt>
      <trkpt lat="46.62191" lon="-1.87236">
        <ele>8</ele>
        <time>2018-03-17T15:57:56Z</time>
      </trkpt>
      <trkpt lat="46.62209" lon="-1.87249">
        <ele>8</ele>
        <time>2018-03-17T15:58:56Z</time>
      </trkpt>
      <trkpt lat="46.62237" lon="-1.87268">
        <ele>7</ele>
        <time>2018-03-17T15:59:56Z</time>
      </trkpt>
      <trkpt lat="46.62267" lon="-1.8729">
        <ele>6</ele>
        <time>2018-03-17T16:00:56Z</time>
      </trkpt>
      <trkpt lat="46.62279" lon="-1.87297">
        <ele>6</ele>
        <time>2018-03-17T16:01:56Z</time>
      </trkpt>
      <trkpt lat="46.62295" lon="-1.87309">
        <ele>7</ele>
        <time>2018-03-17T16:02:56Z</time>
      </trkpt>
      <trkpt lat="46.62309" lon="-1.87316">
        <ele>7</ele>
        <time>2018-03-17T16:03:56Z</time>
      </trkpt>
      <trkpt lat="46.62329" lon="-1.87324">
        <ele>8</ele>
        <time>2018-03-17T16:04:56Z</time>
      </trkpt>
      <trkpt lat="46.62375" lon="-1.87344">
        <ele>7</ele>
        <time>2018-03-17T16:05:56Z</time>
      </trkpt>
      <trkpt lat="46.62379" lon="-1.87345">
        <ele>7</ele>
        <time>2018-03-17T16:06:56Z</time>
      </trkpt>
      <trkpt lat="46.62391" lon="-1.8735">
        <ele>7</ele>
        <time>2018-03-17T16:07:56Z</time>
      </trkpt>
      <trkpt lat="46.62397" lon="-1.87352">
        <ele>7</ele>
        <time>2018-03-17T16:08:56Z</time>
      </trkpt>
      <trkpt lat="46.62398" lon="-1.87352">
        <ele>7</ele>
        <time>2018-03-17T16:09:56Z</time>
      </trkpt>
      <trkpt lat="46.624" lon="-1.87352">
        <ele>7</ele>
        <time>2018-03-17T16:10:56Z</time>
      </trkpt>
      <trkpt lat="46.62404" lon="-1.87351">
        <ele>7</ele>
        <time>2018-03-17T16:11:56Z</time>
      </trkpt>
      <trkpt lat="46.62406" lon="-1.87352">
        <ele>7</ele>
        <time>2018-03-17T16:12:56Z</time>
      </trkpt>
      <trkpt lat="46.62411" lon="-1.87353">
        <ele>7</ele>
        <time>2018-03-17T16:13:56Z</time>
      </trkpt>
      <trkpt lat="46.62416" lon="-1.87355">
        <ele>7</ele>
        <time>2018-03-17T16:14:56Z</time>
      </trkpt>
      <trkpt lat="46.62422" lon="-1.87356">
        <ele>7</ele>
        <time>2018-03-17T16:15:56Z</time>
      </trkpt>
      <trkpt lat="46.62428" lon="-1.87358">
        <ele>7</ele>
        <time>2018-03-17T16:16:56Z</time>
      </trkpt>
      <trkpt lat="46.62443" lon="-1.87362">
        <ele>7</ele>
        <time>2018-03-17T16:17:56Z</time>
      </trkpt>
      <trkpt lat="46.62451" lon="-1.87362">
        <ele>7</ele>
        <time>2018-03-17T16:18:56Z</time>
      </trkpt>
      <trkpt lat="46.6246" lon="-1.87361">
        <ele>7</ele>
        <time>2018-03-17T16:19:56Z</time>
      </trkpt>
      <trkpt lat="46.6247" lon="-1.87361">
        <ele>7</ele>
        <time>2018-03-17T16:20:56Z</time>
      </trkpt>
      <trkpt lat="46.62483" lon="-1.87359">
        <ele>7</ele>
        <time>2018-03-17T16:21:56Z</time>
      </trkpt>
      <trkpt lat="46.62506" lon="-1.87357">
        <ele>7</ele>
        <time>2018-03-17T16:22:56Z</time>
      </trkpt>
      <trkpt lat="46.62515" lon="-1.87359">
        <ele>7</ele>
        <time>2018-03-17T16:23:56Z</time>
      </trkpt>
      <trkpt lat="46.62533" lon="-1.87363">
        <ele>7</ele>
        <time>2018-03-17T16:24:56Z</time>
      </trkpt>
      <trkpt lat="46.62552" lon="-1.87366">
        <ele>7</ele>
        <time>2018-03-17T16:25:56Z</time>
      </trkpt>
      <trkpt lat="46.62568" lon="-1.87368">
        <ele>7</ele>
        <time>2018-03-17T16:26:56Z</time>
      </trkpt>
      <trkpt lat="46.62579" lon="-1.87365">
        <ele>8</ele>
        <time>2018-03-17T16:27:56Z</time>
      </trkpt>
      <trkpt lat="46.62586" lon="-1.87364">
        <ele>8</ele>
        <time>2018-03-17T16:28:56Z</time>
      </trkpt>
      <trkpt lat="46.62599" lon="-1.87362">
        <ele>7</ele>
        <time>2018-03-17T16:29:56Z</time>
      </trkpt>
      <trkpt lat="46.62606" lon="-1.87359">
        <ele>7</ele>
        <time>2018-03-17T16:30:56Z</time>
      </trkpt>
      <trkpt lat="46.62618" lon="-1.87353">
        <ele>7</ele>
        <time>2018-03-17T16:31:56Z</time>
      </trkpt>
      <trkpt lat="46.62618" lon="-1.87353">
        <ele>7</ele>
        <time>2018-03-17T16:32:56Z</time>
      </trkpt>
      <trkpt lat="46.62617" lon="-1.87352">
        <ele>7</ele>
        <time>2018-03-17T16:33:56Z</time>
      </trkpt>
      <trkpt lat="46.62617" lon="-1.87351">
        <ele>7</ele>
        <time>2018-03-17T16:34:56Z</time>
      </trkpt>
      <trkpt lat="46.62617" lon="-1.8735">
        <ele>7</ele>
        <time>2018-03-17T16:35:56Z</time>
      </trkpt>
      <trkpt lat="46.62617" lon="-1.87349">
        <ele>7</ele>
        <time>2018-03-17T16:36:56Z</time>
      </trkpt>
      <trkpt lat="46.62617" lon="-1.87348">
        <ele>7</ele>
        <time>2018-03-17T16:37:56Z</time>
      </trkpt>
      <trkpt lat="46.62617" lon="-1.87347">
        <ele>7</ele>
        <time>2018-03-17T16:38:56Z</time>
      </trkpt>
      <trkpt lat="46.62618" lon="-1.87347">
        <ele>7</ele>
        <time>2018-03-17T16:39:56Z</time>
      </trkpt>
      <trkpt lat="46.62618" lon="-1.87346">
        <ele>7</ele>
        <time>2018-03-17T16:40:56Z</time>
      </trkpt>
      <trkpt lat="46.62618" lon="-1.87345">
        <ele>7</ele>
        <time>2018-03-17T16:41:56Z</time>
      </trkpt>
      <trkpt lat="46.62619" lon="-1.87345">
        <ele>7</ele>
        <time>2018-03-17T16:42:56Z</time>
      </trkpt>
      <trkpt lat="46.62619" lon="-1.87344">
        <ele>7</ele>
        <time>2018-03-17T16:43:56Z</time>
      </trkpt>
      <trkpt lat="46.6262" lon="-1.87344">
        <ele>7</ele>
        <time>2018-03-17T16:44:56Z</time>
      </trkpt>
      <trkpt lat="46.6262" lon="-1.87343">
        <ele>7</ele>
        <time>2018-03-17T16:45:56Z</time>
      </trkpt>
      <trkpt lat="46.62621" lon="-1.87343">
        <ele>7</ele>
        <time>2018-03-17T16:46:56Z</time>
      </trkpt>
      <trkpt lat="46.62622" lon="-1.87343">
        <ele>7</ele>
        <time>2018-03-17T16:47:56Z</time>
      </trkpt>
      <trkpt lat="46.62623" lon="-1.87343">
        <ele>7</ele>
        <time>2018-03-17T16:48:56Z</time>
      </trkpt>
      <trkpt lat="46.62624" lon="-1.87343">
        <ele>7</ele>
        <time>2018-03-17T16:49:56Z</time>
      </trkpt>
      <trkpt lat="46.62625" lon="-1.87343">
        <ele>7</ele>
        <time>2018-03-17T16:50:56Z</time>
      </trkpt>
      <trkpt lat="46.62625" lon="-1.87344">
        <ele>7</ele>
        <time>2018-03-17T16:51:56Z</time>
      </trkpt>
      <trkpt lat="46.62626" lon="-1.87344">
        <ele>7</ele>
        <time>2018-03-17T16:52:56Z</time>
      </trkpt>
      <trkpt lat="46.62626" lon="-1.87345">
        <ele>7</ele>
        <time>2018-03-17T16:53:56Z</time>
      </trkpt>
      <trkpt lat="46.62626" lon="-1.87346">
        <ele>7</ele>
        <time>2018-03-17T16:54:56Z</time>
      </trkpt>
      <trkpt lat="46.62627" lon="-1.87346">
        <ele>7</ele>
        <time>2018-03-17T16:55:56Z</time>
      </trkpt>
      <trkpt lat="46.62627" lon="-1.87347">
        <ele>7</ele>
        <time>2018-03-17T16:56:56Z</time>
      </trkpt>
      <trkpt lat="46.62627" lon="-1.87348">
        <ele>7</ele>
        <time>2018-03-17T16:57:56Z</time>
      </trkpt>
      <trkpt lat="46.62627" lon="-1.87349">
        <ele>7</ele>
        <time>2018-03-17T16:58:56Z</time>
      </trkpt>
      <trkpt lat="46.62627" lon="-1.8735">
        <ele>7</ele>
        <time>2018-03-17T16:59:56Z</time>
      </trkpt>
      <trkpt lat="46.62627" lon="-1.87351">
        <ele>7</ele>
        <time>2018-03-17T17:00:56Z</time>
      </trkpt>
      <trkpt lat="46.62627" lon="-1.87352">
        <ele>7</ele>
        <time>2018-03-17T17:01:56Z</time>
      </trkpt>
      <trkpt lat="46.62627" lon="-1.87353">
        <ele>7</ele>
        <time>2018-03-17T17:02:56Z</time>
      </trkpt>
      <trkpt lat="46.62626" lon="-1.87354">
        <ele>7</ele>
        <time>2018-03-17T17:03:56Z</time>
      </trkpt>
      <trkpt lat="46.62635" lon="-1.87358">
        <ele>7</ele>
        <time>2018-03-17T17:04:56Z</time>
      </trkpt>
      <trkpt lat="46.62646" lon="-1.87362">
        <ele>7</ele>
        <time>2018-03-17T17:05:56Z</time>
      </trkpt>
      <trkpt lat="46.62646" lon="-1.87362">
        <ele>7</ele>
        <time>2018-03-17T17:06:56Z</time>
      </trkpt>
      <trkpt lat="46.62658" lon="-1.87364">
        <ele>6</ele>
        <time>2018-03-17T17:07:56Z</time>
      </trkpt>
      <trkpt lat="46.62665" lon="-1.87367">
        <ele>6</ele>
        <time>2018-03-17T17:08:56Z</time>
      </trkpt>
      <trkpt lat="46.62668" lon="-1.87368">
        <ele>6</ele>
        <time>2018-03-17T17:09:56Z</time>
      </trkpt>
      <trkpt lat="46.62679" lon="-1.87374">
        <ele>7</ele>
        <time>2018-03-17T17:10:56Z</time>
      </trkpt>
      <trkpt lat="46.62691" lon="-1.87387">
        <ele>7</ele>
        <time>2018-03-17T17:11:56Z</time>
      </trkpt>
      <trkpt lat="46.62711" lon="-1.87416">
        <ele>8</ele>
        <time>2018-03-17T17:12:56Z</time>
      </trkpt>
      <trkpt lat="46.62713" lon="-1.87419">
        <ele>8</ele>
        <time>2018-03-17T17:13:56Z</time>
      </trkpt>
      <trkpt lat="46.62725" lon="-1.87429">
        <ele>8</ele>
        <time>2018-03-17T17:14:56Z</time>
      </trkpt>
      <trkpt lat="46.62744" lon="-1.87442">
        <ele>9</ele>
        <time>2018-03-17T17:15:56Z</time>
      </trkpt>
      <trkpt lat="46.62763" lon="-1.87455">
        <ele>9</ele>
        <time>2018-03-17T17:16:56Z</time>
      </trkpt>
      <trkpt lat="46.62783" lon="-1.87467">
        <ele>9</ele>
        <time>2018-03-17T17:17:56Z</time>
      </trkpt>
      <trkpt lat="46.62802" lon="-1.87477">
        <ele>9</ele>
        <time>2018-03-17T17:18:56Z</time>
      </trkpt>
      <trkpt lat="46.62821" lon="-1.87488">
        <ele>9</ele>
        <time>2018-03-17T17:19:56Z</time>
      </trkpt>
      <trkpt lat="46.62837" lon="-1.87501">
        <ele>9</ele>
        <time>2018-03-17T17:20:56Z</time>
      </trkpt>
      <trkpt lat="46.62846" lon="-1.87513">
        <ele>9</ele>
        <time>2018-03-17T17:21:56Z</time>
      </trkpt>
      <trkpt lat="46.62856" lon="-1.87526">
        <ele>8</ele>
        <time>2018-03-17T17:22:56Z</time>
      </trkpt>
      <trkpt lat="46.62872" lon="-1.87553">
        <ele>8</ele>
        <time>2018-03-17T17:23:56Z</time>
      </trkpt>
      <trkpt lat="46.62875" lon="-1.87559">
        <ele>8</ele>
        <time>2018-03-17T17:24:56Z</time>
      </trkpt>
      <trkpt lat="46.62886" lon="-1.87578">
        <ele>8</ele>
        <time>2018-03-17T17:25:56Z</time>
      </trkpt>
      <trkpt lat="46.62897" lon="-1.87596">
        <ele>8</ele>
        <time>2018-03-17T17:26:56Z</time>
      </trkpt>
      <trkpt lat="46.62898" lon="-1.87599">
        <ele>8</ele>
        <time>2018-03-17T17:27:56Z</time>
      </trkpt>
      <trkpt lat="46.62903" lon="-1.87611">
        <ele>8</ele>
        <time>2018-03-17T17:28:56Z</time>
      </trkpt>
      <trkpt lat="46.62955" lon="-1.87701">
        <ele>9</ele>
        <time>2018-03-17T17:29:56Z</time>
      </trkpt>
      <trkpt lat="46.62969" lon="-1.87725">
        <ele>9</ele>
        <time>2018-03-17T17:30:56Z</time>
      </trkpt>
      <trkpt lat="46.62975" lon="-1.87736">
        <ele>9</ele>
        <time>2018-03-17T17:31:56Z</time>
      </trkpt>
      <trkpt lat="46.62984" lon="-1.87753">
        <ele>9</ele>
        <time>2018-03-17T17:32:56Z</time>
      </trkpt>
      <trkpt lat="46.62988" lon="-1.87761">
        <ele>10</ele>
        <time>2018-03-17T17:33:56Z</time>
      </trkpt>
      <trkpt lat="46.62989" lon="-1.87763">
        <ele>10</ele>
        <time>2018-03-17T17:34:56Z</time>
      </trkpt>
      <trkpt lat="46.62994" lon="-1.87775">
        <ele>10</ele>
        <time>2018-03-17T17:35:56Z</time>
      </trkpt>
      <trkpt lat="46.63001" lon="-1.87801">
        <ele>10</ele>
        <time>2018-03-17T17:36:56Z</time>
      </trkpt>
      <trkpt lat="46.63013" lon="-1.87838">
        <ele>10</ele>
        <time>2018-03-17T17:37:56Z</time>
      </trkpt>
      <trkpt lat="46.63022" lon="-1.87869">
        <ele>10</ele>
        <time>2018-03-17T17:38:56Z</time>
      </trkpt>
      <trkpt lat="46.63022" lon="-1.87871">
        <ele>10</ele>
        <time>2018-03-17T17:39:56Z</time>
      </trkpt>
      <trkpt lat="46.63032" lon="-1.87907">
        <ele>10</ele>
        <time>2018-03-17T17:40:56Z</time>
      </trkpt>
      <trkpt lat="46.63043" lon="-1.87942">
        <ele>10</ele>
        <time>2018-03-17T17:41:56Z</time>
      </trkpt>
      <trkpt lat="46.6305" lon="-1.87961">
        <ele>10</ele>
        <time>2018-03-17T17:42:56Z</time>
      </trkpt>
      <trkpt lat="46.63059" lon="-1.8798">
        <ele>11</ele>
        <time>2018-03-17T17:43:56Z</time>
      </trkpt>
      <trkpt lat="46.63066" lon="-1.87991">
        <ele>11</ele>
        <time>2018-03-17T17:44:56Z</time>
      </trkpt>
      <trkpt lat="46.63075" lon="-1.88003">
        <ele>12</ele>
        <time>2018-03-17T17:45:56Z</time>
      </trkpt>
      <trkpt lat="46.63085" lon="-1.88018">
        <ele>12</ele>
        <time>2018-03-17T17:46:56Z</time>
      </trkpt>
      <trkpt lat="46.63104" lon="-1.88049">
        <ele>10</ele>
        <time>2018-03-17T17:47:56Z</time>
      </trkpt>
      <trkpt lat="46.63118" lon="-1.88071">
        <ele>9</ele>
        <time>2018-03-17T17:48:56Z</time>
      </trkpt>
      <trkpt lat="46.63126" lon="-1.88085">
        <ele>9</ele>
        <time>2018-03-17T17:49:56Z</time>
      </trkpt>
      <trkpt lat="46.63139" lon="-1.8811">
        <ele>9</ele>
        <time>2018-03-17T17:50:56Z</time>
      </trkpt>
      <trkpt lat="46.63146" lon="-1.88123">
        <ele>9</ele>
        <time>2018-03-17T17:51:56Z</time>
      </trkpt>
      <trkpt lat="46.63146" lon="-1.88123">
        <ele>9</ele>
        <time>2018-03-17T17:52:56Z</time>
      </trkpt>
      <trkpt lat="46.63151" lon="-1.88138">
        <ele>9</ele>
        <time>2018-03-17T17:53:56Z</time>
      </trkpt>
      <trkpt lat="46.63154" lon="-1.88152">
        <ele>9</ele>
        <time>2018-03-17T17:54:56Z</time>
      </trkpt>
      <trkpt lat="46.63157" lon="-1.8817">
        <ele>9</ele>
        <time>2018-03-17T17:55:56Z</time>
      </trkpt>
      <trkpt lat="46.63161" lon="-1.88202">
        <ele>8</ele>
        <time>2018-03-17T17:56:56Z</time>
      </trkpt>
      <trkpt lat="46.63164" lon="-1.8822">
        <ele>8</ele>
        <time>2018-03-17T17:57:56Z</time>
      </trkpt>
      <trkpt lat="46.63168" lon="-1.88249">
        <ele>7</ele>
        <time>2018-03-17T17:58:56Z</time>
      </trkpt>
      <trkpt lat="46.63173" lon="-1.88287">
        <ele>6</ele>
        <time>2018-03-17T17:59:56Z</time>
      </trkpt>
      <trkpt lat="46.63176" lon="-1.88306">
        <ele>6</ele>
        <time>2018-03-17T18:00:56Z</time>
      </trkpt>
      <trkpt lat="46.63183" lon="-1.88351">
        <ele>6</ele>
        <time>2018-03-17T18:01:56Z</time>
      </trkpt>
      <trkpt lat="46.6319" lon="-1.88402">
        <ele>6</ele>
        <time>2018-03-17T18:02:56Z</time>
      </trkpt>
      <trkpt lat="46.63195" lon="-1.88434">
        <ele>6</ele>
        <time>2018-03-17T18:03:56Z</time>
      </trkpt>
      <trkpt lat="46.632" lon="-1.88448">
        <ele>6</ele>
        <time>2018-03-17T18:04:56Z</time>
      </trkpt>
      <trkpt lat="46.63208" lon="-1.88464">
        <ele>6</ele>
        <time>2018-03-17T18:05:56Z</time>
      </trkpt>
      <trkpt lat="46.6322" lon="-1.88488">
        <ele>6</ele>
        <time>2018-03-17T18:06:56Z</time>
      </trkpt>
      <trkpt lat="46.63234" lon="-1.88515">
        <ele>6</ele>
        <time>2018-03-17T18:07:56Z</time>
      </trkpt>
      <trkpt lat="46.63252" lon="-1.88548">
        <ele>6</ele>
        <time>2018-03-17T18:08:56Z</time>
      </trkpt>
      <trkpt lat="46.63263" lon="-1.88567">
        <ele>6</ele>
        <time>2018-03-17T18:09:56Z</time>
      </trkpt>
      <trkpt lat="46.63268" lon="-1.88575">
        <ele>6</ele>
        <time>2018-03-17T18:10:56Z</time>
      </trkpt>
      <trkpt lat="46.63273" lon="-1.88585">
        <ele>6</ele>
        <time>2018-03-17T18:11:56Z</time>
      </trkpt>
      <trkpt lat="46.6328" lon="-1.88599">
        <ele>6</ele>
        <time>2018-03-17T18:12:56Z</time>
      </trkpt>
      <trkpt lat="46.63289" lon="-1.88618">
        <ele>6</ele>
        <time>2018-03-17T18:13:56Z</time>
      </trkpt>
      <trkpt lat="46.63292" lon="-1.88623">
        <ele>6</ele>
        <time>2018-03-17T18:14:56Z</time>
      </trkpt>
      <trkpt lat="46.63303" lon="-1.88642">
        <ele>6</ele>
        <time>2018-03-17T18:15:56Z</time>
      </trkpt>
      <trkpt lat="46.63312" lon="-1.88658">
        <ele>6</ele>
        <time>2018-03-17T18:16:56Z</time>
      </trkpt>
      <trkpt lat="46.63322" lon="-1.8867">
        <ele>7</ele>
        <time>2018-03-17T18:17:56Z</time>
      </trkpt>
      <trkpt lat="46.63343" lon="-1.88692">
        <ele>7</ele>
        <time>2018-03-17T18:18:56Z</time>
      </trkpt>
      <trkpt lat="46.63343" lon="-1.88692">
        <ele>7</ele>
        <time>2018-03-17T18:19:56Z</time>
      </trkpt>
      <trkpt lat="46.63344" lon="-1.88693">
        <ele>7</ele>
        <time>2018-03-17T18:20:56Z</time>
      </trkpt>
      <trkpt lat="46.63368" lon="-1.88714">
        <ele>7</ele>
        <time>2018-03-17T18:21:56Z</time>
      </trkpt>
      <trkpt lat="46.63385" lon="-1.8873">
        <ele>7</ele>
        <time>2018-03-17T18:22:56Z</time>
      </trkpt>
      <trkpt lat="46.63396" lon="-1.88741">
        <ele>7</ele>
        <time>2018-03-17T18:23:56Z</time>
      </trkpt>
      <trkpt lat="46.63406" lon="-1.88754">
        <ele>7</ele>
        <time>2018-03-17T18:24:56Z</time>
      </trkpt>
      <trkpt lat="46.63413" lon="-1.88765">
        <ele>7</ele>
        <time>2018-03-17T18:25:56Z</time>
      </trkpt>
      <trkpt lat="46.6342" lon="-1.88781">
        <ele>7</ele>
        <time>2018-03-17T18:26:56Z</time>
      </trkpt>
      <trkpt lat="46.63423" lon="-1.88789">
        <ele>7</ele>
        <time>2018-03-17T18:27:56Z</time>
      </trkpt>
      <trkpt lat="46.63433" lon="-1.88811">
        <ele>7</ele>
        <time>2018-03-17T18:28:56Z</time>
      </trkpt>
      <trkpt lat="46.63442" lon="-1.88833">
        <ele>8</ele>
        <time>2018-03-17T18:29:56Z</time>
      </trkpt>
      <trkpt lat="46.63453" lon="-1.88859">
        <ele>8</ele>
        <time>2018-03-17T18:30:56Z</time>
      </trkpt>
      <trkpt lat="46.63465" lon="-1.88888">
        <ele>8</ele>
        <time>2018-03-17T18:31:56Z</time>
      </trkpt>
      <trkpt lat="46.63479" lon="-1.88922">
        <ele>8</ele>
        <time>2018-03-17T18:32:56Z</time>
      </trkpt>
      <trkpt lat="46.63494" lon="-1.88958">
        <ele>8</ele>
        <time>2018-03-17T18:33:56Z</time>
      </trkpt>
      <trkpt lat="46.63504" lon="-1.88984">
        <ele>7</ele>
        <time>2018-03-17T18:34:56Z</time>
      </trkpt>
      <trkpt lat="46.63518" lon="-1.89017">
        <ele>6</ele>
        <time>2018-03-17T18:35:56Z</time>
      </trkpt>
      <trkpt lat="46.6352" lon="-1.89022">
        <ele>6</ele>
        <time>2018-03-17T18:36:56Z</time>
      </trkpt>
      <trkpt lat="46.63524" lon="-1.89032">
        <ele>6</ele>
        <time>2018-03-17T18:37:56Z</time>
      </trkpt>
      <trkpt lat="46.6353" lon="-1.89043">
        <ele>6</ele>
        <time>2018-03-17T18:38:56Z</time>
      </trkpt>
      <trkpt lat="46.63534" lon="-1.89049">
        <ele>6</ele>
        <time>2018-03-17T18:39:56Z</time>
      </trkpt>
      <trkpt lat="46.63536" lon="-1.89053">
        <ele>6</ele>
        <time>2018-03-17T18:40:56Z</time>
      </trkpt>
      <trkpt lat="46.63543" lon="-1.89061">
        <ele>6</ele>
        <time>2018-03-17T18:41:56Z</time>
      </trkpt>
      <trkpt lat="46.63619" lon="-1.89114">
        <ele>8</ele>
        <time>2018-03-17T18:42:56Z</time>
      </trkpt>
      <trkpt lat="46.63629" lon="-1.89121">
        <ele>8</ele>
        <time>2018-03-17T18:43:56Z</time>
      </trkpt>
      <trkpt lat="46.6363" lon="-1.89123">
        <ele>8</ele>
        <time>2018-03-17T18:44:56Z</time>
      </trkpt>
      <trkpt lat="46.63632" lon="-1.89124">
        <ele>8</ele>
        <time>2018-03-17T18:45:56Z</time>
      </trkpt>
      <trkpt lat="46.63657" lon="-1.89143">
        <ele>9</ele>
        <time>2018-03-17T18:46:56Z</time>
      </trkpt>
      <trkpt lat="46.63686" lon="-1.89162">
        <ele>9</ele>
        <time>2018-03-17T18:47:56Z</time>
      </trkpt>
      <trkpt lat="46.63712" lon="-1.89179">
        <ele>9</ele>
        <time>2018-03-17T18:48:56Z</time>
      </trkpt>
      <trkpt lat="46.63718" lon="-1.89185">
        <ele>8</ele>
        <time>2018-03-17T18:49:56Z</time>
      </trkpt>
      <trkpt lat="46.6374" lon="-1.892">
        <ele>9</ele>
        <time>2018-03-17T18:50:56Z</time>
      </trkpt>
      <trkpt lat="46.63789" lon="-1.89237">
        <ele>8</ele>
        <time>2018-03-17T18:51:56Z</time>
      </trkpt>
      <trkpt lat="46.63802" lon="-1.89252">
        <ele>8</ele>
        <time>2018-03-17T18:52:56Z</time>
      </trkpt>
      <trkpt lat="46.63807" lon="-1.89261">
        <ele>7</ele>
        <time>2018-03-17T18:53:56Z</time>
      </trkpt>
      <trkpt lat="46.63817" lon="-1.89276">
        <ele>7</ele>
        <time>2018-03-17T18:54:56Z</time>
      </trkpt>
      <trkpt lat="46.63831" lon="-1.89294">
        <ele>7</ele>
        <time>2018-03-17T18:55:56Z</time>
      </trkpt>
      <trkpt lat="46.63847" lon="-1.89315">
        <ele>7</ele>
        <time>2018-03-17T18:56:56Z</time>
      </trkpt>
      <trkpt lat="46.63852" lon="-1.89324">
        <ele>7</ele>
        <time>2018-03-17T18:57:56Z</time>
      </trkpt>
      <trkpt lat="46.63865" lon="-1.89341">
        <ele>7</ele>
        <time>2018-03-17T18:58:56Z</time>
      </trkpt>
      <trkpt lat="46.63884" lon="-1.89368">
        <ele>6</ele>
        <time>2018-03-17T18:59:56Z</time>
      </trkpt>
      <trkpt lat="46.63888" lon="-1.89374">
        <ele>6</ele>
        <time>2018-03-17T19:00:56Z</time>
      </trkpt>
      <trkpt lat="46.6391" lon="-1.89405">
        <ele>5</ele>
        <time>2018-03-17T19:01:56Z</time>
      </trkpt>
      <trkpt lat="46.63915" lon="-1.89412">
        <ele>5</ele>
        <time>2018-03-17T19:02:56Z</time>
      </trkpt>
      <trkpt lat="46.63919" lon="-1.89416">
        <ele>5</ele>
        <time>2018-03-17T19:03:56Z</time>
      </trkpt>
      <trkpt lat="46.63925" lon="-1.89422">
        <ele>5</ele>
        <time>2018-03-17T19:04:56Z</time>
      </trkpt>
      <trkpt lat="46.63935" lon="-1.89424">
        <ele>5</ele>
        <time>2018-03-17T19:05:56Z</time>
      </trkpt>
      <trkpt lat="46.6395" lon="-1.89424">
        <ele>6</ele>
        <time>2018-03-17T19:06:56Z</time>
      </trkpt>
      <trkpt lat="46.63967" lon="-1.89421">
        <ele>6</ele>
        <time>2018-03-17T19:07:56Z</time>
      </trkpt>
      <trkpt lat="46.6398" lon="-1.89421">
        <ele>6</ele>
        <time>2018-03-17T19:08:56Z</time>
      </trkpt>
      <trkpt lat="46.63993" lon="-1.8942">
        <ele>7</ele>
        <time>2018-03-17T19:09:56Z</time>
      </trkpt>
      <trkpt lat="46.64001" lon="-1.89419">
        <ele>7</ele>
        <time>2018-03-17T19:10:56Z</time>
      </trkpt>
      <trkpt lat="46.64014" lon="-1.89408">
        <ele>8</ele>
        <time>2018-03-17T19:11:56Z</time>
      </trkpt>
      <trkpt lat="46.64014" lon="-1.89408">
        <ele>8</ele>
        <time>2018-03-17T19:12:56Z</time>
      </trkpt>
      <trkpt lat="46.64032" lon="-1.89371">
        <ele>9</ele>
        <time>2018-03-17T19:13:56Z</time>
      </trkpt>
      <trkpt lat="46.64043" lon="-1.89336">
        <ele>10</ele>
        <time>2018-03-17T19:14:56Z</time>
      </trkpt>
      <trkpt lat="46.64056" lon="-1.89296">
        <ele>10</ele>
        <time>2018-03-17T19:15:56Z</time>
      </trkpt>
      <trkpt lat="46.64061" lon="-1.89283">
        <ele>11</ele>
        <time>2018-03-17T19:16:56Z</time>
      </trkpt>
      <trkpt lat="46.64078" lon="-1.89253">
        <ele>11</ele>
        <time>2018-03-17T19:17:56Z</time>
      </trkpt>
      <trkpt lat="46.64107" lon="-1.892">
        <ele>12</ele>
        <time>2018-03-17T19:18:56Z</time>
      </trkpt>
      <trkpt lat="46.64121" lon="-1.8917">
        <ele>12</ele>
        <time>2018-03-17T19:19:56Z</time>
      </trkpt>
      <trkpt lat="46.64126" lon="-1.8916">
        <ele>13</ele>
        <time>2018-03-17T19:20:56Z</time>
      </trkpt>
      <trkpt lat="46.64133" lon="-1.89149">
        <ele>13</ele>
        <time>2018-03-17T19:21:56Z</time>
      </trkpt>
      <trkpt lat="46.64135" lon="-1.89148">
        <ele>13</ele>
        <time>2018-03-17T19:22:56Z</time>
      </trkpt>
      <trkpt lat="46.64147" lon="-1.89136">
        <ele>13</ele>
        <time>2018-03-17T19:23:56Z</time>
      </trkpt>
      <trkpt lat="46.64161" lon="-1.89123">
        <ele>13</ele>
        <time>2018-03-17T19:24:56Z</time>
      </trkpt>
      <trkpt lat="46.64175" lon="-1.8911">
        <ele>13</ele>
        <time>2018-03-17T19:25:56Z</time>
      </trkpt>
      <trkpt lat="46.64187" lon="-1.89101">
        <ele>13</ele>
        <time>2018-03-17T19:26:56Z</time>
      </trkpt>
      <trkpt lat="46.64188" lon="-1.89101">
        <ele>14</ele>
        <time>2018-03-17T19:27:56Z</time>
      </trkpt>
      <trkpt lat="46.64193" lon="-1.89095">
        <ele>14</ele>
        <time>2018-03-17T19:28:56Z</time>
      </trkpt>
      <trkpt lat="46.64198" lon="-1.89091">
        <ele>14</ele>
        <time>2018-03-17T19:29:56Z</time>
      </trkpt>
      <trkpt lat="46.64204" lon="-1.89084">
        <ele>14</ele>
        <time>2018-03-17T19:30:56Z</time>
      </trkpt>
      <trkpt lat="46.6421" lon="-1.89074">
        <ele>14</ele>
        <time>2018-03-17T19:31:56Z</time>
      </trkpt>
      <trkpt lat="46.64214" lon="-1.89064">
        <ele>14</ele>
        <time>2018-03-17T19:32:56Z</time>
      </trkpt>
      <trkpt lat="46.64217" lon="-1.8905">
        <ele>14</ele>
        <time>2018-03-17T19:33:56Z</time>
      </trkpt>
      <trkpt lat="46.6422" lon="-1.89043">
        <ele>14</ele>
        <time>2018-03-17T19:34:56Z</time>
      </trkpt>
      <trkpt lat="46.6422" lon="-1.89043">
        <ele>14</ele>
        <time>2018-03-17T19:35:56Z</time>
      </trkpt>
      <trkpt lat="46.64223" lon="-1.89041">
        <ele>15</ele>
        <time>2018-03-17T19:36:56Z</time>
      </trkpt>
      <trkpt lat="46.64228" lon="-1.89041">
        <ele>15</ele>
        <time>2018-03-17T19:37:56Z</time>
      </trkpt>
      <trkpt lat="46.64233" lon="-1.89042">
        <ele>15</ele>
        <time>2018-03-17T19:38:56Z</time>
      </trkpt>
      <trkpt lat="46.64238" lon="-1.89043">
        <ele>15</ele>
        <time>2018-03-17T19:39:56Z</time>
      </trkpt>
      <trkpt lat="46.64241" lon="-1.89043">
        <ele>15</ele>
        <time>2018-03-17T19:40:56Z</time>
      </trkpt>
      <trkpt lat="46.64254" lon="-1.89044">
        <ele>15</ele>
        <time>2018-03-17T19:41:56Z</time>
      </trkpt>
      <trkpt lat="46.64266" lon="-1.89045">
        <ele>15</ele>
        <time>2018-03-17T19:42:56Z</time>
      </trkpt>
      <trkpt lat="46.64272" lon="-1.89045">
        <ele>15</ele>
        <time>2018-03-17T19:43:56Z</time>
      </trkpt>
      <trkpt lat="46.64288" lon="-1.89044">
        <ele>15</ele>
        <time>2018-03-17T19:44:56Z</time>
      </trkpt>
      <trkpt lat="46.64302" lon="-1.89042">
        <ele>15</ele>
        <time>2018-03-17T19:45:56Z</time>
      </trkpt>
      <trkpt lat="46.64322" lon="-1.89039">
        <ele>15</ele>
        <time>2018-03-17T19:46:56Z</time>
      </trkpt>
      <trkpt lat="46.64346" lon="-1.89036">
        <ele>15</ele>
        <time>2018-03-17T19:47:56Z</time>
      </trkpt>
      <trkpt lat="46.64363" lon="-1.89032">
        <ele>15</ele>
        <time>2018-03-17T19:48:56Z</time>
      </trkpt>
      <trkpt lat="46.64389" lon="-1.89028">
        <ele>16</ele>
        <time>2018-03-17T19:49:56Z</time>
      </trkpt>
      <trkpt lat="46.64411" lon="-1.89025">
        <ele>16</ele>
        <time>2018-03-17T19:50:56Z</time>
      </trkpt>
      <trkpt lat="46.6442" lon="-1.89024">
        <ele>16</ele>
        <time>2018-03-17T19:51:56Z</time>
      </trkpt>
      <trkpt lat="46.64431" lon="-1.89023">
        <ele>16</ele>
        <time>2018-03-17T19:52:56Z</time>
      </trkpt>
      <trkpt lat="46.64446" lon="-1.89023">
        <ele>16</ele>
        <time>2018-03-17T19:53:56Z</time>
      </trkpt>
      <trkpt lat="46.64463" lon="-1.89023">
        <ele>16</ele>
        <time>2018-03-17T19:54:56Z</time>
      </trkpt>
      <trkpt lat="46.64476" lon="-1.89024">
        <ele>16</ele>
        <time>2018-03-17T19:55:56Z</time>
      </trkpt>
      <trkpt lat="46.64478" lon="-1.89024">
        <ele>16</ele>
        <time>2018-03-17T19:56:56Z</time>
      </trkpt>
      <trkpt lat="46.64492" lon="-1.89026">
        <ele>16</ele>
        <time>2018-03-17T19:57:56Z</time>
      </trkpt>
      <trkpt lat="46.64508" lon="-1.8903">
        <ele>16</ele>
        <time>2018-03-17T19:58:56Z</time>
      </trkpt>
      <trkpt lat="46.64521" lon="-1.89032">
        <ele>16</ele>
        <time>2018-03-17T19:59:56Z</time>
      </trkpt>
      <trkpt lat="46.64531" lon="-1.89032">
        <ele>16</ele>
        <time>2018-03-17T20:00:56Z</time>
      </trkpt>
      <trkpt lat="46.64538" lon="-1.89032">
        <ele>16</ele>
        <time>2018-03-17T20:01:56Z</time>
      </trkpt>
      <trkpt lat="46.6455" lon="-1.8903">
        <ele>16</ele>
        <time>2018-03-17T20:02:56Z</time>
      </trkpt>
      <trkpt lat="46.64567" lon="-1.89029">
        <ele>16</ele>
        <time>2018-03-17T20:03:56Z</time>
      </trkpt>
      <trkpt lat="46.64572" lon="-1.89028">
        <ele>16</ele>
        <time>2018-03-17T20:04:56Z</time>
      </trkpt>
      <trkpt lat="46.64578" lon="-1.89025">
        <ele>16</ele>
        <time>2018-03-17T20:05:56Z</time>
      </trkpt>
      <trkpt lat="46.64592" lon="-1.89011">
        <ele>15</ele>
        <time>2018-03-17T20:06:56Z</time>
      </trkpt>
      <trkpt lat="46.64592" lon="-1.89011">
        <ele>15</ele>
        <time>2018-03-17T20:07:56Z</time>
      </trkpt>
      <trkpt lat="46.64592" lon="-1.8901">
        <ele>15</ele>
        <time>2018-03-17T20:08:56Z</time>
      </trkpt>
      <trkpt lat="46.64592" lon="-1.89009">
        <ele>15</ele>
        <time>2018-03-17T20:09:56Z</time>
      </trkpt>
      <trkpt lat="46.64592" lon="-1.89008">
        <ele>15</ele>
        <time>2018-03-17T20:10:56Z</time>
      </trkpt>
      <trkpt lat="46.64592" lon="-1.89007">
        <ele>15</ele>
        <time>2018-03-17T20:11:56Z</time>
      </trkpt>
      <trkpt lat="46.64592" lon="-1.89006">
        <ele>15</ele>
        <time>2018-03-17T20:12:56Z</time>
      </trkpt>
      <trkpt lat="46.64592" lon="-1.89005">
        <ele>15</ele>
        <time>2018-03-17T20:13:56Z</time>
      </trkpt>
      <trkpt lat="46.64592" lon="-1.89004">
        <ele>15</ele>
        <time>2018-03-17T20:14:56Z</time>
      </trkpt>
      <trkpt lat="46.64593" lon="-1.89003">
        <ele>15</ele>
        <time>2018-03-17T20:15:56Z</time>
      </trkpt>
      <trkpt lat="46.64593" lon="-1.89002">
        <ele>15</ele>
        <time>2018-03-17T20:16:56Z</time>
      </trkpt>
      <trkpt lat="46.64593" lon="-1.89001">
        <ele>15</ele>
        <time>2018-03-17T20:17:56Z</time>
      </trkpt>
      <trkpt lat="46.64594" lon="-1.89001">
        <ele>15</ele>
        <time>2018-03-17T20:18:56Z</time>
      </trkpt>
      <trkpt lat="46.64594" lon="-1.89">
        <ele>15</ele>
        <time>2018-03-17T20:19:56Z</time>
      </trkpt>
      <trkpt lat="46.64595" lon="-1.88999">
        <ele>15</ele>
        <time>2018-03-17T20:20:56Z</time>
      </trkpt>
      <trkpt lat="46.64596" lon="-1.88998">
        <ele>15</ele>
        <time>2018-03-17T20:21:56Z</time>
      </trkpt>
      <trkpt lat="46.64597" lon="-1.88997">
        <ele>15</ele>
        <time>2018-03-17T20:22:56Z</time>
      </trkpt>
      <trkpt lat="46.64598" lon="-1.88997">
        <ele>15</ele>
        <time>2018-03-17T20:23:56Z</time>
      </trkpt>
      <trkpt lat="46.64599" lon="-1.88997">
        <ele>15</ele>
        <time>2018-03-17T20:24:56Z</time>
      </trkpt>
      <trkpt lat="46.64599" lon="-1.88996">
        <ele>15</ele>
        <time>2018-03-17T20:25:56Z</time>
      </trkpt>
      <trkpt lat="46.646" lon="-1.88996">
        <ele>15</ele>
        <time>2018-03-17T20:26:56Z</time>
      </trkpt>
      <trkpt lat="46.64601" lon="-1.88996">
        <ele>15</ele>
        <time>2018-03-17T20:27:56Z</time>
      </trkpt>
      <trkpt lat="46.64601" lon="-1.88997">
        <ele>15</ele>
        <time>2018-03-17T20:28:56Z</time>
      </trkpt>
      <trkpt lat="46.64602" lon="-1.88997">
        <ele>15</ele>
        <time>2018-03-17T20:29:56Z</time>
      </trkpt>
      <trkpt lat="46.64603" lon="-1.88997">
        <ele>15</ele>
        <time>2018-03-17T20:30:56Z</time>
      </trkpt>
      <trkpt lat="46.64604" lon="-1.88997">
        <ele>15</ele>
        <time>2018-03-17T20:31:56Z</time>
      </trkpt>
      <trkpt lat="46.64604" lon="-1.88998">
        <ele>15</ele>
        <time>2018-03-17T20:32:56Z</time>
      </trkpt>
      <trkpt lat="46.64605" lon="-1.88998">
        <ele>15</ele>
        <time>2018-03-17T20:33:56Z</time>
      </trkpt>
      <trkpt lat="46.64605" lon="-1.88999">
        <ele>15</ele>
        <time>2018-03-17T20:34:56Z</time>
      </trkpt>
      <trkpt lat="46.64606" lon="-1.88999">
        <ele>15</ele>
        <time>2018-03-17T20:35:56Z</time>
      </trkpt>
      <trkpt lat="46.64606" lon="-1.89">
        <ele>15</ele>
        <time>2018-03-17T20:36:56Z</time>
      </trkpt>
      <trkpt lat="46.64607" lon="-1.89001">
        <ele>15</ele>
        <time>2018-03-17T20:37:56Z</time>
      </trkpt>
      <trkpt lat="46.64607" lon="-1.89002">
        <ele>15</ele>
        <time>2018-03-17T20:38:56Z</time>
      </trkpt>
      <trkpt lat="46.64608" lon="-1.89003">
        <ele>15</ele>
        <time>2018-03-17T20:39:56Z</time>
      </trkpt>
      <trkpt lat="46.64608" lon="-1.89004">
        <ele>15</ele>
        <time>2018-03-17T20:40:56Z</time>
      </trkpt>
      <trkpt lat="46.64608" lon="-1.89005">
        <ele>15</ele>
        <time>2018-03-17T20:41:56Z</time>
      </trkpt>
      <trkpt lat="46.64608" lon="-1.89006">
        <ele>15</ele>
        <time>2018-03-17T20:42:56Z</time>
      </trkpt>
      <trkpt lat="46.64609" lon="-1.89007">
        <ele>15</ele>
        <time>2018-03-17T20:43:56Z</time>
      </trkpt>
      <trkpt lat="46.64611" lon="-1.89011">
        <ele>16</ele>
        <time>2018-03-17T20:44:56Z</time>
      </trkpt>
      <trkpt lat="46.64613" lon="-1.89013">
        <ele>16</ele>
        <time>2018-03-17T20:45:56Z</time>
      </trkpt>
      <trkpt lat="46.64616" lon="-1.89017">
        <ele>16</ele>
        <time>2018-03-17T20:46:56Z</time>
      </trkpt>
      <trkpt lat="46.64618" lon="-1.89018">
        <ele>16</ele>
        <time>2018-03-17T20:47:56Z</time>
      </trkpt>
      <trkpt lat="46.64619" lon="-1.8902">
        <ele>16</ele>
        <time>2018-03-17T20:48:56Z</time>
      </trkpt>
      <trkpt lat="46.64626" lon="-1.89025">
        <ele>16</ele>
        <time>2018-03-17T20:49:56Z</time>
      </trkpt>
      <trkpt lat="46.64633" lon="-1.89029">
        <ele>16</ele>
        <time>2018-03-17T20:50:56Z</time>
      </trkpt>
      <trkpt lat="46.6464" lon="-1.89033">
        <ele>16</ele>
        <time>2018-03-17T20:51:56Z</time>
      </trkpt>
      <trkpt lat="46.64641" lon="-1.89034">
        <ele>16</ele>
        <time>2018-03-17T20:52:56Z</time>
      </trkpt>
      <trkpt lat="46.64656" lon="-1.89043">
        <ele>16</ele>
        <time>2018-03-17T20:53:56Z</time>
      </trkpt>
      <trkpt lat="46.64658" lon="-1.89044">
        <ele>16</ele>
        <time>2018-03-17T20:54:56Z</time>
      </trkpt>
      <trkpt lat="46.64666" lon="-1.89048">
        <ele>17</ele>
        <time>2018-03-17T20:55:56Z</time>
      </trkpt>
      <trkpt lat="46.64673" lon="-1.89055">
        <ele>17</ele>
        <time>2018-03-17T20:56:56Z</time>
      </trkpt>
      <trkpt lat="46.64692" lon="-1.89065">
        <ele>17</ele>
        <time>2018-03-17T20:57:56Z</time>
      </trkpt>
      <trkpt lat="46.64722" lon="-1.8908">
        <ele>18</ele>
        <time>2018-03-17T20:58:56Z</time>
      </trkpt>
      <trkpt lat="46.64754" lon="-1.89098">
        <ele>18</ele>
        <time>2018-03-17T20:59:56Z</time>
      </trkpt>
      <trkpt lat="46.64788" lon="-1.89116">
        <ele>18</ele>
        <time>2018-03-17T21:00:56Z</time>
      </trkpt>
      <trkpt lat="46.64822" lon="-1.89134">
        <ele>17</ele>
        <time>2018-03-17T21:01:56Z</time>
      </trkpt>
      <trkpt lat="46.6486" lon="-1.89155">
        <ele>17</ele>
        <time>2018-03-17T21:02:56Z</time>
      </trkpt>
      <trkpt lat="46.6489" lon="-1.89171">
        <ele>16</ele>
        <time>2018-03-17T21:03:56Z</time>
      </trkpt>
      <trkpt lat="46.6496" lon="-1.89207">
        <ele>15</ele>
        <time>2018-03-17T21:04:56Z</time>
      </trkpt>
      <trkpt lat="46.65005" lon="-1.89232">
        <ele>14</ele>
        <time>2018-03-17T21:05:56Z</time>
      </trkpt>
      <trkpt lat="46.65045" lon="-1.89253">
        <ele>13</ele>
        <time>2018-03-17T21:06:56Z</time>
      </trkpt>
      <trkpt lat="46.65124" lon="-1.89296">
        <ele>12</ele>
        <time>2018-03-17T21:07:56Z</time>
      </trkpt>
      <trkpt lat="46.65156" lon="-1.89313">
        <ele>11</ele>
        <time>2018-03-17T21:08:56Z</time>
      </trkpt>
      <trkpt lat="46.65193" lon="-1.89334">
        <ele>9</ele>
        <time>2018-03-17T21:09:56Z</time>
      </trkpt>
      <trkpt lat="46.65215" lon="-1.89348">
        <ele>8</ele>
        <time>2018-03-17T21:10:56Z</time>
      </trkpt>
      <trkpt lat="46.65231" lon="-1.89359">
        <ele>7</ele>
        <time>2018-03-17T21:11:56Z</time>
      </trkpt>
      <trkpt lat="46.6525" lon="-1.89376">
        <ele>6</ele>
        <time>2018-03-17T21:12:56Z</time>
      </trkpt>
      <trkpt lat="46.65265" lon="-1.89391">
        <ele>6</ele>
        <time>2018-03-17T21:13:56Z</time>
      </trkpt>
      <trkpt lat="46.65293" lon="-1.8942">
        <ele>6</ele>
        <time>2018-03-17T21:14:56Z</time>
      </trkpt>
      <trkpt lat="46.65301" lon="-1.89425">
        <ele>5</ele>
        <time>2018-03-17T21:15:56Z</time>
      </trkpt>
      <trkpt lat="46.65345" lon="-1.89471">
        <ele>6</ele>
        <time>2018-03-17T21:16:56Z</time>
      </trkpt>
      <trkpt lat="46.65361" lon="-1.89488">
        <ele>6</ele>
        <time>2018-03-17T21:17:56Z</time>
      </trkpt>
      <trkpt lat="46.65369" lon="-1.89496">
        <ele>6</ele>
        <time>2018-03-17T21:18:56Z</time>
      </trkpt>
      <trkpt lat="46.65414" lon="-1.89536">
        <ele>7</ele>
        <time>2018-03-17T21:19:56Z</time>
      </trkpt>
      <trkpt lat="46.65449" lon="-1.89567">
        <ele>7</ele>
        <time>2018-03-17T21:20:56Z</time>
      </trkpt>
      <trkpt lat="46.65489" lon="-1.89598">
        <ele>8</ele>
        <time>2018-03-17T21:21:56Z</time>
      </trkpt>
      <trkpt lat="46.65541" lon="-1.89637">
        <ele>7</ele>
        <time>2018-03-17T21:22:56Z</time>
      </trkpt>
      <trkpt lat="46.65546" lon="-1.89643">
        <ele>7</ele>
        <time>2018-03-17T21:23:56Z</time>
      </trkpt>
      <trkpt lat="46.65631" lon="-1.89698">
        <ele>8</ele>
        <time>2018-03-17T21:24:56Z</time>
      </trkpt>
      <trkpt lat="46.65759" lon="-1.89784">
        <ele>8</ele>
        <time>2018-03-17T21:25:56Z</time>
      </trkpt>
      <trkpt lat="46.65878" lon="-1.8986">
        <ele>7</ele>
        <time>2018-03-17T21:26:56Z</time>
      </trkpt>
      <trkpt lat="46.65944" lon="-1.89901">
        <ele>7</ele>
        <time>2018-03-17T21:27:56Z</time>
      </trkpt>
      <trkpt lat="46.65958" lon="-1.89911">
        <ele>6</ele>
        <time>2018-03-17T21:28:56Z</time>
      </trkpt>
      <trkpt lat="46.65975" lon="-1.89922">
        <ele>7</ele>
        <time>2018-03-17T21:29:56Z</time>
      </trkpt>
      <trkpt lat="46.66028" lon="-1.89956">
        <ele>8</ele>
        <time>2018-03-17T21:30:56Z</time>
      </trkpt>
      <trkpt lat="46.66074" lon="-1.89986">
        <ele>7</ele>
        <time>2018-03-17T21:31:56Z</time>
      </trkpt>
      <trkpt lat="46.6609" lon="-1.89996">
        <ele>7</ele>
        <time>2018-03-17T21:32:56Z</time>
      </trkpt>
      <trkpt lat="46.66116" lon="-1.90011">
        <ele>6</ele>
        <time>2018-03-17T21:33:56Z</time>
      </trkpt>
      <trkpt lat="46.6615" lon="-1.90033">
        <ele>5</ele>
        <time>2018-03-17T21:34:56Z</time>
      </trkpt>
      <trkpt lat="46.66183" lon="-1.90053">
        <ele>4</ele>
        <time>2018-03-17T21:35:56Z</time>
      </trkpt>
      <trkpt lat="46.66205" lon="-1.90067">
        <ele>3</ele>
        <time>2018-03-17T21:36:56Z</time>
      </trkpt>
      <trkpt lat="46.66216" lon="-1.90073">
        <ele>3</ele>
        <time>2018-03-17T21:37:56Z</time>
      </trkpt>
      <trkpt lat="46.66223" lon="-1.90077">
        <ele>3</ele>
        <time>2018-03-17T21:38:56Z</time>
      </trkpt>
      <trkpt lat="46.66229" lon="-1.9008">
        <ele>3</ele>
        <time>2018-03-17T21:39:56Z</time>
      </trkpt>
      <trkpt lat="46.66237" lon="-1.90084">
        <ele>2</ele>
        <time>2018-03-17T21:40:56Z</time>
      </trkpt>
      <trkpt lat="46.66244" lon="-1.90087">
        <ele>2</ele>
        <time>2018-03-17T21:41:56Z</time>
      </trkpt>
      <trkpt lat="46.66251" lon="-1.90089">
        <ele>2</ele>
        <time>2018-03-17T21:42:56Z</time>
      </trkpt>
      <trkpt lat="46.66254" lon="-1.90091">
        <ele>2</ele>
        <time>2018-03-17T21:43:56Z</time>
      </trkpt>
      <trkpt lat="46.66258" lon="-1.90092">
        <ele>2</ele>
        <time>2018-03-17T21:44:56Z</time>
      </trkpt>
      <trkpt lat="46.66265" lon="-1.90094">
        <ele>2</ele>
        <time>2018-03-17T21:45:56Z</time>
      </trkpt>
      <trkpt lat="46.66278" lon="-1.90097">
        <ele>2</ele>
        <time>2018-03-17T21:46:56Z</time>
      </trkpt>
      <trkpt lat="46.66301" lon="-1.90103">
        <ele>1</ele>
        <time>2018-03-17T21:47:56Z</time>
      </trkpt>
      <trkpt lat="46.66328" lon="-1.90109">
        <ele>1</ele>
        <time>2018-03-17T21:48:56Z</time>
      </trkpt>
      <trkpt lat="46.66335" lon="-1.90111">
        <ele>1</ele>
        <time>2018-03-17T21:49:56Z</time>
      </trkpt>
      <trkpt lat="46.66342" lon="-1.90113">
        <ele>1</ele>
        <time>2018-03-17T21:50:56Z</time>
      </trkpt>
      <trkpt lat="46.66354" lon="-1.90116">
        <ele>1</ele>
        <time>2018-03-17T21:51:56Z</time>
      </trkpt>
      <trkpt lat="46.6636" lon="-1.90117">
        <ele>1</ele>
        <time>2018-03-17T21:52:56Z</time>
      </trkpt>
      <trkpt lat="46.66365" lon="-1.90118">
        <ele>1</ele>
        <time>2018-03-17T21:53:56Z</time>
      </trkpt>
      <trkpt lat="46.66457" lon="-1.90141">
        <ele>3</ele>
        <time>2018-03-17T21:54:56Z</time>
      </trkpt>
      <trkpt lat="46.66556" lon="-1.90164">
        <ele>3</ele>
        <time>2018-03-17T21:55:56Z</time>
      </trkpt>
      <trkpt lat="46.66598" lon="-1.90175">
        <ele>4</ele>
        <time>2018-03-17T21:56:56Z</time>
      </trkpt>
      <trkpt lat="46.66644" lon="-1.90186">
        <ele>5</ele>
        <time>2018-03-17T21:57:56Z</time>
      </trkpt>
      <trkpt lat="46.66651" lon="-1.90186">
        <ele>5</ele>
        <time>2018-03-17T21:58:56Z</time>
      </trkpt>
      <trkpt lat="46.66727" lon="-1.90202">
        <ele>6</ele>
        <time>2018-03-17T21:59:56Z</time>
      </trkpt>
      <trkpt lat="46.66748" lon="-1.90207">
        <ele>6</ele>
        <time>2018-03-17T22:00:56Z</time>
      </trkpt>
      <trkpt lat="46.66755" lon="-1.90209">
        <ele>5</ele>
        <time>2018-03-17T22:01:56Z</time>
      </trkpt>
      <trkpt lat="46.66772" lon="-1.90213">
        <ele>5</ele>
        <time>2018-03-17T22:02:56Z</time>
      </trkpt>
      <trkpt lat="46.66799" lon="-1.90219">
        <ele>5</ele>
        <time>2018-03-17T22:03:56Z</time>
      </trkpt>
      <trkpt lat="46.66818" lon="-1.90224">
        <ele>5</ele>
        <time>2018-03-17T22:04:56Z</time>
      </trkpt>
      <trkpt lat="46.66831" lon="-1.90229">
        <ele>5</ele>
        <time>2018-03-17T22:05:56Z</time>
      </trkpt>
      <trkpt lat="46.66842" lon="-1.90233">
        <ele>5</ele>
        <time>2018-03-17T22:06:56Z</time>
      </trkpt>
      <trkpt lat="46.66848" lon="-1.90237">
        <ele>5</ele>
        <time>2018-03-17T22:07:56Z</time>
      </trkpt>
      <trkpt lat="46.66863" lon="-1.90243">
        <ele>5</ele>
        <time>2018-03-17T22:08:56Z</time>
      </trkpt>
      <trkpt lat="46.66868" lon="-1.90245">
        <ele>5</ele>
        <time>2018-03-17T22:09:56Z</time>
      </trkpt>
      <trkpt lat="46.66874" lon="-1.90248">
        <ele>5</ele>
        <time>2018-03-17T22:10:56Z</time>
      </trkpt>
      <trkpt lat="46.66878" lon="-1.90251">
        <ele>5</ele>
        <time>2018-03-17T22:11:56Z</time>
      </trkpt>
      <trkpt lat="46.66883" lon="-1.90253">
        <ele>5</ele>
        <time>2018-03-17T22:12:56Z</time>
      </trkpt>
      <trkpt lat="46.66887" lon="-1.90256">
        <ele>5</ele>
        <time>2018-03-17T22:13:56Z</time>
      </trkpt>
      <trkpt lat="46.66891" lon="-1.90258">
        <ele>5</ele>
        <time>2018-03-17T22:14:56Z</time>
      </trkpt>
      <trkpt lat="46.66895" lon="-1.90261">
        <ele>5</ele>
        <time>2018-03-17T22:15:56Z</time>
      </trkpt>
      <trkpt lat="46.66902" lon="-1.90265">
        <ele>5</ele>
        <time>2018-03-17T22:16:56Z</time>
      </trkpt>
      <trkpt lat="46.66908" lon="-1.90269">
        <ele>5</ele>
        <time>2018-03-17T22:17:56Z</time>
      </trkpt>
      <trkpt lat="46.66913" lon="-1.90272">
        <ele>5</ele>
        <time>2018-03-17T22:18:56Z</time>
      </trkpt>
      <trkpt lat="46.66917" lon="-1.90275">
        <ele>5</ele>
        <time>2018-03-17T22:19:56Z</time>
      </trkpt>
      <trkpt lat="46.66922" lon="-1.90279">
        <ele>5</ele>
        <time>2018-03-17T22:20:56Z</time>
      </trkpt>
      <trkpt lat="46.66926" lon="-1.90283">
        <ele>5</ele>
        <time>2018-03-17T22:21:56Z</time>
      </trkpt>
      <trkpt lat="46.66936" lon="-1.90291">
        <ele>5</ele>
        <time>2018-03-17T22:22:56Z</time>
      </trkpt>
      <trkpt lat="46.66953" lon="-1.90302">
        <ele>5</ele>
        <time>2018-03-17T22:23:56Z</time>
      </trkpt>
      <trkpt lat="46.66954" lon="-1.90303">
        <ele>5</ele>
        <time>2018-03-17T22:24:56Z</time>
      </trkpt>
      <trkpt lat="46.66956" lon="-1.90304">
        <ele>5</ele>
        <time>2018-03-17T22:25:56Z</time>
      </trkpt>
      <trkpt lat="46.66957" lon="-1.90304">
        <ele>5</ele>
        <time>2018-03-17T22:26:56Z</time>
      </trkpt>
      <trkpt lat="46.66957" lon="-1.90305">
        <ele>5</ele>
        <time>2018-03-17T22:27:56Z</time>
      </trkpt>
      <trkpt lat="46.66958" lon="-1.90305">
        <ele>5</ele>
        <time>2018-03-17T22:28:56Z</time>
      </trkpt>
      <trkpt lat="46.66959" lon="-1.90305">
        <ele>5</ele>
        <time>2018-03-17T22:29:56Z</time>
      </trkpt>
      <trkpt lat="46.66962" lon="-1.90306">
        <ele>5</ele>
        <time>2018-03-17T22:30:56Z</time>
      </trkpt>
      <trkpt lat="46.66976" lon="-1.9031">
        <ele>6</ele>
        <time>2018-03-17T22:31:56Z</time>
      </trkpt>
      <trkpt lat="46.66976" lon="-1.9031">
        <ele>6</ele>
        <time>2018-03-17T22:32:56Z</time>
      </trkpt>
      <trkpt lat="46.66976" lon="-1.90309">
        <ele>6</ele>
        <time>2018-03-17T22:33:56Z</time>
      </trkpt>
      <trkpt lat="46.66977" lon="-1.90309">
        <ele>6</ele>
        <time>2018-03-17T22:34:56Z</time>
      </trkpt>
      <trkpt lat="46.66978" lon="-1.90309">
        <ele>6</ele>
        <time>2018-03-17T22:35:56Z</time>
      </trkpt>
      <trkpt lat="46.66978" lon="-1.90308">
        <ele>6</ele>
        <time>2018-03-17T22:36:56Z</time>
      </trkpt>
      <trkpt lat="46.6698" lon="-1.90308">
        <ele>6</ele>
        <time>2018-03-17T22:37:56Z</time>
      </trkpt>
      <trkpt lat="46.66981" lon="-1.90307">
        <ele>6</ele>
        <time>2018-03-17T22:38:56Z</time>
      </trkpt>
      <trkpt lat="46.66982" lon="-1.90307">
        <ele>6</ele>
        <time>2018-03-17T22:39:56Z</time>
      </trkpt>
      <trkpt lat="46.66983" lon="-1.90306">
        <ele>6</ele>
        <time>2018-03-17T22:40:56Z</time>
      </trkpt>
      <trkpt lat="46.66984" lon="-1.90306">
        <ele>6</ele>
        <time>2018-03-17T22:41:56Z</time>
      </trkpt>
      <trkpt lat="46.66986" lon="-1.90306">
        <ele>6</ele>
        <time>2018-03-17T22:42:56Z</time>
      </trkpt>
      <trkpt lat="46.66987" lon="-1.90306">
        <ele>6</ele>
        <time>2018-03-17T22:43:56Z</time>
      </trkpt>
      <trkpt lat="46.66988" lon="-1.90307">
        <ele>6</ele>
        <time>2018-03-17T22:44:56Z</time>
      </trkpt>
      <trkpt lat="46.66989" lon="-1.90307">
        <ele>6</ele>
        <time>2018-03-17T22:45:56Z</time>
      </trkpt>
      <trkpt lat="46.66991" lon="-1.90308">
        <ele>6</ele>
        <time>2018-03-17T22:46:56Z</time>
      </trkpt>
      <trkpt lat="46.66992" lon="-1.90308">
        <ele>6</ele>
        <time>2018-03-17T22:47:56Z</time>
      </trkpt>
      <trkpt lat="46.66993" lon="-1.90309">
        <ele>6</ele>
        <time>2018-03-17T22:48:56Z</time>
      </trkpt>
      <trkpt lat="46.66995" lon="-1.90311">
        <ele>6</ele>
        <time>2018-03-17T22:49:56Z</time>
      </trkpt>
      <trkpt lat="46.66996" lon="-1.90311">
        <ele>6</ele>
        <time>2018-03-17T22:50:56Z</time>
      </trkpt>
      <trkpt lat="46.66996" lon="-1.90312">
        <ele>6</ele>
        <time>2018-03-17T22:51:56Z</time>
      </trkpt>
      <trkpt lat="46.66997" lon="-1.90313">
        <ele>6</ele>
        <time>2018-03-17T22:52:56Z</time>
      </trkpt>
      <trkpt lat="46.66997" lon="-1.90314">
        <ele>6</ele>
        <time>2018-03-17T22:53:56Z</time>
      </trkpt>
      <trkpt lat="46.66998" lon="-1.90315">
        <ele>6</ele>
        <time>2018-03-17T22:54:56Z</time>
      </trkpt>
      <trkpt lat="46.66998" lon="-1.90316">
        <ele>6</ele>
        <time>2018-03-17T22:55:56Z</time>
      </trkpt>
      <trkpt lat="46.66999" lon="-1.90317">
        <ele>6</ele>
        <time>2018-03-17T22:56:56Z</time>
      </trkpt>
      <trkpt lat="46.66999" lon="-1.90318">
        <ele>6</ele>
        <time>2018-03-17T22:57:56Z</time>
      </trkpt>
      <trkpt lat="46.67" lon="-1.90319">
        <ele>6</ele>
        <time>2018-03-17T22:58:56Z</time>
      </trkpt>
      <trkpt lat="46.67001" lon="-1.90321">
        <ele>6</ele>
        <time>2018-03-17T22:59:56Z</time>
      </trkpt>
      <trkpt lat="46.67001" lon="-1.90322">
        <ele>6</ele>
        <time>2018-03-17T23:00:56Z</time>
      </trkpt>
      <trkpt lat="46.67001" lon="-1.90324">
        <ele>6</ele>
        <time>2018-03-17T23:01:56Z</time>
      </trkpt>
      <trkpt lat="46.67002" lon="-1.90326">
        <ele>6</ele>
        <time>2018-03-17T23:02:56Z</time>
      </trkpt>
      <trkpt lat="46.67002" lon="-1.90328">
        <ele>6</ele>
        <time>2018-03-17T23:03:56Z</time>
      </trkpt>
      <trkpt lat="46.67002" lon="-1.9033">
        <ele>6</ele>
        <time>2018-03-17T23:04:56Z</time>
      </trkpt>
      <trkpt lat="46.67002" lon="-1.90332">
        <ele>6</ele>
        <time>2018-03-17T23:05:56Z</time>
      </trkpt>
      <trkpt lat="46.67002" lon="-1.90333">
        <ele>6</ele>
        <time>2018-03-17T23:06:56Z</time>
      </trkpt>
      <trkpt lat="46.67002" lon="-1.90335">
        <ele>6</ele>
        <time>2018-03-17T23:07:56Z</time>
      </trkpt>
      <trkpt lat="46.67001" lon="-1.90337">
        <ele>6</ele>
        <time>2018-03-17T23:08:56Z</time>
      </trkpt>
      <trkpt lat="46.67001" lon="-1.90339">
        <ele>6</ele>
        <time>2018-03-17T23:09:56Z</time>
      </trkpt>
      <trkpt lat="46.67001" lon="-1.9034">
        <ele>6</ele>
        <time>2018-03-17T23:10:56Z</time>
      </trkpt>
      <trkpt lat="46.67001" lon="-1.90341">
        <ele>6</ele>
        <time>2018-03-17T23:11:56Z</time>
      </trkpt>
      <trkpt lat="46.67" lon="-1.90342">
        <ele>6</ele>
        <time>2018-03-17T23:12:56Z</time>
      </trkpt>
      <trkpt lat="46.67" lon="-1.90343">
        <ele>6</ele>
        <time>2018-03-17T23:13:56Z</time>
      </trkpt>
      <trkpt lat="46.67" lon="-1.90344">
        <ele>6</ele>
        <time>2018-03-17T23:14:56Z</time>
      </trkpt>
      <trkpt lat="46.67" lon="-1.90345">
        <ele>6</ele>
        <time>2018-03-17T23:15:56Z</time>
      </trkpt>
      <trkpt lat="46.67" lon="-1.90351">
        <ele>6</ele>
        <time>2018-03-17T23:16:56Z</time>
      </trkpt>
      <trkpt lat="46.67001" lon="-1.90365">
        <ele>6</ele>
        <time>2018-03-17T23:17:56Z</time>
      </trkpt>
      <trkpt lat="46.67001" lon="-1.90368">
        <ele>6</ele>
        <time>2018-03-17T23:18:56Z</time>
      </trkpt>
      <trkpt lat="46.67002" lon="-1.9037">
        <ele>6</ele>
        <time>2018-03-17T23:19:56Z</time>
      </trkpt>
      <trkpt lat="46.67002" lon="-1.90373">
        <ele>6</ele>
        <time>2018-03-17T23:20:56Z</time>
      </trkpt>
      <trkpt lat="46.67003" lon="-1.90375">
        <ele>6</ele>
        <time>2018-03-17T23:21:56Z</time>
      </trkpt>
      <trkpt lat="46.67004" lon="-1.90378">
        <ele>6</ele>
        <time>2018-03-17T23:22:56Z</time>
      </trkpt>
      <trkpt lat="46.67006" lon="-1.9038">
        <ele>6</ele>
        <time>2018-03-17T23:23:56Z</time>
      </trkpt>
      <trkpt lat="46.67007" lon="-1.90383">
        <ele>5</ele>
        <time>2018-03-17T23:24:56Z</time>
      </trkpt>
      <trkpt lat="46.67009" lon="-1.90386">
        <ele>5</ele>
        <time>2018-03-17T23:25:56Z</time>
      </trkpt>
      <trkpt lat="46.67012" lon="-1.9039">
        <ele>5</ele>
        <time>2018-03-17T23:26:56Z</time>
      </trkpt>
      <trkpt lat="46.67021" lon="-1.90401">
        <ele>5</ele>
        <time>2018-03-17T23:27:56Z</time>
      </trkpt>
      <trkpt lat="46.67034" lon="-1.90417">
        <ele>5</ele>
        <time>2018-03-17T23:28:56Z</time>
      </trkpt>
      <trkpt lat="46.67059" lon="-1.90451">
        <ele>5</ele>
        <time>2018-03-17T23:29:56Z</time>
      </trkpt>
      <trkpt lat="46.671" lon="-1.90508">
        <ele>5</ele>
        <time>2018-03-17T23:30:56Z</time>
      </trkpt>
      <trkpt lat="46.67105" lon="-1.90518">
        <ele>5</ele>
        <time>2018-03-17T23:31:56Z</time>
      </trkpt>
      <trkpt lat="46.67166" lon="-1.90604">
        <ele>5</ele>
        <time>2018-03-17T23:32:56Z</time>
      </trkpt>
      <trkpt lat="46.67205" lon="-1.90658">
        <ele>4</ele>
        <time>2018-03-17T23:33:56Z</time>
      </trkpt>
      <trkpt lat="46.67226" lon="-1.90688">
        <ele>4</ele>
        <time>2018-03-17T23:34:56Z</time>
      </trkpt>
      <trkpt lat="46.67255" lon="-1.90729">
        <ele>3</ele>
        <time>2018-03-17T23:35:56Z</time>
      </trkpt>
      <trkpt lat="46.67282" lon="-1.90767">
        <ele>3</ele>
        <time>2018-03-17T23:36:56Z</time>
      </trkpt>
      <trkpt lat="46.67301" lon="-1.90794">
        <ele>2</ele>
        <time>2018-03-17T23:37:56Z</time>
      </trkpt>
      <trkpt lat="46.67313" lon="-1.9081">
        <ele>2</ele>
        <time>2018-03-17T23:38:56Z</time>
      </trkpt>
      <trkpt lat="46.6732" lon="-1.90819">
        <ele>2</ele>
        <time>2018-03-17T23:39:56Z</time>
      </trkpt>
      <trkpt lat="46.67323" lon="-1.90824">
        <ele>2</ele>
        <time>2018-03-17T23:40:56Z</time>
      </trkpt>
      <trkpt lat="46.67327" lon="-1.90829">
        <ele>2</ele>
        <time>2018-03-17T23:41:56Z</time>
      </trkpt>
      <trkpt lat="46.6733" lon="-1.90833">
        <ele>2</ele>
        <time>2018-03-17T23:42:56Z</time>
      </trkpt>
      <trkpt lat="46.67333" lon="-1.90837">
        <ele>2</ele>
        <time>2018-03-17T23:43:56Z</time>
      </trkpt>
      <trkpt lat="46.67336" lon="-1.9084">
        <ele>2</ele>
        <time>2018-03-17T23:44:56Z</time>
      </trkpt>
      <trkpt lat="46.67339" lon="-1.90844">
        <ele>2</ele>
        <time>2018-03-17T23:45:56Z</time>
      </trkpt>
      <trkpt lat="46.67347" lon="-1.90849">
        <ele>2</ele>
        <time>2018-03-17T23:46:56Z</time>
      </trkpt>
      <trkpt lat="46.67361" lon="-1.90864">
        <ele>2</ele>
        <time>2018-03-17T23:47:56Z</time>
      </trkpt>
      <trkpt lat="46.67381" lon="-1.90883">
        <ele>3</ele>
        <time>2018-03-17T23:48:56Z</time>
      </trkpt>
      <trkpt lat="46.67397" lon="-1.90898">
        <ele>3</ele>
        <time>2018-03-17T23:49:56Z</time>
      </trkpt>
      <trkpt lat="46.674" lon="-1.90901">
        <ele>3</ele>
        <time>2018-03-17T23:50:56Z</time>
      </trkpt>
      <trkpt lat="46.67404" lon="-1.90904">
        <ele>3</ele>
        <time>2018-03-17T23:51:56Z</time>
      </trkpt>
      <trkpt lat="46.67406" lon="-1.90905">
        <ele>3</ele>
        <time>2018-03-17T23:52:56Z</time>
      </trkpt>
      <trkpt lat="46.67409" lon="-1.90906">
        <ele>3</ele>
        <time>2018-03-17T23:53:56Z</time>
      </trkpt>
      <trkpt lat="46.67412" lon="-1.90907">
        <ele>3</ele>
        <time>2018-03-17T23:54:56Z</time>
      </trkpt>
      <trkpt lat="46.67414" lon="-1.90908">
        <ele>3</ele>
        <time>2018-03-17T23:55:56Z</time>
      </trkpt>
      <trkpt lat="46.67417" lon="-1.90909">
        <ele>3</ele>
        <time>2018-03-17T23:56:56Z</time>
      </trkpt>
      <trkpt lat="46.67436" lon="-1.90914">
        <ele>3</ele>
        <time>2018-03-17T23:57:56Z</time>
      </trkpt>
      <trkpt lat="46.67436" lon="-1.90914">
        <ele>3</ele>
        <time>2018-03-17T23:58:56Z</time>
      </trkpt>
      <trkpt lat="46.67438" lon="-1.90914">
        <ele>3</ele>
        <time>2018-03-17T23:59:56Z</time>
      </trkpt>
      <trkpt lat="46.6744" lon="-1.90914">
        <ele>3</ele>
        <time>2018-03-18T00:00:56Z</time>
      </trkpt>
      <trkpt lat="46.67441" lon="-1.90914">
        <ele>3</ele>
        <time>2018-03-18T00:01:56Z</time>
      </trkpt>
      <trkpt lat="46.67443" lon="-1.90915">
        <ele>3</ele>
        <time>2018-03-18T00:02:56Z</time>
      </trkpt>
      <trkpt lat="46.67445" lon="-1.90915">
        <ele>3</ele>
        <time>2018-03-18T00:03:56Z</time>
      </trkpt>
      <trkpt lat="46.67446" lon="-1.90916">
        <ele>3</ele>
        <time>2018-03-18T00:04:56Z</time>
      </trkpt>
      <trkpt lat="46.67448" lon="-1.90917">
        <ele>3</ele>
        <time>2018-03-18T00:05:56Z</time>
      </trkpt>
      <trkpt lat="46.6745" lon="-1.90918">
        <ele>3</ele>
        <time>2018-03-18T00:06:56Z</time>
      </trkpt>
      <trkpt lat="46.67451" lon="-1.9092">
        <ele>3</ele>
        <time>2018-03-18T00:07:56Z</time>
      </trkpt>
      <trkpt lat="46.67452" lon="-1.90922">
        <ele>3</ele>
        <time>2018-03-18T00:08:56Z</time>
      </trkpt>
      <trkpt lat="46.67454" lon="-1.90923">
        <ele>3</ele>
        <time>2018-03-18T00:09:56Z</time>
      </trkpt>
      <trkpt lat="46.67455" lon="-1.90925">
        <ele>4</ele>
        <time>2018-03-18T00:10:56Z</time>
      </trkpt>
      <trkpt lat="46.67456" lon="-1.90927">
        <ele>4</ele>
        <time>2018-03-18T00:11:56Z</time>
      </trkpt>
      <trkpt lat="46.67457" lon="-1.9093">
        <ele>4</ele>
        <time>2018-03-18T00:12:56Z</time>
      </trkpt>
      <trkpt lat="46.67458" lon="-1.90933">
        <ele>4</ele>
        <time>2018-03-18T00:13:56Z</time>
      </trkpt>
      <trkpt lat="46.67458" lon="-1.90936">
        <ele>4</ele>
        <time>2018-03-18T00:14:56Z</time>
      </trkpt>
      <trkpt lat="46.67459" lon="-1.90938">
        <ele>4</ele>
        <time>2018-03-18T00:15:56Z</time>
      </trkpt>
      <trkpt lat="46.67459" lon="-1.90941">
        <ele>4</ele>
        <time>2018-03-18T00:16:56Z</time>
      </trkpt>
      <trkpt lat="46.67459" lon="-1.90943">
        <ele>4</ele>
        <time>2018-03-18T00:17:56Z</time>
      </trkpt>
      <trkpt lat="46.67459" lon="-1.90946">
        <ele>4</ele>
        <time>2018-03-18T00:18:56Z</time>
      </trkpt>
      <trkpt lat="46.67459" lon="-1.90948">
        <ele>4</ele>
        <time>2018-03-18T00:19:56Z</time>
      </trkpt>
      <trkpt lat="46.67458" lon="-1.9095">
        <ele>4</ele>
        <time>2018-03-18T00:20:56Z</time>
      </trkpt>
      <trkpt lat="46.67458" lon="-1.90953">
        <ele>4</ele>
        <time>2018-03-18T00:21:56Z</time>
      </trkpt>
      <trkpt lat="46.67457" lon="-1.90955">
        <ele>4</ele>
        <time>2018-03-18T00:22:56Z</time>
      </trkpt>
      <trkpt lat="46.67456" lon="-1.90957">
        <ele>4</ele>
        <time>2018-03-18T00:23:56Z</time>
      </trkpt>
      <trkpt lat="46.67455" lon="-1.9096">
        <ele>4</ele>
        <time>2018-03-18T00:24:56Z</time>
      </trkpt>
      <trkpt lat="46.67455" lon="-1.90961">
        <ele>4</ele>
        <time>2018-03-18T00:25:56Z</time>
      </trkpt>
      <trkpt lat="46.67454" lon="-1.90962">
        <ele>4</ele>
        <time>2018-03-18T00:26:56Z</time>
      </trkpt>
      <trkpt lat="46.67453" lon="-1.90963">
        <ele>4</ele>
        <time>2018-03-18T00:27:56Z</time>
      </trkpt>
      <trkpt lat="46.67453" lon="-1.90964">
        <ele>4</ele>
        <time>2018-03-18T00:28:56Z</time>
      </trkpt>
      <trkpt lat="46.67452" lon="-1.90965">
        <ele>4</ele>
        <time>2018-03-18T00:29:56Z</time>
      </trkpt>
      <trkpt lat="46.67451" lon="-1.90965">
        <ele>4</ele>
        <time>2018-03-18T00:30:56Z</time>
      </trkpt>
      <trkpt lat="46.67451" lon="-1.90966">
        <ele>4</ele>
        <time>2018-03-18T00:31:56Z</time>
      </trkpt>
      <trkpt lat="46.6745" lon="-1.90967">
        <ele>4</ele>
        <time>2018-03-18T00:32:56Z</time>
      </trkpt>
      <trkpt lat="46.6745" lon="-1.90984">
        <ele>4</ele>
        <time>2018-03-18T00:33:56Z</time>
      </trkpt>
      <trkpt lat="46.67451" lon="-1.90994">
        <ele>4</ele>
        <time>2018-03-18T00:34:56Z</time>
      </trkpt>
      <trkpt lat="46.67454" lon="-1.91004">
        <ele>4</ele>
        <time>2018-03-18T00:35:56Z</time>
      </trkpt>
      <trkpt lat="46.67456" lon="-1.9101">
        <ele>4</ele>
        <time>2018-03-18T00:36:56Z</time>
      </trkpt>
      <trkpt lat="46.67469" lon="-1.9103">
        <ele>4</ele>
        <time>2018-03-18T00:37:56Z</time>
      </trkpt>
      <trkpt lat="46.6749" lon="-1.9106">
        <ele>5</ele>
        <time>2018-03-18T00:38:56Z</time>
      </trkpt>
      <trkpt lat="46.67518" lon="-1.91097">
        <ele>5</ele>
        <time>2018-03-18T00:39:56Z</time>
      </trkpt>
      <trkpt lat="46.67546" lon="-1.91137">
        <ele>5</ele>
        <time>2018-03-18T00:40:56Z</time>
      </trkpt>
      <trkpt lat="46.67578" lon="-1.91181">
        <ele>6</ele>
        <time>2018-03-18T00:41:56Z</time>
      </trkpt>
      <trkpt lat="46.67587" lon="-1.91194">
        <ele>6</ele>
        <time>2018-03-18T00:42:56Z</time>
      </trkpt>
      <trkpt lat="46.67612" lon="-1.91228">
        <ele>5</ele>
        <time>2018-03-18T00:43:56Z</time>
      </trkpt>
      <trkpt lat="46.67634" lon="-1.91261">
        <ele>5</ele>
        <time>2018-03-18T00:44:56Z</time>
      </trkpt>
      <trkpt lat="46.67662" lon="-1.91298">
        <ele>5</ele>
        <time>2018-03-18T00:45:56Z</time>
      </trkpt>
      <trkpt lat="46.67704" lon="-1.91358">
        <ele>5</ele>
        <time>2018-03-18T00:46:56Z</time>
      </trkpt>
      <trkpt lat="46.67743" lon="-1.91414">
        <ele>6</ele>
        <time>2018-03-18T00:47:56Z</time>
      </trkpt>
      <trkpt lat="46.67747" lon="-1.9142">
        <ele>6</ele>
        <time>2018-03-18T00:48:56Z</time>
      </trkpt>
      <trkpt lat="46.67783" lon="-1.91471">
        <ele>6</ele>
        <time>2018-03-18T00:49:56Z</time>
      </trkpt>
      <trkpt lat="46.67831" lon="-1.91538">
        <ele>6</ele>
        <time>2018-03-18T00:50:56Z</time>
      </trkpt>
      <trkpt lat="46.6784" lon="-1.91552">
        <ele>6</ele>
        <time>2018-03-18T00:51:56Z</time>
      </trkpt>
      <trkpt lat="46.67864" lon="-1.91583">
        <ele>6</ele>
        <time>2018-03-18T00:52:56Z</time>
      </trkpt>
      <trkpt lat="46.67883" lon="-1.91611">
        <ele>6</ele>
        <time>2018-03-18T00:53:56Z</time>
      </trkpt>
      <trkpt lat="46.67898" lon="-1.91633">
        <ele>7</ele>
        <time>2018-03-18T00:54:56Z</time>
      </trkpt>
      <trkpt lat="46.67928" lon="-1.91675">
        <ele>7</ele>
        <time>2018-03-18T00:55:56Z</time>
      </trkpt>
      <trkpt lat="46.67947" lon="-1.91703">
        <ele>7</ele>
        <time>2018-03-18T00:56:56Z</time>
      </trkpt>
      <trkpt lat="46.67972" lon="-1.91737">
        <ele>7</ele>
        <time>2018-03-18T00:57:56Z</time>
      </trkpt>
      <trkpt lat="46.68" lon="-1.91776">
        <ele>8</ele>
        <time>2018-03-18T00:58:56Z</time>
      </trkpt>
      <trkpt lat="46.68022" lon="-1.91808">
        <ele>8</ele>
        <time>2018-03-18T00:59:56Z</time>
      </trkpt>
      <trkpt lat="46.68033" lon="-1.91825">
        <ele>8</ele>
        <time>2018-03-18T01:00:56Z</time>
      </trkpt>
      <trkpt lat="46.68041" lon="-1.91836">
        <ele>8</ele>
        <time>2018-03-18T01:01:56Z</time>
      </trkpt>
      <trkpt lat="46.68057" lon="-1.91858">
        <ele>8</ele>
        <time>2018-03-18T01:02:56Z</time>
      </trkpt>
      <trkpt lat="46.68083" lon="-1.91897">
        <ele>8</ele>
        <time>2018-03-18T01:03:56Z</time>
      </trkpt>
      <trkpt lat="46.68115" lon="-1.91941">
        <ele>8</ele>
        <time>2018-03-18T01:04:56Z</time>
      </trkpt>
      <trkpt lat="46.68158" lon="-1.92003">
        <ele>8</ele>
        <time>2018-03-18T01:05:56Z</time>
      </trkpt>
      <trkpt lat="46.68174" lon="-1.92025">
        <ele>8</ele>
        <time>2018-03-18T01:06:56Z</time>
      </trkpt>
      <trkpt lat="46.68198" lon="-1.92057">
        <ele>7</ele>
        <time>2018-03-18T01:07:56Z</time>
      </trkpt>
      <trkpt lat="46.68208" lon="-1.92073">
        <ele>7</ele>
        <time>2018-03-18T01:08:56Z</time>
      </trkpt>
      <trkpt lat="46.6822" lon="-1.92091">
        <ele>7</ele>
        <time>2018-03-18T01:09:56Z</time>
      </trkpt>
      <trkpt lat="46.68224" lon="-1.92097">
        <ele>7</ele>
        <time>2018-03-18T01:10:56Z</time>
      </trkpt>
      <trkpt lat="46.68224" lon="-1.92098">
        <ele>7</ele>
        <time>2018-03-18T01:11:56Z</time>
      </trkpt>
      <trkpt lat="46.68227" lon="-1.92103">
        <ele>7</ele>
        <time>2018-03-18T01:12:56Z</time>
      </trkpt>
      <trkpt lat="46.6823" lon="-1.92107">
        <ele>7</ele>
        <time>2018-03-18T01:13:56Z</time>
      </trkpt>
      <trkpt lat="46.68255" lon="-1.9214">
        <ele>7</ele>
        <time>2018-03-18T01:14:56Z</time>
      </trkpt>
      <trkpt lat="46.68267" lon="-1.92157">
        <ele>7</ele>
        <time>2018-03-18T01:15:56Z</time>
      </trkpt>
      <trkpt lat="46.68277" lon="-1.92172">
        <ele>8</ele>
        <time>2018-03-18T01:16:56Z</time>
      </trkpt>
      <trkpt lat="46.68286" lon="-1.92186">
        <ele>8</ele>
        <time>2018-03-18T01:17:56Z</time>
      </trkpt>
      <trkpt lat="46.68291" lon="-1.92193">
        <ele>8</ele>
        <time>2018-03-18T01:18:56Z</time>
      </trkpt>
      <trkpt lat="46.68306" lon="-1.92219">
        <ele>9</ele>
        <time>2018-03-18T01:19:56Z</time>
      </trkpt>
      <trkpt lat="46.6832" lon="-1.92245">
        <ele>9</ele>
        <time>2018-03-18T01:20:56Z</time>
      </trkpt>
      <trkpt lat="46.6833" lon="-1.92261">
        <ele>9</ele>
        <time>2018-03-18T01:21:56Z</time>
      </trkpt>
      <trkpt lat="46.68355" lon="-1.92305">
        <ele>10</ele>
        <time>2018-03-18T01:22:56Z</time>
      </trkpt>
      <trkpt lat="46.6837" lon="-1.92334">
        <ele>10</ele>
        <time>2018-03-18T01:23:56Z</time>
      </trkpt>
      <trkpt lat="46.68377" lon="-1.92346">
        <ele>10</ele>
        <time>2018-03-18T01:24:56Z</time>
      </trkpt>
      <trkpt lat="46.6838" lon="-1.92351">
        <ele>10</ele>
        <time>2018-03-18T01:25:56Z</time>
      </trkpt>
      <trkpt lat="46.68389" lon="-1.92363">
        <ele>10</ele>
        <time>2018-03-18T01:26:56Z</time>
      </trkpt>
      <trkpt lat="46.68403" lon="-1.9238">
        <ele>10</ele>
        <time>2018-03-18T01:27:56Z</time>
      </trkpt>
      <trkpt lat="46.68413" lon="-1.92388">
        <ele>10</ele>
        <time>2018-03-18T01:28:56Z</time>
      </trkpt>
      <trkpt lat="46.68426" lon="-1.92396">
        <ele>10</ele>
        <time>2018-03-18T01:29:56Z</time>
      </trkpt>
      <trkpt lat="46.68435" lon="-1.924">
        <ele>10</ele>
        <time>2018-03-18T01:30:56Z</time>
      </trkpt>
      <trkpt lat="46.68447" lon="-1.92403">
        <ele>10</ele>
        <time>2018-03-18T01:31:56Z</time>
      </trkpt>
      <trkpt lat="46.68454" lon="-1.92404">
        <ele>10</ele>
        <time>2018-03-18T01:32:56Z</time>
      </trkpt>
      <trkpt lat="46.68463" lon="-1.92406">
        <ele>10</ele>
        <time>2018-03-18T01:33:56Z</time>
      </trkpt>
      <trkpt lat="46.68472" lon="-1.92408">
        <ele>10</ele>
        <time>2018-03-18T01:34:56Z</time>
      </trkpt>
      <trkpt lat="46.68481" lon="-1.92411">
        <ele>10</ele>
        <time>2018-03-18T01:35:56Z</time>
      </trkpt>
      <trkpt lat="46.68487" lon="-1.92415">
        <ele>10</ele>
        <time>2018-03-18T01:36:56Z</time>
      </trkpt>
      <trkpt lat="46.68495" lon="-1.9242">
        <ele>10</ele>
        <time>2018-03-18T01:37:56Z</time>
      </trkpt>
      <trkpt lat="46.68505" lon="-1.92428">
        <ele>10</ele>
        <time>2018-03-18T01:38:56Z</time>
      </trkpt>
      <trkpt lat="46.68514" lon="-1.92436">
        <ele>10</ele>
        <time>2018-03-18T01:39:56Z</time>
      </trkpt>
      <trkpt lat="46.68528" lon="-1.9245">
        <ele>10</ele>
        <time>2018-03-18T01:40:56Z</time>
      </trkpt>
      <trkpt lat="46.68532" lon="-1.92456">
        <ele>10</ele>
        <time>2018-03-18T01:41:56Z</time>
      </trkpt>
      <trkpt lat="46.68538" lon="-1.92464">
        <ele>10</ele>
        <time>2018-03-18T01:42:56Z</time>
      </trkpt>
      <trkpt lat="46.68549" lon="-1.92476">
        <ele>10</ele>
        <time>2018-03-18T01:43:56Z</time>
      </trkpt>
      <trkpt lat="46.68567" lon="-1.925">
        <ele>10</ele>
        <time>2018-03-18T01:44:56Z</time>
      </trkpt>
      <trkpt lat="46.68589" lon="-1.92528">
        <ele>10</ele>
        <time>2018-03-18T01:45:56Z</time>
      </trkpt>
      <trkpt lat="46.68594" lon="-1.92534">
        <ele>10</ele>
        <time>2018-03-18T01:46:56Z</time>
      </trkpt>
      <trkpt lat="46.68605" lon="-1.92548">
        <ele>10</ele>
        <time>2018-03-18T01:47:56Z</time>
      </trkpt>
      <trkpt lat="46.68616" lon="-1.92563">
        <ele>10</ele>
        <time>2018-03-18T01:48:56Z</time>
      </trkpt>
      <trkpt lat="46.68625" lon="-1.92575">
        <ele>10</ele>
        <time>2018-03-18T01:49:56Z</time>
      </trkpt>
      <trkpt lat="46.68629" lon="-1.9258">
        <ele>10</ele>
        <time>2018-03-18T01:50:56Z</time>
      </trkpt>
      <trkpt lat="46.68634" lon="-1.92586">
        <ele>10</ele>
        <time>2018-03-18T01:51:56Z</time>
      </trkpt>
      <trkpt lat="46.68635" lon="-1.92588">
        <ele>10</ele>
        <time>2018-03-18T01:52:56Z</time>
      </trkpt>
      <trkpt lat="46.68644" lon="-1.92596">
        <ele>10</ele>
        <time>2018-03-18T01:53:56Z</time>
      </trkpt>
      <trkpt lat="46.68651" lon="-1.92602">
        <ele>10</ele>
        <time>2018-03-18T01:54:56Z</time>
      </trkpt>
      <trkpt lat="46.68669" lon="-1.92615">
        <ele>10</ele>
        <time>2018-03-18T01:55:56Z</time>
      </trkpt>
      <trkpt lat="46.68707" lon="-1.92638">
        <ele>9</ele>
        <time>2018-03-18T01:56:56Z</time>
      </trkpt>
      <trkpt lat="46.68732" lon="-1.92654">
        <ele>8</ele>
        <time>2018-03-18T01:57:56Z</time>
      </trkpt>
      <trkpt lat="46.68733" lon="-1.92654">
        <ele>8</ele>
        <time>2018-03-18T01:58:56Z</time>
      </trkpt>
      <trkpt lat="46.68759" lon="-1.92668">
        <ele>8</ele>
        <time>2018-03-18T01:59:56Z</time>
      </trkpt>
      <trkpt lat="46.6876" lon="-1.92669">
        <ele>8</ele>
        <time>2018-03-18T02:00:56Z</time>
      </trkpt>
      <trkpt lat="46.68776" lon="-1.92676">
        <ele>8</ele>
        <time>2018-03-18T02:01:56Z</time>
      </trkpt>
      <trkpt lat="46.68787" lon="-1.9268">
        <ele>8</ele>
        <time>2018-03-18T02:02:56Z</time>
      </trkpt>
      <trkpt lat="46.68804" lon="-1.92685">
        <ele>7</ele>
        <time>2018-03-18T02:03:56Z</time>
      </trkpt>
      <trkpt lat="46.68817" lon="-1.9269">
        <ele>7</ele>
        <time>2018-03-18T02:04:56Z</time>
      </trkpt>
      <trkpt lat="46.68817" lon="-1.92689">
        <ele>7</ele>
        <time>2018-03-18T02:05:56Z</time>
      </trkpt>
      <trkpt lat="46.68818" lon="-1.92689">
        <ele>7</ele>
        <time>2018-03-18T02:06:56Z</time>
      </trkpt>
      <trkpt lat="46.68818" lon="-1.92688">
        <ele>7</ele>
        <time>2018-03-18T02:07:56Z</time>
      </trkpt>
      <trkpt lat="46.68818" lon="-1.92687">
        <ele>7</ele>
        <time>2018-03-18T02:08:56Z</time>
      </trkpt>
      <trkpt lat="46.68819" lon="-1.92687">
        <ele>7</ele>
        <time>2018-03-18T02:09:56Z</time>
      </trkpt>
      <trkpt lat="46.68819" lon="-1.92686">
        <ele>7</ele>
        <time>2018-03-18T02:10:56Z</time>
      </trkpt>
      <trkpt lat="46.6882" lon="-1.92686">
        <ele>7</ele>
        <time>2018-03-18T02:11:56Z</time>
      </trkpt>
      <trkpt lat="46.6882" lon="-1.92685">
        <ele>7</ele>
        <time>2018-03-18T02:12:56Z</time>
      </trkpt>
      <trkpt lat="46.68821" lon="-1.92685">
        <ele>7</ele>
        <time>2018-03-18T02:13:56Z</time>
      </trkpt>
      <trkpt lat="46.68822" lon="-1.92685">
        <ele>7</ele>
        <time>2018-03-18T02:14:56Z</time>
      </trkpt>
      <trkpt lat="46.68823" lon="-1.92685">
        <ele>7</ele>
        <time>2018-03-18T02:15:56Z</time>
      </trkpt>
      <trkpt lat="46.68824" lon="-1.92685">
        <ele>7</ele>
        <time>2018-03-18T02:16:56Z</time>
      </trkpt>
      <trkpt lat="46.68825" lon="-1.92685">
        <ele>7</ele>
        <time>2018-03-18T02:17:56Z</time>
      </trkpt>
      <trkpt lat="46.68826" lon="-1.92686">
        <ele>7</ele>
        <time>2018-03-18T02:18:56Z</time>
      </trkpt>
      <trkpt lat="46.68827" lon="-1.92686">
        <ele>7</ele>
        <time>2018-03-18T02:19:56Z</time>
      </trkpt>
      <trkpt lat="46.68827" lon="-1.92687">
        <ele>7</ele>
        <time>2018-03-18T02:20:56Z</time>
      </trkpt>
      <trkpt lat="46.68827" lon="-1.92688">
        <ele>7</ele>
        <time>2018-03-18T02:21:56Z</time>
      </trkpt>
      <trkpt lat="46.68828" lon="-1.92688">
        <ele>7</ele>
        <time>2018-03-18T02:22:56Z</time>
      </trkpt>
      <trkpt lat="46.68841" lon="-1.92685">
        <ele>7</ele>
        <time>2018-03-18T02:23:56Z</time>
      </trkpt>
      <trkpt lat="46.68841" lon="-1.92685">
        <ele>7</ele>
        <time>2018-03-18T02:24:56Z</time>
      </trkpt>
      <trkpt lat="46.68841" lon="-1.92684">
        <ele>7</ele>
        <time>2018-03-18T02:25:56Z</time>
      </trkpt>
      <trkpt lat="46.68842" lon="-1.92684">
        <ele>7</ele>
        <time>2018-03-18T02:26:56Z</time>
      </trkpt>
      <trkpt lat="46.68842" lon="-1.92683">
        <ele>7</ele>
        <time>2018-03-18T02:27:56Z</time>
      </trkpt>
      <trkpt lat="46.68843" lon="-1.92682">
        <ele>7</ele>
        <time>2018-03-18T02:28:56Z</time>
      </trkpt>
      <trkpt lat="46.68844" lon="-1.92682">
        <ele>7</ele>
        <time>2018-03-18T02:29:56Z</time>
      </trkpt>
      <trkpt lat="46.68844" lon="-1.92681">
        <ele>7</ele>
        <time>2018-03-18T02:30:56Z</time>
      </trkpt>
      <trkpt lat="46.68845" lon="-1.92681">
        <ele>6</ele>
        <time>2018-03-18T02:31:56Z</time>
      </trkpt>
      <trkpt lat="46.68846" lon="-1.92681">
        <ele>6</ele>
        <time>2018-03-18T02:32:56Z</time>
      </trkpt>
      <trkpt lat="46.68847" lon="-1.92681">
        <ele>6</ele>
        <time>2018-03-18T02:33:56Z</time>
      </trkpt>
      <trkpt lat="46.68848" lon="-1.92681">
        <ele>6</ele>
        <time>2018-03-18T02:34:56Z</time>
      </trkpt>
      <trkpt lat="46.68849" lon="-1.92681">
        <ele>6</ele>
        <time>2018-03-18T02:35:56Z</time>
      </trkpt>
      <trkpt lat="46.68849" lon="-1.92682">
        <ele>6</ele>
        <time>2018-03-18T02:36:56Z</time>
      </trkpt>
      <trkpt lat="46.6885" lon="-1.92682">
        <ele>6</ele>
        <time>2018-03-18T02:37:56Z</time>
      </trkpt>
      <trkpt lat="46.6885" lon="-1.92683">
        <ele>6</ele>
        <time>2018-03-18T02:38:56Z</time>
      </trkpt>
      <trkpt lat="46.68851" lon="-1.92683">
        <ele>6</ele>
        <time>2018-03-18T02:39:56Z</time>
      </trkpt>
      <trkpt lat="46.68851" lon="-1.92684">
        <ele>6</ele>
        <time>2018-03-18T02:40:56Z</time>
      </trkpt>
      <trkpt lat="46.68852" lon="-1.92684">
        <ele>6</ele>
        <time>2018-03-18T02:41:56Z</time>
      </trkpt>
      <trkpt lat="46.68852" lon="-1.92685">
        <ele>6</ele>
        <time>2018-03-18T02:42:56Z</time>
      </trkpt>
      <trkpt lat="46.68852" lon="-1.92686">
        <ele>6</ele>
        <time>2018-03-18T02:43:56Z</time>
      </trkpt>
      <trkpt lat="46.68853" lon="-1.92687">
        <ele>6</ele>
        <time>2018-03-18T02:44:56Z</time>
      </trkpt>
      <trkpt lat="46.68853" lon="-1.92688">
        <ele>6</ele>
        <time>2018-03-18T02:45:56Z</time>
      </trkpt>
      <trkpt lat="46.68853" lon="-1.92689">
        <ele>6</ele>
        <time>2018-03-18T02:46:56Z</time>
      </trkpt>
      <trkpt lat="46.68853" lon="-1.9269">
        <ele>6</ele>
        <time>2018-03-18T02:47:56Z</time>
      </trkpt>
      <trkpt lat="46.68853" lon="-1.92691">
        <ele>6</ele>
        <time>2018-03-18T02:48:56Z</time>
      </trkpt>
      <trkpt lat="46.68853" lon="-1.92692">
        <ele>6</ele>
        <time>2018-03-18T02:49:56Z</time>
      </trkpt>
      <trkpt lat="46.68853" lon="-1.92693">
        <ele>6</ele>
        <time>2018-03-18T02:50:56Z</time>
      </trkpt>
      <trkpt lat="46.68853" lon="-1.92694">
        <ele>6</ele>
        <time>2018-03-18T02:51:56Z</time>
      </trkpt>
      <trkpt lat="46.68853" lon="-1.92695">
        <ele>6</ele>
        <time>2018-03-18T02:52:56Z</time>
      </trkpt>
      <trkpt lat="46.68852" lon="-1.92695">
        <ele>6</ele>
        <time>2018-03-18T02:53:56Z</time>
      </trkpt>
      <trkpt lat="46.68852" lon="-1.92696">
        <ele>6</ele>
        <time>2018-03-18T02:54:56Z</time>
      </trkpt>
      <trkpt lat="46.68852" lon="-1.92697">
        <ele>6</ele>
        <time>2018-03-18T02:55:56Z</time>
      </trkpt>
      <trkpt lat="46.68851" lon="-1.92697">
        <ele>6</ele>
        <time>2018-03-18T02:56:56Z</time>
      </trkpt>
      <trkpt lat="46.68851" lon="-1.92698">
        <ele>6</ele>
        <time>2018-03-18T02:57:56Z</time>
      </trkpt>
      <trkpt lat="46.68859" lon="-1.92704">
        <ele>6</ele>
        <time>2018-03-18T02:58:56Z</time>
      </trkpt>
      <trkpt lat="46.6886" lon="-1.92704">
        <ele>6</ele>
        <time>2018-03-18T02:59:56Z</time>
      </trkpt>
      <trkpt lat="46.68869" lon="-1.92706">
        <ele>5</ele>
        <time>2018-03-18T03:00:56Z</time>
      </trkpt>
      <trkpt lat="46.68881" lon="-1.92711">
        <ele>5</ele>
        <time>2018-03-18T03:01:56Z</time>
      </trkpt>
      <trkpt lat="46.68897" lon="-1.92716">
        <ele>4</ele>
        <time>2018-03-18T03:02:56Z</time>
      </trkpt>
      <trkpt lat="46.68913" lon="-1.92723">
        <ele>4</ele>
        <time>2018-03-18T03:03:56Z</time>
      </trkpt>
      <trkpt lat="46.68926" lon="-1.9273">
        <ele>4</ele>
        <time>2018-03-18T03:04:56Z</time>
      </trkpt>
      <trkpt lat="46.68936" lon="-1.92737">
        <ele>4</ele>
        <time>2018-03-18T03:05:56Z</time>
      </trkpt>
      <trkpt lat="46.68947" lon="-1.92747">
        <ele>4</ele>
        <time>2018-03-18T03:06:56Z</time>
      </trkpt>
      <trkpt lat="46.68955" lon="-1.92755">
        <ele>4</ele>
        <time>2018-03-18T03:07:56Z</time>
      </trkpt>
      <trkpt lat="46.68965" lon="-1.92769">
        <ele>4</ele>
        <time>2018-03-18T03:08:56Z</time>
      </trkpt>
      <trkpt lat="46.68969" lon="-1.92774">
        <ele>4</ele>
        <time>2018-03-18T03:09:56Z</time>
      </trkpt>
      <trkpt lat="46.68977" lon="-1.92784">
        <ele>4</ele>
        <time>2018-03-18T03:10:56Z</time>
      </trkpt>
      <trkpt lat="46.68992" lon="-1.92805">
        <ele>4</ele>
        <time>2018-03-18T03:11:56Z</time>
      </trkpt>
      <trkpt lat="46.68993" lon="-1.92806">
        <ele>4</ele>
        <time>2018-03-18T03:12:56Z</time>
      </trkpt>
      <trkpt lat="46.69014" lon="-1.92836">
        <ele>4</ele>
        <time>2018-03-18T03:13:56Z</time>
      </trkpt>
      <trkpt lat="46.69038" lon="-1.92867">
        <ele>4</ele>
        <time>2018-03-18T03:14:56Z</time>
      </trkpt>
      <trkpt lat="46.69055" lon="-1.9289">
        <ele>4</ele>
        <time>2018-03-18T03:15:56Z</time>
      </trkpt>
      <trkpt lat="46.69068" lon="-1.92907">
        <ele>4</ele>
        <time>2018-03-18T03:16:56Z</time>
      </trkpt>
      <trkpt lat="46.69095" lon="-1.92938">
        <ele>4</ele>
        <time>2018-03-18T03:17:56Z</time>
      </trkpt>
      <trkpt lat="46.69107" lon="-1.92948">
        <ele>4</ele>
        <time>2018-03-18T03:18:56Z</time>
      </trkpt>
      <trkpt lat="46.69133" lon="-1.92971">
        <ele>4</ele>
        <time>2018-03-18T03:19:56Z</time>
      </trkpt>
      <trkpt lat="46.69154" lon="-1.92991">
        <ele>4</ele>
        <time>2018-03-18T03:20:56Z</time>
      </trkpt>
      <trkpt lat="46.6917" lon="-1.93005">
        <ele>4</ele>
        <time>2018-03-18T03:21:56Z</time>
      </trkpt>
      <trkpt lat="46.69175" lon="-1.93009">
        <ele>4</ele>
        <time>2018-03-18T03:22:56Z</time>
      </trkpt>
      <trkpt lat="46.69194" lon="-1.93026">
        <ele>5</ele>
        <time>2018-03-18T03:23:56Z</time>
      </trkpt>
      <trkpt lat="46.69217" lon="-1.93046">
        <ele>5</ele>
        <time>2018-03-18T03:24:56Z</time>
      </trkpt>
      <trkpt lat="46.69224" lon="-1.93053">
        <ele>5</ele>
        <time>2018-03-18T03:25:56Z</time>
      </trkpt>
      <trkpt lat="46.69245" lon="-1.93071">
        <ele>5</ele>
        <time>2018-03-18T03:26:56Z</time>
      </trkpt>
      <trkpt lat="46.69255" lon="-1.9308">
        <ele>5</ele>
        <time>2018-03-18T03:27:56Z</time>
      </trkpt>
      <trkpt lat="46.69269" lon="-1.93094">
        <ele>5</ele>
        <time>2018-03-18T03:28:56Z</time>
      </trkpt>
      <trkpt lat="46.69287" lon="-1.9311">
        <ele>5</ele>
        <time>2018-03-18T03:29:56Z</time>
      </trkpt>
      <trkpt lat="46.69303" lon="-1.93127">
        <ele>5</ele>
        <time>2018-03-18T03:30:56Z</time>
      </trkpt>
      <trkpt lat="46.69314" lon="-1.93136">
        <ele>5</ele>
        <time>2018-03-18T03:31:56Z</time>
      </trkpt>
      <trkpt lat="46.69324" lon="-1.93151">
        <ele>5</ele>
        <time>2018-03-18T03:32:56Z</time>
      </trkpt>
      <trkpt lat="46.69333" lon="-1.93166">
        <ele>5</ele>
        <time>2018-03-18T03:33:56Z</time>
      </trkpt>
      <trkpt lat="46.69341" lon="-1.93186">
        <ele>5</ele>
        <time>2018-03-18T03:34:56Z</time>
      </trkpt>
      <trkpt lat="46.69348" lon="-1.93201">
        <ele>5</ele>
        <time>2018-03-18T03:35:56Z</time>
      </trkpt>
      <trkpt lat="46.69351" lon="-1.93212">
        <ele>5</ele>
        <time>2018-03-18T03:36:56Z</time>
      </trkpt>
      <trkpt lat="46.69355" lon="-1.93224">
        <ele>4</ele>
        <time>2018-03-18T03:37:56Z</time>
      </trkpt>
      <trkpt lat="46.6936" lon="-1.93244">
        <ele>4</ele>
        <time>2018-03-18T03:38:56Z</time>
      </trkpt>
      <trkpt lat="46.69365" lon="-1.93261">
        <ele>4</ele>
        <time>2018-03-18T03:39:56Z</time>
      </trkpt>
      <trkpt lat="46.69368" lon="-1.93273">
        <ele>4</ele>
        <time>2018-03-18T03:40:56Z</time>
      </trkpt>
      <trkpt lat="46.69372" lon="-1.93291">
        <ele>4</ele>
        <time>2018-03-18T03:41:56Z</time>
      </trkpt>
      <trkpt lat="46.69374" lon="-1.93299">
        <ele>4</ele>
        <time>2018-03-18T03:42:56Z</time>
      </trkpt>
      <trkpt lat="46.69376" lon="-1.93304">
        <ele>4</ele>
        <time>2018-03-18T03:43:56Z</time>
      </trkpt>
      <trkpt lat="46.69378" lon="-1.93307">
        <ele>4</ele>
        <time>2018-03-18T03:44:56Z</time>
      </trkpt>
      <trkpt lat="46.69379" lon="-1.93309">
        <ele>4</ele>
        <time>2018-03-18T03:45:56Z</time>
      </trkpt>
      <trkpt lat="46.69384" lon="-1.93312">
        <ele>4</ele>
        <time>2018-03-18T03:46:56Z</time>
      </trkpt>
      <trkpt lat="46.69385" lon="-1.93312">
        <ele>4</ele>
        <time>2018-03-18T03:47:56Z</time>
      </trkpt>
      <trkpt lat="46.69386" lon="-1.93311">
        <ele>4</ele>
        <time>2018-03-18T03:48:56Z</time>
      </trkpt>
      <trkpt lat="46.69387" lon="-1.93311">
        <ele>4</ele>
        <time>2018-03-18T03:49:56Z</time>
      </trkpt>
      <trkpt lat="46.69388" lon="-1.93311">
        <ele>4</ele>
        <time>2018-03-18T03:50:56Z</time>
      </trkpt>
      <trkpt lat="46.69389" lon="-1.93311">
        <ele>4</ele>
        <time>2018-03-18T03:51:56Z</time>
      </trkpt>
      <trkpt lat="46.69389" lon="-1.93312">
        <ele>4</ele>
        <time>2018-03-18T03:52:56Z</time>
      </trkpt>
      <trkpt lat="46.6939" lon="-1.93312">
        <ele>4</ele>
        <time>2018-03-18T03:53:56Z</time>
      </trkpt>
      <trkpt lat="46.69391" lon="-1.93312">
        <ele>4</ele>
        <time>2018-03-18T03:54:56Z</time>
      </trkpt>
      <trkpt lat="46.69391" lon="-1.93313">
        <ele>4</ele>
        <time>2018-03-18T03:55:56Z</time>
      </trkpt>
      <trkpt lat="46.69392" lon="-1.93313">
        <ele>4</ele>
        <time>2018-03-18T03:56:56Z</time>
      </trkpt>
      <trkpt lat="46.69393" lon="-1.93314">
        <ele>4</ele>
        <time>2018-03-18T03:57:56Z</time>
      </trkpt>
      <trkpt lat="46.69393" lon="-1.93315">
        <ele>4</ele>
        <time>2018-03-18T03:58:56Z</time>
      </trkpt>
      <trkpt lat="46.69394" lon="-1.93315">
        <ele>4</ele>
        <time>2018-03-18T03:59:56Z</time>
      </trkpt>
      <trkpt lat="46.69394" lon="-1.93316">
        <ele>4</ele>
        <time>2018-03-18T04:00:56Z</time>
      </trkpt>
      <trkpt lat="46.69395" lon="-1.93317">
        <ele>4</ele>
        <time>2018-03-18T04:01:56Z</time>
      </trkpt>
      <trkpt lat="46.69395" lon="-1.93318">
        <ele>4</ele>
        <time>2018-03-18T04:02:56Z</time>
      </trkpt>
      <trkpt lat="46.69396" lon="-1.93319">
        <ele>4</ele>
        <time>2018-03-18T04:03:56Z</time>
      </trkpt>
      <trkpt lat="46.69396" lon="-1.9332">
        <ele>4</ele>
        <time>2018-03-18T04:04:56Z</time>
      </trkpt>
      <trkpt lat="46.69396" lon="-1.93321">
        <ele>4</ele>
        <time>2018-03-18T04:05:56Z</time>
      </trkpt>
      <trkpt lat="46.69406" lon="-1.93325">
        <ele>4</ele>
        <time>2018-03-18T04:06:56Z</time>
      </trkpt>
      <trkpt lat="46.69416" lon="-1.93331">
        <ele>4</ele>
        <time>2018-03-18T04:07:56Z</time>
      </trkpt>
      <trkpt lat="46.69421" lon="-1.93333">
        <ele>4</ele>
        <time>2018-03-18T04:08:56Z</time>
      </trkpt>
      <trkpt lat="46.69426" lon="-1.93334">
        <ele>4</ele>
        <time>2018-03-18T04:09:56Z</time>
      </trkpt>
      <trkpt lat="46.69431" lon="-1.93336">
        <ele>4</ele>
        <time>2018-03-18T04:10:56Z</time>
      </trkpt>
      <trkpt lat="46.6946" lon="-1.93349">
        <ele>4</ele>
        <time>2018-03-18T04:11:56Z</time>
      </trkpt>
      <trkpt lat="46.69498" lon="-1.93366">
        <ele>4</ele>
        <time>2018-03-18T04:12:56Z</time>
      </trkpt>
      <trkpt lat="46.69503" lon="-1.93368">
        <ele>4</ele>
        <time>2018-03-18T04:13:56Z</time>
      </trkpt>
      <trkpt lat="46.69507" lon="-1.9337">
        <ele>4</ele>
        <time>2018-03-18T04:14:56Z</time>
      </trkpt>
      <trkpt lat="46.69518" lon="-1.93374">
        <ele>4</ele>
        <time>2018-03-18T04:15:56Z</time>
      </trkpt>
      <trkpt lat="46.69551" lon="-1.93388">
        <ele>4</ele>
        <time>2018-03-18T04:16:56Z</time>
      </trkpt>
      <trkpt lat="46.69587" lon="-1.93404">
        <ele>4</ele>
        <time>2018-03-18T04:17:56Z</time>
      </trkpt>
      <trkpt lat="46.69607" lon="-1.93416">
        <ele>4</ele>
        <time>2018-03-18T04:18:56Z</time>
      </trkpt>
      <trkpt lat="46.69617" lon="-1.9342">
        <ele>4</ele>
        <time>2018-03-18T04:19:56Z</time>
      </trkpt>
      <trkpt lat="46.69617" lon="-1.9342">
        <ele>4</ele>
        <time>2018-03-18T04:20:56Z</time>
      </trkpt>
      <trkpt lat="46.69617" lon="-1.93419">
        <ele>4</ele>
        <time>2018-03-18T04:21:56Z</time>
      </trkpt>
      <trkpt lat="46.69617" lon="-1.93418">
        <ele>4</ele>
        <time>2018-03-18T04:22:56Z</time>
      </trkpt>
      <trkpt lat="46.69618" lon="-1.93418">
        <ele>4</ele>
        <time>2018-03-18T04:23:56Z</time>
      </trkpt>
      <trkpt lat="46.69618" lon="-1.93417">
        <ele>4</ele>
        <time>2018-03-18T04:24:56Z</time>
      </trkpt>
      <trkpt lat="46.69618" lon="-1.93416">
        <ele>4</ele>
        <time>2018-03-18T04:25:56Z</time>
      </trkpt>
      <trkpt lat="46.69619" lon="-1.93416">
        <ele>4</ele>
        <time>2018-03-18T04:26:56Z</time>
      </trkpt>
      <trkpt lat="46.69619" lon="-1.93415">
        <ele>4</ele>
        <time>2018-03-18T04:27:56Z</time>
      </trkpt>
      <trkpt lat="46.6962" lon="-1.93415">
        <ele>4</ele>
        <time>2018-03-18T04:28:56Z</time>
      </trkpt>
      <trkpt lat="46.6962" lon="-1.93414">
        <ele>5</ele>
        <time>2018-03-18T04:29:56Z</time>
      </trkpt>
      <trkpt lat="46.69621" lon="-1.93414">
        <ele>5</ele>
        <time>2018-03-18T04:30:56Z</time>
      </trkpt>
      <trkpt lat="46.69621" lon="-1.93413">
        <ele>5</ele>
        <time>2018-03-18T04:31:56Z</time>
      </trkpt>
      <trkpt lat="46.69622" lon="-1.93413">
        <ele>5</ele>
        <time>2018-03-18T04:32:56Z</time>
      </trkpt>
      <trkpt lat="46.69623" lon="-1.93412">
        <ele>5</ele>
        <time>2018-03-18T04:33:56Z</time>
      </trkpt>
      <trkpt lat="46.69624" lon="-1.93412">
        <ele>5</ele>
        <time>2018-03-18T04:34:56Z</time>
      </trkpt>
      <trkpt lat="46.69625" lon="-1.93412">
        <ele>5</ele>
        <time>2018-03-18T04:35:56Z</time>
      </trkpt>
      <trkpt lat="46.69626" lon="-1.93412">
        <ele>5</ele>
        <time>2018-03-18T04:36:56Z</time>
      </trkpt>
      <trkpt lat="46.69627" lon="-1.93412">
        <ele>5</ele>
        <time>2018-03-18T04:37:56Z</time>
      </trkpt>
      <trkpt lat="46.69627" lon="-1.93413">
        <ele>5</ele>
        <time>2018-03-18T04:38:56Z</time>
      </trkpt>
      <trkpt lat="46.69628" lon="-1.93413">
        <ele>5</ele>
        <time>2018-03-18T04:39:56Z</time>
      </trkpt>
      <trkpt lat="46.69629" lon="-1.93413">
        <ele>5</ele>
        <time>2018-03-18T04:40:56Z</time>
      </trkpt>
      <trkpt lat="46.69629" lon="-1.93414">
        <ele>5</ele>
        <time>2018-03-18T04:41:56Z</time>
      </trkpt>
      <trkpt lat="46.6963" lon="-1.93414">
        <ele>5</ele>
        <time>2018-03-18T04:42:56Z</time>
      </trkpt>
      <trkpt lat="46.6963" lon="-1.93415">
        <ele>5</ele>
        <time>2018-03-18T04:43:56Z</time>
      </trkpt>
      <trkpt lat="46.69631" lon="-1.93416">
        <ele>5</ele>
        <time>2018-03-18T04:44:56Z</time>
      </trkpt>
      <trkpt lat="46.69631" lon="-1.93417">
        <ele>5</ele>
        <time>2018-03-18T04:45:56Z</time>
      </trkpt>
      <trkpt lat="46.69632" lon="-1.93417">
        <ele>5</ele>
        <time>2018-03-18T04:46:56Z</time>
      </trkpt>
      <trkpt lat="46.69632" lon="-1.93418">
        <ele>5</ele>
        <time>2018-03-18T04:47:56Z</time>
      </trkpt>
      <trkpt lat="46.69632" lon="-1.93419">
        <ele>5</ele>
        <time>2018-03-18T04:48:56Z</time>
      </trkpt>
      <trkpt lat="46.69633" lon="-1.93419">
        <ele>5</ele>
        <time>2018-03-18T04:49:56Z</time>
      </trkpt>
      <trkpt lat="46.69633" lon="-1.9342">
        <ele>5</ele>
        <time>2018-03-18T04:50:56Z</time>
      </trkpt>
      <trkpt lat="46.69633" lon="-1.93421">
        <ele>5</ele>
        <time>2018-03-18T04:51:56Z</time>
      </trkpt>
      <trkpt lat="46.69633" lon="-1.93422">
        <ele>5</ele>
        <time>2018-03-18T04:52:56Z</time>
      </trkpt>
      <trkpt lat="46.69633" lon="-1.93423">
        <ele>5</ele>
        <time>2018-03-18T04:53:56Z</time>
      </trkpt>
      <trkpt lat="46.69685" lon="-1.93435">
        <ele>5</ele>
        <time>2018-03-18T04:54:56Z</time>
      </trkpt>
      <trkpt lat="46.69697" lon="-1.93436">
        <ele>5</ele>
        <time>2018-03-18T04:55:56Z</time>
      </trkpt>
      <trkpt lat="46.69714" lon="-1.93435">
        <ele>5</ele>
        <time>2018-03-18T04:56:56Z</time>
      </trkpt>
      <trkpt lat="46.69721" lon="-1.93434">
        <ele>5</ele>
        <time>2018-03-18T04:57:56Z</time>
      </trkpt>
      <trkpt lat="46.69759" lon="-1.93424">
        <ele>5</ele>
        <time>2018-03-18T04:58:56Z</time>
      </trkpt>
      <trkpt lat="46.69762" lon="-1.93423">
        <ele>5</ele>
        <time>2018-03-18T04:59:56Z</time>
      </trkpt>
      <trkpt lat="46.69772" lon="-1.9342">
        <ele>5</ele>
        <time>2018-03-18T05:00:56Z</time>
      </trkpt>
      <trkpt lat="46.69776" lon="-1.9342">
        <ele>5</ele>
        <time>2018-03-18T05:01:56Z</time>
      </trkpt>
      <trkpt lat="46.69779" lon="-1.9342">
        <ele>5</ele>
        <time>2018-03-18T05:02:56Z</time>
      </trkpt>
      <trkpt lat="46.69785" lon="-1.93422">
        <ele>5</ele>
        <time>2018-03-18T05:03:56Z</time>
      </trkpt>
      <trkpt lat="46.69785" lon="-1.93421">
        <ele>5</ele>
        <time>2018-03-18T05:04:56Z</time>
      </trkpt>
      <trkpt lat="46.69786" lon="-1.93421">
        <ele>5</ele>
        <time>2018-03-18T05:05:56Z</time>
      </trkpt>
      <trkpt lat="46.69786" lon="-1.9342">
        <ele>5</ele>
        <time>2018-03-18T05:06:56Z</time>
      </trkpt>
      <trkpt lat="46.69786" lon="-1.93419">
        <ele>5</ele>
        <time>2018-03-18T05:07:56Z</time>
      </trkpt>
      <trkpt lat="46.69786" lon="-1.93418">
        <ele>5</ele>
        <time>2018-03-18T05:08:56Z</time>
      </trkpt>
      <trkpt lat="46.69787" lon="-1.93418">
        <ele>5</ele>
        <time>2018-03-18T05:09:56Z</time>
      </trkpt>
      <trkpt lat="46.69787" lon="-1.93417">
        <ele>5</ele>
        <time>2018-03-18T05:10:56Z</time>
      </trkpt>
      <trkpt lat="46.69788" lon="-1.93417">
        <ele>5</ele>
        <time>2018-03-18T05:11:56Z</time>
      </trkpt>
      <trkpt lat="46.69789" lon="-1.93417">
        <ele>5</ele>
        <time>2018-03-18T05:12:56Z</time>
      </trkpt>
      <trkpt lat="46.6979" lon="-1.93417">
        <ele>5</ele>
        <time>2018-03-18T05:13:56Z</time>
      </trkpt>
      <trkpt lat="46.69791" lon="-1.93417">
        <ele>5</ele>
        <time>2018-03-18T05:14:56Z</time>
      </trkpt>
      <trkpt lat="46.69791" lon="-1.93418">
        <ele>5</ele>
        <time>2018-03-18T05:15:56Z</time>
      </trkpt>
      <trkpt lat="46.69792" lon="-1.93418">
        <ele>5</ele>
        <time>2018-03-18T05:16:56Z</time>
      </trkpt>
      <trkpt lat="46.69792" lon="-1.93419">
        <ele>5</ele>
        <time>2018-03-18T05:17:56Z</time>
      </trkpt>
      <trkpt lat="46.69792" lon="-1.9342">
        <ele>5</ele>
        <time>2018-03-18T05:18:56Z</time>
      </trkpt>
      <trkpt lat="46.69793" lon="-1.9342">
        <ele>5</ele>
        <time>2018-03-18T05:19:56Z</time>
      </trkpt>
      <trkpt lat="46.69797" lon="-1.93421">
        <ele>5</ele>
        <time>2018-03-18T05:20:56Z</time>
      </trkpt>
      <trkpt lat="46.69798" lon="-1.93421">
        <ele>5</ele>
        <time>2018-03-18T05:21:56Z</time>
      </trkpt>
      <trkpt lat="46.69806" lon="-1.93419">
        <ele>5</ele>
        <time>2018-03-18T05:22:56Z</time>
      </trkpt>
      <trkpt lat="46.69818" lon="-1.93413">
        <ele>5</ele>
        <time>2018-03-18T05:23:56Z</time>
      </trkpt>
    </trkseg>
  </trk>
</gpx>